<?xml version="1.0" encoding="UTF-8"?>
<gpx xmlns="http://www.topografix.com/GPX/1/1" version="1.1" creator="Nokia Sports Tracker" xmlns:xsi="http://www.w3.org/2001/XMLSchema-instance" xsi:schemaLocation="http://www.topografix.com/GPX/1/1 http://www.topografix.com/GPX/1/1/gpx.xsd">
<metadata>
<name>01.03.2010 17:02</name>
<desc>Nordic Walking</desc>
<author><name>Jörg U.</name></author>
<time>2010-03-01T17:02:36.76</time>
</metadata>
<trk>
<name>01.03.2010 17:02</name>
<trkseg>
<trkpt lat="48.941933" lon="8.666748">
<ele>343.5</ele>
<speed>3.6</speed>
<course>220.2</course>
<desc>Speed 3.6 km/h Distance 0.00 km</desc>
<time>2010-03-01T17:02:38.25</time>
<name>1</name>
</trkpt>
<trkpt lat="48.941922" lon="8.666733">
<ele>343.5</ele>
<speed>3.3</speed>
<course>224.3</course>
<desc>Speed 3.3 km/h Distance 0.00 km</desc>
<time>2010-03-01T17:02:38.98</time>
<name>2</name>
</trkpt>
<trkpt lat="48.941915" lon="8.666723">
<ele>343.5</ele>
<speed>3.7</speed>
<course>224.5</course>
<desc>Speed 3.7 km/h Distance 0.00 km</desc>
<time>2010-03-01T17:02:39.98</time>
<name>3</name>
</trkpt>
<trkpt lat="48.941908" lon="8.666713">
<ele>344.0</ele>
<speed>3.4</speed>
<course>218.1</course>
<desc>Speed 3.4 km/h Distance 0.00 km</desc>
<time>2010-03-01T17:02:41.12</time>
<name>4</name>
</trkpt>
<trkpt lat="48.941900" lon="8.666703">
<ele>344.5</ele>
<speed>3.4</speed>
<course>226.4</course>
<desc>Speed 3.4 km/h Distance 0.00 km</desc>
<time>2010-03-01T17:02:42.01</time>
<name>5</name>
</trkpt>
<trkpt lat="48.941892" lon="8.666690">
<ele>345.0</ele>
<speed>3.8</speed>
<course>219.0</course>
<desc>Speed 3.8 km/h Distance 0.01 km</desc>
<time>2010-03-01T17:02:43.01</time>
<name>6</name>
</trkpt>
<trkpt lat="48.941885" lon="8.666682">
<ele>345.0</ele>
<speed>3.7</speed>
<course>220.9</course>
<desc>Speed 3.7 km/h Distance 0.01 km</desc>
<time>2010-03-01T17:02:44.01</time>
<name>7</name>
</trkpt>
<trkpt lat="48.941880" lon="8.666675">
<ele>345.0</ele>
<speed>3.2</speed>
<course>251.3</course>
<desc>Speed 3.2 km/h Distance 0.01 km</desc>
<time>2010-03-01T17:02:45.01</time>
<name>8</name>
</trkpt>
<trkpt lat="48.941877" lon="8.666660">
<ele>345.0</ele>
<speed>3.9</speed>
<course>270.0</course>
<desc>Speed 3.9 km/h Distance 0.01 km</desc>
<time>2010-03-01T17:02:46.01</time>
<name>9</name>
</trkpt>
<trkpt lat="48.941877" lon="8.666657">
<ele>345.0</ele>
<speed>0.8</speed>
<course>307.4</course>
<desc>Speed 0.8 km/h Distance 0.01 km</desc>
<time>2010-03-01T17:02:47.01</time>
<name>10</name>
</trkpt>
<trkpt lat="48.941882" lon="8.666647">
<ele>345.0</ele>
<speed>3.1</speed>
<course>107.1</course>
<desc>Speed 3.1 km/h Distance 0.01 km</desc>
<time>2010-03-01T17:02:48.01</time>
<name>11</name>
</trkpt>
<trkpt lat="48.941880" lon="8.666655">
<ele>345.0</ele>
<speed>2.2</speed>
<course>51.9</course>
<desc>Speed 2.2 km/h Distance 0.01 km</desc>
<time>2010-03-01T17:02:49.01</time>
<name>12</name>
</trkpt>
<trkpt lat="48.941882" lon="8.666658">
<ele>344.5</ele>
<speed>0.8</speed>
<course>51.9</course>
<desc>Speed 0.8 km/h Distance 0.01 km</desc>
<time>2010-03-01T17:02:50.01</time>
<name>13</name>
</trkpt>
<trkpt lat="48.941882" lon="8.666658">
<ele>344.5</ele>
<speed>0.3</speed>
<course>128.1</course>
<desc>Speed 0.3 km/h Distance 0.01 km</desc>
<time>2010-03-01T17:02:51.01</time>
<name>14</name>
</trkpt>
<trkpt lat="48.941880" lon="8.666662">
<ele>344.5</ele>
<speed>1.1</speed>
<course>127.4</course>
<desc>Speed 1.1 km/h Distance 0.01 km</desc>
<time>2010-03-01T17:02:52.01</time>
<name>15</name>
</trkpt>
<trkpt lat="48.941875" lon="8.666672">
<ele>345.0</ele>
<speed>3.5</speed>
<course>146.7</course>
<desc>Speed 3.5 km/h Distance 0.01 km</desc>
<time>2010-03-01T17:02:53.01</time>
<name>16</name>
</trkpt>
<trkpt lat="48.941858" lon="8.666688">
<ele>345.0</ele>
<speed>7.9</speed>
<course>201.5</course>
<desc>Speed 7.9 km/h Distance 0.01 km</desc>
<time>2010-03-01T17:02:54.01</time>
<name>17</name>
</trkpt>
<trkpt lat="48.941850" lon="8.666683">
<ele>345.5</ele>
<speed>2.8</speed>
<course>213.2</course>
<desc>Speed 2.8 km/h Distance 0.02 km</desc>
<time>2010-03-01T17:02:55.01</time>
<name>18</name>
</trkpt>
<trkpt lat="48.941843" lon="8.666677">
<ele>346.0</ele>
<speed>2.6</speed>
<course>204.8</course>
<desc>Speed 2.6 km/h Distance 0.02 km</desc>
<time>2010-03-01T17:02:56.01</time>
<name>19</name>
</trkpt>
<trkpt lat="48.941837" lon="8.666672">
<ele>346.0</ele>
<speed>3.1</speed>
<course>218.1</course>
<desc>Speed 3.1 km/h Distance 0.02 km</desc>
<time>2010-03-01T17:02:57.01</time>
<name>20</name>
</trkpt>
<trkpt lat="48.941828" lon="8.666662">
<ele>346.0</ele>
<speed>3.7</speed>
<course>224.5</course>
<desc>Speed 3.7 km/h Distance 0.02 km</desc>
<time>2010-03-01T17:02:58.01</time>
<name>21</name>
</trkpt>
<trkpt lat="48.941822" lon="8.666652">
<ele>346.0</ele>
<speed>3.7</speed>
<course>213.0</course>
<desc>Speed 3.7 km/h Distance 0.02 km</desc>
<time>2010-03-01T17:02:59.01</time>
<name>22</name>
</trkpt>
<trkpt lat="48.941812" lon="8.666642">
<ele>346.0</ele>
<speed>4.2</speed>
<course>213.2</course>
<desc>Speed 4.2 km/h Distance 0.02 km</desc>
<time>2010-03-01T17:03:00.01</time>
<name>23</name>
</trkpt>
<trkpt lat="48.941803" lon="8.666633">
<ele>346.0</ele>
<speed>4.0</speed>
<course>219.4</course>
<desc>Speed 4.0 km/h Distance 0.02 km</desc>
<time>2010-03-01T17:03:01.01</time>
<name>24</name>
</trkpt>
<trkpt lat="48.941797" lon="8.666625">
<ele>346.0</ele>
<speed>3.5</speed>
<course>232.8</course>
<desc>Speed 3.5 km/h Distance 0.02 km</desc>
<time>2010-03-01T17:03:02.01</time>
<name>25</name>
</trkpt>
<trkpt lat="48.941792" lon="8.666615">
<ele>346.0</ele>
<speed>3.5</speed>
<course>222.5</course>
<desc>Speed 3.5 km/h Distance 0.02 km</desc>
<time>2010-03-01T17:03:03.01</time>
<name>26</name>
</trkpt>
<trkpt lat="48.941783" lon="8.666603">
<ele>346.0</ele>
<speed>4.3</speed>
<course>203.8</course>
<desc>Speed 4.3 km/h Distance 0.03 km</desc>
<time>2010-03-01T17:03:04.01</time>
<name>27</name>
</trkpt>
<trkpt lat="48.941773" lon="8.666597">
<ele>346.5</ele>
<speed>4.1</speed>
<course>207.9</course>
<desc>Speed 4.1 km/h Distance 0.03 km</desc>
<time>2010-03-01T17:03:05.01</time>
<name>28</name>
</trkpt>
<trkpt lat="48.941765" lon="8.666590">
<ele>346.5</ele>
<speed>3.7</speed>
<course>207.5</course>
<desc>Speed 3.7 km/h Distance 0.03 km</desc>
<time>2010-03-01T17:03:06.01</time>
<name>29</name>
</trkpt>
<trkpt lat="48.941757" lon="8.666583">
<ele>346.5</ele>
<speed>3.5</speed>
<course>207.5</course>
<desc>Speed 3.5 km/h Distance 0.03 km</desc>
<time>2010-03-01T17:03:07.01</time>
<name>30</name>
</trkpt>
<trkpt lat="48.941748" lon="8.666577">
<ele>346.5</ele>
<speed>3.7</speed>
<course>198.2</course>
<desc>Speed 3.7 km/h Distance 0.03 km</desc>
<time>2010-03-01T17:03:08.01</time>
<name>31</name>
</trkpt>
<trkpt lat="48.941738" lon="8.666572">
<ele>346.5</ele>
<speed>3.9</speed>
<course>185.3</course>
<desc>Speed 3.9 km/h Distance 0.03 km</desc>
<time>2010-03-01T17:03:09.01</time>
<name>32</name>
</trkpt>
<trkpt lat="48.941725" lon="8.666570">
<ele>346.5</ele>
<speed>5.0</speed>
<course>203.8</course>
<desc>Speed 5.0 km/h Distance 0.03 km</desc>
<time>2010-03-01T17:03:10.01</time>
<name>33</name>
</trkpt>
<trkpt lat="48.941715" lon="8.666563">
<ele>346.5</ele>
<speed>4.5</speed>
<course>291.7</course>
<desc>Speed 4.5 km/h Distance 0.03 km</desc>
<time>2010-03-01T17:03:11.01</time>
<name>34</name>
</trkpt>
<trkpt lat="48.941725" lon="8.666525">
<ele>347.0</ele>
<speed>11.3</speed>
<course>169.8</course>
<desc>Speed 11.3 km/h Distance 0.04 km</desc>
<time>2010-03-01T17:03:12.01</time>
<name>35</name>
</trkpt>
<trkpt lat="48.941707" lon="8.666530">
<ele>347.0</ele>
<speed>7.0</speed>
<course>229.1</course>
<desc>Speed 7.0 km/h Distance 0.04 km</desc>
<time>2010-03-01T17:03:13.01</time>
<name>36</name>
</trkpt>
<trkpt lat="48.941700" lon="8.666518">
<ele>347.0</ele>
<speed>4.2</speed>
<course>237.1</course>
<desc>Speed 4.2 km/h Distance 0.04 km</desc>
<time>2010-03-01T17:03:14.01</time>
<name>37</name>
</trkpt>
<trkpt lat="48.941695" lon="8.666507">
<ele>347.0</ele>
<speed>3.7</speed>
<course>206.4</course>
<desc>Speed 3.7 km/h Distance 0.04 km</desc>
<time>2010-03-01T17:03:15.01</time>
<name>38</name>
</trkpt>
<trkpt lat="48.941688" lon="8.666502">
<ele>347.0</ele>
<speed>2.6</speed>
<course>224.5</course>
<desc>Speed 2.6 km/h Distance 0.04 km</desc>
<time>2010-03-01T17:03:16.01</time>
<name>39</name>
</trkpt>
<trkpt lat="48.941682" lon="8.666492">
<ele>347.0</ele>
<speed>3.8</speed>
<course>197.6</course>
<desc>Speed 3.8 km/h Distance 0.04 km</desc>
<time>2010-03-01T17:03:17.01</time>
<name>40</name>
</trkpt>
<trkpt lat="48.941672" lon="8.666487">
<ele>347.0</ele>
<speed>4.3</speed>
<course>228.9</course>
<desc>Speed 4.3 km/h Distance 0.04 km</desc>
<time>2010-03-01T17:03:18.01</time>
<name>41</name>
</trkpt>
<trkpt lat="48.941665" lon="8.666475">
<ele>347.0</ele>
<speed>4.0</speed>
<course>206.4</course>
<desc>Speed 4.0 km/h Distance 0.04 km</desc>
<time>2010-03-01T17:03:19.01</time>
<name>42</name>
</trkpt>
<trkpt lat="48.941658" lon="8.666470">
<ele>347.0</ele>
<speed>2.7</speed>
<course>213.7</course>
<desc>Speed 2.7 km/h Distance 0.05 km</desc>
<time>2010-03-01T17:03:20.01</time>
<name>43</name>
</trkpt>
<trkpt lat="48.941652" lon="8.666463">
<ele>347.0</ele>
<speed>3.1</speed>
<course>218.4</course>
<desc>Speed 3.1 km/h Distance 0.05 km</desc>
<time>2010-03-01T17:03:21.01</time>
<name>44</name>
</trkpt>
<trkpt lat="48.941643" lon="8.666453">
<ele>347.0</ele>
<speed>4.1</speed>
<course>226.5</course>
<desc>Speed 4.1 km/h Distance 0.05 km</desc>
<time>2010-03-01T17:03:22.01</time>
<name>45</name>
</trkpt>
<trkpt lat="48.941635" lon="8.666440">
<ele>347.0</ele>
<speed>4.3</speed>
<course>229.1</course>
<desc>Speed 4.3 km/h Distance 0.05 km</desc>
<time>2010-03-01T17:03:23.01</time>
<name>46</name>
</trkpt>
<trkpt lat="48.941628" lon="8.666428">
<ele>347.0</ele>
<speed>4.2</speed>
<course>243.1</course>
<desc>Speed 4.2 km/h Distance 0.05 km</desc>
<time>2010-03-01T17:03:24.01</time>
<name>47</name>
</trkpt>
<trkpt lat="48.941623" lon="8.666413">
<ele>346.5</ele>
<speed>4.0</speed>
<course>235.9</course>
<desc>Speed 4.0 km/h Distance 0.05 km</desc>
<time>2010-03-01T17:03:25.01</time>
<name>48</name>
</trkpt>
<trkpt lat="48.941617" lon="8.666398">
<ele>346.5</ele>
<speed>4.2</speed>
<course>229.1</course>
<desc>Speed 4.2 km/h Distance 0.05 km</desc>
<time>2010-03-01T17:03:26.01</time>
<name>49</name>
</trkpt>
<trkpt lat="48.941610" lon="8.666387">
<ele>346.0</ele>
<speed>4.2</speed>
<course>229.1</course>
<desc>Speed 4.2 km/h Distance 0.05 km</desc>
<time>2010-03-01T17:03:27.01</time>
<name>50</name>
</trkpt>
<trkpt lat="48.941603" lon="8.666375">
<ele>346.0</ele>
<speed>4.0</speed>
<course>229.1</course>
<desc>Speed 4.0 km/h Distance 0.06 km</desc>
<time>2010-03-01T17:03:28.01</time>
<name>51</name>
</trkpt>
<trkpt lat="48.941597" lon="8.666363">
<ele>346.0</ele>
<speed>4.1</speed>
<course>220.9</course>
<desc>Speed 4.1 km/h Distance 0.06 km</desc>
<time>2010-03-01T17:03:29.01</time>
<name>52</name>
</trkpt>
<trkpt lat="48.941592" lon="8.666357">
<ele>345.5</ele>
<speed>3.2</speed>
<course>213.5</course>
<desc>Speed 3.2 km/h Distance 0.06 km</desc>
<time>2010-03-01T17:03:30.01</time>
<name>53</name>
</trkpt>
<trkpt lat="48.941583" lon="8.666348">
<ele>345.5</ele>
<speed>4.0</speed>
<course>213.2</course>
<desc>Speed 4.0 km/h Distance 0.06 km</desc>
<time>2010-03-01T17:03:31.01</time>
<name>54</name>
</trkpt>
<trkpt lat="48.941575" lon="8.666340">
<ele>345.0</ele>
<speed>4.3</speed>
<course>213.2</course>
<desc>Speed 4.3 km/h Distance 0.06 km</desc>
<time>2010-03-01T17:03:32.01</time>
<name>55</name>
</trkpt>
<trkpt lat="48.941565" lon="8.666330">
<ele>345.0</ele>
<speed>4.6</speed>
<course>224.5</course>
<desc>Speed 4.6 km/h Distance 0.06 km</desc>
<time>2010-03-01T17:03:33.01</time>
<name>56</name>
</trkpt>
<trkpt lat="48.941558" lon="8.666320">
<ele>345.0</ele>
<speed>4.1</speed>
<course>224.5</course>
<desc>Speed 4.1 km/h Distance 0.06 km</desc>
<time>2010-03-01T17:03:34.01</time>
<name>57</name>
</trkpt>
<trkpt lat="48.941552" lon="8.666310">
<ele>344.5</ele>
<speed>3.7</speed>
<course>219.4</course>
<desc>Speed 3.7 km/h Distance 0.06 km</desc>
<time>2010-03-01T17:03:35.01</time>
<name>58</name>
</trkpt>
<trkpt lat="48.941545" lon="8.666302">
<ele>343.5</ele>
<speed>3.2</speed>
<course>237.1</course>
<desc>Speed 3.2 km/h Distance 0.06 km</desc>
<time>2010-03-01T17:03:36.01</time>
<name>59</name>
</trkpt>
<trkpt lat="48.941540" lon="8.666290">
<ele>343.0</ele>
<speed>3.2</speed>
<course>236.9</course>
<desc>Speed 3.2 km/h Distance 0.06 km</desc>
<time>2010-03-01T17:03:37.01</time>
<name>60</name>
</trkpt>
<trkpt lat="48.941535" lon="8.666278">
<ele>342.5</ele>
<speed>3.5</speed>
<course>224.7</course>
<desc>Speed 3.5 km/h Distance 0.07 km</desc>
<time>2010-03-01T17:03:38.01</time>
<name>61</name>
</trkpt>
<trkpt lat="48.941525" lon="8.666263">
<ele>343.0</ele>
<speed>4.3</speed>
<course>226.5</course>
<desc>Speed 4.3 km/h Distance 0.07 km</desc>
<time>2010-03-01T17:03:39.01</time>
<name>62</name>
</trkpt>
<trkpt lat="48.941517" lon="8.666250">
<ele>343.0</ele>
<speed>4.2</speed>
<course>226.4</course>
<desc>Speed 4.2 km/h Distance 0.07 km</desc>
<time>2010-03-01T17:03:40.01</time>
<name>63</name>
</trkpt>
<trkpt lat="48.941508" lon="8.666237">
<ele>343.0</ele>
<speed>3.9</speed>
<course>217.3</course>
<desc>Speed 3.9 km/h Distance 0.07 km</desc>
<time>2010-03-01T17:03:41.01</time>
<name>64</name>
</trkpt>
<trkpt lat="48.941498" lon="8.666225">
<ele>343.5</ele>
<speed>4.1</speed>
<course>213.2</course>
<desc>Speed 4.1 km/h Distance 0.07 km</desc>
<time>2010-03-01T17:03:42.01</time>
<name>65</name>
</trkpt>
<trkpt lat="48.941488" lon="8.666215">
<ele>343.0</ele>
<speed>4.2</speed>
<course>218.1</course>
<desc>Speed 4.2 km/h Distance 0.07 km</desc>
<time>2010-03-01T17:03:43.01</time>
<name>66</name>
</trkpt>
<trkpt lat="48.941480" lon="8.666205">
<ele>343.0</ele>
<speed>4.4</speed>
<course>222.5</course>
<desc>Speed 4.4 km/h Distance 0.07 km</desc>
<time>2010-03-01T17:03:44.01</time>
<name>67</name>
</trkpt>
<trkpt lat="48.941472" lon="8.666193">
<ele>343.0</ele>
<speed>3.9</speed>
<course>207.9</course>
<desc>Speed 3.9 km/h Distance 0.08 km</desc>
<time>2010-03-01T17:03:45.01</time>
<name>68</name>
</trkpt>
<trkpt lat="48.941463" lon="8.666187">
<ele>343.0</ele>
<speed>3.6</speed>
<course>213.2</course>
<desc>Speed 3.6 km/h Distance 0.08 km</desc>
<time>2010-03-01T17:03:46.01</time>
<name>69</name>
</trkpt>
<trkpt lat="48.941453" lon="8.666177">
<ele>343.5</ele>
<speed>5.0</speed>
<course>219.4</course>
<desc>Speed 5.0 km/h Distance 0.08 km</desc>
<time>2010-03-01T17:03:47.01</time>
<name>70</name>
</trkpt>
<trkpt lat="48.941440" lon="8.666160">
<ele>344.5</ele>
<speed>4.6</speed>
<course>222.0</course>
<desc>Speed 4.6 km/h Distance 0.08 km</desc>
<time>2010-03-01T17:03:48.01</time>
<name>71</name>
</trkpt>
<trkpt lat="48.941427" lon="8.666142">
<ele>345.5</ele>
<speed>4.2</speed>
<course>218.1</course>
<desc>Speed 4.2 km/h Distance 0.08 km</desc>
<time>2010-03-01T17:03:49.01</time>
<name>72</name>
</trkpt>
<trkpt lat="48.941418" lon="8.666132">
<ele>345.0</ele>
<speed>4.0</speed>
<course>213.7</course>
<desc>Speed 4.0 km/h Distance 0.08 km</desc>
<time>2010-03-01T17:03:50.01</time>
<name>73</name>
</trkpt>
<trkpt lat="48.941412" lon="8.666125">
<ele>344.5</ele>
<speed>3.1</speed>
<course>227.8</course>
<desc>Speed 3.1 km/h Distance 0.08 km</desc>
<time>2010-03-01T17:03:51.01</time>
<name>74</name>
</trkpt>
<trkpt lat="48.941407" lon="8.666117">
<ele>343.5</ele>
<speed>3.2</speed>
<course>207.5</course>
<desc>Speed 3.2 km/h Distance 0.08 km</desc>
<time>2010-03-01T17:03:52.01</time>
<name>75</name>
</trkpt>
<trkpt lat="48.941398" lon="8.666110">
<ele>343.0</ele>
<speed>3.3</speed>
<course>213.4</course>
<desc>Speed 3.3 km/h Distance 0.09 km</desc>
<time>2010-03-01T17:03:53.01</time>
<name>76</name>
</trkpt>
<trkpt lat="48.941387" lon="8.666098">
<ele>344.0</ele>
<speed>3.9</speed>
<course>206.4</course>
<desc>Speed 3.9 km/h Distance 0.09 km</desc>
<time>2010-03-01T17:03:54.01</time>
<name>77</name>
</trkpt>
<trkpt lat="48.941380" lon="8.666093">
<ele>345.0</ele>
<speed>1.4</speed>
<course>221.4</course>
<desc>Speed 1.4 km/h Distance 0.09 km</desc>
<time>2010-03-01T17:03:55.01</time>
<name>78</name>
</trkpt>
<trkpt lat="48.941375" lon="8.666087">
<ele>346.0</ele>
<speed>0.4</speed>
<course>12.6</course>
<desc>Speed 0.4 km/h Distance 0.09 km</desc>
<time>2010-03-01T17:03:56.01</time>
<name>79</name>
</trkpt>
<trkpt lat="48.941377" lon="8.666088">
<ele>346.0</ele>
<speed>0.7</speed>
<course>110.9</course>
<desc>Speed 0.7 km/h Distance 0.09 km</desc>
<time>2010-03-01T17:03:57.01</time>
<name>80</name>
</trkpt>
<trkpt lat="48.941375" lon="8.666095">
<ele>346.0</ele>
<speed>1.3</speed>
<course>213.7</course>
<desc>Speed 1.3 km/h Distance 0.09 km</desc>
<time>2010-03-01T17:03:58.01</time>
<name>81</name>
</trkpt>
<trkpt lat="48.941372" lon="8.666092">
<ele>346.5</ele>
<speed>0.6</speed>
<course>219.4</course>
<desc>Speed 0.6 km/h Distance 0.09 km</desc>
<time>2010-03-01T17:03:59.01</time>
<name>82</name>
</trkpt>
<trkpt lat="48.941365" lon="8.666083">
<ele>347.0</ele>
<speed>2.0</speed>
<course>213.2</course>
<desc>Speed 2.0 km/h Distance 0.09 km</desc>
<time>2010-03-01T17:04:00.01</time>
<name>83</name>
</trkpt>
<trkpt lat="48.941355" lon="8.666073">
<ele>347.5</ele>
<speed>2.7</speed>
<course>207.9</course>
<desc>Speed 2.7 km/h Distance 0.09 km</desc>
<time>2010-03-01T17:04:01.01</time>
<name>84</name>
</trkpt>
<trkpt lat="48.941347" lon="8.666067">
<ele>347.5</ele>
<speed>3.6</speed>
<course>227.4</course>
<desc>Speed 3.6 km/h Distance 0.09 km</desc>
<time>2010-03-01T17:04:02.01</time>
<name>85</name>
</trkpt>
<trkpt lat="48.941342" lon="8.666058">
<ele>346.5</ele>
<speed>3.3</speed>
<course>222.6</course>
<desc>Speed 3.3 km/h Distance 0.09 km</desc>
<time>2010-03-01T17:04:03.01</time>
<name>86</name>
</trkpt>
<trkpt lat="48.941333" lon="8.666047">
<ele>346.0</ele>
<speed>4.3</speed>
<course>229.1</course>
<desc>Speed 4.3 km/h Distance 0.09 km</desc>
<time>2010-03-01T17:04:04.01</time>
<name>87</name>
</trkpt>
<trkpt lat="48.941327" lon="8.666035">
<ele>346.0</ele>
<speed>4.2</speed>
<course>218.1</course>
<desc>Speed 4.2 km/h Distance 0.10 km</desc>
<time>2010-03-01T17:04:05.01</time>
<name>88</name>
</trkpt>
<trkpt lat="48.941318" lon="8.666025">
<ele>345.5</ele>
<speed>4.1</speed>
<course>216.0</course>
<desc>Speed 4.1 km/h Distance 0.10 km</desc>
<time>2010-03-01T17:04:06.01</time>
<name>89</name>
</trkpt>
<trkpt lat="48.941303" lon="8.666008">
<ele>347.0</ele>
<speed>4.6</speed>
<course>224.5</course>
<desc>Speed 4.6 km/h Distance 0.10 km</desc>
<time>2010-03-01T17:04:07.01</time>
<name>90</name>
</trkpt>
<trkpt lat="48.941297" lon="8.665998">
<ele>346.5</ele>
<speed>4.0</speed>
<course>219.4</course>
<desc>Speed 4.0 km/h Distance 0.10 km</desc>
<time>2010-03-01T17:04:08.01</time>
<name>91</name>
</trkpt>
<trkpt lat="48.941283" lon="8.665982">
<ele>347.5</ele>
<speed>4.5</speed>
<course>218.1</course>
<desc>Speed 4.5 km/h Distance 0.10 km</desc>
<time>2010-03-01T17:04:09.01</time>
<name>92</name>
</trkpt>
<trkpt lat="48.941275" lon="8.665972">
<ele>347.5</ele>
<speed>3.2</speed>
<course>226.4</course>
<desc>Speed 3.2 km/h Distance 0.10 km</desc>
<time>2010-03-01T17:04:10.01</time>
<name>93</name>
</trkpt>
<trkpt lat="48.941267" lon="8.665958">
<ele>348.0</ele>
<speed>3.0</speed>
<course>224.5</course>
<desc>Speed 3.0 km/h Distance 0.10 km</desc>
<time>2010-03-01T17:04:11.01</time>
<name>94</name>
</trkpt>
<trkpt lat="48.941260" lon="8.665948">
<ele>348.0</ele>
<speed>4.1</speed>
<course>224.5</course>
<desc>Speed 4.1 km/h Distance 0.11 km</desc>
<time>2010-03-01T17:04:12.01</time>
<name>95</name>
</trkpt>
<trkpt lat="48.941253" lon="8.665938">
<ele>347.5</ele>
<speed>3.7</speed>
<course>227.4</course>
<desc>Speed 3.7 km/h Distance 0.11 km</desc>
<time>2010-03-01T17:04:13.01</time>
<name>96</name>
</trkpt>
<trkpt lat="48.941248" lon="8.665930">
<ele>347.0</ele>
<speed>3.0</speed>
<course>224.5</course>
<desc>Speed 3.0 km/h Distance 0.11 km</desc>
<time>2010-03-01T17:04:14.01</time>
<name>97</name>
</trkpt>
<trkpt lat="48.941242" lon="8.665920">
<ele>346.5</ele>
<speed>3.7</speed>
<course>205.2</course>
<desc>Speed 3.7 km/h Distance 0.11 km</desc>
<time>2010-03-01T17:04:15.01</time>
<name>98</name>
</trkpt>
<trkpt lat="48.941230" lon="8.665912">
<ele>346.0</ele>
<speed>5.2</speed>
<course>238.7</course>
<desc>Speed 5.2 km/h Distance 0.11 km</desc>
<time>2010-03-01T17:04:16.01</time>
<name>99</name>
</trkpt>
<trkpt lat="48.941223" lon="8.665895">
<ele>347.0</ele>
<speed>3.5</speed>
<course>220.2</course>
<desc>Speed 3.5 km/h Distance 0.11 km</desc>
<time>2010-03-01T17:04:17.01</time>
<name>100</name>
</trkpt>
<trkpt lat="48.941212" lon="8.665880">
<ele>347.5</ele>
<speed>3.7</speed>
<course>222.5</course>
<desc>Speed 3.7 km/h Distance 0.11 km</desc>
<time>2010-03-01T17:04:18.01</time>
<name>101</name>
</trkpt>
<trkpt lat="48.941203" lon="8.665868">
<ele>348.0</ele>
<speed>4.0</speed>
<course>209.4</course>
<desc>Speed 4.0 km/h Distance 0.11 km</desc>
<time>2010-03-01T17:04:19.01</time>
<name>102</name>
</trkpt>
<trkpt lat="48.941192" lon="8.665858">
<ele>348.0</ele>
<speed>4.3</speed>
<course>209.4</course>
<desc>Speed 4.3 km/h Distance 0.12 km</desc>
<time>2010-03-01T17:04:20.01</time>
<name>103</name>
</trkpt>
<trkpt lat="48.941180" lon="8.665848">
<ele>348.5</ele>
<speed>4.4</speed>
<course>209.0</course>
<desc>Speed 4.4 km/h Distance 0.12 km</desc>
<time>2010-03-01T17:04:21.01</time>
<name>104</name>
</trkpt>
<trkpt lat="48.941168" lon="8.665838">
<ele>348.5</ele>
<speed>3.3</speed>
<course>218.1</course>
<desc>Speed 3.3 km/h Distance 0.12 km</desc>
<time>2010-03-01T17:04:22.01</time>
<name>105</name>
</trkpt>
<trkpt lat="48.941160" lon="8.665828">
<ele>349.5</ele>
<speed>2.7</speed>
<course>221.4</course>
<desc>Speed 2.7 km/h Distance 0.12 km</desc>
<time>2010-03-01T17:04:23.01</time>
<name>106</name>
</trkpt>
<trkpt lat="48.941155" lon="8.665822">
<ele>349.0</ele>
<speed>2.3</speed>
<course>219.4</course>
<desc>Speed 2.3 km/h Distance 0.12 km</desc>
<time>2010-03-01T17:04:24.01</time>
<name>107</name>
</trkpt>
<trkpt lat="48.941148" lon="8.665813">
<ele>349.5</ele>
<speed>2.7</speed>
<course>224.5</course>
<desc>Speed 2.7 km/h Distance 0.12 km</desc>
<time>2010-03-01T17:04:25.01</time>
<name>108</name>
</trkpt>
<trkpt lat="48.941142" lon="8.665803">
<ele>349.5</ele>
<speed>2.9</speed>
<course>226.4</course>
<desc>Speed 2.9 km/h Distance 0.12 km</desc>
<time>2010-03-01T17:04:26.01</time>
<name>109</name>
</trkpt>
<trkpt lat="48.941133" lon="8.665790">
<ele>349.0</ele>
<speed>3.3</speed>
<course>213.2</course>
<desc>Speed 3.3 km/h Distance 0.12 km</desc>
<time>2010-03-01T17:04:27.01</time>
<name>110</name>
</trkpt>
<trkpt lat="48.941123" lon="8.665780">
<ele>349.0</ele>
<speed>3.3</speed>
<course>222.5</course>
<desc>Speed 3.3 km/h Distance 0.13 km</desc>
<time>2010-03-01T17:04:28.01</time>
<name>111</name>
</trkpt>
<trkpt lat="48.941115" lon="8.665768">
<ele>349.5</ele>
<speed>3.6</speed>
<course>213.2</course>
<desc>Speed 3.6 km/h Distance 0.13 km</desc>
<time>2010-03-01T17:04:29.01</time>
<name>112</name>
</trkpt>
<trkpt lat="48.941105" lon="8.665758">
<ele>350.0</ele>
<speed>4.0</speed>
<course>226.4</course>
<desc>Speed 4.0 km/h Distance 0.13 km</desc>
<time>2010-03-01T17:04:30.01</time>
<name>113</name>
</trkpt>
<trkpt lat="48.941097" lon="8.665745">
<ele>350.5</ele>
<speed>4.0</speed>
<course>226.5</course>
<desc>Speed 4.0 km/h Distance 0.13 km</desc>
<time>2010-03-01T17:04:31.01</time>
<name>114</name>
</trkpt>
<trkpt lat="48.941088" lon="8.665732">
<ele>350.5</ele>
<speed>4.4</speed>
<course>235.9</course>
<desc>Speed 4.4 km/h Distance 0.13 km</desc>
<time>2010-03-01T17:04:32.01</time>
<name>115</name>
</trkpt>
<trkpt lat="48.941082" lon="8.665717">
<ele>350.5</ele>
<speed>4.2</speed>
<course>255.6</course>
<desc>Speed 4.2 km/h Distance 0.13 km</desc>
<time>2010-03-01T17:04:33.01</time>
<name>116</name>
</trkpt>
<trkpt lat="48.941080" lon="8.665707">
<ele>350.0</ele>
<speed>2.6</speed>
<course>232.4</course>
<desc>Speed 2.6 km/h Distance 0.13 km</desc>
<time>2010-03-01T17:04:34.01</time>
<name>117</name>
</trkpt>
<trkpt lat="48.941075" lon="8.665697">
<ele>350.0</ele>
<speed>3.1</speed>
<course>270.0</course>
<desc>Speed 3.1 km/h Distance 0.13 km</desc>
<time>2010-03-01T17:04:35.01</time>
<name>118</name>
</trkpt>
<trkpt lat="48.941075" lon="8.665687">
<ele>349.5</ele>
<speed>2.8</speed>
<course>270.0</course>
<desc>Speed 2.8 km/h Distance 0.13 km</desc>
<time>2010-03-01T17:04:36.01</time>
<name>119</name>
</trkpt>
<trkpt lat="48.941075" lon="8.665680">
<ele>349.0</ele>
<speed>1.5</speed>
<course>270.0</course>
<desc>Speed 1.5 km/h Distance 0.14 km</desc>
<time>2010-03-01T17:04:37.01</time>
<name>120</name>
</trkpt>
<trkpt lat="48.941075" lon="8.665675">
<ele>348.5</ele>
<speed>1.3</speed>
<course>270.0</course>
<desc>Speed 1.3 km/h Distance 0.14 km</desc>
<time>2010-03-01T17:04:38.01</time>
<name>121</name>
</trkpt>
<trkpt lat="48.941075" lon="8.665662">
<ele>348.5</ele>
<speed>3.3</speed>
<course>296.8</course>
<desc>Speed 3.3 km/h Distance 0.14 km</desc>
<time>2010-03-01T17:04:39.01</time>
<name>122</name>
</trkpt>
<trkpt lat="48.941078" lon="8.665652">
<ele>348.5</ele>
<speed>2.8</speed>
<course>270.0</course>
<desc>Speed 2.8 km/h Distance 0.14 km</desc>
<time>2010-03-01T17:04:40.01</time>
<name>123</name>
</trkpt>
<trkpt lat="48.941078" lon="8.665640">
<ele>348.5</ele>
<speed>2.8</speed>
<course>245.4</course>
<desc>Speed 2.8 km/h Distance 0.14 km</desc>
<time>2010-03-01T17:04:41.01</time>
<name>124</name>
</trkpt>
<trkpt lat="48.941073" lon="8.665623">
<ele>350.5</ele>
<speed>4.9</speed>
<course>297.0</course>
<desc>Speed 4.9 km/h Distance 0.14 km</desc>
<time>2010-03-01T17:04:42.01</time>
<name>125</name>
</trkpt>
<trkpt lat="48.941077" lon="8.665613">
<ele>350.0</ele>
<speed>3.1</speed>
<course>259.3</course>
<desc>Speed 3.1 km/h Distance 0.14 km</desc>
<time>2010-03-01T17:04:43.01</time>
<name>126</name>
</trkpt>
<trkpt lat="48.941075" lon="8.665600">
<ele>350.0</ele>
<speed>3.4</speed>
<course>213.7</course>
<desc>Speed 3.4 km/h Distance 0.14 km</desc>
<time>2010-03-01T17:04:44.01</time>
<name>127</name>
</trkpt>
<trkpt lat="48.941068" lon="8.665593">
<ele>350.5</ele>
<speed>1.9</speed>
<course>192.6</course>
<desc>Speed 1.9 km/h Distance 0.14 km</desc>
<time>2010-03-01T17:04:45.01</time>
<name>128</name>
</trkpt>
<trkpt lat="48.941065" lon="8.665592">
<ele>351.0</ele>
<speed>2.0</speed>
<course>233.0</course>
<desc>Speed 2.0 km/h Distance 0.14 km</desc>
<time>2010-03-01T17:04:46.01</time>
<name>129</name>
</trkpt>
<trkpt lat="48.941062" lon="8.665585">
<ele>351.0</ele>
<speed>2.3</speed>
<course>231.9</course>
<desc>Speed 2.3 km/h Distance 0.14 km</desc>
<time>2010-03-01T17:04:47.01</time>
<name>130</name>
</trkpt>
<trkpt lat="48.941060" lon="8.665582">
<ele>351.0</ele>
<speed>0.8</speed>
<course>270.0</course>
<desc>Speed 0.8 km/h Distance 0.14 km</desc>
<time>2010-03-01T17:04:48.01</time>
<name>131</name>
</trkpt>
<trkpt lat="48.941060" lon="8.665565">
<ele>351.5</ele>
<speed>4.2</speed>
<course>217.2</course>
<desc>Speed 4.2 km/h Distance 0.14 km</desc>
<time>2010-03-01T17:04:49.01</time>
<name>132</name>
</trkpt>
<trkpt lat="48.941058" lon="8.665563">
<ele>352.0</ele>
<speed>0.6</speed>
<course>217.2</course>
<desc>Speed 0.6 km/h Distance 0.14 km</desc>
<time>2010-03-01T17:04:50.01</time>
<name>133</name>
</trkpt>
<trkpt lat="48.941058" lon="8.665563">
<ele>352.0</ele>
<speed>0.5</speed>
<course>217.2</course>
<desc>Speed 0.5 km/h Distance 0.14 km</desc>
<time>2010-03-01T17:04:51.01</time>
<name>134</name>
</trkpt>
<trkpt lat="48.941058" lon="8.665563">
<ele>352.0</ele>
<speed>0.1</speed>
<course>217.2</course>
<desc>Speed 0.1 km/h Distance 0.14 km</desc>
<time>2010-03-01T17:04:52.01</time>
<name>135</name>
</trkpt>
<trkpt lat="48.941058" lon="8.665563">
<ele>352.0</ele>
<speed>0.3</speed>
<course>138.1</course>
<desc>Speed 0.3 km/h Distance 0.14 km</desc>
<time>2010-03-01T17:04:53.01</time>
<name>136</name>
</trkpt>
<trkpt lat="48.941053" lon="8.665570">
<ele>351.5</ele>
<speed>2.7</speed>
<course>330.8</course>
<desc>Speed 2.7 km/h Distance 0.15 km</desc>
<time>2010-03-01T17:04:54.01</time>
<name>137</name>
</trkpt>
<trkpt lat="48.941055" lon="8.665568">
<ele>352.0</ele>
<speed>1.0</speed>
<course>347.4</course>
<desc>Speed 1.0 km/h Distance 0.15 km</desc>
<time>2010-03-01T17:04:55.01</time>
<name>138</name>
</trkpt>
<trkpt lat="48.941058" lon="8.665567">
<ele>352.5</ele>
<speed>1.0</speed>
<course>347.4</course>
<desc>Speed 1.0 km/h Distance 0.15 km</desc>
<time>2010-03-01T17:04:56.01</time>
<name>139</name>
</trkpt>
<trkpt lat="48.941058" lon="8.665567">
<ele>352.5</ele>
<speed>0.6</speed>
<course>347.4</course>
<desc>Speed 0.6 km/h Distance 0.15 km</desc>
<time>2010-03-01T17:04:57.01</time>
<name>140</name>
</trkpt>
<trkpt lat="48.941058" lon="8.665567">
<ele>352.5</ele>
<speed>0.6</speed>
<course>347.4</course>
<desc>Speed 0.6 km/h Distance 0.15 km</desc>
<time>2010-03-01T17:04:58.01</time>
<name>141</name>
</trkpt>
<trkpt lat="48.941058" lon="8.665567">
<ele>352.5</ele>
<speed>0.6</speed>
<course>167.4</course>
<desc>Speed 0.6 km/h Distance 0.15 km</desc>
<time>2010-03-01T17:04:59.01</time>
<name>142</name>
</trkpt>
<trkpt lat="48.941057" lon="8.665567">
<ele>352.5</ele>
<speed>0.6</speed>
<course>90.0</course>
<desc>Speed 0.6 km/h Distance 0.15 km</desc>
<time>2010-03-01T17:05:00.01</time>
<name>143</name>
</trkpt>
<trkpt lat="48.941057" lon="8.665568">
<ele>352.5</ele>
<speed>0.1</speed>
<course>90.0</course>
<desc>Speed 0.1 km/h Distance 0.15 km</desc>
<time>2010-03-01T17:05:01.01</time>
<name>144</name>
</trkpt>
<trkpt lat="48.941057" lon="8.665568">
<ele>352.5</ele>
<speed>0.3</speed>
<course>90.0</course>
<desc>Speed 0.3 km/h Distance 0.15 km</desc>
<time>2010-03-01T17:05:02.01</time>
<name>145</name>
</trkpt>
<trkpt lat="48.941057" lon="8.665568">
<ele>352.5</ele>
<speed>0.3</speed>
<course>29.2</course>
<desc>Speed 0.3 km/h Distance 0.15 km</desc>
<time>2010-03-01T17:05:03.01</time>
<name>146</name>
</trkpt>
<trkpt lat="48.941058" lon="8.665570">
<ele>352.5</ele>
<speed>0.3</speed>
<course>29.2</course>
<desc>Speed 0.3 km/h Distance 0.15 km</desc>
<time>2010-03-01T17:05:04.01</time>
<name>147</name>
</trkpt>
<trkpt lat="48.941058" lon="8.665570">
<ele>352.5</ele>
<speed>0.2</speed>
<course>270.0</course>
<desc>Speed 0.2 km/h Distance 0.15 km</desc>
<time>2010-03-01T17:05:05.01</time>
<name>148</name>
</trkpt>
<trkpt lat="48.941058" lon="8.665568">
<ele>352.5</ele>
<speed>0.5</speed>
<course>7.7</course>
<desc>Speed 0.5 km/h Distance 0.15 km</desc>
<time>2010-03-01T17:05:06.01</time>
<name>149</name>
</trkpt>
<trkpt lat="48.941067" lon="8.665570">
<ele>352.5</ele>
<speed>0.4</speed>
<course>7.7</course>
<desc>Speed 0.4 km/h Distance 0.15 km</desc>
<time>2010-03-01T17:05:07.01</time>
<name>150</name>
</trkpt>
<trkpt lat="48.941067" lon="8.665570">
<ele>352.5</ele>
<speed>0.3</speed>
<course>12.6</course>
<desc>Speed 0.3 km/h Distance 0.15 km</desc>
<time>2010-03-01T17:05:08.01</time>
<name>151</name>
</trkpt>
<trkpt lat="48.941068" lon="8.665570">
<ele>352.5</ele>
<speed>0.2</speed>
<course>12.6</course>
<desc>Speed 0.2 km/h Distance 0.15 km</desc>
<time>2010-03-01T17:05:09.01</time>
<name>152</name>
</trkpt>
<trkpt lat="48.941070" lon="8.665570">
<ele>352.5</ele>
<speed>0.1</speed>
<course>90.0</course>
<desc>Speed 0.1 km/h Distance 0.15 km</desc>
<time>2010-03-01T17:05:10.01</time>
<name>153</name>
</trkpt>
<trkpt lat="48.941070" lon="8.665572">
<ele>352.5</ele>
<speed>0.2</speed>
<course>12.6</course>
<desc>Speed 0.2 km/h Distance 0.15 km</desc>
<time>2010-03-01T17:05:11.01</time>
<name>154</name>
</trkpt>
<trkpt lat="48.941072" lon="8.665572">
<ele>352.5</ele>
<speed>0.4</speed>
<course>12.6</course>
<desc>Speed 0.4 km/h Distance 0.15 km</desc>
<time>2010-03-01T17:05:12.01</time>
<name>155</name>
</trkpt>
<trkpt lat="48.941072" lon="8.665572">
<ele>352.5</ele>
<speed>0.1</speed>
<course>12.6</course>
<desc>Speed 0.1 km/h Distance 0.15 km</desc>
<time>2010-03-01T17:05:13.01</time>
<name>156</name>
</trkpt>
<trkpt lat="48.941072" lon="8.665572">
<ele>352.5</ele>
<speed>0.6</speed>
<course>12.6</course>
<desc>Speed 0.6 km/h Distance 0.15 km</desc>
<time>2010-03-01T17:05:14.01</time>
<name>157</name>
</trkpt>
<trkpt lat="48.941072" lon="8.665572">
<ele>352.5</ele>
<speed>0.4</speed>
<course>231.9</course>
<desc>Speed 0.4 km/h Distance 0.15 km</desc>
<time>2010-03-01T17:05:15.01</time>
<name>158</name>
</trkpt>
<trkpt lat="48.941070" lon="8.665568">
<ele>353.0</ele>
<speed>1.2</speed>
<course>231.9</course>
<desc>Speed 1.2 km/h Distance 0.15 km</desc>
<time>2010-03-01T17:05:16.01</time>
<name>159</name>
</trkpt>
<trkpt lat="48.941070" lon="8.665568">
<ele>353.0</ele>
<speed>0.6</speed>
<course>231.9</course>
<desc>Speed 0.6 km/h Distance 0.15 km</desc>
<time>2010-03-01T17:05:17.01</time>
<name>160</name>
</trkpt>
<trkpt lat="48.941070" lon="8.665568">
<ele>353.0</ele>
<speed>0.5</speed>
<course>297.4</course>
<desc>Speed 0.5 km/h Distance 0.15 km</desc>
<time>2010-03-01T17:05:18.01</time>
<name>161</name>
</trkpt>
<trkpt lat="48.941072" lon="8.665563">
<ele>353.0</ele>
<speed>1.5</speed>
<course>338.5</course>
<desc>Speed 1.5 km/h Distance 0.15 km</desc>
<time>2010-03-01T17:05:19.01</time>
<name>162</name>
</trkpt>
<trkpt lat="48.941080" lon="8.665558">
<ele>352.5</ele>
<speed>2.6</speed>
<course>333.6</course>
<desc>Speed 2.6 km/h Distance 0.15 km</desc>
<time>2010-03-01T17:05:20.01</time>
<name>163</name>
</trkpt>
<trkpt lat="48.941087" lon="8.665553">
<ele>352.0</ele>
<speed>2.9</speed>
<course>326.3</course>
<desc>Speed 2.9 km/h Distance 0.15 km</desc>
<time>2010-03-01T17:05:21.01</time>
<name>164</name>
</trkpt>
<trkpt lat="48.941093" lon="8.665547">
<ele>352.5</ele>
<speed>3.6</speed>
<course>317.4</course>
<desc>Speed 3.6 km/h Distance 0.15 km</desc>
<time>2010-03-01T17:05:22.01</time>
<name>165</name>
</trkpt>
<trkpt lat="48.941102" lon="8.665535">
<ele>352.5</ele>
<speed>4.1</speed>
<course>290.9</course>
<desc>Speed 4.1 km/h Distance 0.15 km</desc>
<time>2010-03-01T17:05:23.01</time>
<name>166</name>
</trkpt>
<trkpt lat="48.941105" lon="8.665522">
<ele>352.5</ele>
<speed>3.8</speed>
<course>303.3</course>
<desc>Speed 3.8 km/h Distance 0.15 km</desc>
<time>2010-03-01T17:05:24.01</time>
<name>167</name>
</trkpt>
<trkpt lat="48.941110" lon="8.665510">
<ele>353.5</ele>
<speed>2.9</speed>
<course>334.8</course>
<desc>Speed 2.9 km/h Distance 0.16 km</desc>
<time>2010-03-01T17:05:25.01</time>
<name>168</name>
</trkpt>
<trkpt lat="48.941122" lon="8.665502">
<ele>353.0</ele>
<speed>3.2</speed>
<course>344.5</course>
<desc>Speed 3.2 km/h Distance 0.16 km</desc>
<time>2010-03-01T17:05:26.01</time>
<name>169</name>
</trkpt>
<trkpt lat="48.941133" lon="8.665497">
<ele>353.0</ele>
<speed>3.2</speed>
<course>345.6</course>
<desc>Speed 3.2 km/h Distance 0.16 km</desc>
<time>2010-03-01T17:05:27.01</time>
<name>170</name>
</trkpt>
<trkpt lat="48.941147" lon="8.665492">
<ele>352.0</ele>
<speed>4.1</speed>
<course>343.4</course>
<desc>Speed 4.1 km/h Distance 0.16 km</desc>
<time>2010-03-01T17:05:28.01</time>
<name>171</name>
</trkpt>
<trkpt lat="48.941162" lon="8.665485">
<ele>351.5</ele>
<speed>3.9</speed>
<course>334.8</course>
<desc>Speed 3.9 km/h Distance 0.16 km</desc>
<time>2010-03-01T17:05:29.01</time>
<name>172</name>
</trkpt>
<trkpt lat="48.941173" lon="8.665477">
<ele>350.5</ele>
<speed>4.3</speed>
<course>317.4</course>
<desc>Speed 4.3 km/h Distance 0.16 km</desc>
<time>2010-03-01T17:05:30.01</time>
<name>173</name>
</trkpt>
<trkpt lat="48.941182" lon="8.665465">
<ele>350.5</ele>
<speed>3.4</speed>
<course>326.6</course>
<desc>Speed 3.4 km/h Distance 0.16 km</desc>
<time>2010-03-01T17:05:31.01</time>
<name>174</name>
</trkpt>
<trkpt lat="48.941192" lon="8.665455">
<ele>350.0</ele>
<speed>3.6</speed>
<course>326.8</course>
<desc>Speed 3.6 km/h Distance 0.17 km</desc>
<time>2010-03-01T17:05:32.01</time>
<name>175</name>
</trkpt>
<trkpt lat="48.941200" lon="8.665447">
<ele>350.0</ele>
<speed>3.3</speed>
<course>270.0</course>
<desc>Speed 3.3 km/h Distance 0.17 km</desc>
<time>2010-03-01T17:05:33.01</time>
<name>176</name>
</trkpt>
<trkpt lat="48.941200" lon="8.665428">
<ele>351.5</ele>
<speed>4.4</speed>
<course>326.8</course>
<desc>Speed 4.4 km/h Distance 0.17 km</desc>
<time>2010-03-01T17:05:34.01</time>
<name>177</name>
</trkpt>
<trkpt lat="48.941208" lon="8.665420">
<ele>352.0</ele>
<speed>3.5</speed>
<course>326.8</course>
<desc>Speed 3.5 km/h Distance 0.17 km</desc>
<time>2010-03-01T17:05:35.01</time>
<name>178</name>
</trkpt>
<trkpt lat="48.941217" lon="8.665412">
<ele>352.0</ele>
<speed>3.4</speed>
<course>321.6</course>
<desc>Speed 3.4 km/h Distance 0.17 km</desc>
<time>2010-03-01T17:05:36.01</time>
<name>179</name>
</trkpt>
<trkpt lat="48.941225" lon="8.665402">
<ele>352.0</ele>
<speed>3.6</speed>
<course>317.4</course>
<desc>Speed 3.6 km/h Distance 0.17 km</desc>
<time>2010-03-01T17:05:37.01</time>
<name>180</name>
</trkpt>
<trkpt lat="48.941233" lon="8.665390">
<ele>352.0</ele>
<speed>3.5</speed>
<course>334.8</course>
<desc>Speed 3.5 km/h Distance 0.17 km</desc>
<time>2010-03-01T17:05:38.01</time>
<name>181</name>
</trkpt>
<trkpt lat="48.941245" lon="8.665382">
<ele>351.0</ele>
<speed>3.6</speed>
<course>331.4</course>
<desc>Speed 3.6 km/h Distance 0.17 km</desc>
<time>2010-03-01T17:05:39.01</time>
<name>182</name>
</trkpt>
<trkpt lat="48.941255" lon="8.665373">
<ele>350.5</ele>
<speed>3.6</speed>
<course>326.3</course>
<desc>Speed 3.6 km/h Distance 0.18 km</desc>
<time>2010-03-01T17:05:40.01</time>
<name>183</name>
</trkpt>
<trkpt lat="48.941262" lon="8.665367">
<ele>350.0</ele>
<speed>3.1</speed>
<course>270.0</course>
<desc>Speed 3.1 km/h Distance 0.18 km</desc>
<time>2010-03-01T17:05:41.01</time>
<name>184</name>
</trkpt>
<trkpt lat="48.941262" lon="8.665352">
<ele>351.0</ele>
<speed>2.2</speed>
<course>12.6</course>
<desc>Speed 2.2 km/h Distance 0.18 km</desc>
<time>2010-03-01T17:05:42.01</time>
<name>185</name>
</trkpt>
<trkpt lat="48.941263" lon="8.665352">
<ele>351.0</ele>
<speed>0.7</speed>
<course>322.8</course>
<desc>Speed 0.7 km/h Distance 0.18 km</desc>
<time>2010-03-01T17:05:43.01</time>
<name>186</name>
</trkpt>
<trkpt lat="48.941265" lon="8.665350">
<ele>350.5</ele>
<speed>0.3</speed>
<course>12.6</course>
<desc>Speed 0.3 km/h Distance 0.18 km</desc>
<time>2010-03-01T17:05:44.01</time>
<name>187</name>
</trkpt>
<trkpt lat="48.941268" lon="8.665350">
<ele>350.5</ele>
<speed>0.2</speed>
<course>12.6</course>
<desc>Speed 0.2 km/h Distance 0.18 km</desc>
<time>2010-03-01T17:05:45.01</time>
<name>188</name>
</trkpt>
<trkpt lat="48.941268" lon="8.665350">
<ele>350.5</ele>
<speed>0.1</speed>
<course>12.6</course>
<desc>Speed 0.1 km/h Distance 0.18 km</desc>
<time>2010-03-01T17:05:46.01</time>
<name>189</name>
</trkpt>
<trkpt lat="48.941270" lon="8.665350">
<ele>350.5</ele>
<speed>0.1</speed>
<course>330.8</course>
<desc>Speed 0.1 km/h Distance 0.18 km</desc>
<time>2010-03-01T17:05:47.01</time>
<name>190</name>
</trkpt>
<trkpt lat="48.941272" lon="8.665348">
<ele>350.0</ele>
<speed>0.1</speed>
<course>330.8</course>
<desc>Speed 0.1 km/h Distance 0.18 km</desc>
<time>2010-03-01T17:05:48.01</time>
<name>191</name>
</trkpt>
<trkpt lat="48.941272" lon="8.665348">
<ele>350.0</ele>
<speed>0.2</speed>
<course>241.0</course>
<desc>Speed 0.2 km/h Distance 0.18 km</desc>
<time>2010-03-01T17:05:49.01</time>
<name>192</name>
</trkpt>
<trkpt lat="48.941265" lon="8.665330">
<ele>352.5</ele>
<speed>1.2</speed>
<course>229.1</course>
<desc>Speed 1.2 km/h Distance 0.18 km</desc>
<time>2010-03-01T17:05:50.01</time>
<name>193</name>
</trkpt>
<trkpt lat="48.941258" lon="8.665318">
<ele>354.5</ele>
<speed>0.1</speed>
<course>252.9</course>
<desc>Speed 0.1 km/h Distance 0.18 km</desc>
<time>2010-03-01T17:05:51.01</time>
<name>194</name>
</trkpt>
<trkpt lat="48.941257" lon="8.665310">
<ele>355.0</ele>
<speed>0.1</speed>
<course>347.4</course>
<desc>Speed 0.1 km/h Distance 0.18 km</desc>
<time>2010-03-01T17:05:52.01</time>
<name>195</name>
</trkpt>
<trkpt lat="48.941258" lon="8.665308">
<ele>355.0</ele>
<speed>0.3</speed>
<course>322.8</course>
<desc>Speed 0.3 km/h Distance 0.18 km</desc>
<time>2010-03-01T17:05:53.01</time>
<name>196</name>
</trkpt>
<trkpt lat="48.941260" lon="8.665307">
<ele>355.0</ele>
<speed>0.1</speed>
<course>322.8</course>
<desc>Speed 0.1 km/h Distance 0.18 km</desc>
<time>2010-03-01T17:05:54.01</time>
<name>197</name>
</trkpt>
<trkpt lat="48.941260" lon="8.665307">
<ele>354.5</ele>
<speed>0.2</speed>
<course>330.8</course>
<desc>Speed 0.2 km/h Distance 0.18 km</desc>
<time>2010-03-01T17:05:55.01</time>
<name>198</name>
</trkpt>
<trkpt lat="48.941262" lon="8.665305">
<ele>355.0</ele>
<speed>0.4</speed>
<course>12.6</course>
<desc>Speed 0.4 km/h Distance 0.18 km</desc>
<time>2010-03-01T17:05:56.01</time>
<name>199</name>
</trkpt>
<trkpt lat="48.941263" lon="8.665305">
<ele>355.0</ele>
<speed>0.2</speed>
<course>270.0</course>
<desc>Speed 0.2 km/h Distance 0.18 km</desc>
<time>2010-03-01T17:05:57.01</time>
<name>200</name>
</trkpt>
<trkpt lat="48.941263" lon="8.665302">
<ele>355.0</ele>
<speed>0.3</speed>
<course>270.0</course>
<desc>Speed 0.3 km/h Distance 0.18 km</desc>
<time>2010-03-01T17:05:58.01</time>
<name>201</name>
</trkpt>
<trkpt lat="48.941263" lon="8.665300">
<ele>355.0</ele>
<speed>0.1</speed>
<course>29.2</course>
<desc>Speed 0.1 km/h Distance 0.18 km</desc>
<time>2010-03-01T17:05:59.01</time>
<name>202</name>
</trkpt>
<trkpt lat="48.941265" lon="8.665300">
<ele>355.0</ele>
<speed>0.1</speed>
<course>337.0</course>
<desc>Speed 0.1 km/h Distance 0.18 km</desc>
<time>2010-03-01T17:06:00.01</time>
<name>203</name>
</trkpt>
<trkpt lat="48.941268" lon="8.665298">
<ele>355.0</ele>
<speed>1.0</speed>
<course>307.0</course>
<desc>Speed 1.0 km/h Distance 0.18 km</desc>
<time>2010-03-01T17:06:01.01</time>
<name>204</name>
</trkpt>
<trkpt lat="48.941272" lon="8.665292">
<ele>355.0</ele>
<speed>2.1</speed>
<course>319.1</course>
<desc>Speed 2.1 km/h Distance 0.18 km</desc>
<time>2010-03-01T17:06:02.01</time>
<name>205</name>
</trkpt>
<trkpt lat="48.941277" lon="8.665285">
<ele>355.0</ele>
<speed>2.1</speed>
<course>0.0</course>
<desc>Speed 2.1 km/h Distance 0.18 km</desc>
<time>2010-03-01T17:06:03.01</time>
<name>206</name>
</trkpt>
<trkpt lat="48.941282" lon="8.665285">
<ele>354.5</ele>
<speed>1.5</speed>
<course>0.0</course>
<desc>Speed 1.5 km/h Distance 0.19 km</desc>
<time>2010-03-01T17:06:04.01</time>
<name>207</name>
</trkpt>
<trkpt lat="48.941282" lon="8.665285">
<ele>355.0</ele>
<speed>0.1</speed>
<course>0.0</course>
<desc>Speed 0.1 km/h Distance 0.19 km</desc>
<time>2010-03-01T17:06:05.01</time>
<name>208</name>
</trkpt>
<trkpt lat="48.941282" lon="8.665285">
<ele>355.0</ele>
<speed>0.6</speed>
<course>231.9</course>
<desc>Speed 0.6 km/h Distance 0.19 km</desc>
<time>2010-03-01T17:06:06.01</time>
<name>209</name>
</trkpt>
<trkpt lat="48.941280" lon="8.665282">
<ele>355.5</ele>
<speed>1.1</speed>
<course>90.0</course>
<desc>Speed 1.1 km/h Distance 0.19 km</desc>
<time>2010-03-01T17:06:07.01</time>
<name>210</name>
</trkpt>
<trkpt lat="48.941280" lon="8.665283">
<ele>355.5</ele>
<speed>0.5</speed>
<course>90.0</course>
<desc>Speed 0.5 km/h Distance 0.19 km</desc>
<time>2010-03-01T17:06:08.01</time>
<name>211</name>
</trkpt>
<trkpt lat="48.941280" lon="8.665283">
<ele>355.5</ele>
<speed>0.5</speed>
<course>90.0</course>
<desc>Speed 0.5 km/h Distance 0.19 km</desc>
<time>2010-03-01T17:06:09.01</time>
<name>212</name>
</trkpt>
<trkpt lat="48.941280" lon="8.665283">
<ele>355.5</ele>
<speed>0.0</speed>
<course>90.0</course>
<desc>Speed 0.0 km/h Distance 0.19 km</desc>
<time>2010-03-01T17:06:10.01</time>
<name>213</name>
</trkpt>
<trkpt lat="48.941280" lon="8.665285">
<ele>356.0</ele>
<speed>0.2</speed>
<course>90.0</course>
<desc>Speed 0.2 km/h Distance 0.19 km</desc>
<time>2010-03-01T17:06:11.01</time>
<name>214</name>
</trkpt>
<trkpt lat="48.941280" lon="8.665285">
<ele>356.0</ele>
<speed>0.1</speed>
<course>167.4</course>
<desc>Speed 0.1 km/h Distance 0.19 km</desc>
<time>2010-03-01T17:06:12.01</time>
<name>215</name>
</trkpt>
<trkpt lat="48.941278" lon="8.665285">
<ele>356.0</ele>
<speed>0.4</speed>
<course>308.1</course>
<desc>Speed 0.4 km/h Distance 0.19 km</desc>
<time>2010-03-01T17:06:13.01</time>
<name>216</name>
</trkpt>
<trkpt lat="48.941280" lon="8.665282">
<ele>356.0</ele>
<speed>0.8</speed>
<course>192.6</course>
<desc>Speed 0.8 km/h Distance 0.19 km</desc>
<time>2010-03-01T17:06:14.01</time>
<name>217</name>
</trkpt>
<trkpt lat="48.941277" lon="8.665280">
<ele>356.0</ele>
<speed>1.0</speed>
<course>90.0</course>
<desc>Speed 1.0 km/h Distance 0.19 km</desc>
<time>2010-03-01T17:06:15.01</time>
<name>218</name>
</trkpt>
<trkpt lat="48.941277" lon="8.665282">
<ele>356.0</ele>
<speed>0.1</speed>
<course>90.0</course>
<desc>Speed 0.1 km/h Distance 0.19 km</desc>
<time>2010-03-01T17:06:16.01</time>
<name>219</name>
</trkpt>
<trkpt lat="48.941277" lon="8.665282">
<ele>356.0</ele>
<speed>0.6</speed>
<course>270.0</course>
<desc>Speed 0.6 km/h Distance 0.19 km</desc>
<time>2010-03-01T17:06:17.01</time>
<name>220</name>
</trkpt>
<trkpt lat="48.941277" lon="8.665280">
<ele>356.5</ele>
<speed>0.6</speed>
<course>167.4</course>
<desc>Speed 0.6 km/h Distance 0.19 km</desc>
<time>2010-03-01T17:06:18.01</time>
<name>221</name>
</trkpt>
<trkpt lat="48.941275" lon="8.665280">
<ele>356.5</ele>
<speed>0.2</speed>
<course>167.4</course>
<desc>Speed 0.2 km/h Distance 0.19 km</desc>
<time>2010-03-01T17:06:19.01</time>
<name>222</name>
</trkpt>
<trkpt lat="48.941275" lon="8.665280">
<ele>356.5</ele>
<speed>0.5</speed>
<course>142.8</course>
<desc>Speed 0.5 km/h Distance 0.19 km</desc>
<time>2010-03-01T17:06:20.01</time>
<name>223</name>
</trkpt>
<trkpt lat="48.941273" lon="8.665282">
<ele>356.5</ele>
<speed>0.8</speed>
<course>142.8</course>
<desc>Speed 0.8 km/h Distance 0.19 km</desc>
<time>2010-03-01T17:06:21.01</time>
<name>224</name>
</trkpt>
<trkpt lat="48.941273" lon="8.665282">
<ele>356.5</ele>
<speed>0.0</speed>
<course>142.8</course>
<desc>Speed 0.0 km/h Distance 0.19 km</desc>
<time>2010-03-01T17:06:22.01</time>
<name>225</name>
</trkpt>
<trkpt lat="48.941273" lon="8.665282">
<ele>356.5</ele>
<speed>0.2</speed>
<course>90.0</course>
<desc>Speed 0.2 km/h Distance 0.19 km</desc>
<time>2010-03-01T17:06:23.01</time>
<name>226</name>
</trkpt>
<trkpt lat="48.941273" lon="8.665283">
<ele>356.5</ele>
<speed>0.3</speed>
<course>231.9</course>
<desc>Speed 0.3 km/h Distance 0.19 km</desc>
<time>2010-03-01T17:06:24.01</time>
<name>227</name>
</trkpt>
<trkpt lat="48.941272" lon="8.665280">
<ele>356.5</ele>
<speed>0.9</speed>
<course>90.0</course>
<desc>Speed 0.9 km/h Distance 0.19 km</desc>
<time>2010-03-01T17:06:25.01</time>
<name>228</name>
</trkpt>
<trkpt lat="48.941272" lon="8.665282">
<ele>357.0</ele>
<speed>0.4</speed>
<course>150.8</course>
<desc>Speed 0.4 km/h Distance 0.19 km</desc>
<time>2010-03-01T17:06:26.01</time>
<name>229</name>
</trkpt>
<trkpt lat="48.941270" lon="8.665283">
<ele>357.0</ele>
<speed>0.2</speed>
<course>90.0</course>
<desc>Speed 0.2 km/h Distance 0.19 km</desc>
<time>2010-03-01T17:06:27.01</time>
<name>230</name>
</trkpt>
<trkpt lat="48.941270" lon="8.665285">
<ele>357.0</ele>
<speed>0.2</speed>
<course>90.0</course>
<desc>Speed 0.2 km/h Distance 0.19 km</desc>
<time>2010-03-01T17:06:28.01</time>
<name>231</name>
</trkpt>
<trkpt lat="48.941270" lon="8.665285">
<ele>357.0</ele>
<speed>0.2</speed>
<course>90.0</course>
<desc>Speed 0.2 km/h Distance 0.19 km</desc>
<time>2010-03-01T17:06:29.01</time>
<name>232</name>
</trkpt>
<trkpt lat="48.941270" lon="8.665285">
<ele>357.5</ele>
<speed>0.5</speed>
<course>90.0</course>
<desc>Speed 0.5 km/h Distance 0.19 km</desc>
<time>2010-03-01T17:06:30.01</time>
<name>233</name>
</trkpt>
<trkpt lat="48.941270" lon="8.665287">
<ele>357.5</ele>
<speed>0.1</speed>
<course>90.0</course>
<desc>Speed 0.1 km/h Distance 0.19 km</desc>
<time>2010-03-01T17:06:31.01</time>
<name>234</name>
</trkpt>
<trkpt lat="48.941270" lon="8.665287">
<ele>357.5</ele>
<speed>0.0</speed>
<course>90.0</course>
<desc>Speed 0.0 km/h Distance 0.19 km</desc>
<time>2010-03-01T17:06:32.01</time>
<name>235</name>
</trkpt>
<trkpt lat="48.941270" lon="8.665287">
<ele>357.5</ele>
<speed>0.3</speed>
<course>33.7</course>
<desc>Speed 0.3 km/h Distance 0.19 km</desc>
<time>2010-03-01T17:06:33.01</time>
<name>236</name>
</trkpt>
<trkpt lat="48.941273" lon="8.665290">
<ele>356.5</ele>
<speed>1.4</speed>
<course>180.0</course>
<desc>Speed 1.4 km/h Distance 0.19 km</desc>
<time>2010-03-01T17:06:34.01</time>
<name>237</name>
</trkpt>
<trkpt lat="48.941272" lon="8.665290">
<ele>356.5</ele>
<speed>0.8</speed>
<course>0.0</course>
<desc>Speed 0.8 km/h Distance 0.19 km</desc>
<time>2010-03-01T17:06:35.01</time>
<name>238</name>
</trkpt>
<trkpt lat="48.941273" lon="8.665290">
<ele>356.5</ele>
<speed>0.2</speed>
<course>270.0</course>
<desc>Speed 0.2 km/h Distance 0.19 km</desc>
<time>2010-03-01T17:06:36.01</time>
<name>239</name>
</trkpt>
<trkpt lat="48.941273" lon="8.665288">
<ele>356.5</ele>
<speed>0.1</speed>
<course>12.6</course>
<desc>Speed 0.1 km/h Distance 0.19 km</desc>
<time>2010-03-01T17:06:37.01</time>
<name>240</name>
</trkpt>
<trkpt lat="48.941275" lon="8.665288">
<ele>356.5</ele>
<speed>0.5</speed>
<course>12.6</course>
<desc>Speed 0.5 km/h Distance 0.19 km</desc>
<time>2010-03-01T17:06:38.01</time>
<name>241</name>
</trkpt>
<trkpt lat="48.941277" lon="8.665288">
<ele>356.0</ele>
<speed>0.1</speed>
<course>322.8</course>
<desc>Speed 0.1 km/h Distance 0.19 km</desc>
<time>2010-03-01T17:06:39.01</time>
<name>242</name>
</trkpt>
<trkpt lat="48.941278" lon="8.665287">
<ele>356.0</ele>
<speed>0.2</speed>
<course>322.8</course>
<desc>Speed 0.2 km/h Distance 0.19 km</desc>
<time>2010-03-01T17:06:40.01</time>
<name>243</name>
</trkpt>
<trkpt lat="48.941280" lon="8.665285">
<ele>356.0</ele>
<speed>0.5</speed>
<course>29.2</course>
<desc>Speed 0.5 km/h Distance 0.19 km</desc>
<time>2010-03-01T17:06:41.01</time>
<name>244</name>
</trkpt>
<trkpt lat="48.941282" lon="8.665287">
<ele>356.0</ele>
<speed>0.0</speed>
<course>33.7</course>
<desc>Speed 0.0 km/h Distance 0.19 km</desc>
<time>2010-03-01T17:06:42.01</time>
<name>245</name>
</trkpt>
<trkpt lat="48.941285" lon="8.665290">
<ele>355.5</ele>
<speed>0.0</speed>
<course>12.6</course>
<desc>Speed 0.0 km/h Distance 0.19 km</desc>
<time>2010-03-01T17:06:43.01</time>
<name>246</name>
</trkpt>
<trkpt lat="48.941288" lon="8.665292">
<ele>355.0</ele>
<speed>0.1</speed>
<course>12.6</course>
<desc>Speed 0.1 km/h Distance 0.19 km</desc>
<time>2010-03-01T17:06:44.01</time>
<name>247</name>
</trkpt>
<trkpt lat="48.941288" lon="8.665292">
<ele>355.0</ele>
<speed>0.2</speed>
<course>12.6</course>
<desc>Speed 0.2 km/h Distance 0.19 km</desc>
<time>2010-03-01T17:06:45.01</time>
<name>248</name>
</trkpt>
<trkpt lat="48.941288" lon="8.665292">
<ele>354.5</ele>
<speed>0.1</speed>
<course>12.6</course>
<desc>Speed 0.1 km/h Distance 0.19 km</desc>
<time>2010-03-01T17:06:46.01</time>
<name>249</name>
</trkpt>
<trkpt lat="48.941290" lon="8.665292">
<ele>354.5</ele>
<speed>0.2</speed>
<course>12.6</course>
<desc>Speed 0.2 km/h Distance 0.19 km</desc>
<time>2010-03-01T17:06:47.01</time>
<name>250</name>
</trkpt>
<trkpt lat="48.941290" lon="8.665292">
<ele>354.5</ele>
<speed>0.1</speed>
<course>12.6</course>
<desc>Speed 0.1 km/h Distance 0.19 km</desc>
<time>2010-03-01T17:06:48.01</time>
<name>251</name>
</trkpt>
<trkpt lat="48.941290" lon="8.665292">
<ele>354.5</ele>
<speed>0.1</speed>
<course>12.6</course>
<desc>Speed 0.1 km/h Distance 0.19 km</desc>
<time>2010-03-01T17:06:49.01</time>
<name>252</name>
</trkpt>
<trkpt lat="48.941290" lon="8.665292">
<ele>354.5</ele>
<speed>0.1</speed>
<course>12.6</course>
<desc>Speed 0.1 km/h Distance 0.19 km</desc>
<time>2010-03-01T17:06:50.01</time>
<name>253</name>
</trkpt>
<trkpt lat="48.941290" lon="8.665292">
<ele>354.5</ele>
<speed>0.1</speed>
<course>12.6</course>
<desc>Speed 0.1 km/h Distance 0.19 km</desc>
<time>2010-03-01T17:06:51.01</time>
<name>254</name>
</trkpt>
<trkpt lat="48.941290" lon="8.665292">
<ele>354.5</ele>
<speed>0.1</speed>
<course>12.6</course>
<desc>Speed 0.1 km/h Distance 0.19 km</desc>
<time>2010-03-01T17:06:52.01</time>
<name>255</name>
</trkpt>
<trkpt lat="48.941290" lon="8.665292">
<ele>354.5</ele>
<speed>0.1</speed>
<course>167.4</course>
<desc>Speed 0.1 km/h Distance 0.19 km</desc>
<time>2010-03-01T17:06:53.01</time>
<name>256</name>
</trkpt>
<trkpt lat="48.941288" lon="8.665292">
<ele>354.5</ele>
<speed>0.2</speed>
<course>167.4</course>
<desc>Speed 0.2 km/h Distance 0.19 km</desc>
<time>2010-03-01T17:06:54.01</time>
<name>257</name>
</trkpt>
<trkpt lat="48.941288" lon="8.665292">
<ele>354.5</ele>
<speed>0.1</speed>
<course>167.4</course>
<desc>Speed 0.1 km/h Distance 0.19 km</desc>
<time>2010-03-01T17:06:55.01</time>
<name>258</name>
</trkpt>
<trkpt lat="48.941288" lon="8.665292">
<ele>354.5</ele>
<speed>0.4</speed>
<course>167.4</course>
<desc>Speed 0.4 km/h Distance 0.19 km</desc>
<time>2010-03-01T17:06:56.01</time>
<name>259</name>
</trkpt>
<trkpt lat="48.941288" lon="8.665292">
<ele>354.5</ele>
<speed>0.4</speed>
<course>167.4</course>
<desc>Speed 0.4 km/h Distance 0.19 km</desc>
<time>2010-03-01T17:06:57.01</time>
<name>260</name>
</trkpt>
<trkpt lat="48.941288" lon="8.665292">
<ele>354.5</ele>
<speed>0.3</speed>
<course>167.4</course>
<desc>Speed 0.3 km/h Distance 0.19 km</desc>
<time>2010-03-01T17:06:58.01</time>
<name>261</name>
</trkpt>
<trkpt lat="48.941288" lon="8.665292">
<ele>354.5</ele>
<speed>0.1</speed>
<course>167.4</course>
<desc>Speed 0.1 km/h Distance 0.19 km</desc>
<time>2010-03-01T17:06:59.01</time>
<name>262</name>
</trkpt>
<trkpt lat="48.941288" lon="8.665292">
<ele>354.5</ele>
<speed>0.3</speed>
<course>167.4</course>
<desc>Speed 0.3 km/h Distance 0.19 km</desc>
<time>2010-03-01T17:07:00.01</time>
<name>263</name>
</trkpt>
<trkpt lat="48.941288" lon="8.665292">
<ele>354.5</ele>
<speed>0.0</speed>
<course>167.4</course>
<desc>Speed 0.0 km/h Distance 0.19 km</desc>
<time>2010-03-01T17:07:01.01</time>
<name>264</name>
</trkpt>
<trkpt lat="48.941288" lon="8.665292">
<ele>354.5</ele>
<speed>0.4</speed>
<course>167.4</course>
<desc>Speed 0.4 km/h Distance 0.19 km</desc>
<time>2010-03-01T17:07:02.01</time>
<name>265</name>
</trkpt>
<trkpt lat="48.941288" lon="8.665292">
<ele>354.5</ele>
<speed>0.1</speed>
<course>167.4</course>
<desc>Speed 0.1 km/h Distance 0.19 km</desc>
<time>2010-03-01T17:07:03.01</time>
<name>266</name>
</trkpt>
<trkpt lat="48.941288" lon="8.665292">
<ele>354.5</ele>
<speed>0.5</speed>
<course>167.4</course>
<desc>Speed 0.5 km/h Distance 0.19 km</desc>
<time>2010-03-01T17:07:04.01</time>
<name>267</name>
</trkpt>
<trkpt lat="48.941288" lon="8.665292">
<ele>354.5</ele>
<speed>0.4</speed>
<course>167.4</course>
<desc>Speed 0.4 km/h Distance 0.19 km</desc>
<time>2010-03-01T17:07:05.01</time>
<name>268</name>
</trkpt>
<trkpt lat="48.941288" lon="8.665292">
<ele>354.5</ele>
<speed>0.2</speed>
<course>167.4</course>
<desc>Speed 0.2 km/h Distance 0.19 km</desc>
<time>2010-03-01T17:07:06.01</time>
<name>269</name>
</trkpt>
<trkpt lat="48.941288" lon="8.665292">
<ele>354.5</ele>
<speed>0.5</speed>
<course>287.1</course>
<desc>Speed 0.5 km/h Distance 0.19 km</desc>
<time>2010-03-01T17:07:07.01</time>
<name>270</name>
</trkpt>
<trkpt lat="48.941290" lon="8.665283">
<ele>355.0</ele>
<speed>1.7</speed>
<course>301.4</course>
<desc>Speed 1.7 km/h Distance 0.19 km</desc>
<time>2010-03-01T17:07:08.01</time>
<name>271</name>
</trkpt>
<trkpt lat="48.941293" lon="8.665275">
<ele>355.5</ele>
<speed>2.4</speed>
<course>270.0</course>
<desc>Speed 2.4 km/h Distance 0.19 km</desc>
<time>2010-03-01T17:07:09.01</time>
<name>272</name>
</trkpt>
<trkpt lat="48.941293" lon="8.665262">
<ele>356.0</ele>
<speed>1.9</speed>
<course>284.2</course>
<desc>Speed 1.9 km/h Distance 0.19 km</desc>
<time>2010-03-01T17:07:10.01</time>
<name>273</name>
</trkpt>
<trkpt lat="48.941295" lon="8.665252">
<ele>356.0</ele>
<speed>2.3</speed>
<course>326.3</course>
<desc>Speed 2.3 km/h Distance 0.19 km</desc>
<time>2010-03-01T17:07:11.01</time>
<name>274</name>
</trkpt>
<trkpt lat="48.941302" lon="8.665245">
<ele>356.0</ele>
<speed>2.7</speed>
<course>338.5</course>
<desc>Speed 2.7 km/h Distance 0.20 km</desc>
<time>2010-03-01T17:07:12.01</time>
<name>275</name>
</trkpt>
<trkpt lat="48.941310" lon="8.665240">
<ele>355.5</ele>
<speed>2.8</speed>
<course>336.6</course>
<desc>Speed 2.8 km/h Distance 0.20 km</desc>
<time>2010-03-01T17:07:13.01</time>
<name>276</name>
</trkpt>
<trkpt lat="48.941320" lon="8.665233">
<ele>354.5</ele>
<speed>3.4</speed>
<course>327.7</course>
<desc>Speed 3.4 km/h Distance 0.20 km</desc>
<time>2010-03-01T17:07:14.01</time>
<name>277</name>
</trkpt>
<trkpt lat="48.941325" lon="8.665228">
<ele>354.5</ele>
<speed>2.4</speed>
<course>332.1</course>
<desc>Speed 2.4 km/h Distance 0.20 km</desc>
<time>2010-03-01T17:07:15.01</time>
<name>278</name>
</trkpt>
<trkpt lat="48.941333" lon="8.665222">
<ele>354.5</ele>
<speed>2.8</speed>
<course>307.6</course>
<desc>Speed 2.8 km/h Distance 0.20 km</desc>
<time>2010-03-01T17:07:16.01</time>
<name>279</name>
</trkpt>
<trkpt lat="48.941338" lon="8.665212">
<ele>355.0</ele>
<speed>3.1</speed>
<course>327.7</course>
<desc>Speed 3.1 km/h Distance 0.20 km</desc>
<time>2010-03-01T17:07:17.01</time>
<name>280</name>
</trkpt>
<trkpt lat="48.941343" lon="8.665207">
<ele>355.0</ele>
<speed>2.1</speed>
<course>318.6</course>
<desc>Speed 2.1 km/h Distance 0.20 km</desc>
<time>2010-03-01T17:07:18.01</time>
<name>281</name>
</trkpt>
<trkpt lat="48.941348" lon="8.665200">
<ele>355.0</ele>
<speed>3.1</speed>
<course>303.3</course>
<desc>Speed 3.1 km/h Distance 0.20 km</desc>
<time>2010-03-01T17:07:19.01</time>
<name>282</name>
</trkpt>
<trkpt lat="48.941353" lon="8.665188">
<ele>355.0</ele>
<speed>3.0</speed>
<course>286.9</course>
<desc>Speed 3.0 km/h Distance 0.20 km</desc>
<time>2010-03-01T17:07:20.01</time>
<name>283</name>
</trkpt>
<trkpt lat="48.941357" lon="8.665172">
<ele>356.5</ele>
<speed>3.4</speed>
<course>318.6</course>
<desc>Speed 3.4 km/h Distance 0.20 km</desc>
<time>2010-03-01T17:07:21.01</time>
<name>284</name>
</trkpt>
<trkpt lat="48.941362" lon="8.665165">
<ele>355.5</ele>
<speed>2.3</speed>
<course>312.2</course>
<desc>Speed 2.3 km/h Distance 0.20 km</desc>
<time>2010-03-01T17:07:22.01</time>
<name>285</name>
</trkpt>
<trkpt lat="48.941367" lon="8.665157">
<ele>355.5</ele>
<speed>2.7</speed>
<course>270.0</course>
<desc>Speed 2.7 km/h Distance 0.21 km</desc>
<time>2010-03-01T17:07:23.01</time>
<name>286</name>
</trkpt>
<trkpt lat="48.941367" lon="8.665143">
<ele>356.5</ele>
<speed>1.3</speed>
<course>233.9</course>
<desc>Speed 1.3 km/h Distance 0.21 km</desc>
<time>2010-03-01T17:07:24.01</time>
<name>287</name>
</trkpt>
<trkpt lat="48.941365" lon="8.665140">
<ele>357.0</ele>
<speed>0.4</speed>
<course>243.4</course>
<desc>Speed 0.4 km/h Distance 0.21 km</desc>
<time>2010-03-01T17:07:25.01</time>
<name>288</name>
</trkpt>
<trkpt lat="48.941363" lon="8.665135">
<ele>357.5</ele>
<speed>0.6</speed>
<course>249.1</course>
<desc>Speed 0.6 km/h Distance 0.21 km</desc>
<time>2010-03-01T17:07:26.01</time>
<name>289</name>
</trkpt>
<trkpt lat="48.941362" lon="8.665128">
<ele>358.5</ele>
<speed>0.5</speed>
<course>249.1</course>
<desc>Speed 0.5 km/h Distance 0.21 km</desc>
<time>2010-03-01T17:07:27.01</time>
<name>290</name>
</trkpt>
<trkpt lat="48.941360" lon="8.665122">
<ele>359.5</ele>
<speed>0.8</speed>
<course>249.8</course>
<desc>Speed 0.8 km/h Distance 0.21 km</desc>
<time>2010-03-01T17:07:28.01</time>
<name>291</name>
</trkpt>
<trkpt lat="48.941358" lon="8.665115">
<ele>360.5</ele>
<speed>0.2</speed>
<course>249.8</course>
<desc>Speed 0.2 km/h Distance 0.21 km</desc>
<time>2010-03-01T17:07:29.01</time>
<name>292</name>
</trkpt>
<trkpt lat="48.941358" lon="8.665115">
<ele>360.5</ele>
<speed>0.1</speed>
<course>217.2</course>
<desc>Speed 0.1 km/h Distance 0.21 km</desc>
<time>2010-03-01T17:07:30.01</time>
<name>293</name>
</trkpt>
<trkpt lat="48.941357" lon="8.665113">
<ele>360.5</ele>
<speed>0.5</speed>
<course>146.3</course>
<desc>Speed 0.5 km/h Distance 0.21 km</desc>
<time>2010-03-01T17:07:31.01</time>
<name>294</name>
</trkpt>
<trkpt lat="48.941353" lon="8.665117">
<ele>360.5</ele>
<speed>1.5</speed>
<course>146.3</course>
<desc>Speed 1.5 km/h Distance 0.21 km</desc>
<time>2010-03-01T17:07:32.01</time>
<name>295</name>
</trkpt>
<trkpt lat="48.941353" lon="8.665117">
<ele>360.5</ele>
<speed>0.3</speed>
<course>167.4</course>
<desc>Speed 0.3 km/h Distance 0.21 km</desc>
<time>2010-03-01T17:07:33.01</time>
<name>296</name>
</trkpt>
<trkpt lat="48.941352" lon="8.665117">
<ele>360.5</ele>
<speed>0.1</speed>
<course>167.4</course>
<desc>Speed 0.1 km/h Distance 0.21 km</desc>
<time>2010-03-01T17:07:34.01</time>
<name>297</name>
</trkpt>
<trkpt lat="48.941352" lon="8.665117">
<ele>361.0</ele>
<speed>0.1</speed>
<course>217.2</course>
<desc>Speed 0.1 km/h Distance 0.21 km</desc>
<time>2010-03-01T17:07:35.01</time>
<name>298</name>
</trkpt>
<trkpt lat="48.941350" lon="8.665115">
<ele>361.0</ele>
<speed>0.2</speed>
<course>217.2</course>
<desc>Speed 0.2 km/h Distance 0.21 km</desc>
<time>2010-03-01T17:07:36.01</time>
<name>299</name>
</trkpt>
<trkpt lat="48.941350" lon="8.665115">
<ele>361.5</ele>
<speed>0.2</speed>
<course>167.4</course>
<desc>Speed 0.2 km/h Distance 0.21 km</desc>
<time>2010-03-01T17:07:37.01</time>
<name>300</name>
</trkpt>
<trkpt lat="48.941348" lon="8.665115">
<ele>361.5</ele>
<speed>0.3</speed>
<course>167.4</course>
<desc>Speed 0.3 km/h Distance 0.21 km</desc>
<time>2010-03-01T17:07:38.01</time>
<name>301</name>
</trkpt>
<trkpt lat="48.941348" lon="8.665115">
<ele>361.5</ele>
<speed>0.2</speed>
<course>167.4</course>
<desc>Speed 0.2 km/h Distance 0.21 km</desc>
<time>2010-03-01T17:07:39.01</time>
<name>302</name>
</trkpt>
<trkpt lat="48.941348" lon="8.665115">
<ele>361.5</ele>
<speed>0.2</speed>
<course>270.0</course>
<desc>Speed 0.2 km/h Distance 0.21 km</desc>
<time>2010-03-01T17:07:40.01</time>
<name>303</name>
</trkpt>
<trkpt lat="48.941348" lon="8.665113">
<ele>361.5</ele>
<speed>0.3</speed>
<course>270.0</course>
<desc>Speed 0.3 km/h Distance 0.21 km</desc>
<time>2010-03-01T17:07:41.01</time>
<name>304</name>
</trkpt>
<trkpt lat="48.941348" lon="8.665113">
<ele>361.5</ele>
<speed>0.2</speed>
<course>270.0</course>
<desc>Speed 0.2 km/h Distance 0.21 km</desc>
<time>2010-03-01T17:07:42.01</time>
<name>305</name>
</trkpt>
<trkpt lat="48.941348" lon="8.665113">
<ele>361.5</ele>
<speed>0.3</speed>
<course>270.0</course>
<desc>Speed 0.3 km/h Distance 0.21 km</desc>
<time>2010-03-01T17:07:43.01</time>
<name>306</name>
</trkpt>
<trkpt lat="48.941348" lon="8.665113">
<ele>361.5</ele>
<speed>0.3</speed>
<course>270.0</course>
<desc>Speed 0.3 km/h Distance 0.21 km</desc>
<time>2010-03-01T17:07:44.01</time>
<name>307</name>
</trkpt>
<trkpt lat="48.941348" lon="8.665112">
<ele>362.0</ele>
<speed>0.5</speed>
<course>12.6</course>
<desc>Speed 0.5 km/h Distance 0.21 km</desc>
<time>2010-03-01T17:07:45.01</time>
<name>308</name>
</trkpt>
<trkpt lat="48.941350" lon="8.665112">
<ele>362.0</ele>
<speed>0.4</speed>
<course>12.6</course>
<desc>Speed 0.4 km/h Distance 0.21 km</desc>
<time>2010-03-01T17:07:46.01</time>
<name>309</name>
</trkpt>
<trkpt lat="48.941350" lon="8.665112">
<ele>362.0</ele>
<speed>0.1</speed>
<course>12.6</course>
<desc>Speed 0.1 km/h Distance 0.21 km</desc>
<time>2010-03-01T17:07:47.01</time>
<name>310</name>
</trkpt>
<trkpt lat="48.941350" lon="8.665112">
<ele>362.0</ele>
<speed>0.6</speed>
<course>167.4</course>
<desc>Speed 0.6 km/h Distance 0.21 km</desc>
<time>2010-03-01T17:07:48.01</time>
<name>311</name>
</trkpt>
<trkpt lat="48.941348" lon="8.665112">
<ele>361.5</ele>
<speed>0.1</speed>
<course>270.0</course>
<desc>Speed 0.1 km/h Distance 0.21 km</desc>
<time>2010-03-01T17:07:49.01</time>
<name>312</name>
</trkpt>
<trkpt lat="48.941348" lon="8.665110">
<ele>361.5</ele>
<speed>0.1</speed>
<course>12.6</course>
<desc>Speed 0.1 km/h Distance 0.21 km</desc>
<time>2010-03-01T17:07:50.01</time>
<name>313</name>
</trkpt>
<trkpt lat="48.941350" lon="8.665110">
<ele>361.5</ele>
<speed>0.2</speed>
<course>12.6</course>
<desc>Speed 0.2 km/h Distance 0.21 km</desc>
<time>2010-03-01T17:07:51.01</time>
<name>314</name>
</trkpt>
<trkpt lat="48.941350" lon="8.665110">
<ele>361.5</ele>
<speed>0.3</speed>
<course>12.6</course>
<desc>Speed 0.3 km/h Distance 0.21 km</desc>
<time>2010-03-01T17:07:52.01</time>
<name>315</name>
</trkpt>
<trkpt lat="48.941350" lon="8.665110">
<ele>361.5</ele>
<speed>0.1</speed>
<course>12.6</course>
<desc>Speed 0.1 km/h Distance 0.21 km</desc>
<time>2010-03-01T17:07:53.51</time>
<name>316</name>
</trkpt>
<trkpt lat="48.941350" lon="8.665110">
<ele>361.5</ele>
<speed>0.1</speed>
<course>12.6</course>
<desc>Speed 0.1 km/h Distance 0.21 km</desc>
<time>2010-03-01T17:07:54.01</time>
<name>317</name>
</trkpt>
<trkpt lat="48.941350" lon="8.665110">
<ele>361.5</ele>
<speed>0.3</speed>
<course>12.6</course>
<desc>Speed 0.3 km/h Distance 0.21 km</desc>
<time>2010-03-01T17:07:55.51</time>
<name>318</name>
</trkpt>
<trkpt lat="48.941350" lon="8.665110">
<ele>361.5</ele>
<speed>0.3</speed>
<course>12.6</course>
<desc>Speed 0.3 km/h Distance 0.21 km</desc>
<time>2010-03-01T17:07:56.51</time>
<name>319</name>
</trkpt>
<trkpt lat="48.941350" lon="8.665110">
<ele>361.5</ele>
<speed>0.3</speed>
<course>12.6</course>
<desc>Speed 0.3 km/h Distance 0.21 km</desc>
<time>2010-03-01T17:07:57.51</time>
<name>320</name>
</trkpt>
<trkpt lat="48.941350" lon="8.665110">
<ele>361.5</ele>
<speed>0.4</speed>
<course>12.6</course>
<desc>Speed 0.4 km/h Distance 0.21 km</desc>
<time>2010-03-01T17:07:58.52</time>
<name>321</name>
</trkpt>
<trkpt lat="48.941350" lon="8.665110">
<ele>361.5</ele>
<speed>0.4</speed>
<course>12.6</course>
<desc>Speed 0.4 km/h Distance 0.21 km</desc>
<time>2010-03-01T17:07:59.01</time>
<name>322</name>
</trkpt>
<trkpt lat="48.941352" lon="8.665110">
<ele>361.5</ele>
<speed>0.3</speed>
<course>12.6</course>
<desc>Speed 0.3 km/h Distance 0.21 km</desc>
<time>2010-03-01T17:08:00.51</time>
<name>323</name>
</trkpt>
<trkpt lat="48.941352" lon="8.665110">
<ele>361.5</ele>
<speed>0.2</speed>
<course>12.6</course>
<desc>Speed 0.2 km/h Distance 0.21 km</desc>
<time>2010-03-01T17:08:01.51</time>
<name>324</name>
</trkpt>
<trkpt lat="48.941352" lon="8.665110">
<ele>361.5</ele>
<speed>0.5</speed>
<course>325.9</course>
<desc>Speed 0.5 km/h Distance 0.21 km</desc>
<time>2010-03-01T17:08:02.50</time>
<name>325</name>
</trkpt>
<trkpt lat="48.941357" lon="8.665105">
<ele>361.5</ele>
<speed>1.9</speed>
<course>304.3</course>
<desc>Speed 1.9 km/h Distance 0.21 km</desc>
<time>2010-03-01T17:08:03.51</time>
<name>326</name>
</trkpt>
<trkpt lat="48.941358" lon="8.665102">
<ele>361.0</ele>
<speed>1.0</speed>
<course>203.0</course>
<desc>Speed 1.0 km/h Distance 0.21 km</desc>
<time>2010-03-01T17:08:04.51</time>
<name>327</name>
</trkpt>
<trkpt lat="48.941355" lon="8.665100">
<ele>360.5</ele>
<speed>1.4</speed>
<course>270.0</course>
<desc>Speed 1.4 km/h Distance 0.21 km</desc>
<time>2010-03-01T17:08:05.51</time>
<name>328</name>
</trkpt>
<trkpt lat="48.941355" lon="8.665098">
<ele>360.5</ele>
<speed>0.6</speed>
<course>318.6</course>
<desc>Speed 0.6 km/h Distance 0.21 km</desc>
<time>2010-03-01T17:08:06.50</time>
<name>329</name>
</trkpt>
<trkpt lat="48.941360" lon="8.665092">
<ele>360.5</ele>
<speed>1.9</speed>
<course>334.4</course>
<desc>Speed 1.9 km/h Distance 0.21 km</desc>
<time>2010-03-01T17:08:07.50</time>
<name>330</name>
</trkpt>
<trkpt lat="48.941367" lon="8.665087">
<ele>360.0</ele>
<speed>2.7</speed>
<course>332.1</course>
<desc>Speed 2.7 km/h Distance 0.21 km</desc>
<time>2010-03-01T17:08:08.50</time>
<name>331</name>
</trkpt>
<trkpt lat="48.941375" lon="8.665080">
<ele>360.0</ele>
<speed>3.0</speed>
<course>320.6</course>
<desc>Speed 3.0 km/h Distance 0.22 km</desc>
<time>2010-03-01T17:08:09.50</time>
<name>332</name>
</trkpt>
<trkpt lat="48.941382" lon="8.665072">
<ele>360.0</ele>
<speed>2.2</speed>
<course>320.6</course>
<desc>Speed 2.2 km/h Distance 0.22 km</desc>
<time>2010-03-01T17:08:10.51</time>
<name>333</name>
</trkpt>
<trkpt lat="48.941382" lon="8.665072">
<ele>360.0</ele>
<speed>2.2</speed>
<course>331.2</course>
<desc>Speed 2.2 km/h Distance 0.22 km</desc>
<time>2010-03-01T17:08:11.01</time>
<name>334</name>
</trkpt>
<trkpt lat="48.941402" lon="8.665055">
<ele>359.5</ele>
<speed>2.9</speed>
<course>315.5</course>
<desc>Speed 2.9 km/h Distance 0.22 km</desc>
<time>2010-03-01T17:08:12.49</time>
<name>335</name>
</trkpt>
<trkpt lat="48.941408" lon="8.665045">
<ele>359.0</ele>
<speed>2.2</speed>
<course>326.8</course>
<desc>Speed 2.2 km/h Distance 0.22 km</desc>
<time>2010-03-01T17:08:13.49</time>
<name>336</name>
</trkpt>
<trkpt lat="48.941417" lon="8.665037">
<ele>358.5</ele>
<speed>2.3</speed>
<course>315.5</course>
<desc>Speed 2.3 km/h Distance 0.22 km</desc>
<time>2010-03-01T17:08:14.49</time>
<name>337</name>
</trkpt>
<trkpt lat="48.941423" lon="8.665027">
<ele>358.5</ele>
<speed>2.8</speed>
<course>336.6</course>
<desc>Speed 2.8 km/h Distance 0.22 km</desc>
<time>2010-03-01T17:08:15.49</time>
<name>338</name>
</trkpt>
<trkpt lat="48.941433" lon="8.665020">
<ele>358.0</ele>
<speed>3.7</speed>
<course>326.8</course>
<desc>Speed 3.7 km/h Distance 0.22 km</desc>
<time>2010-03-01T17:08:16.49</time>
<name>339</name>
</trkpt>
<trkpt lat="48.941442" lon="8.665012">
<ele>357.5</ele>
<speed>3.4</speed>
<course>307.4</course>
<desc>Speed 3.4 km/h Distance 0.22 km</desc>
<time>2010-03-01T17:08:17.49</time>
<name>340</name>
</trkpt>
<trkpt lat="48.941447" lon="8.665002">
<ele>358.0</ele>
<speed>3.2</speed>
<course>321.9</course>
<desc>Speed 3.2 km/h Distance 0.23 km</desc>
<time>2010-03-01T17:08:18.49</time>
<name>341</name>
</trkpt>
<trkpt lat="48.941455" lon="8.664992">
<ele>358.0</ele>
<speed>3.4</speed>
<course>336.2</course>
<desc>Speed 3.4 km/h Distance 0.23 km</desc>
<time>2010-03-01T17:08:19.49</time>
<name>342</name>
</trkpt>
<trkpt lat="48.941465" lon="8.664985">
<ele>357.5</ele>
<speed>3.3</speed>
<course>337.8</course>
<desc>Speed 3.3 km/h Distance 0.23 km</desc>
<time>2010-03-01T17:08:20.50</time>
<name>343</name>
</trkpt>
<trkpt lat="48.941470" lon="8.664982">
<ele>356.5</ele>
<speed>2.1</speed>
<course>312.6</course>
<desc>Speed 2.1 km/h Distance 0.23 km</desc>
<time>2010-03-01T17:08:21.50</time>
<name>344</name>
</trkpt>
<trkpt lat="48.941475" lon="8.664973">
<ele>356.5</ele>
<speed>2.9</speed>
<course>320.6</course>
<desc>Speed 2.9 km/h Distance 0.23 km</desc>
<time>2010-03-01T17:08:22.50</time>
<name>345</name>
</trkpt>
<trkpt lat="48.941482" lon="8.664965">
<ele>356.5</ele>
<speed>3.1</speed>
<course>339.9</course>
<desc>Speed 3.1 km/h Distance 0.23 km</desc>
<time>2010-03-01T17:08:23.50</time>
<name>346</name>
</trkpt>
<trkpt lat="48.941490" lon="8.664960">
<ele>356.0</ele>
<speed>3.9</speed>
<course>332.5</course>
<desc>Speed 3.9 km/h Distance 0.23 km</desc>
<time>2010-03-01T17:08:24.50</time>
<name>347</name>
</trkpt>
<trkpt lat="48.941498" lon="8.664953">
<ele>356.0</ele>
<speed>3.1</speed>
<course>307.2</course>
<desc>Speed 3.1 km/h Distance 0.23 km</desc>
<time>2010-03-01T17:08:25.50</time>
<name>348</name>
</trkpt>
<trkpt lat="48.941503" lon="8.664943">
<ele>356.5</ele>
<speed>2.9</speed>
<course>296.9</course>
<desc>Speed 2.9 km/h Distance 0.23 km</desc>
<time>2010-03-01T17:08:26.50</time>
<name>349</name>
</trkpt>
<trkpt lat="48.941508" lon="8.664928">
<ele>356.0</ele>
<speed>3.1</speed>
<course>335.2</course>
<desc>Speed 3.1 km/h Distance 0.23 km</desc>
<time>2010-03-01T17:08:27.50</time>
<name>350</name>
</trkpt>
<trkpt lat="48.941515" lon="8.664923">
<ele>356.0</ele>
<speed>3.0</speed>
<course>316.5</course>
<desc>Speed 3.0 km/h Distance 0.24 km</desc>
<time>2010-03-01T17:08:28.50</time>
<name>351</name>
</trkpt>
<trkpt lat="48.941518" lon="8.664918">
<ele>356.0</ele>
<speed>1.5</speed>
<course>341.2</course>
<desc>Speed 1.5 km/h Distance 0.24 km</desc>
<time>2010-03-01T17:08:29.50</time>
<name>352</name>
</trkpt>
<trkpt lat="48.941525" lon="8.664915">
<ele>356.0</ele>
<speed>2.2</speed>
<course>331.1</course>
<desc>Speed 2.2 km/h Distance 0.24 km</desc>
<time>2010-03-01T17:08:30.50</time>
<name>353</name>
</trkpt>
<trkpt lat="48.941535" lon="8.664907">
<ele>355.5</ele>
<speed>3.3</speed>
<course>307.2</course>
<desc>Speed 3.3 km/h Distance 0.24 km</desc>
<time>2010-03-01T17:08:31.50</time>
<name>354</name>
</trkpt>
<trkpt lat="48.941540" lon="8.664897">
<ele>355.0</ele>
<speed>3.1</speed>
<course>318.1</course>
<desc>Speed 3.1 km/h Distance 0.24 km</desc>
<time>2010-03-01T17:08:32.49</time>
<name>355</name>
</trkpt>
<trkpt lat="48.941545" lon="8.664890">
<ele>354.0</ele>
<speed>2.3</speed>
<course>345.1</course>
<desc>Speed 2.3 km/h Distance 0.24 km</desc>
<time>2010-03-01T17:08:33.49</time>
<name>356</name>
</trkpt>
<trkpt lat="48.941553" lon="8.664887">
<ele>354.0</ele>
<speed>2.1</speed>
<course>327.7</course>
<desc>Speed 2.1 km/h Distance 0.24 km</desc>
<time>2010-03-01T17:08:34.49</time>
<name>357</name>
</trkpt>
<trkpt lat="48.941558" lon="8.664882">
<ele>354.0</ele>
<speed>1.4</speed>
<course>347.4</course>
<desc>Speed 1.4 km/h Distance 0.24 km</desc>
<time>2010-03-01T17:08:35.49</time>
<name>358</name>
</trkpt>
<trkpt lat="48.941563" lon="8.664880">
<ele>354.0</ele>
<speed>0.8</speed>
<course>347.4</course>
<desc>Speed 0.8 km/h Distance 0.24 km</desc>
<time>2010-03-01T17:08:36.50</time>
<name>359</name>
</trkpt>
<trkpt lat="48.941568" lon="8.664878">
<ele>354.0</ele>
<speed>1.4</speed>
<course>347.4</course>
<desc>Speed 1.4 km/h Distance 0.24 km</desc>
<time>2010-03-01T17:08:37.50</time>
<name>360</name>
</trkpt>
<trkpt lat="48.941578" lon="8.664875">
<ele>354.0</ele>
<speed>2.7</speed>
<course>344.0</course>
<desc>Speed 2.7 km/h Distance 0.24 km</desc>
<time>2010-03-01T17:08:38.49</time>
<name>361</name>
</trkpt>
<trkpt lat="48.941590" lon="8.664870">
<ele>353.0</ele>
<speed>3.1</speed>
<course>331.4</course>
<desc>Speed 3.1 km/h Distance 0.24 km</desc>
<time>2010-03-01T17:08:39.49</time>
<name>362</name>
</trkpt>
<trkpt lat="48.941600" lon="8.664862">
<ele>353.0</ele>
<speed>3.2</speed>
<course>332.5</course>
<desc>Speed 3.2 km/h Distance 0.25 km</desc>
<time>2010-03-01T17:08:40.49</time>
<name>363</name>
</trkpt>
<trkpt lat="48.941608" lon="8.664855">
<ele>352.5</ele>
<speed>3.5</speed>
<course>331.4</course>
<desc>Speed 3.5 km/h Distance 0.25 km</desc>
<time>2010-03-01T17:08:41.49</time>
<name>364</name>
</trkpt>
<trkpt lat="48.941618" lon="8.664847">
<ele>352.5</ele>
<speed>3.1</speed>
<course>345.1</course>
<desc>Speed 3.1 km/h Distance 0.25 km</desc>
<time>2010-03-01T17:08:42.49</time>
<name>365</name>
</trkpt>
<trkpt lat="48.941627" lon="8.664843">
<ele>352.0</ele>
<speed>2.3</speed>
<course>12.6</course>
<desc>Speed 2.3 km/h Distance 0.25 km</desc>
<time>2010-03-01T17:08:43.49</time>
<name>366</name>
</trkpt>
<trkpt lat="48.941630" lon="8.664843">
<ele>351.5</ele>
<speed>0.4</speed>
<course>330.8</course>
<desc>Speed 0.4 km/h Distance 0.25 km</desc>
<time>2010-03-01T17:08:44.49</time>
<name>367</name>
</trkpt>
<trkpt lat="48.941632" lon="8.664842">
<ele>351.0</ele>
<speed>0.2</speed>
<course>347.4</course>
<desc>Speed 0.2 km/h Distance 0.25 km</desc>
<time>2010-03-01T17:08:45.49</time>
<name>368</name>
</trkpt>
<trkpt lat="48.941635" lon="8.664840">
<ele>351.0</ele>
<speed>0.8</speed>
<course>307.0</course>
<desc>Speed 0.8 km/h Distance 0.25 km</desc>
<time>2010-03-01T17:08:46.49</time>
<name>369</name>
</trkpt>
<trkpt lat="48.941638" lon="8.664833">
<ele>351.0</ele>
<speed>1.5</speed>
<course>307.0</course>
<desc>Speed 1.5 km/h Distance 0.25 km</desc>
<time>2010-03-01T17:08:47.49</time>
<name>370</name>
</trkpt>
<trkpt lat="48.941642" lon="8.664827">
<ele>351.0</ele>
<speed>2.2</speed>
<course>312.2</course>
<desc>Speed 2.2 km/h Distance 0.25 km</desc>
<time>2010-03-01T17:08:48.49</time>
<name>371</name>
</trkpt>
<trkpt lat="48.941647" lon="8.664818">
<ele>350.5</ele>
<speed>2.5</speed>
<course>318.1</course>
<desc>Speed 2.5 km/h Distance 0.25 km</desc>
<time>2010-03-01T17:08:49.49</time>
<name>372</name>
</trkpt>
<trkpt lat="48.941652" lon="8.664812">
<ele>350.5</ele>
<speed>2.3</speed>
<course>326.3</course>
<desc>Speed 2.3 km/h Distance 0.25 km</desc>
<time>2010-03-01T17:08:50.49</time>
<name>373</name>
</trkpt>
<trkpt lat="48.941658" lon="8.664805">
<ele>349.5</ele>
<speed>2.3</speed>
<course>355.0</course>
<desc>Speed 2.3 km/h Distance 0.25 km</desc>
<time>2010-03-01T17:08:51.49</time>
<name>374</name>
</trkpt>
<trkpt lat="48.941667" lon="8.664803">
<ele>347.0</ele>
<speed>2.5</speed>
<course>338.5</course>
<desc>Speed 2.5 km/h Distance 0.25 km</desc>
<time>2010-03-01T17:08:52.49</time>
<name>375</name>
</trkpt>
<trkpt lat="48.941675" lon="8.664798">
<ele>346.5</ele>
<speed>2.4</speed>
<course>337.8</course>
<desc>Speed 2.4 km/h Distance 0.26 km</desc>
<time>2010-03-01T17:08:53.49</time>
<name>376</name>
</trkpt>
<trkpt lat="48.941680" lon="8.664795">
<ele>346.0</ele>
<speed>1.4</speed>
<course>347.4</course>
<desc>Speed 1.4 km/h Distance 0.26 km</desc>
<time>2010-03-01T17:08:54.49</time>
<name>377</name>
</trkpt>
<trkpt lat="48.941682" lon="8.664793">
<ele>345.5</ele>
<speed>0.7</speed>
<course>12.6</course>
<desc>Speed 0.7 km/h Distance 0.26 km</desc>
<time>2010-03-01T17:08:55.49</time>
<name>378</name>
</trkpt>
<trkpt lat="48.941683" lon="8.664793">
<ele>345.5</ele>
<speed>0.5</speed>
<course>12.6</course>
<desc>Speed 0.5 km/h Distance 0.26 km</desc>
<time>2010-03-01T17:08:56.49</time>
<name>379</name>
</trkpt>
<trkpt lat="48.941683" lon="8.664793">
<ele>345.5</ele>
<speed>0.2</speed>
<course>29.2</course>
<desc>Speed 0.2 km/h Distance 0.26 km</desc>
<time>2010-03-01T17:08:57.48</time>
<name>380</name>
</trkpt>
<trkpt lat="48.941685" lon="8.664795">
<ele>345.0</ele>
<speed>0.5</speed>
<course>29.2</course>
<desc>Speed 0.5 km/h Distance 0.26 km</desc>
<time>2010-03-01T17:08:58.48</time>
<name>381</name>
</trkpt>
<trkpt lat="48.941685" lon="8.664795">
<ele>345.0</ele>
<speed>0.2</speed>
<course>29.2</course>
<desc>Speed 0.2 km/h Distance 0.26 km</desc>
<time>2010-03-01T17:08:59.48</time>
<name>382</name>
</trkpt>
<trkpt lat="48.941685" lon="8.664795">
<ele>345.0</ele>
<speed>0.1</speed>
<course>270.0</course>
<desc>Speed 0.1 km/h Distance 0.26 km</desc>
<time>2010-03-01T17:09:00.48</time>
<name>383</name>
</trkpt>
<trkpt lat="48.941685" lon="8.664793">
<ele>344.5</ele>
<speed>0.4</speed>
<course>29.2</course>
<desc>Speed 0.4 km/h Distance 0.26 km</desc>
<time>2010-03-01T17:09:01.48</time>
<name>384</name>
</trkpt>
<trkpt lat="48.941687" lon="8.664795">
<ele>344.5</ele>
<speed>0.3</speed>
<course>29.2</course>
<desc>Speed 0.3 km/h Distance 0.26 km</desc>
<time>2010-03-01T17:09:02.48</time>
<name>385</name>
</trkpt>
<trkpt lat="48.941687" lon="8.664795">
<ele>344.5</ele>
<speed>0.3</speed>
<course>29.2</course>
<desc>Speed 0.3 km/h Distance 0.26 km</desc>
<time>2010-03-01T17:09:03.48</time>
<name>386</name>
</trkpt>
<trkpt lat="48.941687" lon="8.664795">
<ele>344.5</ele>
<speed>0.2</speed>
<course>29.2</course>
<desc>Speed 0.2 km/h Distance 0.26 km</desc>
<time>2010-03-01T17:09:04.48</time>
<name>387</name>
</trkpt>
<trkpt lat="48.941687" lon="8.664795">
<ele>344.0</ele>
<speed>0.2</speed>
<course>308.1</course>
<desc>Speed 0.2 km/h Distance 0.26 km</desc>
<time>2010-03-01T17:09:05.48</time>
<name>388</name>
</trkpt>
<trkpt lat="48.941688" lon="8.664792">
<ele>343.5</ele>
<speed>1.2</speed>
<course>327.7</course>
<desc>Speed 1.2 km/h Distance 0.26 km</desc>
<time>2010-03-01T17:09:06.48</time>
<name>389</name>
</trkpt>
<trkpt lat="48.941693" lon="8.664787">
<ele>343.5</ele>
<speed>2.2</speed>
<course>326.3</course>
<desc>Speed 2.2 km/h Distance 0.26 km</desc>
<time>2010-03-01T17:09:07.48</time>
<name>390</name>
</trkpt>
<trkpt lat="48.941700" lon="8.664780">
<ele>343.0</ele>
<speed>2.8</speed>
<course>315.5</course>
<desc>Speed 2.8 km/h Distance 0.26 km</desc>
<time>2010-03-01T17:09:08.48</time>
<name>391</name>
</trkpt>
<trkpt lat="48.941707" lon="8.664770">
<ele>342.0</ele>
<speed>3.1</speed>
<course>299.7</course>
<desc>Speed 3.1 km/h Distance 0.26 km</desc>
<time>2010-03-01T17:09:09.48</time>
<name>392</name>
</trkpt>
<trkpt lat="48.941712" lon="8.664757">
<ele>342.0</ele>
<speed>3.3</speed>
<course>307.6</course>
<desc>Speed 3.3 km/h Distance 0.26 km</desc>
<time>2010-03-01T17:09:10.49</time>
<name>393</name>
</trkpt>
<trkpt lat="48.941717" lon="8.664747">
<ele>342.0</ele>
<speed>2.9</speed>
<course>320.6</course>
<desc>Speed 2.9 km/h Distance 0.26 km</desc>
<time>2010-03-01T17:09:11.48</time>
<name>394</name>
</trkpt>
<trkpt lat="48.941723" lon="8.664738">
<ele>341.5</ele>
<speed>3.1</speed>
<course>332.1</course>
<desc>Speed 3.1 km/h Distance 0.26 km</desc>
<time>2010-03-01T17:09:12.48</time>
<name>395</name>
</trkpt>
<trkpt lat="48.941732" lon="8.664732">
<ele>341.0</ele>
<speed>3.5</speed>
<course>326.8</course>
<desc>Speed 3.5 km/h Distance 0.26 km</desc>
<time>2010-03-01T17:09:13.48</time>
<name>396</name>
</trkpt>
<trkpt lat="48.941738" lon="8.664725">
<ele>341.0</ele>
<speed>3.3</speed>
<course>321.9</course>
<desc>Speed 3.3 km/h Distance 0.27 km</desc>
<time>2010-03-01T17:09:14.48</time>
<name>397</name>
</trkpt>
<trkpt lat="48.941747" lon="8.664715">
<ele>341.0</ele>
<speed>3.7</speed>
<course>326.8</course>
<desc>Speed 3.7 km/h Distance 0.27 km</desc>
<time>2010-03-01T17:09:15.48</time>
<name>398</name>
</trkpt>
<trkpt lat="48.941757" lon="8.664705">
<ele>341.0</ele>
<speed>3.7</speed>
<course>327.0</course>
<desc>Speed 3.7 km/h Distance 0.27 km</desc>
<time>2010-03-01T17:09:16.48</time>
<name>399</name>
</trkpt>
<trkpt lat="48.941767" lon="8.664695">
<ele>340.5</ele>
<speed>4.0</speed>
<course>322.5</course>
<desc>Speed 4.0 km/h Distance 0.27 km</desc>
<time>2010-03-01T17:09:17.48</time>
<name>400</name>
</trkpt>
<trkpt lat="48.941777" lon="8.664683">
<ele>341.0</ele>
<speed>4.1</speed>
<course>315.5</course>
<desc>Speed 4.1 km/h Distance 0.27 km</desc>
<time>2010-03-01T17:09:18.47</time>
<name>401</name>
</trkpt>
<trkpt lat="48.941783" lon="8.664673">
<ele>341.0</ele>
<speed>3.2</speed>
<course>270.0</course>
<desc>Speed 3.2 km/h Distance 0.27 km</desc>
<time>2010-03-01T17:09:19.48</time>
<name>402</name>
</trkpt>
<trkpt lat="48.941783" lon="8.664670">
<ele>341.0</ele>
<speed>0.8</speed>
<course>270.0</course>
<desc>Speed 0.8 km/h Distance 0.27 km</desc>
<time>2010-03-01T17:09:20.47</time>
<name>403</name>
</trkpt>
<trkpt lat="48.941783" lon="8.664668">
<ele>341.0</ele>
<speed>0.2</speed>
<course>270.0</course>
<desc>Speed 0.2 km/h Distance 0.27 km</desc>
<time>2010-03-01T17:09:21.47</time>
<name>404</name>
</trkpt>
<trkpt lat="48.941783" lon="8.664668">
<ele>341.0</ele>
<speed>0.2</speed>
<course>270.0</course>
<desc>Speed 0.2 km/h Distance 0.27 km</desc>
<time>2010-03-01T17:09:22.47</time>
<name>405</name>
</trkpt>
<trkpt lat="48.941783" lon="8.664668">
<ele>341.0</ele>
<speed>0.1</speed>
<course>347.4</course>
<desc>Speed 0.1 km/h Distance 0.27 km</desc>
<time>2010-03-01T17:09:23.47</time>
<name>406</name>
</trkpt>
<trkpt lat="48.941785" lon="8.664667">
<ele>341.0</ele>
<speed>0.0</speed>
<course>347.4</course>
<desc>Speed 0.0 km/h Distance 0.27 km</desc>
<time>2010-03-01T17:09:24.47</time>
<name>407</name>
</trkpt>
<trkpt lat="48.941785" lon="8.664667">
<ele>341.0</ele>
<speed>0.2</speed>
<course>347.4</course>
<desc>Speed 0.2 km/h Distance 0.27 km</desc>
<time>2010-03-01T17:09:25.47</time>
<name>408</name>
</trkpt>
<trkpt lat="48.941785" lon="8.664667">
<ele>341.0</ele>
<speed>0.1</speed>
<course>347.4</course>
<desc>Speed 0.1 km/h Distance 0.27 km</desc>
<time>2010-03-01T17:09:26.47</time>
<name>409</name>
</trkpt>
<trkpt lat="48.941785" lon="8.664667">
<ele>341.0</ele>
<speed>0.1</speed>
<course>347.4</course>
<desc>Speed 0.1 km/h Distance 0.27 km</desc>
<time>2010-03-01T17:09:27.47</time>
<name>410</name>
</trkpt>
<trkpt lat="48.941785" lon="8.664667">
<ele>341.0</ele>
<speed>0.2</speed>
<course>90.0</course>
<desc>Speed 0.2 km/h Distance 0.27 km</desc>
<time>2010-03-01T17:09:28.47</time>
<name>411</name>
</trkpt>
<trkpt lat="48.941785" lon="8.664668">
<ele>340.5</ele>
<speed>0.1</speed>
<course>90.0</course>
<desc>Speed 0.1 km/h Distance 0.27 km</desc>
<time>2010-03-01T17:09:29.47</time>
<name>412</name>
</trkpt>
<trkpt lat="48.941785" lon="8.664668">
<ele>340.5</ele>
<speed>0.1</speed>
<course>90.0</course>
<desc>Speed 0.1 km/h Distance 0.27 km</desc>
<time>2010-03-01T17:09:30.47</time>
<name>413</name>
</trkpt>
<trkpt lat="48.941785" lon="8.664668">
<ele>340.5</ele>
<speed>0.1</speed>
<course>90.0</course>
<desc>Speed 0.1 km/h Distance 0.27 km</desc>
<time>2010-03-01T17:09:31.47</time>
<name>414</name>
</trkpt>
<trkpt lat="48.941785" lon="8.664670">
<ele>340.0</ele>
<speed>0.1</speed>
<course>90.0</course>
<desc>Speed 0.1 km/h Distance 0.27 km</desc>
<time>2010-03-01T17:09:32.47</time>
<name>415</name>
</trkpt>
<trkpt lat="48.941785" lon="8.664670">
<ele>340.0</ele>
<speed>0.0</speed>
<course>90.0</course>
<desc>Speed 0.0 km/h Distance 0.27 km</desc>
<time>2010-03-01T17:09:33.47</time>
<name>416</name>
</trkpt>
<trkpt lat="48.941785" lon="8.664670">
<ele>340.0</ele>
<speed>0.3</speed>
<course>90.0</course>
<desc>Speed 0.3 km/h Distance 0.27 km</desc>
<time>2010-03-01T17:09:34.47</time>
<name>417</name>
</trkpt>
<trkpt lat="48.941785" lon="8.664670">
<ele>340.0</ele>
<speed>0.0</speed>
<course>12.6</course>
<desc>Speed 0.0 km/h Distance 0.27 km</desc>
<time>2010-03-01T17:09:35.47</time>
<name>418</name>
</trkpt>
<trkpt lat="48.941787" lon="8.664670">
<ele>340.0</ele>
<speed>0.1</speed>
<course>12.6</course>
<desc>Speed 0.1 km/h Distance 0.27 km</desc>
<time>2010-03-01T17:09:36.47</time>
<name>419</name>
</trkpt>
<trkpt lat="48.941787" lon="8.664670">
<ele>340.0</ele>
<speed>0.1</speed>
<course>12.6</course>
<desc>Speed 0.1 km/h Distance 0.27 km</desc>
<time>2010-03-01T17:09:37.47</time>
<name>420</name>
</trkpt>
<trkpt lat="48.941787" lon="8.664670">
<ele>340.0</ele>
<speed>0.2</speed>
<course>12.6</course>
<desc>Speed 0.2 km/h Distance 0.27 km</desc>
<time>2010-03-01T17:09:38.47</time>
<name>421</name>
</trkpt>
<trkpt lat="48.941787" lon="8.664670">
<ele>340.0</ele>
<speed>0.0</speed>
<course>12.6</course>
<desc>Speed 0.0 km/h Distance 0.27 km</desc>
<time>2010-03-01T17:09:39.47</time>
<name>422</name>
</trkpt>
<trkpt lat="48.941787" lon="8.664670">
<ele>340.0</ele>
<speed>0.1</speed>
<course>12.6</course>
<desc>Speed 0.1 km/h Distance 0.27 km</desc>
<time>2010-03-01T17:09:40.47</time>
<name>423</name>
</trkpt>
<trkpt lat="48.941787" lon="8.664670">
<ele>340.0</ele>
<speed>0.0</speed>
<course>12.6</course>
<desc>Speed 0.0 km/h Distance 0.27 km</desc>
<time>2010-03-01T17:09:41.47</time>
<name>424</name>
</trkpt>
<trkpt lat="48.941787" lon="8.664670">
<ele>340.0</ele>
<speed>0.3</speed>
<course>12.6</course>
<desc>Speed 0.3 km/h Distance 0.27 km</desc>
<time>2010-03-01T17:09:42.47</time>
<name>425</name>
</trkpt>
<trkpt lat="48.941787" lon="8.664670">
<ele>340.0</ele>
<speed>0.2</speed>
<course>12.6</course>
<desc>Speed 0.2 km/h Distance 0.27 km</desc>
<time>2010-03-01T17:09:43.46</time>
<name>426</name>
</trkpt>
<trkpt lat="48.941787" lon="8.664670">
<ele>340.0</ele>
<speed>0.3</speed>
<course>12.6</course>
<desc>Speed 0.3 km/h Distance 0.27 km</desc>
<time>2010-03-01T17:09:44.46</time>
<name>427</name>
</trkpt>
<trkpt lat="48.941787" lon="8.664670">
<ele>340.0</ele>
<speed>0.1</speed>
<course>12.6</course>
<desc>Speed 0.1 km/h Distance 0.27 km</desc>
<time>2010-03-01T17:09:45.49</time>
<name>428</name>
</trkpt>
<trkpt lat="48.941787" lon="8.664670">
<ele>340.0</ele>
<speed>0.3</speed>
<course>12.6</course>
<desc>Speed 0.3 km/h Distance 0.27 km</desc>
<time>2010-03-01T17:09:46.48</time>
<name>429</name>
</trkpt>
<trkpt lat="48.941787" lon="8.664670">
<ele>340.0</ele>
<speed>0.2</speed>
<course>12.6</course>
<desc>Speed 0.2 km/h Distance 0.27 km</desc>
<time>2010-03-01T17:09:47.46</time>
<name>430</name>
</trkpt>
<trkpt lat="48.941787" lon="8.664670">
<ele>340.0</ele>
<speed>0.2</speed>
<course>12.6</course>
<desc>Speed 0.2 km/h Distance 0.27 km</desc>
<time>2010-03-01T17:09:48.46</time>
<name>431</name>
</trkpt>
<trkpt lat="48.941787" lon="8.664670">
<ele>340.0</ele>
<speed>0.1</speed>
<course>12.6</course>
<desc>Speed 0.1 km/h Distance 0.27 km</desc>
<time>2010-03-01T17:09:49.46</time>
<name>432</name>
</trkpt>
<trkpt lat="48.941787" lon="8.664670">
<ele>340.0</ele>
<speed>0.3</speed>
<course>12.6</course>
<desc>Speed 0.3 km/h Distance 0.27 km</desc>
<time>2010-03-01T17:09:50.46</time>
<name>433</name>
</trkpt>
<trkpt lat="48.941788" lon="8.664670">
<ele>340.0</ele>
<speed>0.4</speed>
<course>12.6</course>
<desc>Speed 0.4 km/h Distance 0.27 km</desc>
<time>2010-03-01T17:09:51.46</time>
<name>434</name>
</trkpt>
<trkpt lat="48.941788" lon="8.664670">
<ele>340.0</ele>
<speed>0.4</speed>
<course>12.6</course>
<desc>Speed 0.4 km/h Distance 0.27 km</desc>
<time>2010-03-01T17:09:52.46</time>
<name>435</name>
</trkpt>
<trkpt lat="48.941788" lon="8.664670">
<ele>340.0</ele>
<speed>0.1</speed>
<course>12.6</course>
<desc>Speed 0.1 km/h Distance 0.27 km</desc>
<time>2010-03-01T17:09:53.46</time>
<name>436</name>
</trkpt>
<trkpt lat="48.941788" lon="8.664670">
<ele>340.0</ele>
<speed>0.2</speed>
<course>308.1</course>
<desc>Speed 0.2 km/h Distance 0.27 km</desc>
<time>2010-03-01T17:09:54.48</time>
<name>437</name>
</trkpt>
<trkpt lat="48.941790" lon="8.664667">
<ele>340.5</ele>
<speed>1.0</speed>
<course>330.8</course>
<desc>Speed 1.0 km/h Distance 0.27 km</desc>
<time>2010-03-01T17:09:55.46</time>
<name>438</name>
</trkpt>
<trkpt lat="48.941793" lon="8.664663">
<ele>340.5</ele>
<speed>0.8</speed>
<course>0.0</course>
<desc>Speed 0.8 km/h Distance 0.27 km</desc>
<time>2010-03-01T17:09:56.46</time>
<name>439</name>
</trkpt>
<trkpt lat="48.941795" lon="8.664663">
<ele>340.5</ele>
<speed>0.6</speed>
<course>12.6</course>
<desc>Speed 0.6 km/h Distance 0.27 km</desc>
<time>2010-03-01T17:09:57.46</time>
<name>440</name>
</trkpt>
<trkpt lat="48.941798" lon="8.664665">
<ele>340.5</ele>
<speed>0.4</speed>
<course>12.6</course>
<desc>Speed 0.4 km/h Distance 0.27 km</desc>
<time>2010-03-01T17:09:58.46</time>
<name>441</name>
</trkpt>
<trkpt lat="48.941798" lon="8.664665">
<ele>340.5</ele>
<speed>0.3</speed>
<course>0.0</course>
<desc>Speed 0.3 km/h Distance 0.27 km</desc>
<time>2010-03-01T17:09:59.46</time>
<name>442</name>
</trkpt>
<trkpt lat="48.941802" lon="8.664665">
<ele>340.5</ele>
<speed>0.3</speed>
<course>0.0</course>
<desc>Speed 0.3 km/h Distance 0.27 km</desc>
<time>2010-03-01T17:10:00.46</time>
<name>443</name>
</trkpt>
<trkpt lat="48.941802" lon="8.664665">
<ele>340.5</ele>
<speed>0.3</speed>
<course>18.8</course>
<desc>Speed 0.3 km/h Distance 0.27 km</desc>
<time>2010-03-01T17:10:01.45</time>
<name>444</name>
</trkpt>
<trkpt lat="48.941808" lon="8.664668">
<ele>339.5</ele>
<speed>2.8</speed>
<course>12.6</course>
<desc>Speed 2.8 km/h Distance 0.28 km</desc>
<time>2010-03-01T17:10:02.45</time>
<name>445</name>
</trkpt>
<trkpt lat="48.941810" lon="8.664668">
<ele>339.5</ele>
<speed>0.3</speed>
<course>270.0</course>
<desc>Speed 0.3 km/h Distance 0.28 km</desc>
<time>2010-03-01T17:10:03.45</time>
<name>446</name>
</trkpt>
<trkpt lat="48.941810" lon="8.664667">
<ele>340.0</ele>
<speed>0.5</speed>
<course>270.0</course>
<desc>Speed 0.5 km/h Distance 0.28 km</desc>
<time>2010-03-01T17:10:04.45</time>
<name>447</name>
</trkpt>
<trkpt lat="48.941810" lon="8.664665">
<ele>340.5</ele>
<speed>0.6</speed>
<course>12.6</course>
<desc>Speed 0.6 km/h Distance 0.28 km</desc>
<time>2010-03-01T17:10:05.45</time>
<name>448</name>
</trkpt>
<trkpt lat="48.941812" lon="8.664665">
<ele>340.5</ele>
<speed>0.3</speed>
<course>12.6</course>
<desc>Speed 0.3 km/h Distance 0.28 km</desc>
<time>2010-03-01T17:10:06.45</time>
<name>449</name>
</trkpt>
<trkpt lat="48.941812" lon="8.664665">
<ele>340.5</ele>
<speed>0.1</speed>
<course>12.6</course>
<desc>Speed 0.1 km/h Distance 0.28 km</desc>
<time>2010-03-01T17:10:07.45</time>
<name>450</name>
</trkpt>
<trkpt lat="48.941812" lon="8.664665">
<ele>340.5</ele>
<speed>0.4</speed>
<course>322.8</course>
<desc>Speed 0.4 km/h Distance 0.28 km</desc>
<time>2010-03-01T17:10:08.45</time>
<name>451</name>
</trkpt>
<trkpt lat="48.941813" lon="8.664663">
<ele>340.5</ele>
<speed>0.3</speed>
<course>322.8</course>
<desc>Speed 0.3 km/h Distance 0.28 km</desc>
<time>2010-03-01T17:10:09.45</time>
<name>452</name>
</trkpt>
<trkpt lat="48.941813" lon="8.664663">
<ele>340.0</ele>
<speed>0.6</speed>
<course>322.8</course>
<desc>Speed 0.6 km/h Distance 0.28 km</desc>
<time>2010-03-01T17:10:10.46</time>
<name>453</name>
</trkpt>
<trkpt lat="48.941813" lon="8.664663">
<ele>340.5</ele>
<speed>0.1</speed>
<course>322.8</course>
<desc>Speed 0.1 km/h Distance 0.28 km</desc>
<time>2010-03-01T17:10:11.45</time>
<name>454</name>
</trkpt>
<trkpt lat="48.941813" lon="8.664663">
<ele>340.5</ele>
<speed>0.3</speed>
<course>322.8</course>
<desc>Speed 0.3 km/h Distance 0.28 km</desc>
<time>2010-03-01T17:10:12.45</time>
<name>455</name>
</trkpt>
<trkpt lat="48.941813" lon="8.664663">
<ele>340.5</ele>
<speed>0.0</speed>
<course>270.0</course>
<desc>Speed 0.0 km/h Distance 0.28 km</desc>
<time>2010-03-01T17:10:13.44</time>
<name>456</name>
</trkpt>
<trkpt lat="48.941813" lon="8.664662">
<ele>340.5</ele>
<speed>0.1</speed>
<course>270.0</course>
<desc>Speed 0.1 km/h Distance 0.28 km</desc>
<time>2010-03-01T17:10:14.45</time>
<name>457</name>
</trkpt>
<trkpt lat="48.941813" lon="8.664660">
<ele>340.5</ele>
<speed>0.3</speed>
<course>308.1</course>
<desc>Speed 0.3 km/h Distance 0.28 km</desc>
<time>2010-03-01T17:10:15.45</time>
<name>458</name>
</trkpt>
<trkpt lat="48.941815" lon="8.664657">
<ele>341.0</ele>
<speed>0.8</speed>
<course>242.6</course>
<desc>Speed 0.8 km/h Distance 0.28 km</desc>
<time>2010-03-01T17:10:16.45</time>
<name>459</name>
</trkpt>
<trkpt lat="48.941813" lon="8.664652">
<ele>341.5</ele>
<speed>0.4</speed>
<course>270.0</course>
<desc>Speed 0.4 km/h Distance 0.28 km</desc>
<time>2010-03-01T17:10:17.45</time>
<name>460</name>
</trkpt>
<trkpt lat="48.941813" lon="8.664650">
<ele>341.5</ele>
<speed>0.3</speed>
<course>322.8</course>
<desc>Speed 0.3 km/h Distance 0.28 km</desc>
<time>2010-03-01T17:10:18.45</time>
<name>461</name>
</trkpt>
<trkpt lat="48.941815" lon="8.664648">
<ele>341.5</ele>
<speed>0.3</speed>
<course>290.5</course>
<desc>Speed 0.3 km/h Distance 0.28 km</desc>
<time>2010-03-01T17:10:19.45</time>
<name>462</name>
</trkpt>
<trkpt lat="48.941817" lon="8.664642">
<ele>341.5</ele>
<speed>1.7</speed>
<course>319.1</course>
<desc>Speed 1.7 km/h Distance 0.28 km</desc>
<time>2010-03-01T17:10:20.44</time>
<name>463</name>
</trkpt>
<trkpt lat="48.941822" lon="8.664635">
<ele>341.5</ele>
<speed>2.0</speed>
<course>338.5</course>
<desc>Speed 2.0 km/h Distance 0.28 km</desc>
<time>2010-03-01T17:10:21.44</time>
<name>464</name>
</trkpt>
<trkpt lat="48.941830" lon="8.664630">
<ele>340.5</ele>
<speed>2.7</speed>
<course>334.4</course>
<desc>Speed 2.7 km/h Distance 0.28 km</desc>
<time>2010-03-01T17:10:22.45</time>
<name>465</name>
</trkpt>
<trkpt lat="48.941837" lon="8.664625">
<ele>340.0</ele>
<speed>2.6</speed>
<course>334.4</course>
<desc>Speed 2.6 km/h Distance 0.28 km</desc>
<time>2010-03-01T17:10:23.45</time>
<name>466</name>
</trkpt>
<trkpt lat="48.941837" lon="8.664623">
<ele>340.0</ele>
<speed>0.2</speed>
<course>12.6</course>
<desc>Speed 0.2 km/h Distance 0.28 km</desc>
<time>2010-03-01T17:10:24.45</time>
<name>467</name>
</trkpt>
<trkpt lat="48.941840" lon="8.664625">
<ele>340.5</ele>
<speed>0.9</speed>
<course>270.0</course>
<desc>Speed 0.9 km/h Distance 0.28 km</desc>
<time>2010-03-01T17:10:25.44</time>
<name>468</name>
</trkpt>
<trkpt lat="48.941840" lon="8.664623">
<ele>340.5</ele>
<speed>0.4</speed>
<course>315.5</course>
<desc>Speed 0.4 km/h Distance 0.28 km</desc>
<time>2010-03-01T17:10:26.44</time>
<name>469</name>
</trkpt>
<trkpt lat="48.941843" lon="8.664618">
<ele>340.5</ele>
<speed>1.5</speed>
<course>318.6</course>
<desc>Speed 1.5 km/h Distance 0.28 km</desc>
<time>2010-03-01T17:10:27.44</time>
<name>470</name>
</trkpt>
<trkpt lat="48.941848" lon="8.664612">
<ele>340.5</ele>
<speed>2.8</speed>
<course>315.5</course>
<desc>Speed 2.8 km/h Distance 0.28 km</desc>
<time>2010-03-01T17:10:28.44</time>
<name>471</name>
</trkpt>
<trkpt lat="48.941855" lon="8.664602">
<ele>340.5</ele>
<speed>3.5</speed>
<course>326.8</course>
<desc>Speed 3.5 km/h Distance 0.28 km</desc>
<time>2010-03-01T17:10:29.44</time>
<name>472</name>
</trkpt>
<trkpt lat="48.941862" lon="8.664595">
<ele>340.0</ele>
<speed>3.1</speed>
<course>326.3</course>
<desc>Speed 3.1 km/h Distance 0.28 km</desc>
<time>2010-03-01T17:10:30.44</time>
<name>473</name>
</trkpt>
<trkpt lat="48.941868" lon="8.664588">
<ele>340.0</ele>
<speed>2.3</speed>
<course>318.6</course>
<desc>Speed 2.3 km/h Distance 0.29 km</desc>
<time>2010-03-01T17:10:31.44</time>
<name>474</name>
</trkpt>
<trkpt lat="48.941873" lon="8.664582">
<ele>340.0</ele>
<speed>2.6</speed>
<course>12.6</course>
<desc>Speed 2.6 km/h Distance 0.29 km</desc>
<time>2010-03-01T17:10:32.44</time>
<name>475</name>
</trkpt>
<trkpt lat="48.941875" lon="8.664582">
<ele>340.0</ele>
<speed>0.1</speed>
<course>142.8</course>
<desc>Speed 0.1 km/h Distance 0.29 km</desc>
<time>2010-03-01T17:10:33.44</time>
<name>476</name>
</trkpt>
<trkpt lat="48.941873" lon="8.664583">
<ele>340.5</ele>
<speed>0.7</speed>
<course>142.8</course>
<desc>Speed 0.7 km/h Distance 0.29 km</desc>
<time>2010-03-01T17:10:34.43</time>
<name>477</name>
</trkpt>
<trkpt lat="48.941873" lon="8.664583">
<ele>340.5</ele>
<speed>0.4</speed>
<course>142.8</course>
<desc>Speed 0.4 km/h Distance 0.29 km</desc>
<time>2010-03-01T17:10:35.44</time>
<name>478</name>
</trkpt>
<trkpt lat="48.941873" lon="8.664583">
<ele>340.5</ele>
<speed>0.4</speed>
<course>37.2</course>
<desc>Speed 0.4 km/h Distance 0.29 km</desc>
<time>2010-03-01T17:10:36.44</time>
<name>479</name>
</trkpt>
<trkpt lat="48.941875" lon="8.664585">
<ele>340.5</ele>
<speed>0.3</speed>
<course>286.9</course>
<desc>Speed 0.3 km/h Distance 0.29 km</desc>
<time>2010-03-01T17:10:37.44</time>
<name>480</name>
</trkpt>
<trkpt lat="48.941877" lon="8.664577">
<ele>341.5</ele>
<speed>1.9</speed>
<course>299.7</course>
<desc>Speed 1.9 km/h Distance 0.29 km</desc>
<time>2010-03-01T17:10:38.44</time>
<name>481</name>
</trkpt>
<trkpt lat="48.941882" lon="8.664563">
<ele>342.5</ele>
<speed>3.2</speed>
<course>285.5</course>
<desc>Speed 3.2 km/h Distance 0.29 km</desc>
<time>2010-03-01T17:10:39.43</time>
<name>482</name>
</trkpt>
<trkpt lat="48.941885" lon="8.664545">
<ele>343.5</ele>
<speed>3.6</speed>
<course>301.4</course>
<desc>Speed 3.6 km/h Distance 0.29 km</desc>
<time>2010-03-01T17:10:40.44</time>
<name>483</name>
</trkpt>
<trkpt lat="48.941892" lon="8.664528">
<ele>344.0</ele>
<speed>4.1</speed>
<course>303.3</course>
<desc>Speed 4.1 km/h Distance 0.29 km</desc>
<time>2010-03-01T17:10:41.44</time>
<name>484</name>
</trkpt>
<trkpt lat="48.941897" lon="8.664517">
<ele>343.5</ele>
<speed>3.3</speed>
<course>304.1</course>
<desc>Speed 3.3 km/h Distance 0.29 km</desc>
<time>2010-03-01T17:10:42.44</time>
<name>485</name>
</trkpt>
<trkpt lat="48.941903" lon="8.664502">
<ele>344.0</ele>
<speed>3.8</speed>
<course>299.0</course>
<desc>Speed 3.8 km/h Distance 0.29 km</desc>
<time>2010-03-01T17:10:43.44</time>
<name>486</name>
</trkpt>
<trkpt lat="48.941910" lon="8.664483">
<ele>344.5</ele>
<speed>4.1</speed>
<course>330.8</course>
<desc>Speed 4.1 km/h Distance 0.30 km</desc>
<time>2010-03-01T17:10:44.44</time>
<name>487</name>
</trkpt>
<trkpt lat="48.941920" lon="8.664475">
<ele>344.5</ele>
<speed>3.4</speed>
<course>326.5</course>
<desc>Speed 3.4 km/h Distance 0.30 km</desc>
<time>2010-03-01T17:10:45.44</time>
<name>488</name>
</trkpt>
<trkpt lat="48.941928" lon="8.664467">
<ele>344.5</ele>
<speed>3.3</speed>
<course>307.0</course>
<desc>Speed 3.3 km/h Distance 0.30 km</desc>
<time>2010-03-01T17:10:46.44</time>
<name>489</name>
</trkpt>
<trkpt lat="48.941935" lon="8.664453">
<ele>345.5</ele>
<speed>3.6</speed>
<course>326.5</course>
<desc>Speed 3.6 km/h Distance 0.30 km</desc>
<time>2010-03-01T17:10:47.44</time>
<name>490</name>
</trkpt>
<trkpt lat="48.941943" lon="8.664445">
<ele>345.5</ele>
<speed>3.5</speed>
<course>326.6</course>
<desc>Speed 3.5 km/h Distance 0.30 km</desc>
<time>2010-03-01T17:10:48.44</time>
<name>491</name>
</trkpt>
<trkpt lat="48.941955" lon="8.664433">
<ele>346.0</ele>
<speed>4.3</speed>
<course>304.1</course>
<desc>Speed 4.3 km/h Distance 0.30 km</desc>
<time>2010-03-01T17:10:49.44</time>
<name>492</name>
</trkpt>
<trkpt lat="48.941962" lon="8.664418">
<ele>346.5</ele>
<speed>4.1</speed>
<course>334.8</course>
<desc>Speed 4.1 km/h Distance 0.30 km</desc>
<time>2010-03-01T17:10:50.44</time>
<name>493</name>
</trkpt>
<trkpt lat="48.941973" lon="8.664410">
<ele>347.0</ele>
<speed>3.9</speed>
<course>326.8</course>
<desc>Speed 3.9 km/h Distance 0.30 km</desc>
<time>2010-03-01T17:10:51.44</time>
<name>494</name>
</trkpt>
<trkpt lat="48.941982" lon="8.664402">
<ele>346.5</ele>
<speed>3.5</speed>
<course>321.9</course>
<desc>Speed 3.5 km/h Distance 0.31 km</desc>
<time>2010-03-01T17:10:52.43</time>
<name>495</name>
</trkpt>
<trkpt lat="48.941990" lon="8.664392">
<ele>346.5</ele>
<speed>3.4</speed>
<course>311.3</course>
<desc>Speed 3.4 km/h Distance 0.31 km</desc>
<time>2010-03-01T17:10:53.43</time>
<name>496</name>
</trkpt>
<trkpt lat="48.941997" lon="8.664380">
<ele>346.5</ele>
<speed>3.4</speed>
<course>332.1</course>
<desc>Speed 3.4 km/h Distance 0.31 km</desc>
<time>2010-03-01T17:10:54.43</time>
<name>497</name>
</trkpt>
<trkpt lat="48.942005" lon="8.664373">
<ele>346.5</ele>
<speed>3.4</speed>
<course>326.8</course>
<desc>Speed 3.4 km/h Distance 0.31 km</desc>
<time>2010-03-01T17:10:55.43</time>
<name>498</name>
</trkpt>
<trkpt lat="48.942013" lon="8.664365">
<ele>347.0</ele>
<speed>3.4</speed>
<course>321.9</course>
<desc>Speed 3.4 km/h Distance 0.31 km</desc>
<time>2010-03-01T17:10:56.43</time>
<name>499</name>
</trkpt>
<trkpt lat="48.942022" lon="8.664355">
<ele>347.5</ele>
<speed>3.4</speed>
<course>320.6</course>
<desc>Speed 3.4 km/h Distance 0.31 km</desc>
<time>2010-03-01T17:10:57.42</time>
<name>500</name>
</trkpt>
<trkpt lat="48.942028" lon="8.664347">
<ele>347.5</ele>
<speed>3.1</speed>
<course>319.1</course>
<desc>Speed 3.1 km/h Distance 0.31 km</desc>
<time>2010-03-01T17:10:58.43</time>
<name>501</name>
</trkpt>
<trkpt lat="48.942033" lon="8.664340">
<ele>347.5</ele>
<speed>2.3</speed>
<course>322.8</course>
<desc>Speed 2.3 km/h Distance 0.31 km</desc>
<time>2010-03-01T17:10:59.43</time>
<name>502</name>
</trkpt>
<trkpt lat="48.942035" lon="8.664338">
<ele>347.5</ele>
<speed>0.5</speed>
<course>322.8</course>
<desc>Speed 0.5 km/h Distance 0.31 km</desc>
<time>2010-03-01T17:11:00.43</time>
<name>503</name>
</trkpt>
<trkpt lat="48.942035" lon="8.664338">
<ele>348.0</ele>
<speed>0.1</speed>
<course>322.8</course>
<desc>Speed 0.1 km/h Distance 0.31 km</desc>
<time>2010-03-01T17:11:01.42</time>
<name>504</name>
</trkpt>
<trkpt lat="48.942035" lon="8.664338">
<ele>348.0</ele>
<speed>0.5</speed>
<course>308.1</course>
<desc>Speed 0.5 km/h Distance 0.31 km</desc>
<time>2010-03-01T17:11:02.43</time>
<name>505</name>
</trkpt>
<trkpt lat="48.942037" lon="8.664335">
<ele>348.0</ele>
<speed>0.8</speed>
<course>308.1</course>
<desc>Speed 0.8 km/h Distance 0.31 km</desc>
<time>2010-03-01T17:11:03.42</time>
<name>506</name>
</trkpt>
<trkpt lat="48.942037" lon="8.664335">
<ele>348.5</ele>
<speed>0.5</speed>
<course>308.1</course>
<desc>Speed 0.5 km/h Distance 0.31 km</desc>
<time>2010-03-01T17:11:04.43</time>
<name>507</name>
</trkpt>
<trkpt lat="48.942037" lon="8.664335">
<ele>348.5</ele>
<speed>0.4</speed>
<course>150.8</course>
<desc>Speed 0.4 km/h Distance 0.31 km</desc>
<time>2010-03-01T17:11:05.43</time>
<name>508</name>
</trkpt>
<trkpt lat="48.942035" lon="8.664337">
<ele>348.5</ele>
<speed>1.0</speed>
<course>347.4</course>
<desc>Speed 1.0 km/h Distance 0.31 km</desc>
<time>2010-03-01T17:11:06.43</time>
<name>509</name>
</trkpt>
<trkpt lat="48.942038" lon="8.664335">
<ele>348.0</ele>
<speed>1.1</speed>
<course>148.4</course>
<desc>Speed 1.1 km/h Distance 0.31 km</desc>
<time>2010-03-01T17:11:07.43</time>
<name>510</name>
</trkpt>
<trkpt lat="48.942035" lon="8.664338">
<ele>346.0</ele>
<speed>1.5</speed>
<course>328.4</course>
<desc>Speed 1.5 km/h Distance 0.31 km</desc>
<time>2010-03-01T17:11:08.42</time>
<name>511</name>
</trkpt>
<trkpt lat="48.942038" lon="8.664335">
<ele>346.5</ele>
<speed>1.0</speed>
<course>327.7</course>
<desc>Speed 1.0 km/h Distance 0.31 km</desc>
<time>2010-03-01T17:11:09.42</time>
<name>512</name>
</trkpt>
<trkpt lat="48.942043" lon="8.664330">
<ele>346.5</ele>
<speed>2.4</speed>
<course>338.5</course>
<desc>Speed 2.4 km/h Distance 0.32 km</desc>
<time>2010-03-01T17:11:10.44</time>
<name>513</name>
</trkpt>
<trkpt lat="48.942052" lon="8.664325">
<ele>345.5</ele>
<speed>3.2</speed>
<course>334.0</course>
<desc>Speed 3.2 km/h Distance 0.32 km</desc>
<time>2010-03-01T17:11:11.43</time>
<name>514</name>
</trkpt>
<trkpt lat="48.942065" lon="8.664315">
<ele>346.0</ele>
<speed>5.4</speed>
<course>307.0</course>
<desc>Speed 5.4 km/h Distance 0.32 km</desc>
<time>2010-03-01T17:11:12.43</time>
<name>515</name>
</trkpt>
<trkpt lat="48.942068" lon="8.664308">
<ele>344.0</ele>
<speed>1.9</speed>
<course>313.6</course>
<desc>Speed 1.9 km/h Distance 0.32 km</desc>
<time>2010-03-01T17:11:13.43</time>
<name>516</name>
</trkpt>
<trkpt lat="48.942077" lon="8.664295">
<ele>344.5</ele>
<speed>4.6</speed>
<course>318.8</course>
<desc>Speed 4.6 km/h Distance 0.32 km</desc>
<time>2010-03-01T17:11:14.43</time>
<name>517</name>
</trkpt>
<trkpt lat="48.942087" lon="8.664282">
<ele>344.5</ele>
<speed>4.8</speed>
<course>337.7</course>
<desc>Speed 4.8 km/h Distance 0.32 km</desc>
<time>2010-03-01T17:11:15.43</time>
<name>518</name>
</trkpt>
<trkpt lat="48.942100" lon="8.664273">
<ele>344.0</ele>
<speed>4.1</speed>
<course>330.6</course>
<desc>Speed 4.1 km/h Distance 0.32 km</desc>
<time>2010-03-01T17:11:16.43</time>
<name>519</name>
</trkpt>
<trkpt lat="48.942112" lon="8.664263">
<ele>343.5</ele>
<speed>4.2</speed>
<course>336.3</course>
<desc>Speed 4.2 km/h Distance 0.32 km</desc>
<time>2010-03-01T17:11:17.42</time>
<name>520</name>
</trkpt>
<trkpt lat="48.942127" lon="8.664253">
<ele>343.0</ele>
<speed>4.6</speed>
<course>326.7</course>
<desc>Speed 4.6 km/h Distance 0.33 km</desc>
<time>2010-03-01T17:11:18.42</time>
<name>521</name>
</trkpt>
<trkpt lat="48.942138" lon="8.664242">
<ele>342.5</ele>
<speed>4.4</speed>
<course>307.3</course>
<desc>Speed 4.4 km/h Distance 0.33 km</desc>
<time>2010-03-01T17:11:19.42</time>
<name>522</name>
</trkpt>
<trkpt lat="48.942145" lon="8.664228">
<ele>342.5</ele>
<speed>3.6</speed>
<course>326.8</course>
<desc>Speed 3.6 km/h Distance 0.33 km</desc>
<time>2010-03-01T17:11:20.42</time>
<name>523</name>
</trkpt>
<trkpt lat="48.942153" lon="8.664220">
<ele>342.5</ele>
<speed>3.9</speed>
<course>321.9</course>
<desc>Speed 3.9 km/h Distance 0.33 km</desc>
<time>2010-03-01T17:11:21.42</time>
<name>524</name>
</trkpt>
<trkpt lat="48.942162" lon="8.664210">
<ele>342.5</ele>
<speed>4.1</speed>
<course>326.8</course>
<desc>Speed 4.1 km/h Distance 0.33 km</desc>
<time>2010-03-01T17:11:22.42</time>
<name>525</name>
</trkpt>
<trkpt lat="48.942170" lon="8.664202">
<ele>342.0</ele>
<speed>3.2</speed>
<course>345.1</course>
<desc>Speed 3.2 km/h Distance 0.33 km</desc>
<time>2010-03-01T17:11:23.42</time>
<name>526</name>
</trkpt>
<trkpt lat="48.942178" lon="8.664198">
<ele>341.5</ele>
<speed>3.0</speed>
<course>326.8</course>
<desc>Speed 3.0 km/h Distance 0.33 km</desc>
<time>2010-03-01T17:11:24.42</time>
<name>527</name>
</trkpt>
<trkpt lat="48.942187" lon="8.664190">
<ele>341.0</ele>
<speed>2.8</speed>
<course>326.8</course>
<desc>Speed 2.8 km/h Distance 0.33 km</desc>
<time>2010-03-01T17:11:25.42</time>
<name>528</name>
</trkpt>
<trkpt lat="48.942193" lon="8.664183">
<ele>341.0</ele>
<speed>2.7</speed>
<course>327.4</course>
<desc>Speed 2.7 km/h Distance 0.34 km</desc>
<time>2010-03-01T17:11:26.42</time>
<name>529</name>
</trkpt>
<trkpt lat="48.942200" lon="8.664177">
<ele>341.5</ele>
<speed>2.8</speed>
<course>326.8</course>
<desc>Speed 2.8 km/h Distance 0.34 km</desc>
<time>2010-03-01T17:11:27.42</time>
<name>530</name>
</trkpt>
<trkpt lat="48.942208" lon="8.664168">
<ele>341.5</ele>
<speed>3.0</speed>
<course>326.3</course>
<desc>Speed 3.0 km/h Distance 0.34 km</desc>
<time>2010-03-01T17:11:28.42</time>
<name>531</name>
</trkpt>
<trkpt lat="48.942215" lon="8.664162">
<ele>341.5</ele>
<speed>2.4</speed>
<course>342.5</course>
<desc>Speed 2.4 km/h Distance 0.34 km</desc>
<time>2010-03-01T17:11:29.42</time>
<name>532</name>
</trkpt>
<trkpt lat="48.942222" lon="8.664158">
<ele>341.0</ele>
<speed>2.0</speed>
<course>315.5</course>
<desc>Speed 2.0 km/h Distance 0.34 km</desc>
<time>2010-03-01T17:11:30.42</time>
<name>533</name>
</trkpt>
<trkpt lat="48.942225" lon="8.664153">
<ele>341.5</ele>
<speed>1.5</speed>
<course>297.0</course>
<desc>Speed 1.5 km/h Distance 0.34 km</desc>
<time>2010-03-01T17:11:31.42</time>
<name>534</name>
</trkpt>
<trkpt lat="48.942228" lon="8.664143">
<ele>342.0</ele>
<speed>2.0</speed>
<course>293.5</course>
<desc>Speed 2.0 km/h Distance 0.34 km</desc>
<time>2010-03-01T17:11:32.42</time>
<name>535</name>
</trkpt>
<trkpt lat="48.942232" lon="8.664132">
<ele>342.0</ele>
<speed>3.1</speed>
<course>297.0</course>
<desc>Speed 3.1 km/h Distance 0.34 km</desc>
<time>2010-03-01T17:11:33.42</time>
<name>536</name>
</trkpt>
<trkpt lat="48.942235" lon="8.664122">
<ele>341.5</ele>
<speed>2.6</speed>
<course>249.1</course>
<desc>Speed 2.6 km/h Distance 0.34 km</desc>
<time>2010-03-01T17:11:34.42</time>
<name>537</name>
</trkpt>
<trkpt lat="48.942233" lon="8.664115">
<ele>342.0</ele>
<speed>1.0</speed>
<course>270.0</course>
<desc>Speed 1.0 km/h Distance 0.34 km</desc>
<time>2010-03-01T17:11:35.42</time>
<name>538</name>
</trkpt>
<trkpt lat="48.942233" lon="8.664110">
<ele>342.0</ele>
<speed>0.9</speed>
<course>270.0</course>
<desc>Speed 0.9 km/h Distance 0.34 km</desc>
<time>2010-03-01T17:11:36.42</time>
<name>539</name>
</trkpt>
<trkpt lat="48.942233" lon="8.664110">
<ele>342.0</ele>
<speed>0.5</speed>
<course>270.0</course>
<desc>Speed 0.5 km/h Distance 0.34 km</desc>
<time>2010-03-01T17:11:37.42</time>
<name>540</name>
</trkpt>
<trkpt lat="48.942233" lon="8.664108">
<ele>342.5</ele>
<speed>0.4</speed>
<course>233.0</course>
<desc>Speed 0.4 km/h Distance 0.34 km</desc>
<time>2010-03-01T17:11:38.42</time>
<name>541</name>
</trkpt>
<trkpt lat="48.942230" lon="8.664102">
<ele>343.0</ele>
<speed>0.1</speed>
<course>217.2</course>
<desc>Speed 0.1 km/h Distance 0.34 km</desc>
<time>2010-03-01T17:11:39.42</time>
<name>542</name>
</trkpt>
<trkpt lat="48.942228" lon="8.664100">
<ele>343.5</ele>
<speed>0.2</speed>
<course>270.0</course>
<desc>Speed 0.2 km/h Distance 0.34 km</desc>
<time>2010-03-01T17:11:40.42</time>
<name>543</name>
</trkpt>
<trkpt lat="48.942228" lon="8.664097">
<ele>344.0</ele>
<speed>0.2</speed>
<course>347.4</course>
<desc>Speed 0.2 km/h Distance 0.34 km</desc>
<time>2010-03-01T17:11:41.41</time>
<name>544</name>
</trkpt>
<trkpt lat="48.942232" lon="8.664095">
<ele>344.0</ele>
<speed>1.0</speed>
<course>347.4</course>
<desc>Speed 1.0 km/h Distance 0.34 km</desc>
<time>2010-03-01T17:11:42.42</time>
<name>545</name>
</trkpt>
<trkpt lat="48.942232" lon="8.664093">
<ele>344.0</ele>
<speed>0.2</speed>
<course>347.4</course>
<desc>Speed 0.2 km/h Distance 0.34 km</desc>
<time>2010-03-01T17:11:43.41</time>
<name>546</name>
</trkpt>
<trkpt lat="48.942232" lon="8.664093">
<ele>344.0</ele>
<speed>0.3</speed>
<course>347.4</course>
<desc>Speed 0.3 km/h Distance 0.34 km</desc>
<time>2010-03-01T17:11:44.41</time>
<name>547</name>
</trkpt>
<trkpt lat="48.942232" lon="8.664093">
<ele>344.0</ele>
<speed>0.1</speed>
<course>242.6</course>
<desc>Speed 0.1 km/h Distance 0.34 km</desc>
<time>2010-03-01T17:11:45.41</time>
<name>548</name>
</trkpt>
<trkpt lat="48.942230" lon="8.664088">
<ele>344.5</ele>
<speed>0.5</speed>
<course>270.0</course>
<desc>Speed 0.5 km/h Distance 0.35 km</desc>
<time>2010-03-01T17:11:46.41</time>
<name>549</name>
</trkpt>
<trkpt lat="48.942230" lon="8.664082">
<ele>345.5</ele>
<speed>0.9</speed>
<course>270.0</course>
<desc>Speed 0.9 km/h Distance 0.35 km</desc>
<time>2010-03-01T17:11:47.41</time>
<name>550</name>
</trkpt>
<trkpt lat="48.942230" lon="8.664080">
<ele>346.0</ele>
<speed>1.0</speed>
<course>233.0</course>
<desc>Speed 1.0 km/h Distance 0.35 km</desc>
<time>2010-03-01T17:11:48.41</time>
<name>551</name>
</trkpt>
<trkpt lat="48.942227" lon="8.664073">
<ele>347.0</ele>
<speed>0.1</speed>
<course>270.0</course>
<desc>Speed 0.1 km/h Distance 0.35 km</desc>
<time>2010-03-01T17:11:49.41</time>
<name>552</name>
</trkpt>
<trkpt lat="48.942227" lon="8.664072">
<ele>347.0</ele>
<speed>0.0</speed>
<course>270.0</course>
<desc>Speed 0.0 km/h Distance 0.35 km</desc>
<time>2010-03-01T17:11:50.41</time>
<name>553</name>
</trkpt>
<trkpt lat="48.942227" lon="8.664072">
<ele>347.0</ele>
<speed>0.3</speed>
<course>330.8</course>
<desc>Speed 0.3 km/h Distance 0.35 km</desc>
<time>2010-03-01T17:11:51.41</time>
<name>554</name>
</trkpt>
<trkpt lat="48.942228" lon="8.664070">
<ele>347.5</ele>
<speed>0.3</speed>
<course>270.0</course>
<desc>Speed 0.3 km/h Distance 0.35 km</desc>
<time>2010-03-01T17:11:52.40</time>
<name>555</name>
</trkpt>
<trkpt lat="48.942228" lon="8.664068">
<ele>347.5</ele>
<speed>0.1</speed>
<course>270.0</course>
<desc>Speed 0.1 km/h Distance 0.35 km</desc>
<time>2010-03-01T17:11:53.41</time>
<name>556</name>
</trkpt>
<trkpt lat="48.942228" lon="8.664067">
<ele>348.0</ele>
<speed>0.2</speed>
<course>270.0</course>
<desc>Speed 0.2 km/h Distance 0.35 km</desc>
<time>2010-03-01T17:11:54.41</time>
<name>557</name>
</trkpt>
<trkpt lat="48.942228" lon="8.664067">
<ele>348.0</ele>
<speed>0.3</speed>
<course>270.0</course>
<desc>Speed 0.3 km/h Distance 0.35 km</desc>
<time>2010-03-01T17:11:55.41</time>
<name>558</name>
</trkpt>
<trkpt lat="48.942228" lon="8.664065">
<ele>348.0</ele>
<speed>0.1</speed>
<course>270.0</course>
<desc>Speed 0.1 km/h Distance 0.35 km</desc>
<time>2010-03-01T17:11:56.41</time>
<name>559</name>
</trkpt>
<trkpt lat="48.942228" lon="8.664065">
<ele>348.0</ele>
<speed>0.2</speed>
<course>352.6</course>
<desc>Speed 0.2 km/h Distance 0.35 km</desc>
<time>2010-03-01T17:11:57.41</time>
<name>560</name>
</trkpt>
<trkpt lat="48.942235" lon="8.664063">
<ele>348.0</ele>
<speed>1.2</speed>
<course>1.2</course>
<desc>Speed 1.2 km/h Distance 0.35 km</desc>
<time>2010-03-01T17:11:58.41</time>
<name>561</name>
</trkpt>
<trkpt lat="48.942242" lon="8.664063">
<ele>348.0</ele>
<speed>2.4</speed>
<course>347.4</course>
<desc>Speed 2.4 km/h Distance 0.35 km</desc>
<time>2010-03-01T17:11:59.41</time>
<name>562</name>
</trkpt>
<trkpt lat="48.942247" lon="8.664062">
<ele>348.0</ele>
<speed>1.8</speed>
<course>320.6</course>
<desc>Speed 1.8 km/h Distance 0.35 km</desc>
<time>2010-03-01T17:12:00.41</time>
<name>563</name>
</trkpt>
<trkpt lat="48.942253" lon="8.664053">
<ele>348.5</ele>
<speed>3.3</speed>
<course>320.6</course>
<desc>Speed 3.3 km/h Distance 0.35 km</desc>
<time>2010-03-01T17:12:01.41</time>
<name>564</name>
</trkpt>
<trkpt lat="48.942260" lon="8.664045">
<ele>349.0</ele>
<speed>3.5</speed>
<course>317.4</course>
<desc>Speed 3.5 km/h Distance 0.35 km</desc>
<time>2010-03-01T17:12:02.43</time>
<name>565</name>
</trkpt>
<trkpt lat="48.942268" lon="8.664033">
<ele>349.0</ele>
<speed>3.7</speed>
<course>313.5</course>
<desc>Speed 3.7 km/h Distance 0.35 km</desc>
<time>2010-03-01T17:12:03.40</time>
<name>566</name>
</trkpt>
<trkpt lat="48.942277" lon="8.664020">
<ele>349.5</ele>
<speed>4.0</speed>
<course>301.4</course>
<desc>Speed 4.0 km/h Distance 0.35 km</desc>
<time>2010-03-01T17:12:04.39</time>
<name>567</name>
</trkpt>
<trkpt lat="48.942283" lon="8.664003">
<ele>350.0</ele>
<speed>4.0</speed>
<course>326.8</course>
<desc>Speed 4.0 km/h Distance 0.36 km</desc>
<time>2010-03-01T17:12:05.39</time>
<name>568</name>
</trkpt>
<trkpt lat="48.942292" lon="8.663995">
<ele>349.5</ele>
<speed>3.9</speed>
<course>321.9</course>
<desc>Speed 3.9 km/h Distance 0.36 km</desc>
<time>2010-03-01T17:12:06.39</time>
<name>569</name>
</trkpt>
<trkpt lat="48.942300" lon="8.663985">
<ele>349.0</ele>
<speed>3.9</speed>
<course>317.5</course>
<desc>Speed 3.9 km/h Distance 0.36 km</desc>
<time>2010-03-01T17:12:07.40</time>
<name>570</name>
</trkpt>
<trkpt lat="48.942308" lon="8.663973">
<ele>349.5</ele>
<speed>4.2</speed>
<course>321.9</course>
<desc>Speed 4.2 km/h Distance 0.36 km</desc>
<time>2010-03-01T17:12:08.40</time>
<name>571</name>
</trkpt>
<trkpt lat="48.942317" lon="8.663963">
<ele>349.5</ele>
<speed>4.1</speed>
<course>315.5</course>
<desc>Speed 4.1 km/h Distance 0.36 km</desc>
<time>2010-03-01T17:12:09.40</time>
<name>572</name>
</trkpt>
<trkpt lat="48.942323" lon="8.663953">
<ele>349.5</ele>
<speed>3.6</speed>
<course>315.5</course>
<desc>Speed 3.6 km/h Distance 0.36 km</desc>
<time>2010-03-01T17:12:10.40</time>
<name>573</name>
</trkpt>
<trkpt lat="48.942330" lon="8.663943">
<ele>350.0</ele>
<speed>3.1</speed>
<course>318.6</course>
<desc>Speed 3.1 km/h Distance 0.36 km</desc>
<time>2010-03-01T17:12:11.40</time>
<name>574</name>
</trkpt>
<trkpt lat="48.942335" lon="8.663937">
<ele>350.5</ele>
<speed>2.6</speed>
<course>293.5</course>
<desc>Speed 2.6 km/h Distance 0.36 km</desc>
<time>2010-03-01T17:12:12.39</time>
<name>575</name>
</trkpt>
<trkpt lat="48.942338" lon="8.663925">
<ele>351.0</ele>
<speed>2.8</speed>
<course>307.2</course>
<desc>Speed 2.8 km/h Distance 0.36 km</desc>
<time>2010-03-01T17:12:13.39</time>
<name>576</name>
</trkpt>
<trkpt lat="48.942343" lon="8.663915">
<ele>351.5</ele>
<speed>3.0</speed>
<course>307.2</course>
<desc>Speed 3.0 km/h Distance 0.36 km</desc>
<time>2010-03-01T17:12:14.39</time>
<name>577</name>
</trkpt>
<trkpt lat="48.942348" lon="8.663905">
<ele>352.0</ele>
<speed>2.7</speed>
<course>317.4</course>
<desc>Speed 2.7 km/h Distance 0.37 km</desc>
<time>2010-03-01T17:12:15.39</time>
<name>578</name>
</trkpt>
<trkpt lat="48.942357" lon="8.663893">
<ele>352.5</ele>
<speed>3.6</speed>
<course>321.9</course>
<desc>Speed 3.6 km/h Distance 0.37 km</desc>
<time>2010-03-01T17:12:16.40</time>
<name>579</name>
</trkpt>
<trkpt lat="48.942365" lon="8.663883">
<ele>352.5</ele>
<speed>3.7</speed>
<course>311.1</course>
<desc>Speed 3.7 km/h Distance 0.37 km</desc>
<time>2010-03-01T17:12:17.40</time>
<name>580</name>
</trkpt>
<trkpt lat="48.942372" lon="8.663872">
<ele>352.5</ele>
<speed>3.4</speed>
<course>315.5</course>
<desc>Speed 3.4 km/h Distance 0.37 km</desc>
<time>2010-03-01T17:12:18.40</time>
<name>581</name>
</trkpt>
<trkpt lat="48.942378" lon="8.663862">
<ele>352.5</ele>
<speed>3.2</speed>
<course>317.4</course>
<desc>Speed 3.2 km/h Distance 0.37 km</desc>
<time>2010-03-01T17:12:19.40</time>
<name>582</name>
</trkpt>
<trkpt lat="48.942387" lon="8.663850">
<ele>352.5</ele>
<speed>3.7</speed>
<course>321.9</course>
<desc>Speed 3.7 km/h Distance 0.37 km</desc>
<time>2010-03-01T17:12:20.40</time>
<name>583</name>
</trkpt>
<trkpt lat="48.942395" lon="8.663840">
<ele>353.0</ele>
<speed>3.9</speed>
<course>320.6</course>
<desc>Speed 3.9 km/h Distance 0.37 km</desc>
<time>2010-03-01T17:12:21.40</time>
<name>584</name>
</trkpt>
<trkpt lat="48.942402" lon="8.663832">
<ele>353.0</ele>
<speed>3.0</speed>
<course>332.5</course>
<desc>Speed 3.0 km/h Distance 0.37 km</desc>
<time>2010-03-01T17:12:22.40</time>
<name>585</name>
</trkpt>
<trkpt lat="48.942410" lon="8.663825">
<ele>353.0</ele>
<speed>3.0</speed>
<course>326.8</course>
<desc>Speed 3.0 km/h Distance 0.37 km</desc>
<time>2010-03-01T17:12:23.40</time>
<name>586</name>
</trkpt>
<trkpt lat="48.942418" lon="8.663817">
<ele>352.5</ele>
<speed>2.6</speed>
<course>270.0</course>
<desc>Speed 2.6 km/h Distance 0.38 km</desc>
<time>2010-03-01T17:12:24.40</time>
<name>587</name>
</trkpt>
<trkpt lat="48.942418" lon="8.663813">
<ele>352.5</ele>
<speed>0.9</speed>
<course>270.0</course>
<desc>Speed 0.9 km/h Distance 0.38 km</desc>
<time>2010-03-01T17:12:25.40</time>
<name>588</name>
</trkpt>
<trkpt lat="48.942418" lon="8.663813">
<ele>352.5</ele>
<speed>0.2</speed>
<course>270.0</course>
<desc>Speed 0.2 km/h Distance 0.38 km</desc>
<time>2010-03-01T17:12:26.40</time>
<name>589</name>
</trkpt>
<trkpt lat="48.942418" lon="8.663813">
<ele>352.5</ele>
<speed>0.5</speed>
<course>270.0</course>
<desc>Speed 0.5 km/h Distance 0.38 km</desc>
<time>2010-03-01T17:12:27.39</time>
<name>590</name>
</trkpt>
<trkpt lat="48.942418" lon="8.663813">
<ele>352.5</ele>
<speed>0.9</speed>
<course>142.8</course>
<desc>Speed 0.9 km/h Distance 0.38 km</desc>
<time>2010-03-01T17:12:28.39</time>
<name>591</name>
</trkpt>
<trkpt lat="48.942417" lon="8.663815">
<ele>352.5</ele>
<speed>0.8</speed>
<course>142.8</course>
<desc>Speed 0.8 km/h Distance 0.38 km</desc>
<time>2010-03-01T17:12:29.39</time>
<name>592</name>
</trkpt>
<trkpt lat="48.942417" lon="8.663815">
<ele>352.5</ele>
<speed>0.8</speed>
<course>270.0</course>
<desc>Speed 0.8 km/h Distance 0.38 km</desc>
<time>2010-03-01T17:12:30.40</time>
<name>593</name>
</trkpt>
<trkpt lat="48.942417" lon="8.663813">
<ele>352.5</ele>
<speed>0.2</speed>
<course>231.9</course>
<desc>Speed 0.2 km/h Distance 0.38 km</desc>
<time>2010-03-01T17:12:31.39</time>
<name>594</name>
</trkpt>
<trkpt lat="48.942415" lon="8.663810">
<ele>353.5</ele>
<speed>0.2</speed>
<course>270.0</course>
<desc>Speed 0.2 km/h Distance 0.38 km</desc>
<time>2010-03-01T17:12:32.39</time>
<name>595</name>
</trkpt>
<trkpt lat="48.942415" lon="8.663807">
<ele>354.0</ele>
<speed>0.0</speed>
<course>233.9</course>
<desc>Speed 0.0 km/h Distance 0.38 km</desc>
<time>2010-03-01T17:12:33.39</time>
<name>596</name>
</trkpt>
<trkpt lat="48.942413" lon="8.663803">
<ele>354.5</ele>
<speed>0.3</speed>
<course>231.9</course>
<desc>Speed 0.3 km/h Distance 0.38 km</desc>
<time>2010-03-01T17:12:34.39</time>
<name>597</name>
</trkpt>
<trkpt lat="48.942412" lon="8.663800">
<ele>355.0</ele>
<speed>0.4</speed>
<course>270.0</course>
<desc>Speed 0.4 km/h Distance 0.38 km</desc>
<time>2010-03-01T17:12:35.39</time>
<name>598</name>
</trkpt>
<trkpt lat="48.942412" lon="8.663798">
<ele>355.5</ele>
<speed>0.1</speed>
<course>270.0</course>
<desc>Speed 0.1 km/h Distance 0.38 km</desc>
<time>2010-03-01T17:12:36.39</time>
<name>599</name>
</trkpt>
<trkpt lat="48.942412" lon="8.663797">
<ele>355.5</ele>
<speed>0.2</speed>
<course>270.0</course>
<desc>Speed 0.2 km/h Distance 0.38 km</desc>
<time>2010-03-01T17:12:37.39</time>
<name>600</name>
</trkpt>
<trkpt lat="48.942412" lon="8.663793">
<ele>356.0</ele>
<speed>0.0</speed>
<course>270.0</course>
<desc>Speed 0.0 km/h Distance 0.38 km</desc>
<time>2010-03-01T17:12:38.39</time>
<name>601</name>
</trkpt>
<trkpt lat="48.942412" lon="8.663787">
<ele>356.5</ele>
<speed>0.8</speed>
<course>270.0</course>
<desc>Speed 0.8 km/h Distance 0.38 km</desc>
<time>2010-03-01T17:12:39.39</time>
<name>602</name>
</trkpt>
<trkpt lat="48.942412" lon="8.663782">
<ele>357.0</ele>
<speed>0.9</speed>
<course>297.4</course>
<desc>Speed 0.9 km/h Distance 0.38 km</desc>
<time>2010-03-01T17:12:40.39</time>
<name>603</name>
</trkpt>
<trkpt lat="48.942413" lon="8.663777">
<ele>358.0</ele>
<speed>0.8</speed>
<course>326.3</course>
<desc>Speed 0.8 km/h Distance 0.38 km</desc>
<time>2010-03-01T17:12:41.39</time>
<name>604</name>
</trkpt>
<trkpt lat="48.942420" lon="8.663770">
<ele>357.5</ele>
<speed>2.3</speed>
<course>326.3</course>
<desc>Speed 2.3 km/h Distance 0.38 km</desc>
<time>2010-03-01T17:12:42.39</time>
<name>605</name>
</trkpt>
<trkpt lat="48.942427" lon="8.663763">
<ele>357.5</ele>
<speed>2.5</speed>
<course>312.9</course>
<desc>Speed 2.5 km/h Distance 0.38 km</desc>
<time>2010-03-01T17:12:43.39</time>
<name>606</name>
</trkpt>
<trkpt lat="48.942432" lon="8.663755">
<ele>357.5</ele>
<speed>2.6</speed>
<course>321.0</course>
<desc>Speed 2.6 km/h Distance 0.38 km</desc>
<time>2010-03-01T17:12:44.39</time>
<name>607</name>
</trkpt>
<trkpt lat="48.942438" lon="8.663747">
<ele>357.5</ele>
<speed>2.7</speed>
<course>315.5</course>
<desc>Speed 2.7 km/h Distance 0.38 km</desc>
<time>2010-03-01T17:12:45.39</time>
<name>608</name>
</trkpt>
<trkpt lat="48.942445" lon="8.663737">
<ele>357.5</ele>
<speed>2.8</speed>
<course>307.2</course>
<desc>Speed 2.8 km/h Distance 0.38 km</desc>
<time>2010-03-01T17:12:46.39</time>
<name>609</name>
</trkpt>
<trkpt lat="48.942450" lon="8.663727">
<ele>358.0</ele>
<speed>2.8</speed>
<course>321.6</course>
<desc>Speed 2.8 km/h Distance 0.38 km</desc>
<time>2010-03-01T17:12:47.39</time>
<name>610</name>
</trkpt>
<trkpt lat="48.942458" lon="8.663717">
<ele>357.5</ele>
<speed>2.2</speed>
<course>322.5</course>
<desc>Speed 2.2 km/h Distance 0.39 km</desc>
<time>2010-03-01T17:12:48.39</time>
<name>611</name>
</trkpt>
<trkpt lat="48.942468" lon="8.663705">
<ele>357.0</ele>
<speed>2.8</speed>
<course>331.4</course>
<desc>Speed 2.8 km/h Distance 0.39 km</desc>
<time>2010-03-01T17:12:49.39</time>
<name>612</name>
</trkpt>
<trkpt lat="48.942478" lon="8.663697">
<ele>356.5</ele>
<speed>2.5</speed>
<course>307.2</course>
<desc>Speed 2.5 km/h Distance 0.39 km</desc>
<time>2010-03-01T17:12:50.39</time>
<name>613</name>
</trkpt>
<trkpt lat="48.942483" lon="8.663687">
<ele>356.5</ele>
<speed>2.3</speed>
<course>290.5</course>
<desc>Speed 2.3 km/h Distance 0.39 km</desc>
<time>2010-03-01T17:12:51.39</time>
<name>614</name>
</trkpt>
<trkpt lat="48.942485" lon="8.663680">
<ele>356.0</ele>
<speed>1.6</speed>
<course>326.8</course>
<desc>Speed 1.6 km/h Distance 0.39 km</desc>
<time>2010-03-01T17:12:52.39</time>
<name>615</name>
</trkpt>
<trkpt lat="48.942493" lon="8.663672">
<ele>356.0</ele>
<speed>2.8</speed>
<course>326.8</course>
<desc>Speed 2.8 km/h Distance 0.39 km</desc>
<time>2010-03-01T17:12:53.39</time>
<name>616</name>
</trkpt>
<trkpt lat="48.942502" lon="8.663663">
<ele>356.5</ele>
<speed>3.1</speed>
<course>326.7</course>
<desc>Speed 3.1 km/h Distance 0.39 km</desc>
<time>2010-03-01T17:12:54.38</time>
<name>617</name>
</trkpt>
<trkpt lat="48.942513" lon="8.663652">
<ele>356.5</ele>
<speed>3.3</speed>
<course>320.6</course>
<desc>Speed 3.3 km/h Distance 0.39 km</desc>
<time>2010-03-01T17:12:55.38</time>
<name>618</name>
</trkpt>
<trkpt lat="48.942520" lon="8.663643">
<ele>356.0</ele>
<speed>3.0</speed>
<course>336.6</course>
<desc>Speed 3.0 km/h Distance 0.39 km</desc>
<time>2010-03-01T17:12:56.38</time>
<name>619</name>
</trkpt>
<trkpt lat="48.942530" lon="8.663637">
<ele>356.0</ele>
<speed>3.0</speed>
<course>331.1</course>
<desc>Speed 3.0 km/h Distance 0.40 km</desc>
<time>2010-03-01T17:12:57.38</time>
<name>620</name>
</trkpt>
<trkpt lat="48.942540" lon="8.663628">
<ele>356.0</ele>
<speed>3.4</speed>
<course>321.9</course>
<desc>Speed 3.4 km/h Distance 0.40 km</desc>
<time>2010-03-01T17:12:58.38</time>
<name>621</name>
</trkpt>
<trkpt lat="48.942548" lon="8.663618">
<ele>356.0</ele>
<speed>3.1</speed>
<course>326.8</course>
<desc>Speed 3.1 km/h Distance 0.40 km</desc>
<time>2010-03-01T17:12:59.38</time>
<name>622</name>
</trkpt>
<trkpt lat="48.942557" lon="8.663610">
<ele>356.5</ele>
<speed>3.1</speed>
<course>321.9</course>
<desc>Speed 3.1 km/h Distance 0.40 km</desc>
<time>2010-03-01T17:13:00.38</time>
<name>623</name>
</trkpt>
<trkpt lat="48.942565" lon="8.663600">
<ele>356.0</ele>
<speed>3.5</speed>
<course>326.8</course>
<desc>Speed 3.5 km/h Distance 0.40 km</desc>
<time>2010-03-01T17:13:01.38</time>
<name>624</name>
</trkpt>
<trkpt lat="48.942573" lon="8.663592">
<ele>356.0</ele>
<speed>3.1</speed>
<course>321.9</course>
<desc>Speed 3.1 km/h Distance 0.40 km</desc>
<time>2010-03-01T17:13:02.38</time>
<name>625</name>
</trkpt>
<trkpt lat="48.942582" lon="8.663582">
<ele>355.5</ele>
<speed>3.2</speed>
<course>326.8</course>
<desc>Speed 3.2 km/h Distance 0.40 km</desc>
<time>2010-03-01T17:13:03.38</time>
<name>626</name>
</trkpt>
<trkpt lat="48.942592" lon="8.663572">
<ele>355.5</ele>
<speed>3.4</speed>
<course>317.4</course>
<desc>Speed 3.4 km/h Distance 0.40 km</desc>
<time>2010-03-01T17:13:04.38</time>
<name>627</name>
</trkpt>
<trkpt lat="48.942600" lon="8.663560">
<ele>355.5</ele>
<speed>4.0</speed>
<course>326.8</course>
<desc>Speed 4.0 km/h Distance 0.41 km</desc>
<time>2010-03-01T17:13:05.38</time>
<name>628</name>
</trkpt>
<trkpt lat="48.942610" lon="8.663550">
<ele>355.5</ele>
<speed>3.6</speed>
<course>331.4</course>
<desc>Speed 3.6 km/h Distance 0.41 km</desc>
<time>2010-03-01T17:13:06.38</time>
<name>629</name>
</trkpt>
<trkpt lat="48.942620" lon="8.663542">
<ele>355.5</ele>
<speed>3.3</speed>
<course>341.8</course>
<desc>Speed 3.3 km/h Distance 0.41 km</desc>
<time>2010-03-01T17:13:07.38</time>
<name>630</name>
</trkpt>
<trkpt lat="48.942630" lon="8.663537">
<ele>354.5</ele>
<speed>3.0</speed>
<course>332.1</course>
<desc>Speed 3.0 km/h Distance 0.41 km</desc>
<time>2010-03-01T17:13:08.38</time>
<name>631</name>
</trkpt>
<trkpt lat="48.942638" lon="8.663530">
<ele>354.0</ele>
<speed>3.1</speed>
<course>315.5</course>
<desc>Speed 3.1 km/h Distance 0.41 km</desc>
<time>2010-03-01T17:13:09.38</time>
<name>632</name>
</trkpt>
<trkpt lat="48.942645" lon="8.663520">
<ele>354.5</ele>
<speed>3.2</speed>
<course>326.2</course>
<desc>Speed 3.2 km/h Distance 0.41 km</desc>
<time>2010-03-01T17:13:10.39</time>
<name>633</name>
</trkpt>
<trkpt lat="48.942653" lon="8.663512">
<ele>354.5</ele>
<speed>2.9</speed>
<course>320.6</course>
<desc>Speed 2.9 km/h Distance 0.41 km</desc>
<time>2010-03-01T17:13:11.38</time>
<name>634</name>
</trkpt>
<trkpt lat="48.942660" lon="8.663503">
<ele>354.5</ele>
<speed>2.8</speed>
<course>320.6</course>
<desc>Speed 2.8 km/h Distance 0.41 km</desc>
<time>2010-03-01T17:13:12.38</time>
<name>635</name>
</trkpt>
<trkpt lat="48.942667" lon="8.663495">
<ele>354.5</ele>
<speed>3.3</speed>
<course>326.8</course>
<desc>Speed 3.3 km/h Distance 0.41 km</desc>
<time>2010-03-01T17:13:13.38</time>
<name>636</name>
</trkpt>
<trkpt lat="48.942675" lon="8.663487">
<ele>354.5</ele>
<speed>3.0</speed>
<course>332.1</course>
<desc>Speed 3.0 km/h Distance 0.42 km</desc>
<time>2010-03-01T17:13:14.38</time>
<name>637</name>
</trkpt>
<trkpt lat="48.942683" lon="8.663480">
<ele>354.0</ele>
<speed>2.7</speed>
<course>321.9</course>
<desc>Speed 2.7 km/h Distance 0.42 km</desc>
<time>2010-03-01T17:13:15.38</time>
<name>638</name>
</trkpt>
<trkpt lat="48.942692" lon="8.663470">
<ele>354.5</ele>
<speed>3.0</speed>
<course>326.3</course>
<desc>Speed 3.0 km/h Distance 0.42 km</desc>
<time>2010-03-01T17:13:16.38</time>
<name>639</name>
</trkpt>
<trkpt lat="48.942698" lon="8.663463">
<ele>354.0</ele>
<speed>2.7</speed>
<course>337.8</course>
<desc>Speed 2.7 km/h Distance 0.42 km</desc>
<time>2010-03-01T17:13:17.38</time>
<name>640</name>
</trkpt>
<trkpt lat="48.942703" lon="8.663460">
<ele>354.0</ele>
<speed>1.7</speed>
<course>327.7</course>
<desc>Speed 1.7 km/h Distance 0.42 km</desc>
<time>2010-03-01T17:13:18.38</time>
<name>641</name>
</trkpt>
<trkpt lat="48.942708" lon="8.663455">
<ele>353.5</ele>
<speed>2.4</speed>
<course>320.6</course>
<desc>Speed 2.4 km/h Distance 0.42 km</desc>
<time>2010-03-01T17:13:19.38</time>
<name>642</name>
</trkpt>
<trkpt lat="48.942715" lon="8.663447">
<ele>353.0</ele>
<speed>2.6</speed>
<course>321.9</course>
<desc>Speed 2.6 km/h Distance 0.42 km</desc>
<time>2010-03-01T17:13:20.38</time>
<name>643</name>
</trkpt>
<trkpt lat="48.942723" lon="8.663437">
<ele>352.5</ele>
<speed>3.5</speed>
<course>303.3</course>
<desc>Speed 3.5 km/h Distance 0.42 km</desc>
<time>2010-03-01T17:13:21.38</time>
<name>644</name>
</trkpt>
<trkpt lat="48.942728" lon="8.663425">
<ele>352.5</ele>
<speed>3.4</speed>
<course>322.5</course>
<desc>Speed 3.4 km/h Distance 0.42 km</desc>
<time>2010-03-01T17:13:22.37</time>
<name>645</name>
</trkpt>
<trkpt lat="48.942738" lon="8.663413">
<ele>351.5</ele>
<speed>4.2</speed>
<course>302.9</course>
<desc>Speed 4.2 km/h Distance 0.42 km</desc>
<time>2010-03-01T17:13:23.37</time>
<name>646</name>
</trkpt>
<trkpt lat="48.942743" lon="8.663402">
<ele>351.0</ele>
<speed>3.3</speed>
<course>313.5</course>
<desc>Speed 3.3 km/h Distance 0.43 km</desc>
<time>2010-03-01T17:13:24.37</time>
<name>647</name>
</trkpt>
<trkpt lat="48.942752" lon="8.663388">
<ele>350.5</ele>
<speed>4.1</speed>
<course>326.6</course>
<desc>Speed 4.1 km/h Distance 0.43 km</desc>
<time>2010-03-01T17:13:25.37</time>
<name>648</name>
</trkpt>
<trkpt lat="48.942762" lon="8.663378">
<ele>350.5</ele>
<speed>3.9</speed>
<course>322.5</course>
<desc>Speed 3.9 km/h Distance 0.43 km</desc>
<time>2010-03-01T17:13:26.37</time>
<name>649</name>
</trkpt>
<trkpt lat="48.942772" lon="8.663367">
<ele>350.0</ele>
<speed>3.3</speed>
<course>321.9</course>
<desc>Speed 3.3 km/h Distance 0.43 km</desc>
<time>2010-03-01T17:13:27.38</time>
<name>650</name>
</trkpt>
<trkpt lat="48.942780" lon="8.663357">
<ele>350.5</ele>
<speed>3.2</speed>
<course>321.9</course>
<desc>Speed 3.2 km/h Distance 0.43 km</desc>
<time>2010-03-01T17:13:28.37</time>
<name>651</name>
</trkpt>
<trkpt lat="48.942788" lon="8.663347">
<ele>350.5</ele>
<speed>3.3</speed>
<course>326.8</course>
<desc>Speed 3.3 km/h Distance 0.43 km</desc>
<time>2010-03-01T17:13:29.37</time>
<name>652</name>
</trkpt>
<trkpt lat="48.942797" lon="8.663338">
<ele>350.0</ele>
<speed>2.5</speed>
<course>339.8</course>
<desc>Speed 2.5 km/h Distance 0.43 km</desc>
<time>2010-03-01T17:13:30.37</time>
<name>653</name>
</trkpt>
<trkpt lat="48.942808" lon="8.663332">
<ele>350.0</ele>
<speed>3.2</speed>
<course>315.7</course>
<desc>Speed 3.2 km/h Distance 0.43 km</desc>
<time>2010-03-01T17:13:31.37</time>
<name>654</name>
</trkpt>
<trkpt lat="48.942815" lon="8.663322">
<ele>350.0</ele>
<speed>3.4</speed>
<course>303.3</course>
<desc>Speed 3.4 km/h Distance 0.44 km</desc>
<time>2010-03-01T17:13:32.37</time>
<name>655</name>
</trkpt>
<trkpt lat="48.942820" lon="8.663310">
<ele>350.5</ele>
<speed>3.2</speed>
<course>320.6</course>
<desc>Speed 3.2 km/h Distance 0.44 km</desc>
<time>2010-03-01T17:13:33.37</time>
<name>656</name>
</trkpt>
<trkpt lat="48.942827" lon="8.663302">
<ele>350.5</ele>
<speed>2.7</speed>
<course>336.2</course>
<desc>Speed 2.7 km/h Distance 0.44 km</desc>
<time>2010-03-01T17:13:34.37</time>
<name>657</name>
</trkpt>
<trkpt lat="48.942837" lon="8.663295">
<ele>350.0</ele>
<speed>2.9</speed>
<course>278.6</course>
<desc>Speed 2.9 km/h Distance 0.44 km</desc>
<time>2010-03-01T17:13:35.37</time>
<name>658</name>
</trkpt>
<trkpt lat="48.942838" lon="8.663278">
<ele>351.0</ele>
<speed>3.0</speed>
<course>341.2</course>
<desc>Speed 3.0 km/h Distance 0.44 km</desc>
<time>2010-03-01T17:13:36.37</time>
<name>659</name>
</trkpt>
<trkpt lat="48.942845" lon="8.663275">
<ele>350.5</ele>
<speed>1.7</speed>
<course>318.6</course>
<desc>Speed 1.7 km/h Distance 0.44 km</desc>
<time>2010-03-01T17:13:37.37</time>
<name>660</name>
</trkpt>
<trkpt lat="48.942850" lon="8.663268">
<ele>350.5</ele>
<speed>1.2</speed>
<course>270.0</course>
<desc>Speed 1.2 km/h Distance 0.44 km</desc>
<time>2010-03-01T17:13:38.37</time>
<name>661</name>
</trkpt>
<trkpt lat="48.942850" lon="8.663265">
<ele>351.0</ele>
<speed>0.5</speed>
<course>167.4</course>
<desc>Speed 0.5 km/h Distance 0.44 km</desc>
<time>2010-03-01T17:13:39.37</time>
<name>662</name>
</trkpt>
<trkpt lat="48.942845" lon="8.663267">
<ele>351.5</ele>
<speed>1.9</speed>
<course>231.9</course>
<desc>Speed 1.9 km/h Distance 0.44 km</desc>
<time>2010-03-01T17:13:40.37</time>
<name>663</name>
</trkpt>
<trkpt lat="48.942843" lon="8.663263">
<ele>352.0</ele>
<speed>1.2</speed>
<course>347.4</course>
<desc>Speed 1.2 km/h Distance 0.44 km</desc>
<time>2010-03-01T17:13:41.37</time>
<name>664</name>
</trkpt>
<trkpt lat="48.942847" lon="8.663262">
<ele>352.0</ele>
<speed>0.1</speed>
<course>287.1</course>
<desc>Speed 0.1 km/h Distance 0.44 km</desc>
<time>2010-03-01T17:13:42.37</time>
<name>665</name>
</trkpt>
<trkpt lat="48.942848" lon="8.663253">
<ele>352.0</ele>
<speed>1.9</speed>
<course>326.8</course>
<desc>Speed 1.9 km/h Distance 0.44 km</desc>
<time>2010-03-01T17:13:43.37</time>
<name>666</name>
</trkpt>
<trkpt lat="48.942857" lon="8.663245">
<ele>351.5</ele>
<speed>2.7</speed>
<course>325.9</course>
<desc>Speed 2.7 km/h Distance 0.44 km</desc>
<time>2010-03-01T17:13:44.37</time>
<name>667</name>
</trkpt>
<trkpt lat="48.942862" lon="8.663240">
<ele>351.5</ele>
<speed>2.2</speed>
<course>318.1</course>
<desc>Speed 2.2 km/h Distance 0.45 km</desc>
<time>2010-03-01T17:13:45.37</time>
<name>668</name>
</trkpt>
<trkpt lat="48.942867" lon="8.663233">
<ele>351.0</ele>
<speed>1.3</speed>
<course>51.9</course>
<desc>Speed 1.3 km/h Distance 0.45 km</desc>
<time>2010-03-01T17:13:46.37</time>
<name>669</name>
</trkpt>
<trkpt lat="48.942868" lon="8.663237">
<ele>350.5</ele>
<speed>1.0</speed>
<course>347.4</course>
<desc>Speed 1.0 km/h Distance 0.45 km</desc>
<time>2010-03-01T17:13:47.37</time>
<name>670</name>
</trkpt>
<trkpt lat="48.942870" lon="8.663235">
<ele>350.5</ele>
<speed>0.4</speed>
<course>347.4</course>
<desc>Speed 0.4 km/h Distance 0.45 km</desc>
<time>2010-03-01T17:13:48.37</time>
<name>671</name>
</trkpt>
<trkpt lat="48.942870" lon="8.663235">
<ele>350.5</ele>
<speed>0.1</speed>
<course>347.4</course>
<desc>Speed 0.1 km/h Distance 0.45 km</desc>
<time>2010-03-01T17:13:49.36</time>
<name>672</name>
</trkpt>
<trkpt lat="48.942870" lon="8.663235">
<ele>350.5</ele>
<speed>0.1</speed>
<course>12.6</course>
<desc>Speed 0.1 km/h Distance 0.45 km</desc>
<time>2010-03-01T17:13:50.36</time>
<name>673</name>
</trkpt>
<trkpt lat="48.942872" lon="8.663235">
<ele>350.0</ele>
<speed>0.2</speed>
<course>326.3</course>
<desc>Speed 0.2 km/h Distance 0.45 km</desc>
<time>2010-03-01T17:13:51.36</time>
<name>674</name>
</trkpt>
<trkpt lat="48.942875" lon="8.663232">
<ele>349.5</ele>
<speed>1.0</speed>
<course>351.9</course>
<desc>Speed 1.0 km/h Distance 0.45 km</desc>
<time>2010-03-01T17:13:52.36</time>
<name>675</name>
</trkpt>
<trkpt lat="48.942880" lon="8.663230">
<ele>349.5</ele>
<speed>1.0</speed>
<course>297.4</course>
<desc>Speed 1.0 km/h Distance 0.45 km</desc>
<time>2010-03-01T17:13:53.36</time>
<name>676</name>
</trkpt>
<trkpt lat="48.942882" lon="8.663225">
<ele>349.5</ele>
<speed>0.8</speed>
<course>297.4</course>
<desc>Speed 0.8 km/h Distance 0.45 km</desc>
<time>2010-03-01T17:13:54.36</time>
<name>677</name>
</trkpt>
<trkpt lat="48.942882" lon="8.663225">
<ele>349.5</ele>
<speed>0.2</speed>
<course>167.4</course>
<desc>Speed 0.2 km/h Distance 0.45 km</desc>
<time>2010-03-01T17:13:55.36</time>
<name>678</name>
</trkpt>
<trkpt lat="48.942880" lon="8.663225">
<ele>349.5</ele>
<speed>0.9</speed>
<course>270.0</course>
<desc>Speed 0.9 km/h Distance 0.45 km</desc>
<time>2010-03-01T17:13:56.35</time>
<name>679</name>
</trkpt>
<trkpt lat="48.942880" lon="8.663222">
<ele>350.0</ele>
<speed>0.6</speed>
<course>270.0</course>
<desc>Speed 0.6 km/h Distance 0.45 km</desc>
<time>2010-03-01T17:13:57.35</time>
<name>680</name>
</trkpt>
<trkpt lat="48.942880" lon="8.663220">
<ele>350.0</ele>
<speed>0.3</speed>
<course>270.0</course>
<desc>Speed 0.3 km/h Distance 0.45 km</desc>
<time>2010-03-01T17:13:58.36</time>
<name>681</name>
</trkpt>
<trkpt lat="48.942880" lon="8.663218">
<ele>350.0</ele>
<speed>0.3</speed>
<course>270.0</course>
<desc>Speed 0.3 km/h Distance 0.45 km</desc>
<time>2010-03-01T17:13:59.36</time>
<name>682</name>
</trkpt>
<trkpt lat="48.942880" lon="8.663217">
<ele>350.0</ele>
<speed>0.3</speed>
<course>270.0</course>
<desc>Speed 0.3 km/h Distance 0.45 km</desc>
<time>2010-03-01T17:14:00.36</time>
<name>683</name>
</trkpt>
<trkpt lat="48.942880" lon="8.663215">
<ele>350.0</ele>
<speed>0.2</speed>
<course>270.0</course>
<desc>Speed 0.2 km/h Distance 0.45 km</desc>
<time>2010-03-01T17:14:01.36</time>
<name>684</name>
</trkpt>
<trkpt lat="48.942880" lon="8.663208">
<ele>350.5</ele>
<speed>1.1</speed>
<course>315.5</course>
<desc>Speed 1.1 km/h Distance 0.45 km</desc>
<time>2010-03-01T17:14:02.36</time>
<name>685</name>
</trkpt>
<trkpt lat="48.942883" lon="8.663203">
<ele>350.5</ele>
<speed>2.1</speed>
<course>307.4</course>
<desc>Speed 2.1 km/h Distance 0.45 km</desc>
<time>2010-03-01T17:14:03.36</time>
<name>686</name>
</trkpt>
<trkpt lat="48.942888" lon="8.663193">
<ele>350.5</ele>
<speed>3.2</speed>
<course>326.8</course>
<desc>Speed 3.2 km/h Distance 0.45 km</desc>
<time>2010-03-01T17:14:04.35</time>
<name>687</name>
</trkpt>
<trkpt lat="48.942897" lon="8.663185">
<ele>350.0</ele>
<speed>3.6</speed>
<course>320.6</course>
<desc>Speed 3.6 km/h Distance 0.45 km</desc>
<time>2010-03-01T17:14:05.36</time>
<name>688</name>
</trkpt>
<trkpt lat="48.942903" lon="8.663177">
<ele>350.5</ele>
<speed>3.5</speed>
<course>320.6</course>
<desc>Speed 3.5 km/h Distance 0.45 km</desc>
<time>2010-03-01T17:14:06.36</time>
<name>689</name>
</trkpt>
<trkpt lat="48.942910" lon="8.663168">
<ele>350.5</ele>
<speed>3.6</speed>
<course>331.4</course>
<desc>Speed 3.6 km/h Distance 0.45 km</desc>
<time>2010-03-01T17:14:07.35</time>
<name>690</name>
</trkpt>
<trkpt lat="48.942920" lon="8.663160">
<ele>350.0</ele>
<speed>3.9</speed>
<course>336.2</course>
<desc>Speed 3.9 km/h Distance 0.46 km</desc>
<time>2010-03-01T17:14:08.36</time>
<name>691</name>
</trkpt>
<trkpt lat="48.942930" lon="8.663153">
<ele>350.0</ele>
<speed>3.7</speed>
<course>336.2</course>
<desc>Speed 3.7 km/h Distance 0.46 km</desc>
<time>2010-03-01T17:14:09.36</time>
<name>692</name>
</trkpt>
<trkpt lat="48.942940" lon="8.663147">
<ele>349.5</ele>
<speed>3.6</speed>
<course>336.2</course>
<desc>Speed 3.6 km/h Distance 0.46 km</desc>
<time>2010-03-01T17:14:10.36</time>
<name>693</name>
</trkpt>
<trkpt lat="48.942950" lon="8.663140">
<ele>349.5</ele>
<speed>3.6</speed>
<course>336.6</course>
<desc>Speed 3.6 km/h Distance 0.46 km</desc>
<time>2010-03-01T17:14:11.36</time>
<name>694</name>
</trkpt>
<trkpt lat="48.942960" lon="8.663133">
<ele>349.0</ele>
<speed>3.7</speed>
<course>323.1</course>
<desc>Speed 3.7 km/h Distance 0.46 km</desc>
<time>2010-03-01T17:14:12.35</time>
<name>695</name>
</trkpt>
<trkpt lat="48.942972" lon="8.663120">
<ele>348.5</ele>
<speed>4.6</speed>
<course>321.6</course>
<desc>Speed 4.6 km/h Distance 0.46 km</desc>
<time>2010-03-01T17:14:13.35</time>
<name>696</name>
</trkpt>
<trkpt lat="48.942980" lon="8.663110">
<ele>348.5</ele>
<speed>4.1</speed>
<course>310.9</course>
<desc>Speed 4.1 km/h Distance 0.46 km</desc>
<time>2010-03-01T17:14:14.36</time>
<name>697</name>
</trkpt>
<trkpt lat="48.942987" lon="8.663098">
<ele>348.5</ele>
<speed>3.5</speed>
<course>317.4</course>
<desc>Speed 3.5 km/h Distance 0.46 km</desc>
<time>2010-03-01T17:14:15.35</time>
<name>698</name>
</trkpt>
<trkpt lat="48.942995" lon="8.663087">
<ele>349.0</ele>
<speed>3.7</speed>
<course>332.1</course>
<desc>Speed 3.7 km/h Distance 0.47 km</desc>
<time>2010-03-01T17:14:16.35</time>
<name>699</name>
</trkpt>
<trkpt lat="48.943003" lon="8.663080">
<ele>349.0</ele>
<speed>3.0</speed>
<course>317.4</course>
<desc>Speed 3.0 km/h Distance 0.47 km</desc>
<time>2010-03-01T17:14:17.34</time>
<name>700</name>
</trkpt>
<trkpt lat="48.943012" lon="8.663068">
<ele>349.5</ele>
<speed>4.0</speed>
<course>334.8</course>
<desc>Speed 4.0 km/h Distance 0.47 km</desc>
<time>2010-03-01T17:14:18.35</time>
<name>701</name>
</trkpt>
<trkpt lat="48.943023" lon="8.663060">
<ele>349.0</ele>
<speed>4.4</speed>
<course>332.1</course>
<desc>Speed 4.4 km/h Distance 0.47 km</desc>
<time>2010-03-01T17:14:19.35</time>
<name>702</name>
</trkpt>
<trkpt lat="48.943032" lon="8.663053">
<ele>348.5</ele>
<speed>3.3</speed>
<course>312.2</course>
<desc>Speed 3.3 km/h Distance 0.47 km</desc>
<time>2010-03-01T17:14:20.35</time>
<name>703</name>
</trkpt>
<trkpt lat="48.943037" lon="8.663045">
<ele>348.0</ele>
<speed>2.8</speed>
<course>339.2</course>
<desc>Speed 2.8 km/h Distance 0.47 km</desc>
<time>2010-03-01T17:14:21.35</time>
<name>704</name>
</trkpt>
<trkpt lat="48.943045" lon="8.663040">
<ele>348.0</ele>
<speed>2.9</speed>
<course>338.5</course>
<desc>Speed 2.9 km/h Distance 0.47 km</desc>
<time>2010-03-01T17:14:22.35</time>
<name>705</name>
</trkpt>
<trkpt lat="48.943053" lon="8.663035">
<ele>347.5</ele>
<speed>3.2</speed>
<course>307.4</course>
<desc>Speed 3.2 km/h Distance 0.47 km</desc>
<time>2010-03-01T17:14:23.35</time>
<name>706</name>
</trkpt>
<trkpt lat="48.943058" lon="8.663025">
<ele>347.5</ele>
<speed>3.2</speed>
<course>288.7</course>
<desc>Speed 3.2 km/h Distance 0.47 km</desc>
<time>2010-03-01T17:14:24.35</time>
<name>707</name>
</trkpt>
<trkpt lat="48.943062" lon="8.663010">
<ele>347.5</ele>
<speed>3.9</speed>
<course>318.1</course>
<desc>Speed 3.9 km/h Distance 0.48 km</desc>
<time>2010-03-01T17:14:25.35</time>
<name>708</name>
</trkpt>
<trkpt lat="48.943067" lon="8.663003">
<ele>347.0</ele>
<speed>2.8</speed>
<course>290.9</course>
<desc>Speed 2.8 km/h Distance 0.48 km</desc>
<time>2010-03-01T17:14:26.35</time>
<name>709</name>
</trkpt>
<trkpt lat="48.943068" lon="8.662997">
<ele>347.0</ele>
<speed>1.8</speed>
<course>341.2</course>
<desc>Speed 1.8 km/h Distance 0.48 km</desc>
<time>2010-03-01T17:14:27.35</time>
<name>710</name>
</trkpt>
<trkpt lat="48.943072" lon="8.662995">
<ele>347.0</ele>
<speed>1.6</speed>
<course>0.0</course>
<desc>Speed 1.6 km/h Distance 0.48 km</desc>
<time>2010-03-01T17:14:28.35</time>
<name>711</name>
</trkpt>
<trkpt lat="48.943073" lon="8.662995">
<ele>347.0</ele>
<speed>0.2</speed>
<course>0.0</course>
<desc>Speed 0.2 km/h Distance 0.48 km</desc>
<time>2010-03-01T17:14:29.35</time>
<name>712</name>
</trkpt>
<trkpt lat="48.943073" lon="8.662995">
<ele>347.0</ele>
<speed>0.5</speed>
<course>0.0</course>
<desc>Speed 0.5 km/h Distance 0.48 km</desc>
<time>2010-03-01T17:14:30.34</time>
<name>713</name>
</trkpt>
<trkpt lat="48.943073" lon="8.662995">
<ele>347.0</ele>
<speed>0.4</speed>
<course>0.0</course>
<desc>Speed 0.4 km/h Distance 0.48 km</desc>
<time>2010-03-01T17:14:31.34</time>
<name>714</name>
</trkpt>
<trkpt lat="48.943073" lon="8.662995">
<ele>347.0</ele>
<speed>0.5</speed>
<course>0.0</course>
<desc>Speed 0.5 km/h Distance 0.48 km</desc>
<time>2010-03-01T17:14:32.34</time>
<name>715</name>
</trkpt>
<trkpt lat="48.943073" lon="8.662995">
<ele>347.0</ele>
<speed>0.3</speed>
<course>0.0</course>
<desc>Speed 0.3 km/h Distance 0.48 km</desc>
<time>2010-03-01T17:14:33.35</time>
<name>716</name>
</trkpt>
<trkpt lat="48.943073" lon="8.662995">
<ele>347.0</ele>
<speed>0.1</speed>
<course>0.0</course>
<desc>Speed 0.1 km/h Distance 0.48 km</desc>
<time>2010-03-01T17:14:34.34</time>
<name>717</name>
</trkpt>
<trkpt lat="48.943073" lon="8.662995">
<ele>347.0</ele>
<speed>0.3</speed>
<course>12.6</course>
<desc>Speed 0.3 km/h Distance 0.48 km</desc>
<time>2010-03-01T17:14:35.34</time>
<name>718</name>
</trkpt>
<trkpt lat="48.943075" lon="8.662995">
<ele>347.0</ele>
<speed>0.1</speed>
<course>12.6</course>
<desc>Speed 0.1 km/h Distance 0.48 km</desc>
<time>2010-03-01T17:14:36.34</time>
<name>719</name>
</trkpt>
<trkpt lat="48.943075" lon="8.662995">
<ele>347.0</ele>
<speed>0.2</speed>
<course>12.6</course>
<desc>Speed 0.2 km/h Distance 0.48 km</desc>
<time>2010-03-01T17:14:37.34</time>
<name>720</name>
</trkpt>
<trkpt lat="48.943075" lon="8.662995">
<ele>347.0</ele>
<speed>0.2</speed>
<course>12.6</course>
<desc>Speed 0.2 km/h Distance 0.48 km</desc>
<time>2010-03-01T17:14:38.37</time>
<name>721</name>
</trkpt>
<trkpt lat="48.943075" lon="8.662995">
<ele>347.5</ele>
<speed>0.2</speed>
<course>249.1</course>
<desc>Speed 0.2 km/h Distance 0.48 km</desc>
<time>2010-03-01T17:14:39.36</time>
<name>722</name>
</trkpt>
<trkpt lat="48.943073" lon="8.662988">
<ele>348.0</ele>
<speed>0.3</speed>
<course>249.1</course>
<desc>Speed 0.3 km/h Distance 0.48 km</desc>
<time>2010-03-01T17:14:40.34</time>
<name>723</name>
</trkpt>
<trkpt lat="48.943072" lon="8.662982">
<ele>349.0</ele>
<speed>0.6</speed>
<course>249.1</course>
<desc>Speed 0.6 km/h Distance 0.48 km</desc>
<time>2010-03-01T17:14:41.34</time>
<name>724</name>
</trkpt>
<trkpt lat="48.943072" lon="8.662982">
<ele>349.0</ele>
<speed>0.3</speed>
<course>249.1</course>
<desc>Speed 0.3 km/h Distance 0.48 km</desc>
<time>2010-03-01T17:14:42.34</time>
<name>725</name>
</trkpt>
<trkpt lat="48.943072" lon="8.662982">
<ele>349.0</ele>
<speed>0.4</speed>
<course>249.1</course>
<desc>Speed 0.4 km/h Distance 0.48 km</desc>
<time>2010-03-01T17:14:43.34</time>
<name>726</name>
</trkpt>
<trkpt lat="48.943072" lon="8.662982">
<ele>349.0</ele>
<speed>0.4</speed>
<course>249.1</course>
<desc>Speed 0.4 km/h Distance 0.48 km</desc>
<time>2010-03-01T17:14:44.33</time>
<name>727</name>
</trkpt>
<trkpt lat="48.943072" lon="8.662982">
<ele>349.5</ele>
<speed>0.2</speed>
<course>249.1</course>
<desc>Speed 0.2 km/h Distance 0.48 km</desc>
<time>2010-03-01T17:14:45.34</time>
<name>728</name>
</trkpt>
<trkpt lat="48.943072" lon="8.662982">
<ele>349.5</ele>
<speed>0.4</speed>
<course>249.1</course>
<desc>Speed 0.4 km/h Distance 0.48 km</desc>
<time>2010-03-01T17:14:46.33</time>
<name>729</name>
</trkpt>
<trkpt lat="48.943072" lon="8.662982">
<ele>349.5</ele>
<speed>0.3</speed>
<course>249.1</course>
<desc>Speed 0.3 km/h Distance 0.48 km</desc>
<time>2010-03-01T17:14:47.33</time>
<name>730</name>
</trkpt>
<trkpt lat="48.943072" lon="8.662982">
<ele>349.5</ele>
<speed>0.3</speed>
<course>249.1</course>
<desc>Speed 0.3 km/h Distance 0.48 km</desc>
<time>2010-03-01T17:14:48.34</time>
<name>731</name>
</trkpt>
<trkpt lat="48.943072" lon="8.662982">
<ele>349.5</ele>
<speed>0.1</speed>
<course>270.0</course>
<desc>Speed 0.1 km/h Distance 0.48 km</desc>
<time>2010-03-01T17:14:49.33</time>
<name>732</name>
</trkpt>
<trkpt lat="48.943072" lon="8.662970">
<ele>350.5</ele>
<speed>1.8</speed>
<course>318.6</course>
<desc>Speed 1.8 km/h Distance 0.48 km</desc>
<time>2010-03-01T17:14:50.33</time>
<name>733</name>
</trkpt>
<trkpt lat="48.943077" lon="8.662963">
<ele>351.0</ele>
<speed>2.1</speed>
<course>296.8</course>
<desc>Speed 2.1 km/h Distance 0.48 km</desc>
<time>2010-03-01T17:14:51.33</time>
<name>734</name>
</trkpt>
<trkpt lat="48.943080" lon="8.662953">
<ele>351.0</ele>
<speed>3.2</speed>
<course>315.2</course>
<desc>Speed 3.2 km/h Distance 0.48 km</desc>
<time>2010-03-01T17:14:52.33</time>
<name>735</name>
</trkpt>
<trkpt lat="48.943087" lon="8.662943">
<ele>350.5</ele>
<speed>3.6</speed>
<course>326.5</course>
<desc>Speed 3.6 km/h Distance 0.48 km</desc>
<time>2010-03-01T17:14:53.34</time>
<name>736</name>
</trkpt>
<trkpt lat="48.943095" lon="8.662935">
<ele>351.0</ele>
<speed>3.1</speed>
<course>321.9</course>
<desc>Speed 3.1 km/h Distance 0.48 km</desc>
<time>2010-03-01T17:14:54.34</time>
<name>737</name>
</trkpt>
<trkpt lat="48.943103" lon="8.662925">
<ele>352.0</ele>
<speed>2.8</speed>
<course>307.2</course>
<desc>Speed 2.8 km/h Distance 0.48 km</desc>
<time>2010-03-01T17:14:55.34</time>
<name>738</name>
</trkpt>
<trkpt lat="48.943108" lon="8.662915">
<ele>353.0</ele>
<speed>2.7</speed>
<course>338.5</course>
<desc>Speed 2.7 km/h Distance 0.48 km</desc>
<time>2010-03-01T17:14:56.34</time>
<name>739</name>
</trkpt>
<trkpt lat="48.943117" lon="8.662910">
<ele>353.5</ele>
<speed>2.7</speed>
<course>352.6</course>
<desc>Speed 2.7 km/h Distance 0.49 km</desc>
<time>2010-03-01T17:14:57.33</time>
<name>740</name>
</trkpt>
<trkpt lat="48.943123" lon="8.662908">
<ele>353.5</ele>
<speed>3.0</speed>
<course>341.2</course>
<desc>Speed 3.0 km/h Distance 0.49 km</desc>
<time>2010-03-01T17:14:58.34</time>
<name>741</name>
</trkpt>
<trkpt lat="48.943130" lon="8.662905">
<ele>354.0</ele>
<speed>2.5</speed>
<course>347.4</course>
<desc>Speed 2.5 km/h Distance 0.49 km</desc>
<time>2010-03-01T17:14:59.33</time>
<name>742</name>
</trkpt>
<trkpt lat="48.943140" lon="8.662902">
<ele>354.0</ele>
<speed>3.1</speed>
<course>338.5</course>
<desc>Speed 3.1 km/h Distance 0.49 km</desc>
<time>2010-03-01T17:15:00.33</time>
<name>743</name>
</trkpt>
<trkpt lat="48.943148" lon="8.662897">
<ele>354.0</ele>
<speed>3.5</speed>
<course>347.4</course>
<desc>Speed 3.5 km/h Distance 0.49 km</desc>
<time>2010-03-01T17:15:01.33</time>
<name>744</name>
</trkpt>
<trkpt lat="48.943158" lon="8.662893">
<ele>353.5</ele>
<speed>3.3</speed>
<course>347.4</course>
<desc>Speed 3.3 km/h Distance 0.49 km</desc>
<time>2010-03-01T17:15:02.33</time>
<name>745</name>
</trkpt>
<trkpt lat="48.943168" lon="8.662890">
<ele>352.0</ele>
<speed>3.0</speed>
<course>333.6</course>
<desc>Speed 3.0 km/h Distance 0.49 km</desc>
<time>2010-03-01T17:15:03.36</time>
<name>746</name>
</trkpt>
<trkpt lat="48.943175" lon="8.662885">
<ele>352.0</ele>
<speed>2.6</speed>
<course>310.9</course>
<desc>Speed 2.6 km/h Distance 0.49 km</desc>
<time>2010-03-01T17:15:04.33</time>
<name>747</name>
</trkpt>
<trkpt lat="48.943182" lon="8.662873">
<ele>352.5</ele>
<speed>3.7</speed>
<course>313.6</course>
<desc>Speed 3.7 km/h Distance 0.49 km</desc>
<time>2010-03-01T17:15:05.32</time>
<name>748</name>
</trkpt>
<trkpt lat="48.943190" lon="8.662860">
<ele>353.0</ele>
<speed>3.9</speed>
<course>336.6</course>
<desc>Speed 3.9 km/h Distance 0.50 km</desc>
<time>2010-03-01T17:15:06.33</time>
<name>749</name>
</trkpt>
<trkpt lat="48.943200" lon="8.662853">
<ele>352.5</ele>
<speed>3.4</speed>
<course>288.7</course>
<desc>Speed 3.4 km/h Distance 0.50 km</desc>
<time>2010-03-01T17:15:07.33</time>
<name>750</name>
</trkpt>
<trkpt lat="48.943203" lon="8.662838">
<ele>353.0</ele>
<speed>2.9</speed>
<course>303.3</course>
<desc>Speed 2.9 km/h Distance 0.50 km</desc>
<time>2010-03-01T17:15:08.33</time>
<name>751</name>
</trkpt>
<trkpt lat="48.943208" lon="8.662827">
<ele>353.5</ele>
<speed>3.5</speed>
<course>326.8</course>
<desc>Speed 3.5 km/h Distance 0.50 km</desc>
<time>2010-03-01T17:15:09.33</time>
<name>752</name>
</trkpt>
<trkpt lat="48.943217" lon="8.662818">
<ele>353.5</ele>
<speed>3.1</speed>
<course>315.7</course>
<desc>Speed 3.1 km/h Distance 0.50 km</desc>
<time>2010-03-01T17:15:10.34</time>
<name>753</name>
</trkpt>
<trkpt lat="48.943223" lon="8.662808">
<ele>353.0</ele>
<speed>2.9</speed>
<course>320.6</course>
<desc>Speed 2.9 km/h Distance 0.50 km</desc>
<time>2010-03-01T17:15:11.33</time>
<name>754</name>
</trkpt>
<trkpt lat="48.943230" lon="8.662800">
<ele>353.0</ele>
<speed>3.0</speed>
<course>315.5</course>
<desc>Speed 3.0 km/h Distance 0.50 km</desc>
<time>2010-03-01T17:15:12.33</time>
<name>755</name>
</trkpt>
<trkpt lat="48.943237" lon="8.662790">
<ele>352.5</ele>
<speed>2.8</speed>
<course>326.8</course>
<desc>Speed 2.8 km/h Distance 0.50 km</desc>
<time>2010-03-01T17:15:13.33</time>
<name>756</name>
</trkpt>
<trkpt lat="48.943245" lon="8.662782">
<ele>352.5</ele>
<speed>3.2</speed>
<course>317.5</course>
<desc>Speed 3.2 km/h Distance 0.50 km</desc>
<time>2010-03-01T17:15:14.32</time>
<name>757</name>
</trkpt>
<trkpt lat="48.943253" lon="8.662770">
<ele>352.0</ele>
<speed>3.6</speed>
<course>326.8</course>
<desc>Speed 3.6 km/h Distance 0.50 km</desc>
<time>2010-03-01T17:15:15.33</time>
<name>758</name>
</trkpt>
<trkpt lat="48.943263" lon="8.662760">
<ele>352.0</ele>
<speed>3.3</speed>
<course>341.8</course>
<desc>Speed 3.3 km/h Distance 0.51 km</desc>
<time>2010-03-01T17:15:16.32</time>
<name>759</name>
</trkpt>
<trkpt lat="48.943273" lon="8.662755">
<ele>352.0</ele>
<speed>3.9</speed>
<course>347.4</course>
<desc>Speed 3.9 km/h Distance 0.51 km</desc>
<time>2010-03-01T17:15:17.32</time>
<name>760</name>
</trkpt>
<trkpt lat="48.943278" lon="8.662753">
<ele>352.0</ele>
<speed>1.9</speed>
<course>341.2</course>
<desc>Speed 1.9 km/h Distance 0.51 km</desc>
<time>2010-03-01T17:15:18.32</time>
<name>761</name>
</trkpt>
<trkpt lat="48.943285" lon="8.662750">
<ele>352.5</ele>
<speed>1.8</speed>
<course>326.8</course>
<desc>Speed 1.8 km/h Distance 0.51 km</desc>
<time>2010-03-01T17:15:19.35</time>
<name>762</name>
</trkpt>
<trkpt lat="48.943293" lon="8.662742">
<ele>353.0</ele>
<speed>2.8</speed>
<course>326.8</course>
<desc>Speed 2.8 km/h Distance 0.51 km</desc>
<time>2010-03-01T17:15:20.32</time>
<name>763</name>
</trkpt>
<trkpt lat="48.943302" lon="8.662733">
<ele>352.5</ele>
<speed>3.2</speed>
<course>336.2</course>
<desc>Speed 3.2 km/h Distance 0.51 km</desc>
<time>2010-03-01T17:15:21.32</time>
<name>764</name>
</trkpt>
<trkpt lat="48.943312" lon="8.662727">
<ele>352.0</ele>
<speed>3.2</speed>
<course>332.1</course>
<desc>Speed 3.2 km/h Distance 0.51 km</desc>
<time>2010-03-01T17:15:22.32</time>
<name>765</name>
</trkpt>
<trkpt lat="48.943320" lon="8.662720">
<ele>351.0</ele>
<speed>2.7</speed>
<course>331.4</course>
<desc>Speed 2.7 km/h Distance 0.51 km</desc>
<time>2010-03-01T17:15:23.32</time>
<name>766</name>
</trkpt>
<trkpt lat="48.943330" lon="8.662712">
<ele>351.0</ele>
<speed>3.2</speed>
<course>311.3</course>
<desc>Speed 3.2 km/h Distance 0.51 km</desc>
<time>2010-03-01T17:15:24.32</time>
<name>767</name>
</trkpt>
<trkpt lat="48.943337" lon="8.662700">
<ele>351.0</ele>
<speed>3.5</speed>
<course>326.8</course>
<desc>Speed 3.5 km/h Distance 0.52 km</desc>
<time>2010-03-01T17:15:25.32</time>
<name>768</name>
</trkpt>
<trkpt lat="48.943345" lon="8.662692">
<ele>351.0</ele>
<speed>3.1</speed>
<course>317.4</course>
<desc>Speed 3.1 km/h Distance 0.52 km</desc>
<time>2010-03-01T17:15:26.32</time>
<name>769</name>
</trkpt>
<trkpt lat="48.943353" lon="8.662680">
<ele>351.5</ele>
<speed>3.5</speed>
<course>331.4</course>
<desc>Speed 3.5 km/h Distance 0.52 km</desc>
<time>2010-03-01T17:15:27.32</time>
<name>770</name>
</trkpt>
<trkpt lat="48.943363" lon="8.662672">
<ele>351.5</ele>
<speed>4.1</speed>
<course>307.3</course>
<desc>Speed 4.1 km/h Distance 0.52 km</desc>
<time>2010-03-01T17:15:28.32</time>
<name>771</name>
</trkpt>
<trkpt lat="48.943370" lon="8.662658">
<ele>352.0</ele>
<speed>3.4</speed>
<course>321.9</course>
<desc>Speed 3.4 km/h Distance 0.52 km</desc>
<time>2010-03-01T17:15:29.32</time>
<name>772</name>
</trkpt>
<trkpt lat="48.943378" lon="8.662648">
<ele>352.0</ele>
<speed>2.8</speed>
<course>332.1</course>
<desc>Speed 2.8 km/h Distance 0.52 km</desc>
<time>2010-03-01T17:15:30.32</time>
<name>773</name>
</trkpt>
<trkpt lat="48.943387" lon="8.662642">
<ele>351.0</ele>
<speed>3.0</speed>
<course>326.7</course>
<desc>Speed 3.0 km/h Distance 0.52 km</desc>
<time>2010-03-01T17:15:31.32</time>
<name>774</name>
</trkpt>
<trkpt lat="48.943398" lon="8.662630">
<ele>350.5</ele>
<speed>4.2</speed>
<course>335.1</course>
<desc>Speed 4.2 km/h Distance 0.52 km</desc>
<time>2010-03-01T17:15:32.32</time>
<name>775</name>
</trkpt>
<trkpt lat="48.943410" lon="8.662622">
<ele>350.0</ele>
<speed>4.1</speed>
<course>335.1</course>
<desc>Speed 4.1 km/h Distance 0.53 km</desc>
<time>2010-03-01T17:15:33.32</time>
<name>776</name>
</trkpt>
<trkpt lat="48.943422" lon="8.662613">
<ele>350.0</ele>
<speed>4.1</speed>
<course>317.4</course>
<desc>Speed 4.1 km/h Distance 0.53 km</desc>
<time>2010-03-01T17:15:34.32</time>
<name>777</name>
</trkpt>
<trkpt lat="48.943430" lon="8.662602">
<ele>350.5</ele>
<speed>3.1</speed>
<course>307.3</course>
<desc>Speed 3.1 km/h Distance 0.53 km</desc>
<time>2010-03-01T17:15:35.32</time>
<name>778</name>
</trkpt>
<trkpt lat="48.943437" lon="8.662588">
<ele>350.5</ele>
<speed>3.1</speed>
<course>318.8</course>
<desc>Speed 3.1 km/h Distance 0.53 km</desc>
<time>2010-03-01T17:15:36.32</time>
<name>779</name>
</trkpt>
<trkpt lat="48.943447" lon="8.662575">
<ele>350.5</ele>
<speed>3.7</speed>
<course>304.1</course>
<desc>Speed 3.7 km/h Distance 0.53 km</desc>
<time>2010-03-01T17:15:37.32</time>
<name>780</name>
</trkpt>
<trkpt lat="48.943453" lon="8.662560">
<ele>351.0</ele>
<speed>3.2</speed>
<course>332.1</course>
<desc>Speed 3.2 km/h Distance 0.53 km</desc>
<time>2010-03-01T17:15:38.32</time>
<name>781</name>
</trkpt>
<trkpt lat="48.943462" lon="8.662553">
<ele>350.5</ele>
<speed>2.8</speed>
<course>336.2</course>
<desc>Speed 2.8 km/h Distance 0.53 km</desc>
<time>2010-03-01T17:15:39.32</time>
<name>782</name>
</trkpt>
<trkpt lat="48.943472" lon="8.662547">
<ele>350.0</ele>
<speed>2.5</speed>
<course>326.3</course>
<desc>Speed 2.5 km/h Distance 0.53 km</desc>
<time>2010-03-01T17:15:40.32</time>
<name>783</name>
</trkpt>
<trkpt lat="48.943478" lon="8.662540">
<ele>349.5</ele>
<speed>2.3</speed>
<course>351.9</course>
<desc>Speed 2.3 km/h Distance 0.54 km</desc>
<time>2010-03-01T17:15:41.32</time>
<name>784</name>
</trkpt>
<trkpt lat="48.943483" lon="8.662538">
<ele>350.0</ele>
<speed>1.5</speed>
<course>23.8</course>
<desc>Speed 1.5 km/h Distance 0.54 km</desc>
<time>2010-03-01T17:15:42.32</time>
<name>785</name>
</trkpt>
<trkpt lat="48.943488" lon="8.662542">
<ele>349.5</ele>
<speed>0.8</speed>
<course>336.2</course>
<desc>Speed 0.8 km/h Distance 0.54 km</desc>
<time>2010-03-01T17:15:43.31</time>
<name>786</name>
</trkpt>
<trkpt lat="48.943493" lon="8.662538">
<ele>349.0</ele>
<speed>1.2</speed>
<course>352.6</course>
<desc>Speed 1.2 km/h Distance 0.54 km</desc>
<time>2010-03-01T17:15:44.32</time>
<name>787</name>
</trkpt>
<trkpt lat="48.943500" lon="8.662537">
<ele>348.5</ele>
<speed>1.5</speed>
<course>345.1</course>
<desc>Speed 1.5 km/h Distance 0.54 km</desc>
<time>2010-03-01T17:15:45.31</time>
<name>788</name>
</trkpt>
<trkpt lat="48.943508" lon="8.662533">
<ele>348.0</ele>
<speed>1.8</speed>
<course>326.3</course>
<desc>Speed 1.8 km/h Distance 0.54 km</desc>
<time>2010-03-01T17:15:46.31</time>
<name>789</name>
</trkpt>
<trkpt lat="48.943515" lon="8.662527">
<ele>347.5</ele>
<speed>3.0</speed>
<course>331.4</course>
<desc>Speed 3.0 km/h Distance 0.54 km</desc>
<time>2010-03-01T17:15:47.31</time>
<name>790</name>
</trkpt>
<trkpt lat="48.943525" lon="8.662518">
<ele>346.5</ele>
<speed>3.4</speed>
<course>345.1</course>
<desc>Speed 3.4 km/h Distance 0.54 km</desc>
<time>2010-03-01T17:15:48.31</time>
<name>791</name>
</trkpt>
<trkpt lat="48.943537" lon="8.662513">
<ele>346.0</ele>
<speed>3.8</speed>
<course>334.8</course>
<desc>Speed 3.8 km/h Distance 0.54 km</desc>
<time>2010-03-01T17:15:49.31</time>
<name>792</name>
</trkpt>
<trkpt lat="48.943548" lon="8.662505">
<ele>345.5</ele>
<speed>4.1</speed>
<course>334.8</course>
<desc>Speed 4.1 km/h Distance 0.54 km</desc>
<time>2010-03-01T17:15:50.31</time>
<name>793</name>
</trkpt>
<trkpt lat="48.943560" lon="8.662497">
<ele>344.5</ele>
<speed>4.0</speed>
<course>344.0</course>
<desc>Speed 4.0 km/h Distance 0.55 km</desc>
<time>2010-03-01T17:15:51.31</time>
<name>794</name>
</trkpt>
<trkpt lat="48.943572" lon="8.662492">
<ele>343.5</ele>
<speed>3.6</speed>
<course>335.8</course>
<desc>Speed 3.6 km/h Distance 0.55 km</desc>
<time>2010-03-01T17:15:52.31</time>
<name>795</name>
</trkpt>
<trkpt lat="48.943582" lon="8.662485">
<ele>343.0</ele>
<speed>3.5</speed>
<course>331.1</course>
<desc>Speed 3.5 km/h Distance 0.55 km</desc>
<time>2010-03-01T17:15:53.31</time>
<name>796</name>
</trkpt>
<trkpt lat="48.943592" lon="8.662477">
<ele>342.5</ele>
<speed>3.5</speed>
<course>338.5</course>
<desc>Speed 3.5 km/h Distance 0.55 km</desc>
<time>2010-03-01T17:15:54.31</time>
<name>797</name>
</trkpt>
<trkpt lat="48.943600" lon="8.662472">
<ele>342.0</ele>
<speed>3.3</speed>
<course>336.2</course>
<desc>Speed 3.3 km/h Distance 0.55 km</desc>
<time>2010-03-01T17:15:55.31</time>
<name>798</name>
</trkpt>
<trkpt lat="48.943610" lon="8.662465">
<ele>341.5</ele>
<speed>3.3</speed>
<course>321.6</course>
<desc>Speed 3.3 km/h Distance 0.55 km</desc>
<time>2010-03-01T17:15:56.32</time>
<name>799</name>
</trkpt>
<trkpt lat="48.943618" lon="8.662455">
<ele>341.5</ele>
<speed>3.7</speed>
<course>336.2</course>
<desc>Speed 3.7 km/h Distance 0.55 km</desc>
<time>2010-03-01T17:15:57.31</time>
<name>800</name>
</trkpt>
<trkpt lat="48.943628" lon="8.662448">
<ele>341.0</ele>
<speed>3.5</speed>
<course>347.4</course>
<desc>Speed 3.5 km/h Distance 0.55 km</desc>
<time>2010-03-01T17:15:58.31</time>
<name>801</name>
</trkpt>
<trkpt lat="48.943638" lon="8.662445">
<ele>340.5</ele>
<speed>2.8</speed>
<course>338.5</course>
<desc>Speed 2.8 km/h Distance 0.56 km</desc>
<time>2010-03-01T17:15:59.31</time>
<name>802</name>
</trkpt>
<trkpt lat="48.943647" lon="8.662440">
<ele>340.0</ele>
<speed>3.0</speed>
<course>348.8</course>
<desc>Speed 3.0 km/h Distance 0.56 km</desc>
<time>2010-03-01T17:16:00.31</time>
<name>803</name>
</trkpt>
<trkpt lat="48.943658" lon="8.662437">
<ele>339.5</ele>
<speed>3.6</speed>
<course>331.4</course>
<desc>Speed 3.6 km/h Distance 0.56 km</desc>
<time>2010-03-01T17:16:01.31</time>
<name>804</name>
</trkpt>
<trkpt lat="48.943668" lon="8.662428">
<ele>340.0</ele>
<speed>4.0</speed>
<course>331.4</course>
<desc>Speed 4.0 km/h Distance 0.56 km</desc>
<time>2010-03-01T17:16:02.31</time>
<name>805</name>
</trkpt>
<trkpt lat="48.943678" lon="8.662420">
<ele>339.5</ele>
<speed>4.0</speed>
<course>321.9</course>
<desc>Speed 4.0 km/h Distance 0.56 km</desc>
<time>2010-03-01T17:16:03.31</time>
<name>806</name>
</trkpt>
<trkpt lat="48.943687" lon="8.662410">
<ele>339.5</ele>
<speed>3.3</speed>
<course>315.5</course>
<desc>Speed 3.3 km/h Distance 0.56 km</desc>
<time>2010-03-01T17:16:04.31</time>
<name>807</name>
</trkpt>
<trkpt lat="48.943693" lon="8.662400">
<ele>340.5</ele>
<speed>3.1</speed>
<course>307.2</course>
<desc>Speed 3.1 km/h Distance 0.56 km</desc>
<time>2010-03-01T17:16:05.31</time>
<name>808</name>
</trkpt>
<trkpt lat="48.943698" lon="8.662390">
<ele>340.0</ele>
<speed>3.1</speed>
<course>303.3</course>
<desc>Speed 3.1 km/h Distance 0.56 km</desc>
<time>2010-03-01T17:16:06.31</time>
<name>809</name>
</trkpt>
<trkpt lat="48.943703" lon="8.662378">
<ele>340.0</ele>
<speed>3.5</speed>
<course>317.4</course>
<desc>Speed 3.5 km/h Distance 0.56 km</desc>
<time>2010-03-01T17:16:07.30</time>
<name>810</name>
</trkpt>
<trkpt lat="48.943712" lon="8.662367">
<ele>339.0</ele>
<speed>3.9</speed>
<course>313.6</course>
<desc>Speed 3.9 km/h Distance 0.57 km</desc>
<time>2010-03-01T17:16:08.30</time>
<name>811</name>
</trkpt>
<trkpt lat="48.943720" lon="8.662353">
<ele>338.0</ele>
<speed>4.2</speed>
<course>307.3</course>
<desc>Speed 4.2 km/h Distance 0.57 km</desc>
<time>2010-03-01T17:16:09.31</time>
<name>812</name>
</trkpt>
<trkpt lat="48.943730" lon="8.662333">
<ele>339.5</ele>
<speed>6.3</speed>
<course>323.1</course>
<desc>Speed 6.3 km/h Distance 0.57 km</desc>
<time>2010-03-01T17:16:10.31</time>
<name>813</name>
</trkpt>
<trkpt lat="48.943742" lon="8.662320">
<ele>339.5</ele>
<speed>4.7</speed>
<course>331.4</course>
<desc>Speed 4.7 km/h Distance 0.57 km</desc>
<time>2010-03-01T17:16:11.30</time>
<name>814</name>
</trkpt>
<trkpt lat="48.943752" lon="8.662312">
<ele>338.5</ele>
<speed>4.0</speed>
<course>326.8</course>
<desc>Speed 4.0 km/h Distance 0.57 km</desc>
<time>2010-03-01T17:16:12.30</time>
<name>815</name>
</trkpt>
<trkpt lat="48.943760" lon="8.662303">
<ele>338.0</ele>
<speed>3.6</speed>
<course>331.4</course>
<desc>Speed 3.6 km/h Distance 0.57 km</desc>
<time>2010-03-01T17:16:13.30</time>
<name>816</name>
</trkpt>
<trkpt lat="48.943770" lon="8.662295">
<ele>337.5</ele>
<speed>3.6</speed>
<course>331.4</course>
<desc>Speed 3.6 km/h Distance 0.57 km</desc>
<time>2010-03-01T17:16:14.30</time>
<name>817</name>
</trkpt>
<trkpt lat="48.943780" lon="8.662287">
<ele>337.0</ele>
<speed>4.1</speed>
<course>321.9</course>
<desc>Speed 4.1 km/h Distance 0.58 km</desc>
<time>2010-03-01T17:16:15.30</time>
<name>818</name>
</trkpt>
<trkpt lat="48.943788" lon="8.662277">
<ele>336.5</ele>
<speed>3.7</speed>
<course>331.4</course>
<desc>Speed 3.7 km/h Distance 0.58 km</desc>
<time>2010-03-01T17:16:16.30</time>
<name>819</name>
</trkpt>
<trkpt lat="48.943798" lon="8.662268">
<ele>336.0</ele>
<speed>3.9</speed>
<course>331.4</course>
<desc>Speed 3.9 km/h Distance 0.58 km</desc>
<time>2010-03-01T17:16:17.30</time>
<name>820</name>
</trkpt>
<trkpt lat="48.943808" lon="8.662260">
<ele>335.5</ele>
<speed>4.1</speed>
<course>321.9</course>
<desc>Speed 4.1 km/h Distance 0.58 km</desc>
<time>2010-03-01T17:16:18.30</time>
<name>821</name>
</trkpt>
<trkpt lat="48.943817" lon="8.662250">
<ele>334.5</ele>
<speed>3.9</speed>
<course>317.4</course>
<desc>Speed 3.9 km/h Distance 0.58 km</desc>
<time>2010-03-01T17:16:19.30</time>
<name>822</name>
</trkpt>
<trkpt lat="48.943825" lon="8.662238">
<ele>334.5</ele>
<speed>3.9</speed>
<course>331.4</course>
<desc>Speed 3.9 km/h Distance 0.58 km</desc>
<time>2010-03-01T17:16:20.30</time>
<name>823</name>
</trkpt>
<trkpt lat="48.943835" lon="8.662230">
<ele>334.5</ele>
<speed>3.9</speed>
<course>321.6</course>
<desc>Speed 3.9 km/h Distance 0.58 km</desc>
<time>2010-03-01T17:16:21.30</time>
<name>824</name>
</trkpt>
<trkpt lat="48.943843" lon="8.662220">
<ele>334.5</ele>
<speed>4.0</speed>
<course>317.4</course>
<desc>Speed 4.0 km/h Distance 0.58 km</desc>
<time>2010-03-01T17:16:22.30</time>
<name>825</name>
</trkpt>
<trkpt lat="48.943852" lon="8.662208">
<ele>334.5</ele>
<speed>3.9</speed>
<course>313.5</course>
<desc>Speed 3.9 km/h Distance 0.58 km</desc>
<time>2010-03-01T17:16:23.30</time>
<name>826</name>
</trkpt>
<trkpt lat="48.943860" lon="8.662195">
<ele>334.5</ele>
<speed>4.5</speed>
<course>317.4</course>
<desc>Speed 4.5 km/h Distance 0.59 km</desc>
<time>2010-03-01T17:16:24.30</time>
<name>827</name>
</trkpt>
<trkpt lat="48.943868" lon="8.662183">
<ele>334.0</ele>
<speed>3.9</speed>
<course>321.9</course>
<desc>Speed 3.9 km/h Distance 0.59 km</desc>
<time>2010-03-01T17:16:25.30</time>
<name>828</name>
</trkpt>
<trkpt lat="48.943877" lon="8.662173">
<ele>333.5</ele>
<speed>4.0</speed>
<course>317.4</course>
<desc>Speed 4.0 km/h Distance 0.59 km</desc>
<time>2010-03-01T17:16:26.30</time>
<name>829</name>
</trkpt>
<trkpt lat="48.943885" lon="8.662162">
<ele>333.0</ele>
<speed>3.9</speed>
<course>310.9</course>
<desc>Speed 3.9 km/h Distance 0.59 km</desc>
<time>2010-03-01T17:16:27.30</time>
<name>830</name>
</trkpt>
<trkpt lat="48.943892" lon="8.662150">
<ele>332.5</ele>
<speed>3.7</speed>
<course>342.5</course>
<desc>Speed 3.7 km/h Distance 0.59 km</desc>
<time>2010-03-01T17:16:28.30</time>
<name>831</name>
</trkpt>
<trkpt lat="48.943898" lon="8.662147">
<ele>332.0</ele>
<speed>2.6</speed>
<course>334.8</course>
<desc>Speed 2.6 km/h Distance 0.59 km</desc>
<time>2010-03-01T17:16:29.30</time>
<name>832</name>
</trkpt>
<trkpt lat="48.943910" lon="8.662138">
<ele>331.5</ele>
<speed>4.3</speed>
<course>338.5</course>
<desc>Speed 4.3 km/h Distance 0.59 km</desc>
<time>2010-03-01T17:16:30.30</time>
<name>833</name>
</trkpt>
<trkpt lat="48.943918" lon="8.662133">
<ele>331.0</ele>
<speed>3.5</speed>
<course>326.3</course>
<desc>Speed 3.5 km/h Distance 0.59 km</desc>
<time>2010-03-01T17:16:31.30</time>
<name>834</name>
</trkpt>
<trkpt lat="48.943925" lon="8.662127">
<ele>331.0</ele>
<speed>2.4</speed>
<course>288.7</course>
<desc>Speed 2.4 km/h Distance 0.60 km</desc>
<time>2010-03-01T17:16:32.29</time>
<name>835</name>
</trkpt>
<trkpt lat="48.943928" lon="8.662112">
<ele>331.0</ele>
<speed>4.1</speed>
<course>303.3</course>
<desc>Speed 4.1 km/h Distance 0.60 km</desc>
<time>2010-03-01T17:16:33.29</time>
<name>836</name>
</trkpt>
<trkpt lat="48.943933" lon="8.662100">
<ele>330.5</ele>
<speed>3.7</speed>
<course>310.9</course>
<desc>Speed 3.7 km/h Distance 0.60 km</desc>
<time>2010-03-01T17:16:34.29</time>
<name>837</name>
</trkpt>
<trkpt lat="48.943940" lon="8.662088">
<ele>330.5</ele>
<speed>3.9</speed>
<course>301.3</course>
<desc>Speed 3.9 km/h Distance 0.60 km</desc>
<time>2010-03-01T17:16:35.30</time>
<name>838</name>
</trkpt>
<trkpt lat="48.943947" lon="8.662072">
<ele>330.5</ele>
<speed>4.0</speed>
<course>307.3</course>
<desc>Speed 4.0 km/h Distance 0.60 km</desc>
<time>2010-03-01T17:16:36.29</time>
<name>839</name>
</trkpt>
<trkpt lat="48.943953" lon="8.662058">
<ele>330.5</ele>
<speed>3.6</speed>
<course>307.3</course>
<desc>Speed 3.6 km/h Distance 0.60 km</desc>
<time>2010-03-01T17:16:37.29</time>
<name>840</name>
</trkpt>
<trkpt lat="48.943960" lon="8.662045">
<ele>331.0</ele>
<speed>3.9</speed>
<course>299.7</course>
<desc>Speed 3.9 km/h Distance 0.60 km</desc>
<time>2010-03-01T17:16:38.29</time>
<name>841</name>
</trkpt>
<trkpt lat="48.943965" lon="8.662032">
<ele>331.0</ele>
<speed>4.1</speed>
<course>299.6</course>
<desc>Speed 4.1 km/h Distance 0.60 km</desc>
<time>2010-03-01T17:16:39.29</time>
<name>842</name>
</trkpt>
<trkpt lat="48.943970" lon="8.662018">
<ele>331.0</ele>
<speed>3.5</speed>
<course>299.7</course>
<desc>Speed 3.5 km/h Distance 0.60 km</desc>
<time>2010-03-01T17:16:40.29</time>
<name>843</name>
</trkpt>
<trkpt lat="48.943975" lon="8.662005">
<ele>330.5</ele>
<speed>3.7</speed>
<course>307.6</course>
<desc>Speed 3.7 km/h Distance 0.61 km</desc>
<time>2010-03-01T17:16:41.29</time>
<name>844</name>
</trkpt>
<trkpt lat="48.943980" lon="8.661995">
<ele>330.0</ele>
<speed>2.9</speed>
<course>299.7</course>
<desc>Speed 2.9 km/h Distance 0.61 km</desc>
<time>2010-03-01T17:16:42.29</time>
<name>845</name>
</trkpt>
<trkpt lat="48.943985" lon="8.661982">
<ele>330.0</ele>
<speed>3.8</speed>
<course>315.5</course>
<desc>Speed 3.8 km/h Distance 0.61 km</desc>
<time>2010-03-01T17:16:43.29</time>
<name>846</name>
</trkpt>
<trkpt lat="48.943992" lon="8.661972">
<ele>329.5</ele>
<speed>3.7</speed>
<course>320.6</course>
<desc>Speed 3.7 km/h Distance 0.61 km</desc>
<time>2010-03-01T17:16:44.29</time>
<name>847</name>
</trkpt>
<trkpt lat="48.943998" lon="8.661963">
<ele>329.5</ele>
<speed>3.6</speed>
<course>303.3</course>
<desc>Speed 3.6 km/h Distance 0.61 km</desc>
<time>2010-03-01T17:16:45.29</time>
<name>848</name>
</trkpt>
<trkpt lat="48.944003" lon="8.661952">
<ele>329.0</ele>
<speed>3.2</speed>
<course>326.8</course>
<desc>Speed 3.2 km/h Distance 0.61 km</desc>
<time>2010-03-01T17:16:46.29</time>
<name>849</name>
</trkpt>
<trkpt lat="48.944013" lon="8.661942">
<ele>329.0</ele>
<speed>4.3</speed>
<course>326.8</course>
<desc>Speed 4.3 km/h Distance 0.61 km</desc>
<time>2010-03-01T17:16:47.29</time>
<name>850</name>
</trkpt>
<trkpt lat="48.944023" lon="8.661932">
<ele>329.5</ele>
<speed>4.1</speed>
<course>313.5</course>
<desc>Speed 4.1 km/h Distance 0.61 km</desc>
<time>2010-03-01T17:16:48.29</time>
<name>851</name>
</trkpt>
<trkpt lat="48.944032" lon="8.661918">
<ele>329.5</ele>
<speed>3.9</speed>
<course>277.9</course>
<desc>Speed 3.9 km/h Distance 0.61 km</desc>
<time>2010-03-01T17:16:49.29</time>
<name>852</name>
</trkpt>
<trkpt lat="48.944033" lon="8.661900">
<ele>330.0</ele>
<speed>3.8</speed>
<course>288.7</course>
<desc>Speed 3.8 km/h Distance 0.62 km</desc>
<time>2010-03-01T17:16:50.29</time>
<name>853</name>
</trkpt>
<trkpt lat="48.944037" lon="8.661885">
<ele>330.5</ele>
<speed>3.3</speed>
<course>332.1</course>
<desc>Speed 3.3 km/h Distance 0.62 km</desc>
<time>2010-03-01T17:16:51.29</time>
<name>854</name>
</trkpt>
<trkpt lat="48.944045" lon="8.661878">
<ele>330.0</ele>
<speed>3.2</speed>
<course>333.6</course>
<desc>Speed 3.2 km/h Distance 0.62 km</desc>
<time>2010-03-01T17:16:52.29</time>
<name>855</name>
</trkpt>
<trkpt lat="48.944052" lon="8.661873">
<ele>330.0</ele>
<speed>2.7</speed>
<course>333.6</course>
<desc>Speed 2.7 km/h Distance 0.62 km</desc>
<time>2010-03-01T17:16:53.29</time>
<name>856</name>
</trkpt>
<trkpt lat="48.944058" lon="8.661868">
<ele>330.5</ele>
<speed>2.1</speed>
<course>326.3</course>
<desc>Speed 2.1 km/h Distance 0.62 km</desc>
<time>2010-03-01T17:16:54.29</time>
<name>857</name>
</trkpt>
<trkpt lat="48.944062" lon="8.661865">
<ele>330.0</ele>
<speed>1.7</speed>
<course>322.8</course>
<desc>Speed 1.7 km/h Distance 0.62 km</desc>
<time>2010-03-01T17:16:55.29</time>
<name>858</name>
</trkpt>
<trkpt lat="48.944063" lon="8.661863">
<ele>329.5</ele>
<speed>0.9</speed>
<course>270.0</course>
<desc>Speed 0.9 km/h Distance 0.62 km</desc>
<time>2010-03-01T17:16:56.28</time>
<name>859</name>
</trkpt>
<trkpt lat="48.944063" lon="8.661857">
<ele>330.0</ele>
<speed>0.9</speed>
<course>341.2</course>
<desc>Speed 0.9 km/h Distance 0.62 km</desc>
<time>2010-03-01T17:16:57.29</time>
<name>860</name>
</trkpt>
<trkpt lat="48.944067" lon="8.661855">
<ele>330.0</ele>
<speed>1.2</speed>
<course>270.0</course>
<desc>Speed 1.2 km/h Distance 0.62 km</desc>
<time>2010-03-01T17:16:58.29</time>
<name>861</name>
</trkpt>
<trkpt lat="48.944067" lon="8.661853">
<ele>329.5</ele>
<speed>0.5</speed>
<course>12.6</course>
<desc>Speed 0.5 km/h Distance 0.62 km</desc>
<time>2010-03-01T17:16:59.28</time>
<name>862</name>
</trkpt>
<trkpt lat="48.944068" lon="8.661853">
<ele>330.0</ele>
<speed>0.6</speed>
<course>270.0</course>
<desc>Speed 0.6 km/h Distance 0.62 km</desc>
<time>2010-03-01T17:17:00.28</time>
<name>863</name>
</trkpt>
<trkpt lat="48.944068" lon="8.661852">
<ele>329.5</ele>
<speed>0.3</speed>
<course>270.0</course>
<desc>Speed 0.3 km/h Distance 0.62 km</desc>
<time>2010-03-01T17:17:01.28</time>
<name>864</name>
</trkpt>
<trkpt lat="48.944068" lon="8.661848">
<ele>329.5</ele>
<speed>0.8</speed>
<course>301.4</course>
<desc>Speed 0.8 km/h Distance 0.62 km</desc>
<time>2010-03-01T17:17:02.28</time>
<name>865</name>
</trkpt>
<trkpt lat="48.944072" lon="8.661840">
<ele>329.5</ele>
<speed>2.4</speed>
<course>312.2</course>
<desc>Speed 2.4 km/h Distance 0.62 km</desc>
<time>2010-03-01T17:17:03.28</time>
<name>866</name>
</trkpt>
<trkpt lat="48.944077" lon="8.661832">
<ele>328.5</ele>
<speed>2.6</speed>
<course>311.1</course>
<desc>Speed 2.6 km/h Distance 0.62 km</desc>
<time>2010-03-01T17:17:04.28</time>
<name>867</name>
</trkpt>
<trkpt lat="48.944083" lon="8.661820">
<ele>328.5</ele>
<speed>3.3</speed>
<course>311.1</course>
<desc>Speed 3.3 km/h Distance 0.62 km</desc>
<time>2010-03-01T17:17:05.28</time>
<name>868</name>
</trkpt>
<trkpt lat="48.944090" lon="8.661808">
<ele>328.5</ele>
<speed>3.7</speed>
<course>304.1</course>
<desc>Speed 3.7 km/h Distance 0.63 km</desc>
<time>2010-03-01T17:17:06.28</time>
<name>869</name>
</trkpt>
<trkpt lat="48.944097" lon="8.661793">
<ele>328.5</ele>
<speed>3.9</speed>
<course>342.4</course>
<desc>Speed 3.9 km/h Distance 0.63 km</desc>
<time>2010-03-01T17:17:07.28</time>
<name>870</name>
</trkpt>
<trkpt lat="48.944107" lon="8.661788">
<ele>328.0</ele>
<speed>4.2</speed>
<course>321.9</course>
<desc>Speed 4.2 km/h Distance 0.63 km</desc>
<time>2010-03-01T17:17:08.28</time>
<name>871</name>
</trkpt>
<trkpt lat="48.944115" lon="8.661778">
<ele>328.0</ele>
<speed>3.7</speed>
<course>307.3</course>
<desc>Speed 3.7 km/h Distance 0.63 km</desc>
<time>2010-03-01T17:17:09.28</time>
<name>872</name>
</trkpt>
<trkpt lat="48.944122" lon="8.661765">
<ele>328.0</ele>
<speed>4.1</speed>
<course>317.4</course>
<desc>Speed 4.1 km/h Distance 0.63 km</desc>
<time>2010-03-01T17:17:10.29</time>
<name>873</name>
</trkpt>
<trkpt lat="48.944130" lon="8.661753">
<ele>328.0</ele>
<speed>3.8</speed>
<course>313.4</course>
<desc>Speed 3.8 km/h Distance 0.63 km</desc>
<time>2010-03-01T17:17:11.28</time>
<name>874</name>
</trkpt>
<trkpt lat="48.944138" lon="8.661740">
<ele>328.0</ele>
<speed>3.9</speed>
<course>304.1</course>
<desc>Speed 3.9 km/h Distance 0.63 km</desc>
<time>2010-03-01T17:17:12.28</time>
<name>875</name>
</trkpt>
<trkpt lat="48.944145" lon="8.661725">
<ele>328.0</ele>
<speed>3.9</speed>
<course>307.3</course>
<desc>Speed 3.9 km/h Distance 0.63 km</desc>
<time>2010-03-01T17:17:13.28</time>
<name>876</name>
</trkpt>
<trkpt lat="48.944152" lon="8.661712">
<ele>328.5</ele>
<speed>3.7</speed>
<course>317.4</course>
<desc>Speed 3.7 km/h Distance 0.64 km</desc>
<time>2010-03-01T17:17:14.28</time>
<name>877</name>
</trkpt>
<trkpt lat="48.944160" lon="8.661700">
<ele>329.0</ele>
<speed>3.8</speed>
<course>310.3</course>
<desc>Speed 3.8 km/h Distance 0.64 km</desc>
<time>2010-03-01T17:17:15.28</time>
<name>878</name>
</trkpt>
<trkpt lat="48.944168" lon="8.661685">
<ele>329.0</ele>
<speed>4.1</speed>
<course>307.3</course>
<desc>Speed 4.1 km/h Distance 0.64 km</desc>
<time>2010-03-01T17:17:16.28</time>
<name>879</name>
</trkpt>
<trkpt lat="48.944177" lon="8.661668">
<ele>330.0</ele>
<speed>3.9</speed>
<course>299.7</course>
<desc>Speed 3.9 km/h Distance 0.64 km</desc>
<time>2010-03-01T17:17:17.28</time>
<name>880</name>
</trkpt>
<trkpt lat="48.944182" lon="8.661655">
<ele>330.5</ele>
<speed>3.5</speed>
<course>304.1</course>
<desc>Speed 3.5 km/h Distance 0.64 km</desc>
<time>2010-03-01T17:17:18.28</time>
<name>881</name>
</trkpt>
<trkpt lat="48.944188" lon="8.661640">
<ele>331.0</ele>
<speed>4.1</speed>
<course>313.6</course>
<desc>Speed 4.1 km/h Distance 0.64 km</desc>
<time>2010-03-01T17:17:19.28</time>
<name>882</name>
</trkpt>
<trkpt lat="48.944197" lon="8.661627">
<ele>330.5</ele>
<speed>4.2</speed>
<course>310.9</course>
<desc>Speed 4.2 km/h Distance 0.64 km</desc>
<time>2010-03-01T17:17:20.27</time>
<name>883</name>
</trkpt>
<trkpt lat="48.944203" lon="8.661615">
<ele>330.5</ele>
<speed>4.0</speed>
<course>319.1</course>
<desc>Speed 4.0 km/h Distance 0.65 km</desc>
<time>2010-03-01T17:17:21.28</time>
<name>884</name>
</trkpt>
<trkpt lat="48.944208" lon="8.661608">
<ele>329.5</ele>
<speed>2.3</speed>
<course>299.7</course>
<desc>Speed 2.3 km/h Distance 0.65 km</desc>
<time>2010-03-01T17:17:22.28</time>
<name>885</name>
</trkpt>
<trkpt lat="48.944213" lon="8.661595">
<ele>329.5</ele>
<speed>3.2</speed>
<course>301.4</course>
<desc>Speed 3.2 km/h Distance 0.65 km</desc>
<time>2010-03-01T17:17:23.27</time>
<name>886</name>
</trkpt>
<trkpt lat="48.944217" lon="8.661587">
<ele>329.5</ele>
<speed>2.1</speed>
<course>312.2</course>
<desc>Speed 2.1 km/h Distance 0.65 km</desc>
<time>2010-03-01T17:17:24.27</time>
<name>887</name>
</trkpt>
<trkpt lat="48.944222" lon="8.661578">
<ele>329.5</ele>
<speed>2.7</speed>
<course>301.1</course>
<desc>Speed 2.7 km/h Distance 0.65 km</desc>
<time>2010-03-01T17:17:25.27</time>
<name>888</name>
</trkpt>
<trkpt lat="48.944225" lon="8.661570">
<ele>329.5</ele>
<speed>2.0</speed>
<course>326.3</course>
<desc>Speed 2.0 km/h Distance 0.65 km</desc>
<time>2010-03-01T17:17:26.27</time>
<name>889</name>
</trkpt>
<trkpt lat="48.944228" lon="8.661567">
<ele>330.5</ele>
<speed>1.2</speed>
<course>132.4</course>
<desc>Speed 1.2 km/h Distance 0.65 km</desc>
<time>2010-03-01T17:17:27.27</time>
<name>890</name>
</trkpt>
<trkpt lat="48.944218" lon="8.661583">
<ele>330.5</ele>
<speed>5.9</speed>
<course>220.9</course>
<desc>Speed 5.9 km/h Distance 0.65 km</desc>
<time>2010-03-01T17:17:28.27</time>
<name>891</name>
</trkpt>
<trkpt lat="48.944213" lon="8.661577">
<ele>332.5</ele>
<speed>2.7</speed>
<course>220.9</course>
<desc>Speed 2.7 km/h Distance 0.65 km</desc>
<time>2010-03-01T17:17:29.27</time>
<name>892</name>
</trkpt>
<trkpt lat="48.944213" lon="8.661577">
<ele>332.5</ele>
<speed>0.2</speed>
<course>220.9</course>
<desc>Speed 0.2 km/h Distance 0.65 km</desc>
<time>2010-03-01T17:17:30.27</time>
<name>893</name>
</trkpt>
<trkpt lat="48.944213" lon="8.661577">
<ele>332.5</ele>
<speed>0.1</speed>
<course>270.0</course>
<desc>Speed 0.1 km/h Distance 0.65 km</desc>
<time>2010-03-01T17:17:31.27</time>
<name>894</name>
</trkpt>
<trkpt lat="48.944213" lon="8.661575">
<ele>332.5</ele>
<speed>0.2</speed>
<course>308.1</course>
<desc>Speed 0.2 km/h Distance 0.65 km</desc>
<time>2010-03-01T17:17:32.26</time>
<name>895</name>
</trkpt>
<trkpt lat="48.944215" lon="8.661572">
<ele>332.5</ele>
<speed>1.2</speed>
<course>308.1</course>
<desc>Speed 1.2 km/h Distance 0.65 km</desc>
<time>2010-03-01T17:17:33.27</time>
<name>896</name>
</trkpt>
<trkpt lat="48.944215" lon="8.661572">
<ele>332.5</ele>
<speed>0.2</speed>
<course>226.5</course>
<desc>Speed 0.2 km/h Distance 0.65 km</desc>
<time>2010-03-01T17:17:34.27</time>
<name>897</name>
</trkpt>
<trkpt lat="48.944207" lon="8.661558">
<ele>334.5</ele>
<speed>1.0</speed>
<course>226.5</course>
<desc>Speed 1.0 km/h Distance 0.65 km</desc>
<time>2010-03-01T17:17:35.27</time>
<name>898</name>
</trkpt>
<trkpt lat="48.944207" lon="8.661558">
<ele>334.5</ele>
<speed>0.3</speed>
<course>135.5</course>
<desc>Speed 0.3 km/h Distance 0.65 km</desc>
<time>2010-03-01T17:17:36.27</time>
<name>899</name>
</trkpt>
<trkpt lat="48.944203" lon="8.661563">
<ele>335.0</ele>
<speed>2.2</speed>
<course>180.0</course>
<desc>Speed 2.2 km/h Distance 0.65 km</desc>
<time>2010-03-01T17:17:37.27</time>
<name>900</name>
</trkpt>
<trkpt lat="48.944202" lon="8.661563">
<ele>335.0</ele>
<speed>0.1</speed>
<course>0.0</course>
<desc>Speed 0.1 km/h Distance 0.65 km</desc>
<time>2010-03-01T17:17:38.27</time>
<name>901</name>
</trkpt>
<trkpt lat="48.944203" lon="8.661563">
<ele>335.0</ele>
<speed>0.5</speed>
<course>232.4</course>
<desc>Speed 0.5 km/h Distance 0.65 km</desc>
<time>2010-03-01T17:17:39.27</time>
<name>902</name>
</trkpt>
<trkpt lat="48.944200" lon="8.661557">
<ele>335.5</ele>
<speed>0.4</speed>
<course>0.0</course>
<desc>Speed 0.4 km/h Distance 0.66 km</desc>
<time>2010-03-01T17:17:40.27</time>
<name>903</name>
</trkpt>
<trkpt lat="48.944202" lon="8.661557">
<ele>335.5</ele>
<speed>0.1</speed>
<course>270.0</course>
<desc>Speed 0.1 km/h Distance 0.66 km</desc>
<time>2010-03-01T17:17:41.27</time>
<name>904</name>
</trkpt>
<trkpt lat="48.944202" lon="8.661555">
<ele>336.0</ele>
<speed>0.3</speed>
<course>310.6</course>
<desc>Speed 0.3 km/h Distance 0.66 km</desc>
<time>2010-03-01T17:17:42.27</time>
<name>905</name>
</trkpt>
<trkpt lat="48.944203" lon="8.661552">
<ele>336.0</ele>
<speed>1.0</speed>
<course>319.1</course>
<desc>Speed 1.0 km/h Distance 0.66 km</desc>
<time>2010-03-01T17:17:43.27</time>
<name>906</name>
</trkpt>
<trkpt lat="48.944208" lon="8.661545">
<ele>336.5</ele>
<speed>2.1</speed>
<course>336.2</course>
<desc>Speed 2.1 km/h Distance 0.66 km</desc>
<time>2010-03-01T17:17:44.27</time>
<name>907</name>
</trkpt>
<trkpt lat="48.944218" lon="8.661538">
<ele>336.0</ele>
<speed>3.7</speed>
<course>301.4</course>
<desc>Speed 3.7 km/h Distance 0.66 km</desc>
<time>2010-03-01T17:17:45.27</time>
<name>908</name>
</trkpt>
<trkpt lat="48.944222" lon="8.661530">
<ele>336.0</ele>
<speed>2.1</speed>
<course>336.2</course>
<desc>Speed 2.1 km/h Distance 0.66 km</desc>
<time>2010-03-01T17:17:46.27</time>
<name>909</name>
</trkpt>
<trkpt lat="48.944232" lon="8.661523">
<ele>336.0</ele>
<speed>3.5</speed>
<course>315.5</course>
<desc>Speed 3.5 km/h Distance 0.66 km</desc>
<time>2010-03-01T17:17:47.26</time>
<name>910</name>
</trkpt>
<trkpt lat="48.944238" lon="8.661513">
<ele>336.0</ele>
<speed>3.1</speed>
<course>309.7</course>
<desc>Speed 3.1 km/h Distance 0.66 km</desc>
<time>2010-03-01T17:17:48.26</time>
<name>911</name>
</trkpt>
<trkpt lat="48.944248" lon="8.661495">
<ele>337.5</ele>
<speed>4.3</speed>
<course>331.4</course>
<desc>Speed 4.3 km/h Distance 0.66 km</desc>
<time>2010-03-01T17:17:49.26</time>
<name>912</name>
</trkpt>
<trkpt lat="48.944258" lon="8.661487">
<ele>337.0</ele>
<speed>3.1</speed>
<course>326.8</course>
<desc>Speed 3.1 km/h Distance 0.66 km</desc>
<time>2010-03-01T17:17:50.26</time>
<name>913</name>
</trkpt>
<trkpt lat="48.944268" lon="8.661477">
<ele>336.5</ele>
<speed>3.3</speed>
<course>321.6</course>
<desc>Speed 3.3 km/h Distance 0.67 km</desc>
<time>2010-03-01T17:17:51.26</time>
<name>914</name>
</trkpt>
<trkpt lat="48.944277" lon="8.661467">
<ele>336.0</ele>
<speed>2.9</speed>
<course>321.9</course>
<desc>Speed 2.9 km/h Distance 0.67 km</desc>
<time>2010-03-01T17:17:52.26</time>
<name>915</name>
</trkpt>
<trkpt lat="48.944285" lon="8.661457">
<ele>336.0</ele>
<speed>3.0</speed>
<course>299.7</course>
<desc>Speed 3.0 km/h Distance 0.67 km</desc>
<time>2010-03-01T17:17:53.29</time>
<name>916</name>
</trkpt>
<trkpt lat="48.944290" lon="8.661443">
<ele>335.5</ele>
<speed>3.0</speed>
<course>313.6</course>
<desc>Speed 3.0 km/h Distance 0.67 km</desc>
<time>2010-03-01T17:17:54.26</time>
<name>917</name>
</trkpt>
<trkpt lat="48.944298" lon="8.661430">
<ele>335.5</ele>
<speed>3.2</speed>
<course>317.4</course>
<desc>Speed 3.2 km/h Distance 0.67 km</desc>
<time>2010-03-01T17:17:55.26</time>
<name>918</name>
</trkpt>
<trkpt lat="48.944307" lon="8.661418">
<ele>335.0</ele>
<speed>3.5</speed>
<course>304.1</course>
<desc>Speed 3.5 km/h Distance 0.67 km</desc>
<time>2010-03-01T17:17:56.26</time>
<name>919</name>
</trkpt>
<trkpt lat="48.944313" lon="8.661403">
<ele>334.5</ele>
<speed>3.4</speed>
<course>307.4</course>
<desc>Speed 3.4 km/h Distance 0.67 km</desc>
<time>2010-03-01T17:17:57.26</time>
<name>920</name>
</trkpt>
<trkpt lat="48.944322" lon="8.661387">
<ele>335.0</ele>
<speed>3.9</speed>
<course>304.0</course>
<desc>Speed 3.9 km/h Distance 0.67 km</desc>
<time>2010-03-01T17:17:58.26</time>
<name>921</name>
</trkpt>
<trkpt lat="48.944328" lon="8.661372">
<ele>335.0</ele>
<speed>3.5</speed>
<course>334.6</course>
<desc>Speed 3.5 km/h Distance 0.68 km</desc>
<time>2010-03-01T17:17:59.26</time>
<name>922</name>
</trkpt>
<trkpt lat="48.944340" lon="8.661363">
<ele>335.0</ele>
<speed>3.2</speed>
<course>310.9</course>
<desc>Speed 3.2 km/h Distance 0.68 km</desc>
<time>2010-03-01T17:18:00.26</time>
<name>923</name>
</trkpt>
<trkpt lat="48.944347" lon="8.661352">
<ele>335.0</ele>
<speed>3.2</speed>
<course>326.8</course>
<desc>Speed 3.2 km/h Distance 0.68 km</desc>
<time>2010-03-01T17:18:01.26</time>
<name>924</name>
</trkpt>
<trkpt lat="48.944357" lon="8.661342">
<ele>334.5</ele>
<speed>3.7</speed>
<course>312.9</course>
<desc>Speed 3.7 km/h Distance 0.68 km</desc>
<time>2010-03-01T17:18:02.26</time>
<name>925</name>
</trkpt>
<trkpt lat="48.944362" lon="8.661333">
<ele>334.0</ele>
<speed>2.6</speed>
<course>336.2</course>
<desc>Speed 2.6 km/h Distance 0.68 km</desc>
<time>2010-03-01T17:18:03.26</time>
<name>926</name>
</trkpt>
<trkpt lat="48.944372" lon="8.661327">
<ele>334.0</ele>
<speed>3.7</speed>
<course>331.4</course>
<desc>Speed 3.7 km/h Distance 0.68 km</desc>
<time>2010-03-01T17:18:04.26</time>
<name>927</name>
</trkpt>
<trkpt lat="48.944382" lon="8.661318">
<ele>334.0</ele>
<speed>3.1</speed>
<course>321.9</course>
<desc>Speed 3.1 km/h Distance 0.68 km</desc>
<time>2010-03-01T17:18:05.26</time>
<name>928</name>
</trkpt>
<trkpt lat="48.944390" lon="8.661308">
<ele>334.0</ele>
<speed>3.2</speed>
<course>326.8</course>
<desc>Speed 3.2 km/h Distance 0.68 km</desc>
<time>2010-03-01T17:18:06.25</time>
<name>929</name>
</trkpt>
<trkpt lat="48.944400" lon="8.661298">
<ele>333.5</ele>
<speed>3.7</speed>
<course>315.5</course>
<desc>Speed 3.7 km/h Distance 0.69 km</desc>
<time>2010-03-01T17:18:07.26</time>
<name>930</name>
</trkpt>
<trkpt lat="48.944407" lon="8.661288">
<ele>333.5</ele>
<speed>3.6</speed>
<course>318.7</course>
<desc>Speed 3.6 km/h Distance 0.69 km</desc>
<time>2010-03-01T17:18:08.25</time>
<name>931</name>
</trkpt>
<trkpt lat="48.944417" lon="8.661275">
<ele>333.5</ele>
<speed>3.1</speed>
<course>302.4</course>
<desc>Speed 3.1 km/h Distance 0.69 km</desc>
<time>2010-03-01T17:18:09.26</time>
<name>932</name>
</trkpt>
<trkpt lat="48.944425" lon="8.661255">
<ele>335.0</ele>
<speed>3.7</speed>
<course>314.1</course>
<desc>Speed 3.7 km/h Distance 0.69 km</desc>
<time>2010-03-01T17:18:10.26</time>
<name>933</name>
</trkpt>
<trkpt lat="48.944437" lon="8.661237">
<ele>335.5</ele>
<speed>4.0</speed>
<course>313.4</course>
<desc>Speed 4.0 km/h Distance 0.69 km</desc>
<time>2010-03-01T17:18:11.25</time>
<name>934</name>
</trkpt>
<trkpt lat="48.944445" lon="8.661223">
<ele>335.5</ele>
<speed>3.8</speed>
<course>326.8</course>
<desc>Speed 3.8 km/h Distance 0.69 km</desc>
<time>2010-03-01T17:18:12.25</time>
<name>935</name>
</trkpt>
<trkpt lat="48.944455" lon="8.661213">
<ele>335.5</ele>
<speed>3.6</speed>
<course>304.1</course>
<desc>Speed 3.6 km/h Distance 0.69 km</desc>
<time>2010-03-01T17:18:13.26</time>
<name>936</name>
</trkpt>
<trkpt lat="48.944462" lon="8.661198">
<ele>336.0</ele>
<speed>2.8</speed>
<course>285.4</course>
<desc>Speed 2.8 km/h Distance 0.70 km</desc>
<time>2010-03-01T17:18:14.25</time>
<name>937</name>
</trkpt>
<trkpt lat="48.944465" lon="8.661180">
<ele>336.5</ele>
<speed>3.0</speed>
<course>332.1</course>
<desc>Speed 3.0 km/h Distance 0.70 km</desc>
<time>2010-03-01T17:18:15.25</time>
<name>938</name>
</trkpt>
<trkpt lat="48.944473" lon="8.661173">
<ele>336.0</ele>
<speed>3.3</speed>
<course>339.4</course>
<desc>Speed 3.3 km/h Distance 0.70 km</desc>
<time>2010-03-01T17:18:16.25</time>
<name>939</name>
</trkpt>
<trkpt lat="48.944485" lon="8.661167">
<ele>335.0</ele>
<speed>3.6</speed>
<course>346.5</course>
<desc>Speed 3.6 km/h Distance 0.70 km</desc>
<time>2010-03-01T17:18:17.25</time>
<name>940</name>
</trkpt>
<trkpt lat="48.944498" lon="8.661162">
<ele>334.5</ele>
<speed>3.6</speed>
<course>336.2</course>
<desc>Speed 3.6 km/h Distance 0.70 km</desc>
<time>2010-03-01T17:18:18.25</time>
<name>941</name>
</trkpt>
<trkpt lat="48.944508" lon="8.661155">
<ele>334.0</ele>
<speed>3.4</speed>
<course>341.9</course>
<desc>Speed 3.4 km/h Distance 0.70 km</desc>
<time>2010-03-01T17:18:19.25</time>
<name>942</name>
</trkpt>
<trkpt lat="48.944522" lon="8.661148">
<ele>333.0</ele>
<speed>3.5</speed>
<course>336.2</course>
<desc>Speed 3.5 km/h Distance 0.70 km</desc>
<time>2010-03-01T17:18:20.25</time>
<name>943</name>
</trkpt>
<trkpt lat="48.944532" lon="8.661142">
<ele>332.5</ele>
<speed>3.1</speed>
<course>332.1</course>
<desc>Speed 3.1 km/h Distance 0.70 km</desc>
<time>2010-03-01T17:18:21.25</time>
<name>944</name>
</trkpt>
<trkpt lat="48.944540" lon="8.661135">
<ele>331.5</ele>
<speed>2.7</speed>
<course>317.4</course>
<desc>Speed 2.7 km/h Distance 0.71 km</desc>
<time>2010-03-01T17:18:22.25</time>
<name>945</name>
</trkpt>
<trkpt lat="48.944548" lon="8.661123">
<ele>331.0</ele>
<speed>2.7</speed>
<course>299.7</course>
<desc>Speed 2.7 km/h Distance 0.71 km</desc>
<time>2010-03-01T17:18:23.25</time>
<name>946</name>
</trkpt>
<trkpt lat="48.944553" lon="8.661110">
<ele>331.5</ele>
<speed>3.2</speed>
<course>320.6</course>
<desc>Speed 3.2 km/h Distance 0.71 km</desc>
<time>2010-03-01T17:18:24.25</time>
<name>947</name>
</trkpt>
<trkpt lat="48.944560" lon="8.661102">
<ele>332.0</ele>
<speed>2.3</speed>
<course>290.9</course>
<desc>Speed 2.3 km/h Distance 0.71 km</desc>
<time>2010-03-01T17:18:25.25</time>
<name>948</name>
</trkpt>
<trkpt lat="48.944562" lon="8.661095">
<ele>332.5</ele>
<speed>1.4</speed>
<course>18.8</course>
<desc>Speed 1.4 km/h Distance 0.71 km</desc>
<time>2010-03-01T17:18:26.25</time>
<name>949</name>
</trkpt>
<trkpt lat="48.944565" lon="8.661097">
<ele>332.5</ele>
<speed>1.3</speed>
<course>270.0</course>
<desc>Speed 1.3 km/h Distance 0.71 km</desc>
<time>2010-03-01T17:18:27.25</time>
<name>950</name>
</trkpt>
<trkpt lat="48.944565" lon="8.661095">
<ele>333.0</ele>
<speed>0.5</speed>
<course>90.0</course>
<desc>Speed 0.5 km/h Distance 0.71 km</desc>
<time>2010-03-01T17:18:28.25</time>
<name>951</name>
</trkpt>
<trkpt lat="48.944565" lon="8.661097">
<ele>333.0</ele>
<speed>0.7</speed>
<course>270.0</course>
<desc>Speed 0.7 km/h Distance 0.71 km</desc>
<time>2010-03-01T17:18:29.25</time>
<name>952</name>
</trkpt>
<trkpt lat="48.944565" lon="8.661095">
<ele>333.0</ele>
<speed>0.3</speed>
<course>270.0</course>
<desc>Speed 0.3 km/h Distance 0.71 km</desc>
<time>2010-03-01T17:18:30.25</time>
<name>953</name>
</trkpt>
<trkpt lat="48.944565" lon="8.661095">
<ele>333.0</ele>
<speed>0.4</speed>
<course>270.0</course>
<desc>Speed 0.4 km/h Distance 0.71 km</desc>
<time>2010-03-01T17:18:31.25</time>
<name>954</name>
</trkpt>
<trkpt lat="48.944565" lon="8.661088">
<ele>334.5</ele>
<speed>1.0</speed>
<course>253.1</course>
<desc>Speed 1.0 km/h Distance 0.71 km</desc>
<time>2010-03-01T17:18:32.25</time>
<name>955</name>
</trkpt>
<trkpt lat="48.944563" lon="8.661080">
<ele>335.5</ele>
<speed>0.3</speed>
<course>270.0</course>
<desc>Speed 0.3 km/h Distance 0.71 km</desc>
<time>2010-03-01T17:18:33.24</time>
<name>956</name>
</trkpt>
<trkpt lat="48.944563" lon="8.661078">
<ele>335.5</ele>
<speed>0.2</speed>
<course>270.0</course>
<desc>Speed 0.2 km/h Distance 0.71 km</desc>
<time>2010-03-01T17:18:34.24</time>
<name>957</name>
</trkpt>
<trkpt lat="48.944563" lon="8.661078">
<ele>335.5</ele>
<speed>0.4</speed>
<course>270.0</course>
<desc>Speed 0.4 km/h Distance 0.71 km</desc>
<time>2010-03-01T17:18:35.25</time>
<name>958</name>
</trkpt>
<trkpt lat="48.944563" lon="8.661078">
<ele>335.5</ele>
<speed>0.3</speed>
<course>322.8</course>
<desc>Speed 0.3 km/h Distance 0.71 km</desc>
<time>2010-03-01T17:18:36.24</time>
<name>959</name>
</trkpt>
<trkpt lat="48.944565" lon="8.661077">
<ele>335.5</ele>
<speed>0.2</speed>
<course>322.8</course>
<desc>Speed 0.2 km/h Distance 0.71 km</desc>
<time>2010-03-01T17:18:37.24</time>
<name>960</name>
</trkpt>
<trkpt lat="48.944565" lon="8.661077">
<ele>335.5</ele>
<speed>0.3</speed>
<course>322.8</course>
<desc>Speed 0.3 km/h Distance 0.71 km</desc>
<time>2010-03-01T17:18:38.24</time>
<name>961</name>
</trkpt>
<trkpt lat="48.944565" lon="8.661077">
<ele>335.5</ele>
<speed>0.1</speed>
<course>322.8</course>
<desc>Speed 0.1 km/h Distance 0.71 km</desc>
<time>2010-03-01T17:18:39.24</time>
<name>962</name>
</trkpt>
<trkpt lat="48.944565" lon="8.661077">
<ele>335.5</ele>
<speed>0.2</speed>
<course>290.2</course>
<desc>Speed 0.2 km/h Distance 0.71 km</desc>
<time>2010-03-01T17:18:40.26</time>
<name>963</name>
</trkpt>
<trkpt lat="48.944567" lon="8.661070">
<ele>335.5</ele>
<speed>1.5</speed>
<course>325.9</course>
<desc>Speed 1.5 km/h Distance 0.71 km</desc>
<time>2010-03-01T17:18:41.24</time>
<name>964</name>
</trkpt>
<trkpt lat="48.944572" lon="8.661065">
<ele>336.0</ele>
<speed>2.2</speed>
<course>320.6</course>
<desc>Speed 2.2 km/h Distance 0.71 km</desc>
<time>2010-03-01T17:18:42.24</time>
<name>965</name>
</trkpt>
<trkpt lat="48.944578" lon="8.661057">
<ele>336.0</ele>
<speed>2.7</speed>
<course>320.6</course>
<desc>Speed 2.7 km/h Distance 0.71 km</desc>
<time>2010-03-01T17:18:43.24</time>
<name>966</name>
</trkpt>
<trkpt lat="48.944585" lon="8.661048">
<ele>336.0</ele>
<speed>2.6</speed>
<course>310.9</course>
<desc>Speed 2.6 km/h Distance 0.72 km</desc>
<time>2010-03-01T17:18:44.24</time>
<name>967</name>
</trkpt>
<trkpt lat="48.944592" lon="8.661037">
<ele>336.0</ele>
<speed>3.1</speed>
<course>311.1</course>
<desc>Speed 3.1 km/h Distance 0.72 km</desc>
<time>2010-03-01T17:18:45.24</time>
<name>968</name>
</trkpt>
<trkpt lat="48.944598" lon="8.661025">
<ele>336.0</ele>
<speed>3.3</speed>
<course>321.9</course>
<desc>Speed 3.3 km/h Distance 0.72 km</desc>
<time>2010-03-01T17:18:46.24</time>
<name>969</name>
</trkpt>
<trkpt lat="48.944607" lon="8.661015">
<ele>335.5</ele>
<speed>3.2</speed>
<course>310.9</course>
<desc>Speed 3.2 km/h Distance 0.72 km</desc>
<time>2010-03-01T17:18:47.24</time>
<name>970</name>
</trkpt>
<trkpt lat="48.944613" lon="8.661003">
<ele>335.5</ele>
<speed>3.4</speed>
<course>326.8</course>
<desc>Speed 3.4 km/h Distance 0.72 km</desc>
<time>2010-03-01T17:18:48.24</time>
<name>971</name>
</trkpt>
<trkpt lat="48.944622" lon="8.660995">
<ele>335.0</ele>
<speed>3.3</speed>
<course>310.9</course>
<desc>Speed 3.3 km/h Distance 0.72 km</desc>
<time>2010-03-01T17:18:49.24</time>
<name>972</name>
</trkpt>
<trkpt lat="48.944628" lon="8.660983">
<ele>335.0</ele>
<speed>3.3</speed>
<course>331.4</course>
<desc>Speed 3.3 km/h Distance 0.72 km</desc>
<time>2010-03-01T17:18:50.24</time>
<name>973</name>
</trkpt>
<trkpt lat="48.944638" lon="8.660975">
<ele>334.5</ele>
<speed>3.3</speed>
<course>331.4</course>
<desc>Speed 3.3 km/h Distance 0.72 km</desc>
<time>2010-03-01T17:18:51.23</time>
<name>974</name>
</trkpt>
<trkpt lat="48.944648" lon="8.660967">
<ele>334.0</ele>
<speed>3.4</speed>
<course>317.4</course>
<desc>Speed 3.4 km/h Distance 0.72 km</desc>
<time>2010-03-01T17:18:52.24</time>
<name>975</name>
</trkpt>
<trkpt lat="48.944657" lon="8.660955">
<ele>334.0</ele>
<speed>3.6</speed>
<course>315.5</course>
<desc>Speed 3.6 km/h Distance 0.73 km</desc>
<time>2010-03-01T17:18:53.23</time>
<name>976</name>
</trkpt>
<trkpt lat="48.944663" lon="8.660945">
<ele>333.5</ele>
<speed>3.0</speed>
<course>338.5</course>
<desc>Speed 3.0 km/h Distance 0.73 km</desc>
<time>2010-03-01T17:18:54.23</time>
<name>977</name>
</trkpt>
<trkpt lat="48.944672" lon="8.660940">
<ele>332.5</ele>
<speed>2.7</speed>
<course>333.6</course>
<desc>Speed 2.7 km/h Distance 0.73 km</desc>
<time>2010-03-01T17:18:55.23</time>
<name>978</name>
</trkpt>
<trkpt lat="48.944678" lon="8.660935">
<ele>331.5</ele>
<speed>2.8</speed>
<course>310.2</course>
<desc>Speed 2.8 km/h Distance 0.73 km</desc>
<time>2010-03-01T17:18:56.24</time>
<name>979</name>
</trkpt>
<trkpt lat="48.944687" lon="8.660920">
<ele>331.0</ele>
<speed>3.6</speed>
<course>310.3</course>
<desc>Speed 3.6 km/h Distance 0.73 km</desc>
<time>2010-03-01T17:18:57.23</time>
<name>980</name>
</trkpt>
<trkpt lat="48.944695" lon="8.660905">
<ele>330.5</ele>
<speed>3.5</speed>
<course>321.9</course>
<desc>Speed 3.5 km/h Distance 0.73 km</desc>
<time>2010-03-01T17:18:58.23</time>
<name>981</name>
</trkpt>
<trkpt lat="48.944703" lon="8.660895">
<ele>330.0</ele>
<speed>3.1</speed>
<course>307.3</course>
<desc>Speed 3.1 km/h Distance 0.73 km</desc>
<time>2010-03-01T17:18:59.23</time>
<name>982</name>
</trkpt>
<trkpt lat="48.944710" lon="8.660882">
<ele>330.0</ele>
<speed>3.7</speed>
<course>313.6</course>
<desc>Speed 3.7 km/h Distance 0.73 km</desc>
<time>2010-03-01T17:19:00.23</time>
<name>983</name>
</trkpt>
<trkpt lat="48.944718" lon="8.660868">
<ele>329.5</ele>
<speed>3.9</speed>
<course>334.8</course>
<desc>Speed 3.9 km/h Distance 0.74 km</desc>
<time>2010-03-01T17:19:01.23</time>
<name>984</name>
</trkpt>
<trkpt lat="48.944730" lon="8.660860">
<ele>329.0</ele>
<speed>3.6</speed>
<course>326.8</course>
<desc>Speed 3.6 km/h Distance 0.74 km</desc>
<time>2010-03-01T17:19:02.23</time>
<name>985</name>
</trkpt>
<trkpt lat="48.944740" lon="8.660850">
<ele>329.0</ele>
<speed>3.4</speed>
<course>347.4</course>
<desc>Speed 3.4 km/h Distance 0.74 km</desc>
<time>2010-03-01T17:19:03.23</time>
<name>986</name>
</trkpt>
<trkpt lat="48.944750" lon="8.660847">
<ele>328.0</ele>
<speed>3.3</speed>
<course>321.9</course>
<desc>Speed 3.3 km/h Distance 0.74 km</desc>
<time>2010-03-01T17:19:04.23</time>
<name>987</name>
</trkpt>
<trkpt lat="48.944758" lon="8.660837">
<ele>328.0</ele>
<speed>3.4</speed>
<course>321.6</course>
<desc>Speed 3.4 km/h Distance 0.74 km</desc>
<time>2010-03-01T17:19:05.23</time>
<name>988</name>
</trkpt>
<trkpt lat="48.944767" lon="8.660827">
<ele>327.5</ele>
<speed>3.2</speed>
<course>326.3</course>
<desc>Speed 3.2 km/h Distance 0.74 km</desc>
<time>2010-03-01T17:19:06.23</time>
<name>989</name>
</trkpt>
<trkpt lat="48.944773" lon="8.660820">
<ele>327.0</ele>
<speed>2.9</speed>
<course>338.5</course>
<desc>Speed 2.9 km/h Distance 0.74 km</desc>
<time>2010-03-01T17:19:07.23</time>
<name>990</name>
</trkpt>
<trkpt lat="48.944782" lon="8.660815">
<ele>326.5</ele>
<speed>3.3</speed>
<course>315.5</course>
<desc>Speed 3.3 km/h Distance 0.74 km</desc>
<time>2010-03-01T17:19:08.23</time>
<name>991</name>
</trkpt>
<trkpt lat="48.944788" lon="8.660805">
<ele>326.5</ele>
<speed>3.7</speed>
<course>321.9</course>
<desc>Speed 3.7 km/h Distance 0.74 km</desc>
<time>2010-03-01T17:19:09.23</time>
<name>992</name>
</trkpt>
<trkpt lat="48.944797" lon="8.660795">
<ele>326.5</ele>
<speed>3.5</speed>
<course>321.9</course>
<desc>Speed 3.5 km/h Distance 0.75 km</desc>
<time>2010-03-01T17:19:10.24</time>
<name>993</name>
</trkpt>
<trkpt lat="48.944805" lon="8.660785">
<ele>326.0</ele>
<speed>3.9</speed>
<course>330.8</course>
<desc>Speed 3.9 km/h Distance 0.75 km</desc>
<time>2010-03-01T17:19:11.23</time>
<name>994</name>
</trkpt>
<trkpt lat="48.944817" lon="8.660775">
<ele>325.5</ele>
<speed>4.1</speed>
<course>317.4</course>
<desc>Speed 4.1 km/h Distance 0.75 km</desc>
<time>2010-03-01T17:19:12.23</time>
<name>995</name>
</trkpt>
<trkpt lat="48.944825" lon="8.660763">
<ele>325.0</ele>
<speed>4.0</speed>
<course>322.5</course>
<desc>Speed 4.0 km/h Distance 0.75 km</desc>
<time>2010-03-01T17:19:13.23</time>
<name>996</name>
</trkpt>
<trkpt lat="48.944835" lon="8.660752">
<ele>325.5</ele>
<speed>4.1</speed>
<course>326.8</course>
<desc>Speed 4.1 km/h Distance 0.75 km</desc>
<time>2010-03-01T17:19:14.23</time>
<name>997</name>
</trkpt>
<trkpt lat="48.944845" lon="8.660742">
<ele>325.5</ele>
<speed>3.6</speed>
<course>322.5</course>
<desc>Speed 3.6 km/h Distance 0.75 km</desc>
<time>2010-03-01T17:19:15.23</time>
<name>998</name>
</trkpt>
<trkpt lat="48.944855" lon="8.660730">
<ele>325.5</ele>
<speed>4.2</speed>
<course>336.2</course>
<desc>Speed 4.2 km/h Distance 0.75 km</desc>
<time>2010-03-01T17:19:16.22</time>
<name>999</name>
</trkpt>
<trkpt lat="48.944865" lon="8.660723">
<ele>324.5</ele>
<speed>3.7</speed>
<course>341.8</course>
<desc>Speed 3.7 km/h Distance 0.75 km</desc>
<time>2010-03-01T17:19:17.23</time>
<name>1000</name>
</trkpt>
<trkpt lat="48.944875" lon="8.660718">
<ele>324.0</ele>
<speed>3.2</speed>
<course>307.3</course>
<desc>Speed 3.2 km/h Distance 0.76 km</desc>
<time>2010-03-01T17:19:18.22</time>
<name>1001</name>
</trkpt>
<trkpt lat="48.944882" lon="8.660705">
<ele>324.0</ele>
<speed>3.7</speed>
<course>347.4</course>
<desc>Speed 3.7 km/h Distance 0.76 km</desc>
<time>2010-03-01T17:19:19.22</time>
<name>1002</name>
</trkpt>
<trkpt lat="48.944892" lon="8.660702">
<ele>323.5</ele>
<speed>3.4</speed>
<course>321.9</course>
<desc>Speed 3.4 km/h Distance 0.76 km</desc>
<time>2010-03-01T17:19:20.22</time>
<name>1003</name>
</trkpt>
<trkpt lat="48.944900" lon="8.660692">
<ele>323.0</ele>
<speed>4.0</speed>
<course>315.5</course>
<desc>Speed 4.0 km/h Distance 0.76 km</desc>
<time>2010-03-01T17:19:21.22</time>
<name>1004</name>
</trkpt>
<trkpt lat="48.944907" lon="8.660682">
<ele>323.5</ele>
<speed>3.5</speed>
<course>296.9</course>
<desc>Speed 3.5 km/h Distance 0.76 km</desc>
<time>2010-03-01T17:19:22.22</time>
<name>1005</name>
</trkpt>
<trkpt lat="48.944913" lon="8.660662">
<ele>324.5</ele>
<speed>4.1</speed>
<course>332.1</course>
<desc>Speed 4.1 km/h Distance 0.76 km</desc>
<time>2010-03-01T17:19:23.22</time>
<name>1006</name>
</trkpt>
<trkpt lat="48.944922" lon="8.660655">
<ele>324.0</ele>
<speed>3.0</speed>
<course>307.2</course>
<desc>Speed 3.0 km/h Distance 0.76 km</desc>
<time>2010-03-01T17:19:24.22</time>
<name>1007</name>
</trkpt>
<trkpt lat="48.944928" lon="8.660642">
<ele>324.0</ele>
<speed>3.7</speed>
<course>341.8</course>
<desc>Speed 3.7 km/h Distance 0.76 km</desc>
<time>2010-03-01T17:19:25.22</time>
<name>1008</name>
</trkpt>
<trkpt lat="48.944938" lon="8.660637">
<ele>323.5</ele>
<speed>3.6</speed>
<course>317.4</course>
<desc>Speed 3.6 km/h Distance 0.77 km</desc>
<time>2010-03-01T17:19:26.22</time>
<name>1009</name>
</trkpt>
<trkpt lat="48.944947" lon="8.660625">
<ele>323.5</ele>
<speed>3.6</speed>
<course>326.6</course>
<desc>Speed 3.6 km/h Distance 0.77 km</desc>
<time>2010-03-01T17:19:27.22</time>
<name>1010</name>
</trkpt>
<trkpt lat="48.944957" lon="8.660615">
<ele>323.5</ele>
<speed>3.7</speed>
<course>315.5</course>
<desc>Speed 3.7 km/h Distance 0.77 km</desc>
<time>2010-03-01T17:19:28.22</time>
<name>1011</name>
</trkpt>
<trkpt lat="48.944963" lon="8.660605">
<ele>324.0</ele>
<speed>3.1</speed>
<course>317.7</course>
<desc>Speed 3.1 km/h Distance 0.77 km</desc>
<time>2010-03-01T17:19:29.22</time>
<name>1012</name>
</trkpt>
<trkpt lat="48.944972" lon="8.660593">
<ele>324.0</ele>
<speed>3.6</speed>
<course>315.5</course>
<desc>Speed 3.6 km/h Distance 0.77 km</desc>
<time>2010-03-01T17:19:30.25</time>
<name>1013</name>
</trkpt>
<trkpt lat="48.944982" lon="8.660578">
<ele>324.5</ele>
<speed>4.4</speed>
<course>296.9</course>
<desc>Speed 4.4 km/h Distance 0.77 km</desc>
<time>2010-03-01T17:19:31.22</time>
<name>1014</name>
</trkpt>
<trkpt lat="48.944987" lon="8.660563">
<ele>325.0</ele>
<speed>3.7</speed>
<course>301.3</course>
<desc>Speed 3.7 km/h Distance 0.77 km</desc>
<time>2010-03-01T17:19:32.22</time>
<name>1015</name>
</trkpt>
<trkpt lat="48.944993" lon="8.660547">
<ele>325.0</ele>
<speed>3.9</speed>
<course>292.5</course>
<desc>Speed 3.9 km/h Distance 0.77 km</desc>
<time>2010-03-01T17:19:33.22</time>
<name>1016</name>
</trkpt>
<trkpt lat="48.944998" lon="8.660528">
<ele>325.5</ele>
<speed>3.8</speed>
<course>303.9</course>
<desc>Speed 3.8 km/h Distance 0.78 km</desc>
<time>2010-03-01T17:19:34.22</time>
<name>1017</name>
</trkpt>
<trkpt lat="48.945005" lon="8.660513">
<ele>326.0</ele>
<speed>3.5</speed>
<course>332.1</course>
<desc>Speed 3.5 km/h Distance 0.78 km</desc>
<time>2010-03-01T17:19:35.22</time>
<name>1018</name>
</trkpt>
<trkpt lat="48.945013" lon="8.660507">
<ele>326.0</ele>
<speed>3.4</speed>
<course>326.5</course>
<desc>Speed 3.4 km/h Distance 0.78 km</desc>
<time>2010-03-01T17:19:36.22</time>
<name>1019</name>
</trkpt>
<trkpt lat="48.945022" lon="8.660498">
<ele>326.0</ele>
<speed>3.5</speed>
<course>315.5</course>
<desc>Speed 3.5 km/h Distance 0.78 km</desc>
<time>2010-03-01T17:19:37.24</time>
<name>1020</name>
</trkpt>
<trkpt lat="48.945028" lon="8.660488">
<ele>326.0</ele>
<speed>3.7</speed>
<course>321.6</course>
<desc>Speed 3.7 km/h Distance 0.78 km</desc>
<time>2010-03-01T17:19:38.21</time>
<name>1021</name>
</trkpt>
<trkpt lat="48.945037" lon="8.660478">
<ele>326.0</ele>
<speed>3.3</speed>
<course>326.8</course>
<desc>Speed 3.3 km/h Distance 0.78 km</desc>
<time>2010-03-01T17:19:39.21</time>
<name>1022</name>
</trkpt>
<trkpt lat="48.945045" lon="8.660470">
<ele>325.5</ele>
<speed>3.1</speed>
<course>326.8</course>
<desc>Speed 3.1 km/h Distance 0.78 km</desc>
<time>2010-03-01T17:19:40.21</time>
<name>1023</name>
</trkpt>
<trkpt lat="48.945055" lon="8.660460">
<ele>325.5</ele>
<speed>4.1</speed>
<course>317.5</course>
<desc>Speed 4.1 km/h Distance 0.78 km</desc>
<time>2010-03-01T17:19:41.24</time>
<name>1024</name>
</trkpt>
<trkpt lat="48.945063" lon="8.660448">
<ele>325.0</ele>
<speed>3.9</speed>
<course>315.5</course>
<desc>Speed 3.9 km/h Distance 0.79 km</desc>
<time>2010-03-01T17:19:42.21</time>
<name>1025</name>
</trkpt>
<trkpt lat="48.945070" lon="8.660438">
<ele>325.0</ele>
<speed>3.4</speed>
<course>304.0</course>
<desc>Speed 3.4 km/h Distance 0.79 km</desc>
<time>2010-03-01T17:19:43.21</time>
<name>1026</name>
</trkpt>
<trkpt lat="48.945077" lon="8.660423">
<ele>325.5</ele>
<speed>3.3</speed>
<course>320.6</course>
<desc>Speed 3.3 km/h Distance 0.79 km</desc>
<time>2010-03-01T17:19:44.21</time>
<name>1027</name>
</trkpt>
<trkpt lat="48.945083" lon="8.660415">
<ele>325.0</ele>
<speed>3.3</speed>
<course>299.7</course>
<desc>Speed 3.3 km/h Distance 0.79 km</desc>
<time>2010-03-01T17:19:45.21</time>
<name>1028</name>
</trkpt>
<trkpt lat="48.945088" lon="8.660402">
<ele>325.0</ele>
<speed>3.5</speed>
<course>290.7</course>
<desc>Speed 3.5 km/h Distance 0.79 km</desc>
<time>2010-03-01T17:19:46.21</time>
<name>1029</name>
</trkpt>
<trkpt lat="48.945092" lon="8.660388">
<ele>326.0</ele>
<speed>3.0</speed>
<course>313.5</course>
<desc>Speed 3.0 km/h Distance 0.79 km</desc>
<time>2010-03-01T17:19:47.21</time>
<name>1030</name>
</trkpt>
<trkpt lat="48.945100" lon="8.660375">
<ele>326.0</ele>
<speed>3.9</speed>
<course>294.5</course>
<desc>Speed 3.9 km/h Distance 0.79 km</desc>
<time>2010-03-01T17:19:48.24</time>
<name>1031</name>
</trkpt>
<trkpt lat="48.945105" lon="8.660358">
<ele>326.5</ele>
<speed>4.0</speed>
<course>304.0</course>
<desc>Speed 4.0 km/h Distance 0.79 km</desc>
<time>2010-03-01T17:19:49.21</time>
<name>1032</name>
</trkpt>
<trkpt lat="48.945112" lon="8.660343">
<ele>327.0</ele>
<speed>4.0</speed>
<course>304.0</course>
<desc>Speed 4.0 km/h Distance 0.80 km</desc>
<time>2010-03-01T17:19:50.21</time>
<name>1033</name>
</trkpt>
<trkpt lat="48.945118" lon="8.660328">
<ele>327.5</ele>
<speed>4.0</speed>
<course>299.7</course>
<desc>Speed 4.0 km/h Distance 0.80 km</desc>
<time>2010-03-01T17:19:51.21</time>
<name>1034</name>
</trkpt>
<trkpt lat="48.945123" lon="8.660315">
<ele>327.0</ele>
<speed>3.5</speed>
<course>296.9</course>
<desc>Speed 3.5 km/h Distance 0.80 km</desc>
<time>2010-03-01T17:19:52.21</time>
<name>1035</name>
</trkpt>
<trkpt lat="48.945128" lon="8.660300">
<ele>327.5</ele>
<speed>3.5</speed>
<course>304.1</course>
<desc>Speed 3.5 km/h Distance 0.80 km</desc>
<time>2010-03-01T17:19:53.21</time>
<name>1036</name>
</trkpt>
<trkpt lat="48.945135" lon="8.660285">
<ele>327.5</ele>
<speed>3.6</speed>
<course>318.6</course>
<desc>Speed 3.6 km/h Distance 0.80 km</desc>
<time>2010-03-01T17:19:54.21</time>
<name>1037</name>
</trkpt>
<trkpt lat="48.945145" lon="8.660272">
<ele>327.5</ele>
<speed>4.0</speed>
<course>315.4</course>
<desc>Speed 4.0 km/h Distance 0.80 km</desc>
<time>2010-03-01T17:19:55.21</time>
<name>1038</name>
</trkpt>
<trkpt lat="48.945155" lon="8.660257">
<ele>327.5</ele>
<speed>4.2</speed>
<course>317.4</course>
<desc>Speed 4.2 km/h Distance 0.80 km</desc>
<time>2010-03-01T17:19:56.21</time>
<name>1039</name>
</trkpt>
<trkpt lat="48.945163" lon="8.660245">
<ele>328.0</ele>
<speed>3.7</speed>
<course>326.8</course>
<desc>Speed 3.7 km/h Distance 0.80 km</desc>
<time>2010-03-01T17:19:57.21</time>
<name>1040</name>
</trkpt>
<trkpt lat="48.945173" lon="8.660235">
<ele>327.5</ele>
<speed>3.6</speed>
<course>304.0</course>
<desc>Speed 3.6 km/h Distance 0.81 km</desc>
<time>2010-03-01T17:19:58.23</time>
<name>1041</name>
</trkpt>
<trkpt lat="48.945180" lon="8.660220">
<ele>328.0</ele>
<speed>3.9</speed>
<course>317.4</course>
<desc>Speed 3.9 km/h Distance 0.81 km</desc>
<time>2010-03-01T17:19:59.21</time>
<name>1042</name>
</trkpt>
<trkpt lat="48.945188" lon="8.660208">
<ele>328.0</ele>
<speed>4.1</speed>
<course>313.5</course>
<desc>Speed 4.1 km/h Distance 0.81 km</desc>
<time>2010-03-01T17:20:00.20</time>
<name>1043</name>
</trkpt>
<trkpt lat="48.945197" lon="8.660195">
<ele>328.0</ele>
<speed>3.6</speed>
<course>317.4</course>
<desc>Speed 3.6 km/h Distance 0.81 km</desc>
<time>2010-03-01T17:20:01.20</time>
<name>1044</name>
</trkpt>
<trkpt lat="48.945205" lon="8.660183">
<ele>328.0</ele>
<speed>3.9</speed>
<course>321.9</course>
<desc>Speed 3.9 km/h Distance 0.81 km</desc>
<time>2010-03-01T17:20:02.20</time>
<name>1045</name>
</trkpt>
<trkpt lat="48.945213" lon="8.660173">
<ele>328.0</ele>
<speed>3.7</speed>
<course>4.7</course>
<desc>Speed 3.7 km/h Distance 0.81 km</desc>
<time>2010-03-01T17:20:03.20</time>
<name>1046</name>
</trkpt>
<trkpt lat="48.945225" lon="8.660173">
<ele>325.5</ele>
<speed>3.2</speed>
<course>310.1</course>
<desc>Speed 3.2 km/h Distance 0.81 km</desc>
<time>2010-03-01T17:20:04.20</time>
<name>1047</name>
</trkpt>
<trkpt lat="48.945233" lon="8.660158">
<ele>326.5</ele>
<speed>4.6</speed>
<course>317.4</course>
<desc>Speed 4.6 km/h Distance 0.81 km</desc>
<time>2010-03-01T17:20:05.20</time>
<name>1048</name>
</trkpt>
<trkpt lat="48.945242" lon="8.660147">
<ele>326.5</ele>
<speed>3.2</speed>
<course>307.6</course>
<desc>Speed 3.2 km/h Distance 0.82 km</desc>
<time>2010-03-01T17:20:06.20</time>
<name>1049</name>
</trkpt>
<trkpt lat="48.945247" lon="8.660137">
<ele>327.0</ele>
<speed>2.5</speed>
<course>342.5</course>
<desc>Speed 2.5 km/h Distance 0.82 km</desc>
<time>2010-03-01T17:20:07.20</time>
<name>1050</name>
</trkpt>
<trkpt lat="48.945253" lon="8.660133">
<ele>327.0</ele>
<speed>2.0</speed>
<course>301.4</course>
<desc>Speed 2.0 km/h Distance 0.82 km</desc>
<time>2010-03-01T17:20:08.20</time>
<name>1051</name>
</trkpt>
<trkpt lat="48.945257" lon="8.660125">
<ele>326.5</ele>
<speed>2.6</speed>
<course>334.6</course>
<desc>Speed 2.6 km/h Distance 0.82 km</desc>
<time>2010-03-01T17:20:09.20</time>
<name>1052</name>
</trkpt>
<trkpt lat="48.945262" lon="8.660122">
<ele>326.0</ele>
<speed>1.4</speed>
<course>312.9</course>
<desc>Speed 1.4 km/h Distance 0.82 km</desc>
<time>2010-03-01T17:20:10.21</time>
<name>1053</name>
</trkpt>
<trkpt lat="48.945267" lon="8.660113">
<ele>326.0</ele>
<speed>2.3</speed>
<course>319.1</course>
<desc>Speed 2.3 km/h Distance 0.82 km</desc>
<time>2010-03-01T17:20:11.20</time>
<name>1054</name>
</trkpt>
<trkpt lat="48.945272" lon="8.660107">
<ele>326.0</ele>
<speed>2.3</speed>
<course>326.8</course>
<desc>Speed 2.3 km/h Distance 0.82 km</desc>
<time>2010-03-01T17:20:12.20</time>
<name>1055</name>
</trkpt>
<trkpt lat="48.945280" lon="8.660098">
<ele>326.5</ele>
<speed>3.6</speed>
<course>315.5</course>
<desc>Speed 3.6 km/h Distance 0.82 km</desc>
<time>2010-03-01T17:20:13.20</time>
<name>1056</name>
</trkpt>
<trkpt lat="48.945287" lon="8.660088">
<ele>327.5</ele>
<speed>3.3</speed>
<course>332.1</course>
<desc>Speed 3.3 km/h Distance 0.82 km</desc>
<time>2010-03-01T17:20:14.20</time>
<name>1057</name>
</trkpt>
<trkpt lat="48.945295" lon="8.660082">
<ele>327.5</ele>
<speed>3.1</speed>
<course>326.8</course>
<desc>Speed 3.1 km/h Distance 0.82 km</desc>
<time>2010-03-01T17:20:15.23</time>
<name>1058</name>
</trkpt>
<trkpt lat="48.945302" lon="8.660075">
<ele>327.5</ele>
<speed>3.0</speed>
<course>307.0</course>
<desc>Speed 3.0 km/h Distance 0.82 km</desc>
<time>2010-03-01T17:20:16.20</time>
<name>1059</name>
</trkpt>
<trkpt lat="48.945305" lon="8.660068">
<ele>328.0</ele>
<speed>1.6</speed>
<course>307.0</course>
<desc>Speed 1.6 km/h Distance 0.83 km</desc>
<time>2010-03-01T17:20:17.20</time>
<name>1060</name>
</trkpt>
<trkpt lat="48.945305" lon="8.660068">
<ele>328.0</ele>
<speed>0.1</speed>
<course>12.6</course>
<desc>Speed 0.1 km/h Distance 0.83 km</desc>
<time>2010-03-01T17:20:18.20</time>
<name>1061</name>
</trkpt>
<trkpt lat="48.945307" lon="8.660068">
<ele>328.0</ele>
<speed>0.4</speed>
<course>12.6</course>
<desc>Speed 0.4 km/h Distance 0.83 km</desc>
<time>2010-03-01T17:20:19.20</time>
<name>1062</name>
</trkpt>
<trkpt lat="48.945312" lon="8.660068">
<ele>327.5</ele>
<speed>1.0</speed>
<course>326.3</course>
<desc>Speed 1.0 km/h Distance 0.83 km</desc>
<time>2010-03-01T17:20:20.20</time>
<name>1063</name>
</trkpt>
<trkpt lat="48.945315" lon="8.660065">
<ele>327.5</ele>
<speed>1.3</speed>
<course>20.2</course>
<desc>Speed 1.3 km/h Distance 0.83 km</desc>
<time>2010-03-01T17:20:21.20</time>
<name>1064</name>
</trkpt>
<trkpt lat="48.945327" lon="8.660072">
<ele>326.5</ele>
<speed>3.6</speed>
<course>336.2</course>
<desc>Speed 3.6 km/h Distance 0.83 km</desc>
<time>2010-03-01T17:20:22.20</time>
<name>1065</name>
</trkpt>
<trkpt lat="48.945337" lon="8.660065">
<ele>326.5</ele>
<speed>3.5</speed>
<course>307.0</course>
<desc>Speed 3.5 km/h Distance 0.83 km</desc>
<time>2010-03-01T17:20:23.19</time>
<name>1066</name>
</trkpt>
<trkpt lat="48.945343" lon="8.660052">
<ele>328.5</ele>
<speed>4.2</speed>
<course>341.8</course>
<desc>Speed 4.2 km/h Distance 0.83 km</desc>
<time>2010-03-01T17:20:24.19</time>
<name>1067</name>
</trkpt>
<trkpt lat="48.945353" lon="8.660047">
<ele>328.5</ele>
<speed>2.9</speed>
<course>332.1</course>
<desc>Speed 2.9 km/h Distance 0.83 km</desc>
<time>2010-03-01T17:20:25.19</time>
<name>1068</name>
</trkpt>
<trkpt lat="48.945362" lon="8.660040">
<ele>328.0</ele>
<speed>3.0</speed>
<course>299.7</course>
<desc>Speed 3.0 km/h Distance 0.83 km</desc>
<time>2010-03-01T17:20:26.19</time>
<name>1069</name>
</trkpt>
<trkpt lat="48.945367" lon="8.660027">
<ele>328.5</ele>
<speed>2.6</speed>
<course>286.9</course>
<desc>Speed 2.6 km/h Distance 0.83 km</desc>
<time>2010-03-01T17:20:27.19</time>
<name>1070</name>
</trkpt>
<trkpt lat="48.945370" lon="8.660010">
<ele>329.0</ele>
<speed>3.1</speed>
<course>270.0</course>
<desc>Speed 3.1 km/h Distance 0.84 km</desc>
<time>2010-03-01T17:20:28.19</time>
<name>1071</name>
</trkpt>
<trkpt lat="48.945370" lon="8.659992">
<ele>329.5</ele>
<speed>3.3</speed>
<course>293.5</course>
<desc>Speed 3.3 km/h Distance 0.84 km</desc>
<time>2010-03-01T17:20:29.19</time>
<name>1072</name>
</trkpt>
<trkpt lat="48.945373" lon="8.659980">
<ele>329.0</ele>
<speed>2.4</speed>
<course>270.0</course>
<desc>Speed 2.4 km/h Distance 0.84 km</desc>
<time>2010-03-01T17:20:30.22</time>
<name>1073</name>
</trkpt>
<trkpt lat="48.945373" lon="8.659965">
<ele>329.5</ele>
<speed>3.5</speed>
<course>270.0</course>
<desc>Speed 3.5 km/h Distance 0.84 km</desc>
<time>2010-03-01T17:20:31.19</time>
<name>1074</name>
</trkpt>
<trkpt lat="48.945373" lon="8.659952">
<ele>329.0</ele>
<speed>2.7</speed>
<course>280.7</course>
<desc>Speed 2.7 km/h Distance 0.84 km</desc>
<time>2010-03-01T17:20:32.19</time>
<name>1075</name>
</trkpt>
<trkpt lat="48.945375" lon="8.659938">
<ele>329.0</ele>
<speed>2.6</speed>
<course>282.3</course>
<desc>Speed 2.6 km/h Distance 0.84 km</desc>
<time>2010-03-01T17:20:33.19</time>
<name>1076</name>
</trkpt>
<trkpt lat="48.945377" lon="8.659927">
<ele>329.0</ele>
<speed>2.2</speed>
<course>303.3</course>
<desc>Speed 2.2 km/h Distance 0.84 km</desc>
<time>2010-03-01T17:20:34.19</time>
<name>1077</name>
</trkpt>
<trkpt lat="48.945382" lon="8.659915">
<ele>328.5</ele>
<speed>2.7</speed>
<course>321.9</course>
<desc>Speed 2.7 km/h Distance 0.84 km</desc>
<time>2010-03-01T17:20:35.19</time>
<name>1078</name>
</trkpt>
<trkpt lat="48.945390" lon="8.659905">
<ele>328.0</ele>
<speed>3.0</speed>
<course>310.2</course>
<desc>Speed 3.0 km/h Distance 0.84 km</desc>
<time>2010-03-01T17:20:36.19</time>
<name>1079</name>
</trkpt>
<trkpt lat="48.945398" lon="8.659890">
<ele>328.5</ele>
<speed>3.9</speed>
<course>310.9</course>
<desc>Speed 3.9 km/h Distance 0.84 km</desc>
<time>2010-03-01T17:20:37.19</time>
<name>1080</name>
</trkpt>
<trkpt lat="48.945405" lon="8.659878">
<ele>328.0</ele>
<speed>3.1</speed>
<course>313.4</course>
<desc>Speed 3.1 km/h Distance 0.85 km</desc>
<time>2010-03-01T17:20:38.19</time>
<name>1081</name>
</trkpt>
<trkpt lat="48.945413" lon="8.659865">
<ele>328.0</ele>
<speed>3.6</speed>
<course>326.5</course>
<desc>Speed 3.6 km/h Distance 0.85 km</desc>
<time>2010-03-01T17:20:39.22</time>
<name>1082</name>
</trkpt>
<trkpt lat="48.945422" lon="8.659857">
<ele>327.0</ele>
<speed>3.5</speed>
<course>312.4</course>
<desc>Speed 3.5 km/h Distance 0.85 km</desc>
<time>2010-03-01T17:20:40.19</time>
<name>1083</name>
</trkpt>
<trkpt lat="48.945432" lon="8.659840">
<ele>328.5</ele>
<speed>5.0</speed>
<course>326.8</course>
<desc>Speed 5.0 km/h Distance 0.85 km</desc>
<time>2010-03-01T17:20:41.19</time>
<name>1084</name>
</trkpt>
<trkpt lat="48.945440" lon="8.659832">
<ele>328.5</ele>
<speed>3.7</speed>
<course>313.6</course>
<desc>Speed 3.7 km/h Distance 0.85 km</desc>
<time>2010-03-01T17:20:42.19</time>
<name>1085</name>
</trkpt>
<trkpt lat="48.945448" lon="8.659818">
<ele>329.0</ele>
<speed>4.1</speed>
<course>310.2</course>
<desc>Speed 4.1 km/h Distance 0.85 km</desc>
<time>2010-03-01T17:20:43.19</time>
<name>1086</name>
</trkpt>
<trkpt lat="48.945457" lon="8.659803">
<ele>329.0</ele>
<speed>4.0</speed>
<course>0.0</course>
<desc>Speed 4.0 km/h Distance 0.85 km</desc>
<time>2010-03-01T17:20:44.19</time>
<name>1087</name>
</trkpt>
<trkpt lat="48.945473" lon="8.659803">
<ele>329.5</ele>
<speed>5.9</speed>
<course>322.7</course>
<desc>Speed 5.9 km/h Distance 0.86 km</desc>
<time>2010-03-01T17:20:45.19</time>
<name>1088</name>
</trkpt>
<trkpt lat="48.945483" lon="8.659792">
<ele>330.0</ele>
<speed>4.5</speed>
<course>317.4</course>
<desc>Speed 4.5 km/h Distance 0.86 km</desc>
<time>2010-03-01T17:20:46.19</time>
<name>1089</name>
</trkpt>
<trkpt lat="48.945492" lon="8.659780">
<ele>329.5</ele>
<speed>4.0</speed>
<course>317.4</course>
<desc>Speed 4.0 km/h Distance 0.86 km</desc>
<time>2010-03-01T17:20:47.19</time>
<name>1090</name>
</trkpt>
<trkpt lat="48.945500" lon="8.659768">
<ele>329.5</ele>
<speed>4.0</speed>
<course>310.2</course>
<desc>Speed 4.0 km/h Distance 0.86 km</desc>
<time>2010-03-01T17:20:48.18</time>
<name>1091</name>
</trkpt>
<trkpt lat="48.945508" lon="8.659753">
<ele>330.0</ele>
<speed>3.7</speed>
<course>313.6</course>
<desc>Speed 3.7 km/h Distance 0.86 km</desc>
<time>2010-03-01T17:20:49.18</time>
<name>1092</name>
</trkpt>
<trkpt lat="48.945517" lon="8.659740">
<ele>330.0</ele>
<speed>3.9</speed>
<course>313.6</course>
<desc>Speed 3.9 km/h Distance 0.86 km</desc>
<time>2010-03-01T17:20:50.18</time>
<name>1093</name>
</trkpt>
<trkpt lat="48.945525" lon="8.659727">
<ele>329.5</ele>
<speed>4.0</speed>
<course>304.1</course>
<desc>Speed 4.0 km/h Distance 0.86 km</desc>
<time>2010-03-01T17:20:51.18</time>
<name>1094</name>
</trkpt>
<trkpt lat="48.945532" lon="8.659712">
<ele>329.5</ele>
<speed>4.0</speed>
<course>296.9</course>
<desc>Speed 4.0 km/h Distance 0.87 km</desc>
<time>2010-03-01T17:20:52.18</time>
<name>1095</name>
</trkpt>
<trkpt lat="48.945537" lon="8.659697">
<ele>329.5</ele>
<speed>4.0</speed>
<course>313.6</course>
<desc>Speed 4.0 km/h Distance 0.87 km</desc>
<time>2010-03-01T17:20:53.20</time>
<name>1096</name>
</trkpt>
<trkpt lat="48.945545" lon="8.659683">
<ele>329.5</ele>
<speed>4.0</speed>
<course>317.4</course>
<desc>Speed 4.0 km/h Distance 0.87 km</desc>
<time>2010-03-01T17:20:54.17</time>
<name>1097</name>
</trkpt>
<trkpt lat="48.945553" lon="8.659672">
<ele>329.5</ele>
<speed>3.5</speed>
<course>307.3</course>
<desc>Speed 3.5 km/h Distance 0.87 km</desc>
<time>2010-03-01T17:20:55.18</time>
<name>1098</name>
</trkpt>
<trkpt lat="48.945560" lon="8.659658">
<ele>329.5</ele>
<speed>3.7</speed>
<course>299.7</course>
<desc>Speed 3.7 km/h Distance 0.87 km</desc>
<time>2010-03-01T17:20:56.20</time>
<name>1099</name>
</trkpt>
<trkpt lat="48.945565" lon="8.659645">
<ele>330.0</ele>
<speed>3.5</speed>
<course>299.7</course>
<desc>Speed 3.5 km/h Distance 0.87 km</desc>
<time>2010-03-01T17:20:57.18</time>
<name>1100</name>
</trkpt>
<trkpt lat="48.945570" lon="8.659632">
<ele>330.5</ele>
<speed>3.5</speed>
<course>307.2</course>
<desc>Speed 3.5 km/h Distance 0.87 km</desc>
<time>2010-03-01T17:20:58.17</time>
<name>1101</name>
</trkpt>
<trkpt lat="48.945575" lon="8.659622">
<ele>330.5</ele>
<speed>2.8</speed>
<course>296.6</course>
<desc>Speed 2.8 km/h Distance 0.87 km</desc>
<time>2010-03-01T17:20:59.18</time>
<name>1102</name>
</trkpt>
<trkpt lat="48.945577" lon="8.659617">
<ele>331.0</ele>
<speed>0.8</speed>
<course>270.0</course>
<desc>Speed 0.8 km/h Distance 0.87 km</desc>
<time>2010-03-01T17:21:00.17</time>
<name>1103</name>
</trkpt>
<trkpt lat="48.945577" lon="8.659613">
<ele>331.0</ele>
<speed>0.3</speed>
<course>270.0</course>
<desc>Speed 0.3 km/h Distance 0.87 km</desc>
<time>2010-03-01T17:21:01.17</time>
<name>1104</name>
</trkpt>
<trkpt lat="48.945577" lon="8.659612">
<ele>331.0</ele>
<speed>0.6</speed>
<course>233.9</course>
<desc>Speed 0.6 km/h Distance 0.87 km</desc>
<time>2010-03-01T17:21:02.17</time>
<name>1105</name>
</trkpt>
<trkpt lat="48.945575" lon="8.659608">
<ele>331.5</ele>
<speed>0.4</speed>
<course>341.2</course>
<desc>Speed 0.4 km/h Distance 0.87 km</desc>
<time>2010-03-01T17:21:03.18</time>
<name>1106</name>
</trkpt>
<trkpt lat="48.945578" lon="8.659607">
<ele>331.5</ele>
<speed>1.0</speed>
<course>270.0</course>
<desc>Speed 1.0 km/h Distance 0.88 km</desc>
<time>2010-03-01T17:21:04.18</time>
<name>1107</name>
</trkpt>
<trkpt lat="48.945578" lon="8.659605">
<ele>331.5</ele>
<speed>0.3</speed>
<course>270.0</course>
<desc>Speed 0.3 km/h Distance 0.88 km</desc>
<time>2010-03-01T17:21:05.17</time>
<name>1108</name>
</trkpt>
<trkpt lat="48.945578" lon="8.659605">
<ele>331.5</ele>
<speed>0.2</speed>
<course>270.0</course>
<desc>Speed 0.2 km/h Distance 0.88 km</desc>
<time>2010-03-01T17:21:06.17</time>
<name>1109</name>
</trkpt>
<trkpt lat="48.945578" lon="8.659603">
<ele>331.5</ele>
<speed>0.3</speed>
<course>0.0</course>
<desc>Speed 0.3 km/h Distance 0.88 km</desc>
<time>2010-03-01T17:21:07.20</time>
<name>1110</name>
</trkpt>
<trkpt lat="48.945582" lon="8.659603">
<ele>331.5</ele>
<speed>0.9</speed>
<course>333.6</course>
<desc>Speed 0.9 km/h Distance 0.88 km</desc>
<time>2010-03-01T17:21:08.18</time>
<name>1111</name>
</trkpt>
<trkpt lat="48.945588" lon="8.659598">
<ele>331.5</ele>
<speed>2.3</speed>
<course>0.0</course>
<desc>Speed 2.3 km/h Distance 0.88 km</desc>
<time>2010-03-01T17:21:09.17</time>
<name>1112</name>
</trkpt>
<trkpt lat="48.945593" lon="8.659598">
<ele>331.5</ele>
<speed>1.3</speed>
<course>345.1</course>
<desc>Speed 1.3 km/h Distance 0.88 km</desc>
<time>2010-03-01T17:21:10.21</time>
<name>1113</name>
</trkpt>
<trkpt lat="48.945602" lon="8.659595">
<ele>331.0</ele>
<speed>2.1</speed>
<course>352.3</course>
<desc>Speed 2.1 km/h Distance 0.88 km</desc>
<time>2010-03-01T17:21:11.17</time>
<name>1114</name>
</trkpt>
<trkpt lat="48.945610" lon="8.659593">
<ele>331.0</ele>
<speed>2.5</speed>
<course>0.0</course>
<desc>Speed 2.5 km/h Distance 0.88 km</desc>
<time>2010-03-01T17:21:12.18</time>
<name>1115</name>
</trkpt>
<trkpt lat="48.945612" lon="8.659593">
<ele>330.5</ele>
<speed>0.9</speed>
<course>12.6</course>
<desc>Speed 0.9 km/h Distance 0.88 km</desc>
<time>2010-03-01T17:21:13.17</time>
<name>1116</name>
</trkpt>
<trkpt lat="48.945613" lon="8.659593">
<ele>331.0</ele>
<speed>0.2</speed>
<course>270.0</course>
<desc>Speed 0.2 km/h Distance 0.88 km</desc>
<time>2010-03-01T17:21:14.17</time>
<name>1117</name>
</trkpt>
<trkpt lat="48.945613" lon="8.659592">
<ele>331.0</ele>
<speed>0.1</speed>
<course>319.1</course>
<desc>Speed 0.1 km/h Distance 0.88 km</desc>
<time>2010-03-01T17:21:15.17</time>
<name>1118</name>
</trkpt>
<trkpt lat="48.945618" lon="8.659585">
<ele>330.5</ele>
<speed>1.8</speed>
<course>338.5</course>
<desc>Speed 1.8 km/h Distance 0.88 km</desc>
<time>2010-03-01T17:21:16.20</time>
<name>1119</name>
</trkpt>
<trkpt lat="48.945627" lon="8.659580">
<ele>331.0</ele>
<speed>2.9</speed>
<course>307.2</course>
<desc>Speed 2.9 km/h Distance 0.88 km</desc>
<time>2010-03-01T17:21:17.17</time>
<name>1120</name>
</trkpt>
<trkpt lat="48.945632" lon="8.659570">
<ele>331.0</ele>
<speed>3.2</speed>
<course>290.7</course>
<desc>Speed 3.2 km/h Distance 0.88 km</desc>
<time>2010-03-01T17:21:18.17</time>
<name>1121</name>
</trkpt>
<trkpt lat="48.945635" lon="8.659557">
<ele>331.0</ele>
<speed>3.4</speed>
<course>320.6</course>
<desc>Speed 3.4 km/h Distance 0.88 km</desc>
<time>2010-03-01T17:21:19.20</time>
<name>1122</name>
</trkpt>
<trkpt lat="48.945642" lon="8.659548">
<ele>330.0</ele>
<speed>2.7</speed>
<course>299.7</course>
<desc>Speed 2.7 km/h Distance 0.88 km</desc>
<time>2010-03-01T17:21:20.17</time>
<name>1123</name>
</trkpt>
<trkpt lat="48.945647" lon="8.659535">
<ele>330.0</ele>
<speed>3.5</speed>
<course>290.8</course>
<desc>Speed 3.5 km/h Distance 0.89 km</desc>
<time>2010-03-01T17:21:21.17</time>
<name>1124</name>
</trkpt>
<trkpt lat="48.945650" lon="8.659522">
<ele>330.0</ele>
<speed>3.5</speed>
<course>302.9</course>
<desc>Speed 3.5 km/h Distance 0.89 km</desc>
<time>2010-03-01T17:21:22.16</time>
<name>1125</name>
</trkpt>
<trkpt lat="48.945655" lon="8.659510">
<ele>330.0</ele>
<speed>3.7</speed>
<course>303.1</course>
<desc>Speed 3.7 km/h Distance 0.89 km</desc>
<time>2010-03-01T17:21:23.17</time>
<name>1126</name>
</trkpt>
<trkpt lat="48.945660" lon="8.659498">
<ele>330.0</ele>
<speed>3.5</speed>
<course>311.1</course>
<desc>Speed 3.5 km/h Distance 0.89 km</desc>
<time>2010-03-01T17:21:24.17</time>
<name>1127</name>
</trkpt>
<trkpt lat="48.945667" lon="8.659487">
<ele>329.5</ele>
<speed>3.5</speed>
<course>315.5</course>
<desc>Speed 3.5 km/h Distance 0.89 km</desc>
<time>2010-03-01T17:21:25.20</time>
<name>1128</name>
</trkpt>
<trkpt lat="48.945673" lon="8.659477">
<ele>329.0</ele>
<speed>3.3</speed>
<course>315.5</course>
<desc>Speed 3.3 km/h Distance 0.89 km</desc>
<time>2010-03-01T17:21:26.17</time>
<name>1129</name>
</trkpt>
<trkpt lat="48.945680" lon="8.659467">
<ele>329.0</ele>
<speed>3.4</speed>
<course>310.9</course>
<desc>Speed 3.4 km/h Distance 0.89 km</desc>
<time>2010-03-01T17:21:27.17</time>
<name>1130</name>
</trkpt>
<trkpt lat="48.945687" lon="8.659455">
<ele>329.0</ele>
<speed>3.7</speed>
<course>299.8</course>
<desc>Speed 3.7 km/h Distance 0.89 km</desc>
<time>2010-03-01T17:21:28.20</time>
<name>1131</name>
</trkpt>
<trkpt lat="48.945692" lon="8.659442">
<ele>329.0</ele>
<speed>3.6</speed>
<course>307.4</course>
<desc>Speed 3.6 km/h Distance 0.89 km</desc>
<time>2010-03-01T17:21:29.17</time>
<name>1132</name>
</trkpt>
<trkpt lat="48.945698" lon="8.659428">
<ele>329.0</ele>
<speed>3.9</speed>
<course>322.1</course>
<desc>Speed 3.9 km/h Distance 0.89 km</desc>
<time>2010-03-01T17:21:30.17</time>
<name>1133</name>
</trkpt>
<trkpt lat="48.945707" lon="8.659418">
<ele>329.0</ele>
<speed>3.9</speed>
<course>326.8</course>
<desc>Speed 3.9 km/h Distance 0.90 km</desc>
<time>2010-03-01T17:21:31.16</time>
<name>1134</name>
</trkpt>
<trkpt lat="48.945715" lon="8.659410">
<ele>329.0</ele>
<speed>3.9</speed>
<course>326.8</course>
<desc>Speed 3.9 km/h Distance 0.90 km</desc>
<time>2010-03-01T17:21:32.16</time>
<name>1135</name>
</trkpt>
<trkpt lat="48.945723" lon="8.659402">
<ele>328.5</ele>
<speed>3.3</speed>
<course>317.5</course>
<desc>Speed 3.3 km/h Distance 0.90 km</desc>
<time>2010-03-01T17:21:33.17</time>
<name>1136</name>
</trkpt>
<trkpt lat="48.945732" lon="8.659390">
<ele>328.5</ele>
<speed>4.1</speed>
<course>317.4</course>
<desc>Speed 4.1 km/h Distance 0.90 km</desc>
<time>2010-03-01T17:21:34.17</time>
<name>1137</name>
</trkpt>
<trkpt lat="48.945740" lon="8.659378">
<ele>328.5</ele>
<speed>3.6</speed>
<course>326.8</course>
<desc>Speed 3.6 km/h Distance 0.90 km</desc>
<time>2010-03-01T17:21:35.17</time>
<name>1138</name>
</trkpt>
<trkpt lat="48.945748" lon="8.659370">
<ele>329.0</ele>
<speed>3.5</speed>
<course>326.8</course>
<desc>Speed 3.5 km/h Distance 0.90 km</desc>
<time>2010-03-01T17:21:36.17</time>
<name>1139</name>
</trkpt>
<trkpt lat="48.945758" lon="8.659360">
<ele>329.5</ele>
<speed>3.9</speed>
<course>317.4</course>
<desc>Speed 3.9 km/h Distance 0.90 km</desc>
<time>2010-03-01T17:21:37.16</time>
<name>1140</name>
</trkpt>
<trkpt lat="48.945767" lon="8.659348">
<ele>329.5</ele>
<speed>4.0</speed>
<course>322.3</course>
<desc>Speed 4.0 km/h Distance 0.90 km</desc>
<time>2010-03-01T17:21:38.17</time>
<name>1141</name>
</trkpt>
<trkpt lat="48.945777" lon="8.659337">
<ele>330.0</ele>
<speed>4.0</speed>
<course>317.4</course>
<desc>Speed 4.0 km/h Distance 0.91 km</desc>
<time>2010-03-01T17:21:39.17</time>
<name>1142</name>
</trkpt>
<trkpt lat="48.945785" lon="8.659325">
<ele>330.0</ele>
<speed>3.9</speed>
<course>326.8</course>
<desc>Speed 3.9 km/h Distance 0.91 km</desc>
<time>2010-03-01T17:21:40.16</time>
<name>1143</name>
</trkpt>
<trkpt lat="48.945795" lon="8.659315">
<ele>330.0</ele>
<speed>3.7</speed>
<course>317.4</course>
<desc>Speed 3.7 km/h Distance 0.91 km</desc>
<time>2010-03-01T17:21:41.16</time>
<name>1144</name>
</trkpt>
<trkpt lat="48.945803" lon="8.659303">
<ele>330.0</ele>
<speed>3.9</speed>
<course>315.5</course>
<desc>Speed 3.9 km/h Distance 0.91 km</desc>
<time>2010-03-01T17:21:42.16</time>
<name>1145</name>
</trkpt>
<trkpt lat="48.945810" lon="8.659293">
<ele>329.5</ele>
<speed>3.6</speed>
<course>321.9</course>
<desc>Speed 3.6 km/h Distance 0.91 km</desc>
<time>2010-03-01T17:21:43.16</time>
<name>1146</name>
</trkpt>
<trkpt lat="48.945818" lon="8.659283">
<ele>329.0</ele>
<speed>3.9</speed>
<course>326.8</course>
<desc>Speed 3.9 km/h Distance 0.91 km</desc>
<time>2010-03-01T17:21:44.16</time>
<name>1147</name>
</trkpt>
<trkpt lat="48.945828" lon="8.659273">
<ele>328.5</ele>
<speed>4.0</speed>
<course>317.4</course>
<desc>Speed 4.0 km/h Distance 0.91 km</desc>
<time>2010-03-01T17:21:45.16</time>
<name>1148</name>
</trkpt>
<trkpt lat="48.945837" lon="8.659262">
<ele>328.5</ele>
<speed>4.0</speed>
<course>315.5</course>
<desc>Speed 4.0 km/h Distance 0.91 km</desc>
<time>2010-03-01T17:21:46.16</time>
<name>1149</name>
</trkpt>
<trkpt lat="48.945843" lon="8.659252">
<ele>328.5</ele>
<speed>3.7</speed>
<course>315.5</course>
<desc>Speed 3.7 km/h Distance 0.92 km</desc>
<time>2010-03-01T17:21:47.16</time>
<name>1150</name>
</trkpt>
<trkpt lat="48.945850" lon="8.659242">
<ele>328.5</ele>
<speed>3.3</speed>
<course>304.1</course>
<desc>Speed 3.3 km/h Distance 0.92 km</desc>
<time>2010-03-01T17:21:48.16</time>
<name>1151</name>
</trkpt>
<trkpt lat="48.945857" lon="8.659227">
<ele>329.0</ele>
<speed>4.0</speed>
<course>321.9</course>
<desc>Speed 4.0 km/h Distance 0.92 km</desc>
<time>2010-03-01T17:21:49.16</time>
<name>1152</name>
</trkpt>
<trkpt lat="48.945865" lon="8.659217">
<ele>329.0</ele>
<speed>4.0</speed>
<course>315.5</course>
<desc>Speed 4.0 km/h Distance 0.92 km</desc>
<time>2010-03-01T17:21:50.16</time>
<name>1153</name>
</trkpt>
<trkpt lat="48.945872" lon="8.659207">
<ele>329.0</ele>
<speed>3.5</speed>
<course>310.9</course>
<desc>Speed 3.5 km/h Distance 0.92 km</desc>
<time>2010-03-01T17:21:51.16</time>
<name>1154</name>
</trkpt>
<trkpt lat="48.945878" lon="8.659195">
<ele>329.0</ele>
<speed>3.5</speed>
<course>326.6</course>
<desc>Speed 3.5 km/h Distance 0.92 km</desc>
<time>2010-03-01T17:21:52.16</time>
<name>1155</name>
</trkpt>
<trkpt lat="48.945888" lon="8.659185">
<ele>329.0</ele>
<speed>3.7</speed>
<course>331.4</course>
<desc>Speed 3.7 km/h Distance 0.92 km</desc>
<time>2010-03-01T17:21:53.16</time>
<name>1156</name>
</trkpt>
<trkpt lat="48.945898" lon="8.659177">
<ele>329.0</ele>
<speed>3.9</speed>
<course>317.7</course>
<desc>Speed 3.9 km/h Distance 0.92 km</desc>
<time>2010-03-01T17:21:54.16</time>
<name>1157</name>
</trkpt>
<trkpt lat="48.945907" lon="8.659165">
<ele>328.5</ele>
<speed>3.7</speed>
<course>326.8</course>
<desc>Speed 3.7 km/h Distance 0.93 km</desc>
<time>2010-03-01T17:21:55.16</time>
<name>1158</name>
</trkpt>
<trkpt lat="48.945917" lon="8.659155">
<ele>329.0</ele>
<speed>3.7</speed>
<course>321.9</course>
<desc>Speed 3.7 km/h Distance 0.93 km</desc>
<time>2010-03-01T17:21:56.16</time>
<name>1159</name>
</trkpt>
<trkpt lat="48.945925" lon="8.659145">
<ele>328.5</ele>
<speed>3.5</speed>
<course>302.9</course>
<desc>Speed 3.5 km/h Distance 0.93 km</desc>
<time>2010-03-01T17:21:57.16</time>
<name>1160</name>
</trkpt>
<trkpt lat="48.945930" lon="8.659133">
<ele>329.0</ele>
<speed>3.3</speed>
<course>321.9</course>
<desc>Speed 3.3 km/h Distance 0.93 km</desc>
<time>2010-03-01T17:21:58.16</time>
<name>1161</name>
</trkpt>
<trkpt lat="48.945938" lon="8.659123">
<ele>329.0</ele>
<speed>3.9</speed>
<course>326.6</course>
<desc>Speed 3.9 km/h Distance 0.93 km</desc>
<time>2010-03-01T17:21:59.16</time>
<name>1162</name>
</trkpt>
<trkpt lat="48.945948" lon="8.659113">
<ele>329.0</ele>
<speed>4.1</speed>
<course>315.5</course>
<desc>Speed 4.1 km/h Distance 0.93 km</desc>
<time>2010-03-01T17:22:00.16</time>
<name>1163</name>
</trkpt>
<trkpt lat="48.945955" lon="8.659103">
<ele>328.5</ele>
<speed>3.5</speed>
<course>321.9</course>
<desc>Speed 3.5 km/h Distance 0.93 km</desc>
<time>2010-03-01T17:22:01.16</time>
<name>1164</name>
</trkpt>
<trkpt lat="48.945963" lon="8.659093">
<ele>328.5</ele>
<speed>3.9</speed>
<course>307.3</course>
<desc>Speed 3.9 km/h Distance 0.93 km</desc>
<time>2010-03-01T17:22:02.16</time>
<name>1165</name>
</trkpt>
<trkpt lat="48.945970" lon="8.659080">
<ele>328.5</ele>
<speed>4.1</speed>
<course>315.5</course>
<desc>Speed 4.1 km/h Distance 0.93 km</desc>
<time>2010-03-01T17:22:03.16</time>
<name>1166</name>
</trkpt>
<trkpt lat="48.945977" lon="8.659070">
<ele>328.5</ele>
<speed>3.7</speed>
<course>315.7</course>
<desc>Speed 3.7 km/h Distance 0.94 km</desc>
<time>2010-03-01T17:22:04.16</time>
<name>1167</name>
</trkpt>
<trkpt lat="48.945983" lon="8.659060">
<ele>328.0</ele>
<speed>3.7</speed>
<course>315.5</course>
<desc>Speed 3.7 km/h Distance 0.94 km</desc>
<time>2010-03-01T17:22:05.15</time>
<name>1168</name>
</trkpt>
<trkpt lat="48.945990" lon="8.659050">
<ele>328.0</ele>
<speed>3.3</speed>
<course>321.6</course>
<desc>Speed 3.3 km/h Distance 0.94 km</desc>
<time>2010-03-01T17:22:06.16</time>
<name>1169</name>
</trkpt>
<trkpt lat="48.945998" lon="8.659040">
<ele>328.0</ele>
<speed>3.9</speed>
<course>310.9</course>
<desc>Speed 3.9 km/h Distance 0.94 km</desc>
<time>2010-03-01T17:22:07.15</time>
<name>1170</name>
</trkpt>
<trkpt lat="48.946005" lon="8.659028">
<ele>328.0</ele>
<speed>4.0</speed>
<course>315.5</course>
<desc>Speed 4.0 km/h Distance 0.94 km</desc>
<time>2010-03-01T17:22:08.15</time>
<name>1171</name>
</trkpt>
<trkpt lat="48.946012" lon="8.659018">
<ele>328.0</ele>
<speed>3.2</speed>
<course>322.5</course>
<desc>Speed 3.2 km/h Distance 0.94 km</desc>
<time>2010-03-01T17:22:09.15</time>
<name>1172</name>
</trkpt>
<trkpt lat="48.946022" lon="8.659007">
<ele>328.5</ele>
<speed>4.2</speed>
<course>321.9</course>
<desc>Speed 4.2 km/h Distance 0.94 km</desc>
<time>2010-03-01T17:22:10.16</time>
<name>1173</name>
</trkpt>
<trkpt lat="48.946030" lon="8.658997">
<ele>328.5</ele>
<speed>4.0</speed>
<course>326.8</course>
<desc>Speed 4.0 km/h Distance 0.94 km</desc>
<time>2010-03-01T17:22:11.15</time>
<name>1174</name>
</trkpt>
<trkpt lat="48.946038" lon="8.658988">
<ele>328.5</ele>
<speed>3.5</speed>
<course>326.8</course>
<desc>Speed 3.5 km/h Distance 0.94 km</desc>
<time>2010-03-01T17:22:12.15</time>
<name>1175</name>
</trkpt>
<trkpt lat="48.946047" lon="8.658980">
<ele>328.5</ele>
<speed>3.7</speed>
<course>321.9</course>
<desc>Speed 3.7 km/h Distance 0.95 km</desc>
<time>2010-03-01T17:22:13.15</time>
<name>1176</name>
</trkpt>
<trkpt lat="48.946055" lon="8.658970">
<ele>328.0</ele>
<speed>3.6</speed>
<course>311.1</course>
<desc>Speed 3.6 km/h Distance 0.95 km</desc>
<time>2010-03-01T17:22:14.15</time>
<name>1177</name>
</trkpt>
<trkpt lat="48.946062" lon="8.658958">
<ele>328.0</ele>
<speed>3.9</speed>
<course>313.6</course>
<desc>Speed 3.9 km/h Distance 0.95 km</desc>
<time>2010-03-01T17:22:15.15</time>
<name>1178</name>
</trkpt>
<trkpt lat="48.946070" lon="8.658945">
<ele>328.0</ele>
<speed>3.7</speed>
<course>310.9</course>
<desc>Speed 3.7 km/h Distance 0.95 km</desc>
<time>2010-03-01T17:22:16.15</time>
<name>1179</name>
</trkpt>
<trkpt lat="48.946077" lon="8.658933">
<ele>327.5</ele>
<speed>3.7</speed>
<course>310.9</course>
<desc>Speed 3.7 km/h Distance 0.95 km</desc>
<time>2010-03-01T17:22:17.15</time>
<name>1180</name>
</trkpt>
<trkpt lat="48.946083" lon="8.658922">
<ele>328.0</ele>
<speed>3.6</speed>
<course>307.3</course>
<desc>Speed 3.6 km/h Distance 0.95 km</desc>
<time>2010-03-01T17:22:18.15</time>
<name>1181</name>
</trkpt>
<trkpt lat="48.946090" lon="8.658908">
<ele>328.0</ele>
<speed>3.6</speed>
<course>317.4</course>
<desc>Speed 3.6 km/h Distance 0.95 km</desc>
<time>2010-03-01T17:22:19.15</time>
<name>1182</name>
</trkpt>
<trkpt lat="48.946098" lon="8.658897">
<ele>328.0</ele>
<speed>3.9</speed>
<course>321.9</course>
<desc>Speed 3.9 km/h Distance 0.95 km</desc>
<time>2010-03-01T17:22:20.15</time>
<name>1183</name>
</trkpt>
<trkpt lat="48.946107" lon="8.658887">
<ele>328.0</ele>
<speed>3.5</speed>
<course>313.6</course>
<desc>Speed 3.5 km/h Distance 0.96 km</desc>
<time>2010-03-01T17:22:21.15</time>
<name>1184</name>
</trkpt>
<trkpt lat="48.946115" lon="8.658873">
<ele>327.5</ele>
<speed>3.6</speed>
<course>303.3</course>
<desc>Speed 3.6 km/h Distance 0.96 km</desc>
<time>2010-03-01T17:22:22.15</time>
<name>1185</name>
</trkpt>
<trkpt lat="48.946120" lon="8.658862">
<ele>328.0</ele>
<speed>3.4</speed>
<course>321.9</course>
<desc>Speed 3.4 km/h Distance 0.96 km</desc>
<time>2010-03-01T17:22:23.15</time>
<name>1186</name>
</trkpt>
<trkpt lat="48.946128" lon="8.658852">
<ele>327.5</ele>
<speed>3.5</speed>
<course>288.7</course>
<desc>Speed 3.5 km/h Distance 0.96 km</desc>
<time>2010-03-01T17:22:24.15</time>
<name>1187</name>
</trkpt>
<trkpt lat="48.946132" lon="8.658837">
<ele>328.0</ele>
<speed>3.4</speed>
<course>315.5</course>
<desc>Speed 3.4 km/h Distance 0.96 km</desc>
<time>2010-03-01T17:22:25.15</time>
<name>1188</name>
</trkpt>
<trkpt lat="48.946138" lon="8.658827">
<ele>327.5</ele>
<speed>3.5</speed>
<course>313.6</course>
<desc>Speed 3.5 km/h Distance 0.96 km</desc>
<time>2010-03-01T17:22:26.14</time>
<name>1189</name>
</trkpt>
<trkpt lat="48.946147" lon="8.658813">
<ele>328.0</ele>
<speed>3.7</speed>
<course>310.9</course>
<desc>Speed 3.7 km/h Distance 0.96 km</desc>
<time>2010-03-01T17:22:27.15</time>
<name>1190</name>
</trkpt>
<trkpt lat="48.946153" lon="8.658802">
<ele>327.5</ele>
<speed>3.5</speed>
<course>317.4</course>
<desc>Speed 3.5 km/h Distance 0.96 km</desc>
<time>2010-03-01T17:22:28.15</time>
<name>1191</name>
</trkpt>
<trkpt lat="48.946162" lon="8.658790">
<ele>328.0</ele>
<speed>3.8</speed>
<course>326.9</course>
<desc>Speed 3.8 km/h Distance 0.97 km</desc>
<time>2010-03-01T17:22:29.14</time>
<name>1192</name>
</trkpt>
<trkpt lat="48.946173" lon="8.658778">
<ele>328.0</ele>
<speed>4.3</speed>
<course>317.4</course>
<desc>Speed 4.3 km/h Distance 0.97 km</desc>
<time>2010-03-01T17:22:30.14</time>
<name>1193</name>
</trkpt>
<trkpt lat="48.946182" lon="8.658767">
<ele>328.0</ele>
<speed>3.9</speed>
<course>317.4</course>
<desc>Speed 3.9 km/h Distance 0.97 km</desc>
<time>2010-03-01T17:22:31.14</time>
<name>1194</name>
</trkpt>
<trkpt lat="48.946190" lon="8.658755">
<ele>328.0</ele>
<speed>4.1</speed>
<course>317.4</course>
<desc>Speed 4.1 km/h Distance 0.97 km</desc>
<time>2010-03-01T17:22:32.14</time>
<name>1195</name>
</trkpt>
<trkpt lat="48.946198" lon="8.658743">
<ele>327.5</ele>
<speed>4.0</speed>
<course>318.8</course>
<desc>Speed 4.0 km/h Distance 0.97 km</desc>
<time>2010-03-01T17:22:33.14</time>
<name>1196</name>
</trkpt>
<trkpt lat="48.946208" lon="8.658730">
<ele>327.5</ele>
<speed>4.1</speed>
<course>310.1</course>
<desc>Speed 4.1 km/h Distance 0.97 km</desc>
<time>2010-03-01T17:22:34.15</time>
<name>1197</name>
</trkpt>
<trkpt lat="48.946217" lon="8.658715">
<ele>328.0</ele>
<speed>3.9</speed>
<course>321.9</course>
<desc>Speed 3.9 km/h Distance 0.97 km</desc>
<time>2010-03-01T17:22:35.14</time>
<name>1198</name>
</trkpt>
<trkpt lat="48.946225" lon="8.658705">
<ele>327.0</ele>
<speed>3.4</speed>
<course>318.8</course>
<desc>Speed 3.4 km/h Distance 0.97 km</desc>
<time>2010-03-01T17:22:36.14</time>
<name>1199</name>
</trkpt>
<trkpt lat="48.946235" lon="8.658692">
<ele>327.0</ele>
<speed>4.2</speed>
<course>317.5</course>
<desc>Speed 4.2 km/h Distance 0.98 km</desc>
<time>2010-03-01T17:22:37.14</time>
<name>1200</name>
</trkpt>
<trkpt lat="48.946243" lon="8.658680">
<ele>327.0</ele>
<speed>3.6</speed>
<course>304.1</course>
<desc>Speed 3.6 km/h Distance 0.98 km</desc>
<time>2010-03-01T17:22:38.14</time>
<name>1201</name>
</trkpt>
<trkpt lat="48.946250" lon="8.658665">
<ele>327.0</ele>
<speed>3.6</speed>
<course>307.3</course>
<desc>Speed 3.6 km/h Distance 0.98 km</desc>
<time>2010-03-01T17:22:39.14</time>
<name>1202</name>
</trkpt>
<trkpt lat="48.946257" lon="8.658652">
<ele>327.0</ele>
<speed>4.2</speed>
<course>326.8</course>
<desc>Speed 4.2 km/h Distance 0.98 km</desc>
<time>2010-03-01T17:22:40.14</time>
<name>1203</name>
</trkpt>
<trkpt lat="48.946265" lon="8.658643">
<ele>326.5</ele>
<speed>3.7</speed>
<course>315.5</course>
<desc>Speed 3.7 km/h Distance 0.98 km</desc>
<time>2010-03-01T17:22:41.14</time>
<name>1204</name>
</trkpt>
<trkpt lat="48.946272" lon="8.658633">
<ele>326.5</ele>
<speed>3.6</speed>
<course>313.6</course>
<desc>Speed 3.6 km/h Distance 0.98 km</desc>
<time>2010-03-01T17:22:42.14</time>
<name>1205</name>
</trkpt>
<trkpt lat="48.946280" lon="8.658620">
<ele>327.0</ele>
<speed>3.7</speed>
<course>317.4</course>
<desc>Speed 3.7 km/h Distance 0.98 km</desc>
<time>2010-03-01T17:22:43.14</time>
<name>1206</name>
</trkpt>
<trkpt lat="48.946288" lon="8.658608">
<ele>327.0</ele>
<speed>3.7</speed>
<course>311.3</course>
<desc>Speed 3.7 km/h Distance 0.98 km</desc>
<time>2010-03-01T17:22:44.14</time>
<name>1207</name>
</trkpt>
<trkpt lat="48.946295" lon="8.658597">
<ele>328.0</ele>
<speed>3.3</speed>
<course>317.4</course>
<desc>Speed 3.3 km/h Distance 0.99 km</desc>
<time>2010-03-01T17:22:45.14</time>
<name>1208</name>
</trkpt>
<trkpt lat="48.946303" lon="8.658585">
<ele>328.0</ele>
<speed>3.9</speed>
<course>315.5</course>
<desc>Speed 3.9 km/h Distance 0.99 km</desc>
<time>2010-03-01T17:22:46.14</time>
<name>1209</name>
</trkpt>
<trkpt lat="48.946310" lon="8.658575">
<ele>327.5</ele>
<speed>3.3</speed>
<course>321.9</course>
<desc>Speed 3.3 km/h Distance 0.99 km</desc>
<time>2010-03-01T17:22:47.13</time>
<name>1210</name>
</trkpt>
<trkpt lat="48.946318" lon="8.658565">
<ele>327.5</ele>
<speed>3.6</speed>
<course>310.9</course>
<desc>Speed 3.6 km/h Distance 0.99 km</desc>
<time>2010-03-01T17:22:48.14</time>
<name>1211</name>
</trkpt>
<trkpt lat="48.946325" lon="8.658553">
<ele>327.5</ele>
<speed>3.5</speed>
<course>317.4</course>
<desc>Speed 3.5 km/h Distance 0.99 km</desc>
<time>2010-03-01T17:22:49.13</time>
<name>1212</name>
</trkpt>
<trkpt lat="48.946333" lon="8.658542">
<ele>328.0</ele>
<speed>3.7</speed>
<course>326.8</course>
<desc>Speed 3.7 km/h Distance 0.99 km</desc>
<time>2010-03-01T17:22:50.13</time>
<name>1213</name>
</trkpt>
<trkpt lat="48.946342" lon="8.658533">
<ele>327.5</ele>
<speed>3.2</speed>
<course>313.6</course>
<desc>Speed 3.2 km/h Distance 0.99 km</desc>
<time>2010-03-01T17:22:51.13</time>
<name>1214</name>
</trkpt>
<trkpt lat="48.946350" lon="8.658520">
<ele>328.5</ele>
<speed>3.6</speed>
<course>326.8</course>
<desc>Speed 3.6 km/h Distance 0.99 km</desc>
<time>2010-03-01T17:22:52.13</time>
<name>1215</name>
</trkpt>
<trkpt lat="48.946358" lon="8.658512">
<ele>328.0</ele>
<speed>3.9</speed>
<course>317.4</course>
<desc>Speed 3.9 km/h Distance 1.00 km</desc>
<time>2010-03-01T17:22:53.13</time>
<name>1216</name>
</trkpt>
<trkpt lat="48.946367" lon="8.658500">
<ele>328.5</ele>
<speed>3.4</speed>
<course>317.4</course>
<desc>Speed 3.4 km/h Distance 1.00 km</desc>
<time>2010-03-01T17:22:54.13</time>
<name>1217</name>
</trkpt>
<trkpt lat="48.946375" lon="8.658488">
<ele>328.5</ele>
<speed>3.9</speed>
<course>318.8</course>
<desc>Speed 3.9 km/h Distance 1.00 km</desc>
<time>2010-03-01T17:22:55.13</time>
<name>1218</name>
</trkpt>
<trkpt lat="48.946385" lon="8.658475">
<ele>329.0</ele>
<speed>4.2</speed>
<course>315.5</course>
<desc>Speed 4.2 km/h Distance 1.00 km</desc>
<time>2010-03-01T17:22:56.14</time>
<name>1219</name>
</trkpt>
<trkpt lat="48.946392" lon="8.658465">
<ele>328.5</ele>
<speed>3.8</speed>
<course>304.7</course>
<desc>Speed 3.8 km/h Distance 1.00 km</desc>
<time>2010-03-01T17:22:57.13</time>
<name>1220</name>
</trkpt>
<trkpt lat="48.946400" lon="8.658447">
<ele>329.0</ele>
<speed>5.2</speed>
<course>313.6</course>
<desc>Speed 5.2 km/h Distance 1.00 km</desc>
<time>2010-03-01T17:22:58.13</time>
<name>1221</name>
</trkpt>
<trkpt lat="48.946408" lon="8.658433">
<ele>329.5</ele>
<speed>4.5</speed>
<course>322.7</course>
<desc>Speed 4.5 km/h Distance 1.00 km</desc>
<time>2010-03-01T17:22:59.13</time>
<name>1222</name>
</trkpt>
<trkpt lat="48.946418" lon="8.658422">
<ele>329.5</ele>
<speed>4.5</speed>
<course>322.5</course>
<desc>Speed 4.5 km/h Distance 1.00 km</desc>
<time>2010-03-01T17:23:00.13</time>
<name>1223</name>
</trkpt>
<trkpt lat="48.946428" lon="8.658410">
<ele>329.5</ele>
<speed>4.6</speed>
<course>326.8</course>
<desc>Speed 4.6 km/h Distance 1.01 km</desc>
<time>2010-03-01T17:23:01.13</time>
<name>1224</name>
</trkpt>
<trkpt lat="48.946438" lon="8.658400">
<ele>329.0</ele>
<speed>4.4</speed>
<course>326.7</course>
<desc>Speed 4.4 km/h Distance 1.01 km</desc>
<time>2010-03-01T17:23:02.13</time>
<name>1225</name>
</trkpt>
<trkpt lat="48.946450" lon="8.658388">
<ele>329.5</ele>
<speed>4.6</speed>
<course>344.5</course>
<desc>Speed 4.6 km/h Distance 1.01 km</desc>
<time>2010-03-01T17:23:03.13</time>
<name>1226</name>
</trkpt>
<trkpt lat="48.946462" lon="8.658383">
<ele>329.0</ele>
<speed>4.2</speed>
<course>2.2</course>
<desc>Speed 4.2 km/h Distance 1.01 km</desc>
<time>2010-03-01T17:23:04.13</time>
<name>1227</name>
</trkpt>
<trkpt lat="48.946473" lon="8.658383">
<ele>328.5</ele>
<speed>4.1</speed>
<course>27.9</course>
<desc>Speed 4.1 km/h Distance 1.01 km</desc>
<time>2010-03-01T17:23:05.13</time>
<name>1228</name>
</trkpt>
<trkpt lat="48.946482" lon="8.658390">
<ele>329.0</ele>
<speed>3.3</speed>
<course>27.9</course>
<desc>Speed 3.3 km/h Distance 1.01 km</desc>
<time>2010-03-01T17:23:06.13</time>
<name>1229</name>
</trkpt>
<trkpt lat="48.946482" lon="8.658388">
<ele>330.5</ele>
<speed>2.7</speed>
<course>71.3</course>
<desc>Speed 2.7 km/h Distance 1.01 km</desc>
<time>2010-03-01T17:23:07.13</time>
<name>1230</name>
</trkpt>
<trkpt lat="48.946485" lon="8.658403">
<ele>330.5</ele>
<speed>4.2</speed>
<course>82.1</course>
<desc>Speed 4.2 km/h Distance 1.01 km</desc>
<time>2010-03-01T17:23:08.13</time>
<name>1231</name>
</trkpt>
<trkpt lat="48.946487" lon="8.658422">
<ele>330.5</ele>
<speed>5.1</speed>
<course>167.4</course>
<desc>Speed 5.1 km/h Distance 1.02 km</desc>
<time>2010-03-01T17:23:09.13</time>
<name>1232</name>
</trkpt>
<trkpt lat="48.946485" lon="8.658423">
<ele>333.0</ele>
<speed>4.9</speed>
<course>65.4</course>
<desc>Speed 4.9 km/h Distance 1.02 km</desc>
<time>2010-03-01T17:23:10.13</time>
<name>1233</name>
</trkpt>
<trkpt lat="48.946490" lon="8.658440">
<ele>333.0</ele>
<speed>5.3</speed>
<course>47.6</course>
<desc>Speed 5.3 km/h Distance 1.02 km</desc>
<time>2010-03-01T17:23:11.12</time>
<name>1234</name>
</trkpt>
<trkpt lat="48.946500" lon="8.658457">
<ele>332.5</ele>
<speed>5.3</speed>
<course>52.7</course>
<desc>Speed 5.3 km/h Distance 1.02 km</desc>
<time>2010-03-01T17:23:12.12</time>
<name>1235</name>
</trkpt>
<trkpt lat="48.946507" lon="8.658470">
<ele>332.5</ele>
<speed>4.9</speed>
<course>52.7</course>
<desc>Speed 4.9 km/h Distance 1.02 km</desc>
<time>2010-03-01T17:23:13.12</time>
<name>1236</name>
</trkpt>
<trkpt lat="48.946515" lon="8.658487">
<ele>332.5</ele>
<speed>5.9</speed>
<course>50.6</course>
<desc>Speed 5.9 km/h Distance 1.02 km</desc>
<time>2010-03-01T17:23:14.12</time>
<name>1237</name>
</trkpt>
<trkpt lat="48.946527" lon="8.658508">
<ele>333.0</ele>
<speed>7.4</speed>
<course>59.6</course>
<desc>Speed 7.4 km/h Distance 1.02 km</desc>
<time>2010-03-01T17:23:15.12</time>
<name>1238</name>
</trkpt>
<trkpt lat="48.946535" lon="8.658530">
<ele>333.0</ele>
<speed>6.8</speed>
<course>57.6</course>
<desc>Speed 6.8 km/h Distance 1.03 km</desc>
<time>2010-03-01T17:23:16.11</time>
<name>1239</name>
</trkpt>
<trkpt lat="48.946543" lon="8.658550">
<ele>333.0</ele>
<speed>6.4</speed>
<course>55.3</course>
<desc>Speed 6.4 km/h Distance 1.03 km</desc>
<time>2010-03-01T17:23:17.11</time>
<name>1240</name>
</trkpt>
<trkpt lat="48.946552" lon="8.658568">
<ele>333.0</ele>
<speed>5.9</speed>
<course>52.7</course>
<desc>Speed 5.9 km/h Distance 1.03 km</desc>
<time>2010-03-01T17:23:18.11</time>
<name>1241</name>
</trkpt>
<trkpt lat="48.946560" lon="8.658585">
<ele>333.0</ele>
<speed>5.9</speed>
<course>44.5</course>
<desc>Speed 5.9 km/h Distance 1.03 km</desc>
<time>2010-03-01T17:23:19.11</time>
<name>1242</name>
</trkpt>
<trkpt lat="48.946570" lon="8.658600">
<ele>333.0</ele>
<speed>5.7</speed>
<course>41.0</course>
<desc>Speed 5.7 km/h Distance 1.03 km</desc>
<time>2010-03-01T17:23:20.11</time>
<name>1243</name>
</trkpt>
<trkpt lat="48.946580" lon="8.658613">
<ele>332.5</ele>
<speed>5.4</speed>
<course>46.4</course>
<desc>Speed 5.4 km/h Distance 1.03 km</desc>
<time>2010-03-01T17:23:21.11</time>
<name>1244</name>
</trkpt>
<trkpt lat="48.946588" lon="8.658627">
<ele>332.5</ele>
<speed>5.2</speed>
<course>44.5</course>
<desc>Speed 5.2 km/h Distance 1.03 km</desc>
<time>2010-03-01T17:23:22.11</time>
<name>1245</name>
</trkpt>
<trkpt lat="48.946598" lon="8.658642">
<ele>332.5</ele>
<speed>5.3</speed>
<course>49.7</course>
<desc>Speed 5.3 km/h Distance 1.04 km</desc>
<time>2010-03-01T17:23:23.11</time>
<name>1246</name>
</trkpt>
<trkpt lat="48.946607" lon="8.658657">
<ele>332.5</ele>
<speed>5.5</speed>
<course>47.5</course>
<desc>Speed 5.5 km/h Distance 1.04 km</desc>
<time>2010-03-01T17:23:24.11</time>
<name>1247</name>
</trkpt>
<trkpt lat="48.946617" lon="8.658673">
<ele>332.5</ele>
<speed>5.7</speed>
<course>49.7</course>
<desc>Speed 5.7 km/h Distance 1.04 km</desc>
<time>2010-03-01T17:23:25.11</time>
<name>1248</name>
</trkpt>
<trkpt lat="48.946625" lon="8.658688">
<ele>332.5</ele>
<speed>5.5</speed>
<course>49.8</course>
<desc>Speed 5.5 km/h Distance 1.04 km</desc>
<time>2010-03-01T17:23:26.11</time>
<name>1249</name>
</trkpt>
<trkpt lat="48.946633" lon="8.658703">
<ele>332.0</ele>
<speed>5.4</speed>
<course>44.6</course>
<desc>Speed 5.4 km/h Distance 1.04 km</desc>
<time>2010-03-01T17:23:27.11</time>
<name>1250</name>
</trkpt>
<trkpt lat="48.946643" lon="8.658718">
<ele>332.0</ele>
<speed>5.5</speed>
<course>47.6</course>
<desc>Speed 5.5 km/h Distance 1.04 km</desc>
<time>2010-03-01T17:23:28.11</time>
<name>1251</name>
</trkpt>
<trkpt lat="48.946653" lon="8.658735">
<ele>332.0</ele>
<speed>5.7</speed>
<course>38.4</course>
<desc>Speed 5.7 km/h Distance 1.05 km</desc>
<time>2010-03-01T17:23:29.10</time>
<name>1252</name>
</trkpt>
<trkpt lat="48.946662" lon="8.658745">
<ele>333.0</ele>
<speed>5.5</speed>
<course>49.9</course>
<desc>Speed 5.5 km/h Distance 1.05 km</desc>
<time>2010-03-01T17:23:30.11</time>
<name>1253</name>
</trkpt>
<trkpt lat="48.946670" lon="8.658760">
<ele>333.0</ele>
<speed>5.5</speed>
<course>63.1</course>
<desc>Speed 5.5 km/h Distance 1.05 km</desc>
<time>2010-03-01T17:23:31.11</time>
<name>1254</name>
</trkpt>
<trkpt lat="48.946677" lon="8.658780">
<ele>332.5</ele>
<speed>5.7</speed>
<course>67.5</course>
<desc>Speed 5.7 km/h Distance 1.05 km</desc>
<time>2010-03-01T17:23:32.11</time>
<name>1255</name>
</trkpt>
<trkpt lat="48.946682" lon="8.658798">
<ele>332.5</ele>
<speed>5.8</speed>
<course>69.2</course>
<desc>Speed 5.8 km/h Distance 1.05 km</desc>
<time>2010-03-01T17:23:33.11</time>
<name>1256</name>
</trkpt>
<trkpt lat="48.946687" lon="8.658818">
<ele>332.5</ele>
<speed>5.8</speed>
<course>63.1</course>
<desc>Speed 5.8 km/h Distance 1.05 km</desc>
<time>2010-03-01T17:23:34.10</time>
<name>1257</name>
</trkpt>
<trkpt lat="48.946693" lon="8.658838">
<ele>332.5</ele>
<speed>6.0</speed>
<course>69.2</course>
<desc>Speed 6.0 km/h Distance 1.05 km</desc>
<time>2010-03-01T17:23:35.11</time>
<name>1258</name>
</trkpt>
<trkpt lat="48.946698" lon="8.658858">
<ele>332.0</ele>
<speed>5.8</speed>
<course>76.8</course>
<desc>Speed 5.8 km/h Distance 1.06 km</desc>
<time>2010-03-01T17:23:36.10</time>
<name>1259</name>
</trkpt>
<trkpt lat="48.946702" lon="8.658880">
<ele>332.0</ele>
<speed>5.8</speed>
<course>69.2</course>
<desc>Speed 5.8 km/h Distance 1.06 km</desc>
<time>2010-03-01T17:23:37.11</time>
<name>1260</name>
</trkpt>
<trkpt lat="48.946707" lon="8.658900">
<ele>332.0</ele>
<speed>5.9</speed>
<course>69.2</course>
<desc>Speed 5.9 km/h Distance 1.06 km</desc>
<time>2010-03-01T17:23:38.10</time>
<name>1261</name>
</trkpt>
<trkpt lat="48.946712" lon="8.658920">
<ele>332.0</ele>
<speed>5.8</speed>
<course>63.1</course>
<desc>Speed 5.8 km/h Distance 1.06 km</desc>
<time>2010-03-01T17:23:39.10</time>
<name>1262</name>
</trkpt>
<trkpt lat="48.946718" lon="8.658940">
<ele>331.5</ele>
<speed>5.9</speed>
<course>70.7</course>
<desc>Speed 5.9 km/h Distance 1.06 km</desc>
<time>2010-03-01T17:23:40.11</time>
<name>1263</name>
</trkpt>
<trkpt lat="48.946723" lon="8.658962">
<ele>331.5</ele>
<speed>6.0</speed>
<course>63.1</course>
<desc>Speed 6.0 km/h Distance 1.06 km</desc>
<time>2010-03-01T17:23:41.10</time>
<name>1264</name>
</trkpt>
<trkpt lat="48.946730" lon="8.658982">
<ele>331.5</ele>
<speed>6.0</speed>
<course>63.1</course>
<desc>Speed 6.0 km/h Distance 1.07 km</desc>
<time>2010-03-01T17:23:42.10</time>
<name>1265</name>
</trkpt>
<trkpt lat="48.946737" lon="8.659002">
<ele>331.0</ele>
<speed>6.0</speed>
<course>70.6</course>
<desc>Speed 6.0 km/h Distance 1.07 km</desc>
<time>2010-03-01T17:23:43.10</time>
<name>1266</name>
</trkpt>
<trkpt lat="48.946742" lon="8.659023">
<ele>331.0</ele>
<speed>5.9</speed>
<course>64.9</course>
<desc>Speed 5.9 km/h Distance 1.07 km</desc>
<time>2010-03-01T17:23:44.10</time>
<name>1267</name>
</trkpt>
<trkpt lat="48.946748" lon="8.659045">
<ele>331.0</ele>
<speed>6.2</speed>
<course>83.8</course>
<desc>Speed 6.2 km/h Distance 1.07 km</desc>
<time>2010-03-01T17:23:45.10</time>
<name>1268</name>
</trkpt>
<trkpt lat="48.946750" lon="8.659068">
<ele>331.0</ele>
<speed>6.2</speed>
<course>76.8</course>
<desc>Speed 6.2 km/h Distance 1.07 km</desc>
<time>2010-03-01T17:23:46.10</time>
<name>1269</name>
</trkpt>
<trkpt lat="48.946753" lon="8.659090">
<ele>331.0</ele>
<speed>6.0</speed>
<course>75.8</course>
<desc>Speed 6.0 km/h Distance 1.07 km</desc>
<time>2010-03-01T17:23:47.10</time>
<name>1270</name>
</trkpt>
<trkpt lat="48.946757" lon="8.659110">
<ele>331.0</ele>
<speed>5.7</speed>
<course>70.6</course>
<desc>Speed 5.7 km/h Distance 1.08 km</desc>
<time>2010-03-01T17:23:48.11</time>
<name>1271</name>
</trkpt>
<trkpt lat="48.946762" lon="8.659132">
<ele>330.5</ele>
<speed>5.9</speed>
<course>76.8</course>
<desc>Speed 5.9 km/h Distance 1.08 km</desc>
<time>2010-03-01T17:23:49.10</time>
<name>1272</name>
</trkpt>
<trkpt lat="48.946765" lon="8.659153">
<ele>330.5</ele>
<speed>5.9</speed>
<course>76.8</course>
<desc>Speed 5.9 km/h Distance 1.08 km</desc>
<time>2010-03-01T17:23:50.10</time>
<name>1273</name>
</trkpt>
<trkpt lat="48.946768" lon="8.659175">
<ele>330.5</ele>
<speed>6.0</speed>
<course>76.8</course>
<desc>Speed 6.0 km/h Distance 1.08 km</desc>
<time>2010-03-01T17:23:51.10</time>
<name>1274</name>
</trkpt>
<trkpt lat="48.946772" lon="8.659197">
<ele>330.5</ele>
<speed>5.9</speed>
<course>63.1</course>
<desc>Speed 5.9 km/h Distance 1.08 km</desc>
<time>2010-03-01T17:23:52.09</time>
<name>1275</name>
</trkpt>
<trkpt lat="48.946778" lon="8.659217">
<ele>330.0</ele>
<speed>6.0</speed>
<course>76.8</course>
<desc>Speed 6.0 km/h Distance 1.08 km</desc>
<time>2010-03-01T17:23:53.09</time>
<name>1276</name>
</trkpt>
<trkpt lat="48.946782" lon="8.659238">
<ele>330.0</ele>
<speed>5.8</speed>
<course>76.8</course>
<desc>Speed 5.8 km/h Distance 1.08 km</desc>
<time>2010-03-01T17:23:54.09</time>
<name>1277</name>
</trkpt>
<trkpt lat="48.946785" lon="8.659260">
<ele>330.0</ele>
<speed>5.9</speed>
<course>69.2</course>
<desc>Speed 5.9 km/h Distance 1.09 km</desc>
<time>2010-03-01T17:23:55.09</time>
<name>1278</name>
</trkpt>
<trkpt lat="48.946790" lon="8.659280">
<ele>330.0</ele>
<speed>5.7</speed>
<course>90.0</course>
<desc>Speed 5.7 km/h Distance 1.09 km</desc>
<time>2010-03-01T17:23:56.09</time>
<name>1279</name>
</trkpt>
<trkpt lat="48.946790" lon="8.659300">
<ele>329.5</ele>
<speed>5.5</speed>
<course>90.0</course>
<desc>Speed 5.5 km/h Distance 1.09 km</desc>
<time>2010-03-01T17:23:57.09</time>
<name>1280</name>
</trkpt>
<trkpt lat="48.946790" lon="8.659320">
<ele>329.5</ele>
<speed>5.5</speed>
<course>90.0</course>
<desc>Speed 5.5 km/h Distance 1.09 km</desc>
<time>2010-03-01T17:23:58.10</time>
<name>1281</name>
</trkpt>
<trkpt lat="48.946790" lon="8.659340">
<ele>329.5</ele>
<speed>6.0</speed>
<course>108.7</course>
<desc>Speed 6.0 km/h Distance 1.09 km</desc>
<time>2010-03-01T17:23:59.09</time>
<name>1282</name>
</trkpt>
<trkpt lat="48.946787" lon="8.659355">
<ele>329.5</ele>
<speed>4.6</speed>
<course>33.2</course>
<desc>Speed 4.6 km/h Distance 1.09 km</desc>
<time>2010-03-01T17:24:00.09</time>
<name>1283</name>
</trkpt>
<trkpt lat="48.946792" lon="8.659360">
<ele>329.5</ele>
<speed>1.9</speed>
<course>48.9</course>
<desc>Speed 1.9 km/h Distance 1.09 km</desc>
<time>2010-03-01T17:24:01.09</time>
<name>1284</name>
</trkpt>
<trkpt lat="48.946798" lon="8.659372">
<ele>329.0</ele>
<speed>3.9</speed>
<course>33.7</course>
<desc>Speed 3.9 km/h Distance 1.10 km</desc>
<time>2010-03-01T17:24:02.09</time>
<name>1285</name>
</trkpt>
<trkpt lat="48.946802" lon="8.659375">
<ele>328.5</ele>
<speed>1.3</speed>
<course>341.2</course>
<desc>Speed 1.3 km/h Distance 1.10 km</desc>
<time>2010-03-01T17:24:03.09</time>
<name>1286</name>
</trkpt>
<trkpt lat="48.946808" lon="8.659372">
<ele>328.5</ele>
<speed>1.4</speed>
<course>282.3</course>
<desc>Speed 1.4 km/h Distance 1.10 km</desc>
<time>2010-03-01T17:24:04.09</time>
<name>1287</name>
</trkpt>
<trkpt lat="48.946810" lon="8.659360">
<ele>328.5</ele>
<speed>2.5</speed>
<course>293.5</course>
<desc>Speed 2.5 km/h Distance 1.10 km</desc>
<time>2010-03-01T17:24:05.09</time>
<name>1288</name>
</trkpt>
<trkpt lat="48.946813" lon="8.659348">
<ele>329.0</ele>
<speed>2.3</speed>
<course>260.4</course>
<desc>Speed 2.3 km/h Distance 1.10 km</desc>
<time>2010-03-01T17:24:06.09</time>
<name>1289</name>
</trkpt>
<trkpt lat="48.946812" lon="8.659333">
<ele>329.0</ele>
<speed>3.1</speed>
<course>256.8</course>
<desc>Speed 3.1 km/h Distance 1.10 km</desc>
<time>2010-03-01T17:24:07.09</time>
<name>1290</name>
</trkpt>
<trkpt lat="48.946808" lon="8.659312">
<ele>330.0</ele>
<speed>5.0</speed>
<course>255.8</course>
<desc>Speed 5.0 km/h Distance 1.10 km</desc>
<time>2010-03-01T17:24:08.09</time>
<name>1291</name>
</trkpt>
<trkpt lat="48.946805" lon="8.659292">
<ele>330.0</ele>
<speed>5.6</speed>
<course>282.4</course>
<desc>Speed 5.6 km/h Distance 1.10 km</desc>
<time>2010-03-01T17:24:09.09</time>
<name>1292</name>
</trkpt>
<trkpt lat="48.946807" lon="8.659280">
<ele>329.5</ele>
<speed>2.6</speed>
<course>222.5</course>
<desc>Speed 2.6 km/h Distance 1.10 km</desc>
<time>2010-03-01T17:24:10.10</time>
<name>1293</name>
</trkpt>
<trkpt lat="48.946803" lon="8.659275">
<ele>330.5</ele>
<speed>1.7</speed>
<course>284.4</course>
<desc>Speed 1.7 km/h Distance 1.10 km</desc>
<time>2010-03-01T17:24:11.09</time>
<name>1294</name>
</trkpt>
<trkpt lat="48.946805" lon="8.659265">
<ele>331.5</ele>
<speed>1.7</speed>
<course>284.4</course>
<desc>Speed 1.7 km/h Distance 1.10 km</desc>
<time>2010-03-01T17:24:12.09</time>
<name>1295</name>
</trkpt>
<trkpt lat="48.946805" lon="8.659265">
<ele>332.0</ele>
<speed>1.1</speed>
<course>257.6</course>
<desc>Speed 1.1 km/h Distance 1.10 km</desc>
<time>2010-03-01T17:24:13.09</time>
<name>1296</name>
</trkpt>
<trkpt lat="48.946803" lon="8.659253">
<ele>332.0</ele>
<speed>2.8</speed>
<course>347.4</course>
<desc>Speed 2.8 km/h Distance 1.11 km</desc>
<time>2010-03-01T17:24:14.09</time>
<name>1297</name>
</trkpt>
<trkpt lat="48.946805" lon="8.659252">
<ele>332.5</ele>
<speed>0.7</speed>
<course>270.0</course>
<desc>Speed 0.7 km/h Distance 1.11 km</desc>
<time>2010-03-01T17:24:15.09</time>
<name>1298</name>
</trkpt>
<trkpt lat="48.946805" lon="8.659248">
<ele>333.0</ele>
<speed>0.4</speed>
<course>270.0</course>
<desc>Speed 0.4 km/h Distance 1.11 km</desc>
<time>2010-03-01T17:24:16.09</time>
<name>1299</name>
</trkpt>
<trkpt lat="48.946805" lon="8.659245">
<ele>333.5</ele>
<speed>0.1</speed>
<course>270.0</course>
<desc>Speed 0.1 km/h Distance 1.11 km</desc>
<time>2010-03-01T17:24:17.08</time>
<name>1300</name>
</trkpt>
<trkpt lat="48.946805" lon="8.659245">
<ele>333.5</ele>
<speed>0.2</speed>
<course>270.0</course>
<desc>Speed 0.2 km/h Distance 1.11 km</desc>
<time>2010-03-01T17:24:18.08</time>
<name>1301</name>
</trkpt>
<trkpt lat="48.946805" lon="8.659243">
<ele>334.0</ele>
<speed>0.1</speed>
<course>270.0</course>
<desc>Speed 0.1 km/h Distance 1.11 km</desc>
<time>2010-03-01T17:24:19.08</time>
<name>1302</name>
</trkpt>
<trkpt lat="48.946805" lon="8.659242">
<ele>334.0</ele>
<speed>0.3</speed>
<course>270.0</course>
<desc>Speed 0.3 km/h Distance 1.11 km</desc>
<time>2010-03-01T17:24:20.08</time>
<name>1303</name>
</trkpt>
<trkpt lat="48.946805" lon="8.659240">
<ele>334.0</ele>
<speed>0.4</speed>
<course>270.0</course>
<desc>Speed 0.4 km/h Distance 1.11 km</desc>
<time>2010-03-01T17:24:21.09</time>
<name>1304</name>
</trkpt>
<trkpt lat="48.946805" lon="8.659238">
<ele>334.5</ele>
<speed>0.2</speed>
<course>162.5</course>
<desc>Speed 0.2 km/h Distance 1.11 km</desc>
<time>2010-03-01T17:24:22.09</time>
<name>1305</name>
</trkpt>
<trkpt lat="48.946798" lon="8.659242">
<ele>332.5</ele>
<speed>2.8</speed>
<course>90.0</course>
<desc>Speed 2.8 km/h Distance 1.11 km</desc>
<time>2010-03-01T17:24:23.09</time>
<name>1306</name>
</trkpt>
<trkpt lat="48.946798" lon="8.659252">
<ele>333.5</ele>
<speed>3.7</speed>
<course>99.6</course>
<desc>Speed 3.7 km/h Distance 1.11 km</desc>
<time>2010-03-01T17:24:24.09</time>
<name>1307</name>
</trkpt>
<trkpt lat="48.946797" lon="8.659267">
<ele>334.0</ele>
<speed>4.6</speed>
<course>99.6</course>
<desc>Speed 4.6 km/h Distance 1.11 km</desc>
<time>2010-03-01T17:24:25.08</time>
<name>1308</name>
</trkpt>
<trkpt lat="48.946795" lon="8.659282">
<ele>334.5</ele>
<speed>5.0</speed>
<course>158.5</course>
<desc>Speed 5.0 km/h Distance 1.11 km</desc>
<time>2010-03-01T17:24:26.08</time>
<name>1309</name>
</trkpt>
<trkpt lat="48.946778" lon="8.659292">
<ele>333.0</ele>
<speed>7.0</speed>
<course>110.8</course>
<desc>Speed 7.0 km/h Distance 1.11 km</desc>
<time>2010-03-01T17:24:27.09</time>
<name>1310</name>
</trkpt>
<trkpt lat="48.946775" lon="8.659305">
<ele>333.5</ele>
<speed>4.4</speed>
<course>119.7</course>
<desc>Speed 4.4 km/h Distance 1.11 km</desc>
<time>2010-03-01T17:24:28.09</time>
<name>1311</name>
</trkpt>
<trkpt lat="48.946770" lon="8.659318">
<ele>333.5</ele>
<speed>5.0</speed>
<course>110.5</course>
<desc>Speed 5.0 km/h Distance 1.11 km</desc>
<time>2010-03-01T17:24:29.08</time>
<name>1312</name>
</trkpt>
<trkpt lat="48.946768" lon="8.659325">
<ele>333.5</ele>
<speed>2.1</speed>
<course>270.0</course>
<desc>Speed 2.1 km/h Distance 1.12 km</desc>
<time>2010-03-01T17:24:30.09</time>
<name>1313</name>
</trkpt>
<trkpt lat="48.946768" lon="8.659323">
<ele>334.0</ele>
<speed>0.5</speed>
<course>135.5</course>
<desc>Speed 0.5 km/h Distance 1.12 km</desc>
<time>2010-03-01T17:24:31.09</time>
<name>1314</name>
</trkpt>
<trkpt lat="48.946765" lon="8.659328">
<ele>334.0</ele>
<speed>1.9</speed>
<course>167.4</course>
<desc>Speed 1.9 km/h Distance 1.12 km</desc>
<time>2010-03-01T17:24:32.08</time>
<name>1315</name>
</trkpt>
<trkpt lat="48.946763" lon="8.659328">
<ele>334.0</ele>
<speed>1.9</speed>
<course>12.6</course>
<desc>Speed 1.9 km/h Distance 1.12 km</desc>
<time>2010-03-01T17:24:33.09</time>
<name>1316</name>
</trkpt>
<trkpt lat="48.946765" lon="8.659328">
<ele>334.0</ele>
<speed>0.5</speed>
<course>209.2</course>
<desc>Speed 0.5 km/h Distance 1.12 km</desc>
<time>2010-03-01T17:24:34.08</time>
<name>1317</name>
</trkpt>
<trkpt lat="48.946763" lon="8.659327">
<ele>334.5</ele>
<speed>1.4</speed>
<course>255.6</course>
<desc>Speed 1.4 km/h Distance 1.12 km</desc>
<time>2010-03-01T17:24:35.08</time>
<name>1318</name>
</trkpt>
<trkpt lat="48.946762" lon="8.659317">
<ele>334.5</ele>
<speed>3.2</speed>
<course>213.2</course>
<desc>Speed 3.2 km/h Distance 1.12 km</desc>
<time>2010-03-01T17:24:36.08</time>
<name>1319</name>
</trkpt>
<trkpt lat="48.946753" lon="8.659308">
<ele>335.0</ele>
<speed>5.0</speed>
<course>200.2</course>
<desc>Speed 5.0 km/h Distance 1.12 km</desc>
<time>2010-03-01T17:24:37.07</time>
<name>1320</name>
</trkpt>
<trkpt lat="48.946742" lon="8.659302">
<ele>335.5</ele>
<speed>4.6</speed>
<course>246.5</course>
<desc>Speed 4.6 km/h Distance 1.12 km</desc>
<time>2010-03-01T17:24:38.07</time>
<name>1321</name>
</trkpt>
<trkpt lat="48.946738" lon="8.659290">
<ele>335.5</ele>
<speed>3.6</speed>
<course>270.0</course>
<desc>Speed 3.6 km/h Distance 1.12 km</desc>
<time>2010-03-01T17:24:39.07</time>
<name>1322</name>
</trkpt>
<trkpt lat="48.946738" lon="8.659280">
<ele>335.5</ele>
<speed>3.1</speed>
<course>270.0</course>
<desc>Speed 3.1 km/h Distance 1.12 km</desc>
<time>2010-03-01T17:24:40.07</time>
<name>1323</name>
</trkpt>
<trkpt lat="48.946738" lon="8.659280">
<ele>335.5</ele>
<speed>0.9</speed>
<course>270.0</course>
<desc>Speed 0.9 km/h Distance 1.12 km</desc>
<time>2010-03-01T17:24:41.08</time>
<name>1324</name>
</trkpt>
<trkpt lat="48.946738" lon="8.659275">
<ele>335.0</ele>
<speed>1.3</speed>
<course>0.0</course>
<desc>Speed 1.3 km/h Distance 1.12 km</desc>
<time>2010-03-01T17:24:42.07</time>
<name>1325</name>
</trkpt>
<trkpt lat="48.946740" lon="8.659275">
<ele>335.0</ele>
<speed>0.6</speed>
<course>0.0</course>
<desc>Speed 0.6 km/h Distance 1.12 km</desc>
<time>2010-03-01T17:24:43.07</time>
<name>1326</name>
</trkpt>
<trkpt lat="48.946740" lon="8.659275">
<ele>335.0</ele>
<speed>0.3</speed>
<course>0.0</course>
<desc>Speed 0.3 km/h Distance 1.12 km</desc>
<time>2010-03-01T17:24:44.08</time>
<name>1327</name>
</trkpt>
<trkpt lat="48.946740" lon="8.659275">
<ele>335.0</ele>
<speed>0.3</speed>
<course>0.0</course>
<desc>Speed 0.3 km/h Distance 1.12 km</desc>
<time>2010-03-01T17:24:45.08</time>
<name>1328</name>
</trkpt>
<trkpt lat="48.946740" lon="8.659275">
<ele>335.5</ele>
<speed>0.1</speed>
<course>90.0</course>
<desc>Speed 0.1 km/h Distance 1.12 km</desc>
<time>2010-03-01T17:24:46.08</time>
<name>1329</name>
</trkpt>
<trkpt lat="48.946740" lon="8.659277">
<ele>335.5</ele>
<speed>0.1</speed>
<course>90.0</course>
<desc>Speed 0.1 km/h Distance 1.12 km</desc>
<time>2010-03-01T17:24:47.07</time>
<name>1330</name>
</trkpt>
<trkpt lat="48.946740" lon="8.659277">
<ele>335.5</ele>
<speed>0.5</speed>
<course>315.5</course>
<desc>Speed 0.5 km/h Distance 1.12 km</desc>
<time>2010-03-01T17:24:48.09</time>
<name>1331</name>
</trkpt>
<trkpt lat="48.946743" lon="8.659272">
<ele>336.0</ele>
<speed>1.8</speed>
<course>44.5</course>
<desc>Speed 1.8 km/h Distance 1.12 km</desc>
<time>2010-03-01T17:24:49.07</time>
<name>1332</name>
</trkpt>
<trkpt lat="48.946747" lon="8.659277">
<ele>336.0</ele>
<speed>2.1</speed>
<course>44.5</course>
<desc>Speed 2.1 km/h Distance 1.12 km</desc>
<time>2010-03-01T17:24:50.07</time>
<name>1333</name>
</trkpt>
<trkpt lat="48.946753" lon="8.659287">
<ele>336.0</ele>
<speed>3.7</speed>
<course>48.9</course>
<desc>Speed 3.7 km/h Distance 1.12 km</desc>
<time>2010-03-01T17:24:51.07</time>
<name>1334</name>
</trkpt>
<trkpt lat="48.946760" lon="8.659298">
<ele>336.0</ele>
<speed>3.9</speed>
<course>52.7</course>
<desc>Speed 3.9 km/h Distance 1.13 km</desc>
<time>2010-03-01T17:24:52.06</time>
<name>1335</name>
</trkpt>
<trkpt lat="48.946767" lon="8.659312">
<ele>336.0</ele>
<speed>4.5</speed>
<course>63.1</course>
<desc>Speed 4.5 km/h Distance 1.13 km</desc>
<time>2010-03-01T17:24:53.06</time>
<name>1336</name>
</trkpt>
<trkpt lat="48.946772" lon="8.659327">
<ele>336.0</ele>
<speed>4.6</speed>
<course>63.1</course>
<desc>Speed 4.6 km/h Distance 1.13 km</desc>
<time>2010-03-01T17:24:54.06</time>
<name>1337</name>
</trkpt>
<trkpt lat="48.946777" lon="8.659342">
<ele>336.0</ele>
<speed>4.5</speed>
<course>49.1</course>
<desc>Speed 4.5 km/h Distance 1.13 km</desc>
<time>2010-03-01T17:24:55.09</time>
<name>1338</name>
</trkpt>
<trkpt lat="48.946783" lon="8.659353">
<ele>336.0</ele>
<speed>4.1</speed>
<course>27.9</course>
<desc>Speed 4.1 km/h Distance 1.13 km</desc>
<time>2010-03-01T17:24:56.06</time>
<name>1339</name>
</trkpt>
<trkpt lat="48.946792" lon="8.659360">
<ele>336.0</ele>
<speed>3.7</speed>
<course>23.8</course>
<desc>Speed 3.7 km/h Distance 1.13 km</desc>
<time>2010-03-01T17:24:57.06</time>
<name>1340</name>
</trkpt>
<trkpt lat="48.946802" lon="8.659367">
<ele>336.0</ele>
<speed>4.0</speed>
<course>28.6</course>
<desc>Speed 4.0 km/h Distance 1.13 km</desc>
<time>2010-03-01T17:24:58.06</time>
<name>1341</name>
</trkpt>
<trkpt lat="48.946812" lon="8.659375">
<ele>336.0</ele>
<speed>3.8</speed>
<course>12.6</course>
<desc>Speed 3.8 km/h Distance 1.13 km</desc>
<time>2010-03-01T17:24:59.06</time>
<name>1342</name>
</trkpt>
<trkpt lat="48.946822" lon="8.659378">
<ele>336.0</ele>
<speed>4.0</speed>
<course>11.2</course>
<desc>Speed 4.0 km/h Distance 1.13 km</desc>
<time>2010-03-01T17:25:00.06</time>
<name>1343</name>
</trkpt>
<trkpt lat="48.946833" lon="8.659382">
<ele>336.0</ele>
<speed>4.0</speed>
<course>11.2</course>
<desc>Speed 4.0 km/h Distance 1.14 km</desc>
<time>2010-03-01T17:25:01.07</time>
<name>1344</name>
</trkpt>
<trkpt lat="48.946845" lon="8.659385">
<ele>336.0</ele>
<speed>4.0</speed>
<course>348.8</course>
<desc>Speed 4.0 km/h Distance 1.14 km</desc>
<time>2010-03-01T17:25:02.07</time>
<name>1345</name>
</trkpt>
<trkpt lat="48.946857" lon="8.659382">
<ele>335.5</ele>
<speed>3.9</speed>
<course>354.7</course>
<desc>Speed 3.9 km/h Distance 1.14 km</desc>
<time>2010-03-01T17:25:03.06</time>
<name>1346</name>
</trkpt>
<trkpt lat="48.946870" lon="8.659380">
<ele>335.5</ele>
<speed>4.2</speed>
<course>0.0</course>
<desc>Speed 4.2 km/h Distance 1.14 km</desc>
<time>2010-03-01T17:25:04.07</time>
<name>1347</name>
</trkpt>
<trkpt lat="48.946882" lon="8.659380">
<ele>336.0</ele>
<speed>3.7</speed>
<course>0.0</course>
<desc>Speed 3.7 km/h Distance 1.14 km</desc>
<time>2010-03-01T17:25:05.07</time>
<name>1348</name>
</trkpt>
<trkpt lat="48.946893" lon="8.659380">
<ele>336.0</ele>
<speed>3.9</speed>
<course>7.7</course>
<desc>Speed 3.9 km/h Distance 1.14 km</desc>
<time>2010-03-01T17:25:06.07</time>
<name>1349</name>
</trkpt>
<trkpt lat="48.946902" lon="8.659382">
<ele>336.0</ele>
<speed>3.5</speed>
<course>0.0</course>
<desc>Speed 3.5 km/h Distance 1.14 km</desc>
<time>2010-03-01T17:25:07.07</time>
<name>1350</name>
</trkpt>
<trkpt lat="48.946910" lon="8.659382">
<ele>336.0</ele>
<speed>2.8</speed>
<course>41.9</course>
<desc>Speed 2.8 km/h Distance 1.14 km</desc>
<time>2010-03-01T17:25:08.07</time>
<name>1351</name>
</trkpt>
<trkpt lat="48.946915" lon="8.659388">
<ele>336.5</ele>
<speed>2.5</speed>
<course>26.4</course>
<desc>Speed 2.5 km/h Distance 1.15 km</desc>
<time>2010-03-01T17:25:09.06</time>
<name>1352</name>
</trkpt>
<trkpt lat="48.946922" lon="8.659393">
<ele>337.0</ele>
<speed>2.5</speed>
<course>12.6</course>
<desc>Speed 2.5 km/h Distance 1.15 km</desc>
<time>2010-03-01T17:25:10.08</time>
<name>1353</name>
</trkpt>
<trkpt lat="48.946925" lon="8.659395">
<ele>337.0</ele>
<speed>1.1</speed>
<course>352.6</course>
<desc>Speed 1.1 km/h Distance 1.15 km</desc>
<time>2010-03-01T17:25:11.07</time>
<name>1354</name>
</trkpt>
<trkpt lat="48.946932" lon="8.659393">
<ele>337.0</ele>
<speed>2.1</speed>
<course>355.0</course>
<desc>Speed 2.1 km/h Distance 1.15 km</desc>
<time>2010-03-01T17:25:12.07</time>
<name>1355</name>
</trkpt>
<trkpt lat="48.946940" lon="8.659392">
<ele>336.5</ele>
<speed>2.9</speed>
<course>2.2</course>
<desc>Speed 2.9 km/h Distance 1.15 km</desc>
<time>2010-03-01T17:25:13.07</time>
<name>1356</name>
</trkpt>
<trkpt lat="48.946952" lon="8.659392">
<ele>336.5</ele>
<speed>3.8</speed>
<course>17.6</course>
<desc>Speed 3.8 km/h Distance 1.15 km</desc>
<time>2010-03-01T17:25:14.06</time>
<name>1357</name>
</trkpt>
<trkpt lat="48.946962" lon="8.659397">
<ele>336.0</ele>
<speed>4.0</speed>
<course>12.6</course>
<desc>Speed 4.0 km/h Distance 1.15 km</desc>
<time>2010-03-01T17:25:15.06</time>
<name>1358</name>
</trkpt>
<trkpt lat="48.946972" lon="8.659400">
<ele>336.0</ele>
<speed>3.7</speed>
<course>348.8</course>
<desc>Speed 3.7 km/h Distance 1.15 km</desc>
<time>2010-03-01T17:25:16.06</time>
<name>1359</name>
</trkpt>
<trkpt lat="48.946983" lon="8.659397">
<ele>336.0</ele>
<speed>3.9</speed>
<course>326.8</course>
<desc>Speed 3.9 km/h Distance 1.15 km</desc>
<time>2010-03-01T17:25:17.09</time>
<name>1360</name>
</trkpt>
<trkpt lat="48.946992" lon="8.659388">
<ele>336.0</ele>
<speed>3.6</speed>
<course>321.9</course>
<desc>Speed 3.6 km/h Distance 1.15 km</desc>
<time>2010-03-01T17:25:18.06</time>
<name>1361</name>
</trkpt>
<trkpt lat="48.947000" lon="8.659378">
<ele>336.5</ele>
<speed>3.9</speed>
<course>331.4</course>
<desc>Speed 3.9 km/h Distance 1.16 km</desc>
<time>2010-03-01T17:25:19.06</time>
<name>1362</name>
</trkpt>
<trkpt lat="48.947010" lon="8.659370">
<ele>336.5</ele>
<speed>4.1</speed>
<course>330.6</course>
<desc>Speed 4.1 km/h Distance 1.16 km</desc>
<time>2010-03-01T17:25:20.06</time>
<name>1363</name>
</trkpt>
<trkpt lat="48.947022" lon="8.659360">
<ele>336.5</ele>
<speed>4.6</speed>
<course>323.1</course>
<desc>Speed 4.6 km/h Distance 1.16 km</desc>
<time>2010-03-01T17:25:21.06</time>
<name>1364</name>
</trkpt>
<trkpt lat="48.947033" lon="8.659347">
<ele>336.5</ele>
<speed>5.3</speed>
<course>326.6</course>
<desc>Speed 5.3 km/h Distance 1.16 km</desc>
<time>2010-03-01T17:25:22.05</time>
<name>1365</name>
</trkpt>
<trkpt lat="48.947045" lon="8.659335">
<ele>336.0</ele>
<speed>4.6</speed>
<course>326.6</course>
<desc>Speed 4.6 km/h Distance 1.16 km</desc>
<time>2010-03-01T17:25:23.05</time>
<name>1366</name>
</trkpt>
<trkpt lat="48.947057" lon="8.659323">
<ele>336.5</ele>
<speed>4.6</speed>
<course>317.2</course>
<desc>Speed 4.6 km/h Distance 1.16 km</desc>
<time>2010-03-01T17:25:24.05</time>
<name>1367</name>
</trkpt>
<trkpt lat="48.947065" lon="8.659312">
<ele>336.5</ele>
<speed>4.2</speed>
<course>322.5</course>
<desc>Speed 4.2 km/h Distance 1.16 km</desc>
<time>2010-03-01T17:25:25.06</time>
<name>1368</name>
</trkpt>
<trkpt lat="48.947075" lon="8.659300">
<ele>336.5</ele>
<speed>4.3</speed>
<course>321.9</course>
<desc>Speed 4.3 km/h Distance 1.17 km</desc>
<time>2010-03-01T17:25:26.05</time>
<name>1369</name>
</trkpt>
<trkpt lat="48.947083" lon="8.659290">
<ele>336.5</ele>
<speed>4.1</speed>
<course>321.9</course>
<desc>Speed 4.1 km/h Distance 1.17 km</desc>
<time>2010-03-01T17:25:27.05</time>
<name>1370</name>
</trkpt>
<trkpt lat="48.947092" lon="8.659280">
<ele>336.5</ele>
<speed>4.1</speed>
<course>345.1</course>
<desc>Speed 4.1 km/h Distance 1.17 km</desc>
<time>2010-03-01T17:25:28.05</time>
<name>1371</name>
</trkpt>
<trkpt lat="48.947100" lon="8.659277">
<ele>337.0</ele>
<speed>2.7</speed>
<course>217.2</course>
<desc>Speed 2.7 km/h Distance 1.17 km</desc>
<time>2010-03-01T17:25:29.23</time>
<name>1372</name>
</trkpt>
<trkpt lat="48.947098" lon="8.659275">
<ele>337.0</ele>
<speed>0.6</speed>
<course>8.1</course>
<desc>Speed 0.6 km/h Distance 1.17 km</desc>
<time>2010-03-01T17:25:30.05</time>
<name>1373</name>
</trkpt>
<trkpt lat="48.947103" lon="8.659277">
<ele>337.5</ele>
<speed>2.3</speed>
<course>8.1</course>
<desc>Speed 2.3 km/h Distance 1.17 km</desc>
<time>2010-03-01T17:25:31.05</time>
<name>1374</name>
</trkpt>
<trkpt lat="48.947103" lon="8.659275">
<ele>337.5</ele>
<speed>0.4</speed>
<course>0.0</course>
<desc>Speed 0.4 km/h Distance 1.17 km</desc>
<time>2010-03-01T17:25:32.05</time>
<name>1375</name>
</trkpt>
<trkpt lat="48.947105" lon="8.659275">
<ele>337.5</ele>
<speed>0.4</speed>
<course>0.0</course>
<desc>Speed 0.4 km/h Distance 1.17 km</desc>
<time>2010-03-01T17:25:33.05</time>
<name>1376</name>
</trkpt>
<trkpt lat="48.947105" lon="8.659273">
<ele>337.5</ele>
<speed>0.5</speed>
<course>147.7</course>
<desc>Speed 0.5 km/h Distance 1.17 km</desc>
<time>2010-03-01T17:25:34.05</time>
<name>1377</name>
</trkpt>
<trkpt lat="48.947100" lon="8.659278">
<ele>337.5</ele>
<speed>2.3</speed>
<course>146.8</course>
<desc>Speed 2.3 km/h Distance 1.17 km</desc>
<time>2010-03-01T17:25:35.06</time>
<name>1378</name>
</trkpt>
<trkpt lat="48.947095" lon="8.659283">
<ele>338.0</ele>
<speed>2.8</speed>
<course>157.8</course>
<desc>Speed 2.8 km/h Distance 1.17 km</desc>
<time>2010-03-01T17:25:36.05</time>
<name>1379</name>
</trkpt>
<trkpt lat="48.947090" lon="8.659287">
<ele>338.0</ele>
<speed>1.6</speed>
<course>213.7</course>
<desc>Speed 1.6 km/h Distance 1.17 km</desc>
<time>2010-03-01T17:25:37.05</time>
<name>1380</name>
</trkpt>
<trkpt lat="48.947087" lon="8.659283">
<ele>338.0</ele>
<speed>1.7</speed>
<course>146.8</course>
<desc>Speed 1.7 km/h Distance 1.17 km</desc>
<time>2010-03-01T17:25:38.04</time>
<name>1381</name>
</trkpt>
<trkpt lat="48.947082" lon="8.659288">
<ele>338.0</ele>
<speed>2.3</speed>
<course>161.2</course>
<desc>Speed 2.3 km/h Distance 1.17 km</desc>
<time>2010-03-01T17:25:39.05</time>
<name>1382</name>
</trkpt>
<trkpt lat="48.947075" lon="8.659292">
<ele>338.0</ele>
<speed>3.2</speed>
<course>106.9</course>
<desc>Speed 3.2 km/h Distance 1.17 km</desc>
<time>2010-03-01T17:25:40.05</time>
<name>1383</name>
</trkpt>
<trkpt lat="48.947073" lon="8.659300">
<ele>339.0</ele>
<speed>2.1</speed>
<course>146.8</course>
<desc>Speed 2.1 km/h Distance 1.17 km</desc>
<time>2010-03-01T17:25:41.05</time>
<name>1384</name>
</trkpt>
<trkpt lat="48.947068" lon="8.659305">
<ele>338.5</ele>
<speed>2.6</speed>
<course>138.6</course>
<desc>Speed 2.6 km/h Distance 1.18 km</desc>
<time>2010-03-01T17:25:42.05</time>
<name>1385</name>
</trkpt>
<trkpt lat="48.947063" lon="8.659312">
<ele>338.5</ele>
<speed>2.8</speed>
<course>127.4</course>
<desc>Speed 2.8 km/h Distance 1.18 km</desc>
<time>2010-03-01T17:25:43.05</time>
<name>1386</name>
</trkpt>
<trkpt lat="48.947058" lon="8.659322">
<ele>338.5</ele>
<speed>3.1</speed>
<course>117.0</course>
<desc>Speed 3.1 km/h Distance 1.18 km</desc>
<time>2010-03-01T17:25:44.05</time>
<name>1387</name>
</trkpt>
<trkpt lat="48.947055" lon="8.659332">
<ele>338.5</ele>
<speed>3.0</speed>
<course>121.4</course>
<desc>Speed 3.0 km/h Distance 1.18 km</desc>
<time>2010-03-01T17:25:45.05</time>
<name>1388</name>
</trkpt>
<trkpt lat="48.947052" lon="8.659340">
<ele>338.5</ele>
<speed>2.8</speed>
<course>127.0</course>
<desc>Speed 2.8 km/h Distance 1.18 km</desc>
<time>2010-03-01T17:25:46.05</time>
<name>1389</name>
</trkpt>
<trkpt lat="48.947048" lon="8.659347">
<ele>338.5</ele>
<speed>1.7</speed>
<course>12.6</course>
<desc>Speed 1.7 km/h Distance 1.18 km</desc>
<time>2010-03-01T17:25:47.04</time>
<name>1390</name>
</trkpt>
<trkpt lat="48.947050" lon="8.659347">
<ele>338.5</ele>
<speed>0.5</speed>
<course>12.6</course>
<desc>Speed 0.5 km/h Distance 1.18 km</desc>
<time>2010-03-01T17:25:48.05</time>
<name>1391</name>
</trkpt>
<trkpt lat="48.947050" lon="8.659347">
<ele>338.5</ele>
<speed>0.2</speed>
<course>12.6</course>
<desc>Speed 0.2 km/h Distance 1.18 km</desc>
<time>2010-03-01T17:25:49.05</time>
<name>1392</name>
</trkpt>
<trkpt lat="48.947052" lon="8.659347">
<ele>338.0</ele>
<speed>0.4</speed>
<course>330.8</course>
<desc>Speed 0.4 km/h Distance 1.18 km</desc>
<time>2010-03-01T17:25:50.05</time>
<name>1393</name>
</trkpt>
<trkpt lat="48.947053" lon="8.659345">
<ele>338.0</ele>
<speed>0.7</speed>
<course>330.8</course>
<desc>Speed 0.7 km/h Distance 1.18 km</desc>
<time>2010-03-01T17:25:51.05</time>
<name>1394</name>
</trkpt>
<trkpt lat="48.947053" lon="8.659345">
<ele>338.0</ele>
<speed>0.6</speed>
<course>90.0</course>
<desc>Speed 0.6 km/h Distance 1.18 km</desc>
<time>2010-03-01T17:25:52.05</time>
<name>1395</name>
</trkpt>
<trkpt lat="48.947053" lon="8.659347">
<ele>338.0</ele>
<speed>0.4</speed>
<course>90.0</course>
<desc>Speed 0.4 km/h Distance 1.18 km</desc>
<time>2010-03-01T17:25:53.05</time>
<name>1396</name>
</trkpt>
<trkpt lat="48.947053" lon="8.659347">
<ele>338.0</ele>
<speed>0.2</speed>
<course>90.0</course>
<desc>Speed 0.2 km/h Distance 1.18 km</desc>
<time>2010-03-01T17:25:54.05</time>
<name>1397</name>
</trkpt>
<trkpt lat="48.947053" lon="8.659350">
<ele>337.5</ele>
<speed>1.0</speed>
<course>75.6</course>
<desc>Speed 1.0 km/h Distance 1.18 km</desc>
<time>2010-03-01T17:25:55.04</time>
<name>1398</name>
</trkpt>
<trkpt lat="48.947055" lon="8.659360">
<ele>337.5</ele>
<speed>2.3</speed>
<course>77.8</course>
<desc>Speed 2.3 km/h Distance 1.18 km</desc>
<time>2010-03-01T17:25:56.04</time>
<name>1399</name>
</trkpt>
<trkpt lat="48.947057" lon="8.659372">
<ele>337.5</ele>
<speed>3.2</speed>
<course>100.7</course>
<desc>Speed 3.2 km/h Distance 1.18 km</desc>
<time>2010-03-01T17:25:57.04</time>
<name>1400</name>
</trkpt>
<trkpt lat="48.947055" lon="8.659385">
<ele>337.5</ele>
<speed>3.4</speed>
<course>100.8</course>
<desc>Speed 3.4 km/h Distance 1.18 km</desc>
<time>2010-03-01T17:25:58.04</time>
<name>1401</name>
</trkpt>
<trkpt lat="48.947053" lon="8.659398">
<ele>337.0</ele>
<speed>3.6</speed>
<course>77.7</course>
<desc>Speed 3.6 km/h Distance 1.18 km</desc>
<time>2010-03-01T17:25:59.04</time>
<name>1402</name>
</trkpt>
<trkpt lat="48.947055" lon="8.659410">
<ele>337.0</ele>
<speed>3.3</speed>
<course>79.3</course>
<desc>Speed 3.3 km/h Distance 1.18 km</desc>
<time>2010-03-01T17:26:00.05</time>
<name>1403</name>
</trkpt>
<trkpt lat="48.947057" lon="8.659423">
<ele>337.0</ele>
<speed>3.7</speed>
<course>71.3</course>
<desc>Speed 3.7 km/h Distance 1.19 km</desc>
<time>2010-03-01T17:26:01.04</time>
<name>1404</name>
</trkpt>
<trkpt lat="48.947060" lon="8.659438">
<ele>337.0</ele>
<speed>4.0</speed>
<course>52.7</course>
<desc>Speed 4.0 km/h Distance 1.19 km</desc>
<time>2010-03-01T17:26:02.04</time>
<name>1405</name>
</trkpt>
<trkpt lat="48.947067" lon="8.659452">
<ele>337.0</ele>
<speed>4.2</speed>
<course>58.6</course>
<desc>Speed 4.2 km/h Distance 1.19 km</desc>
<time>2010-03-01T17:26:03.05</time>
<name>1406</name>
</trkpt>
<trkpt lat="48.947073" lon="8.659468">
<ele>337.0</ele>
<speed>4.7</speed>
<course>73.1</course>
<desc>Speed 4.7 km/h Distance 1.19 km</desc>
<time>2010-03-01T17:26:04.03</time>
<name>1407</name>
</trkpt>
<trkpt lat="48.947077" lon="8.659485">
<ele>337.0</ele>
<speed>4.4</speed>
<course>56.9</course>
<desc>Speed 4.4 km/h Distance 1.19 km</desc>
<time>2010-03-01T17:26:05.04</time>
<name>1408</name>
</trkpt>
<trkpt lat="48.947082" lon="8.659497">
<ele>337.0</ele>
<speed>3.3</speed>
<course>56.9</course>
<desc>Speed 3.3 km/h Distance 1.19 km</desc>
<time>2010-03-01T17:26:06.03</time>
<name>1409</name>
</trkpt>
<trkpt lat="48.947087" lon="8.659508">
<ele>336.5</ele>
<speed>3.5</speed>
<course>52.7</course>
<desc>Speed 3.5 km/h Distance 1.19 km</desc>
<time>2010-03-01T17:26:07.04</time>
<name>1410</name>
</trkpt>
<trkpt lat="48.947093" lon="8.659522">
<ele>336.5</ele>
<speed>3.9</speed>
<course>46.4</course>
<desc>Speed 3.9 km/h Distance 1.19 km</desc>
<time>2010-03-01T17:26:08.04</time>
<name>1411</name>
</trkpt>
<trkpt lat="48.947102" lon="8.659535">
<ele>336.5</ele>
<speed>4.3</speed>
<course>55.9</course>
<desc>Speed 4.3 km/h Distance 1.20 km</desc>
<time>2010-03-01T17:26:09.03</time>
<name>1412</name>
</trkpt>
<trkpt lat="48.947108" lon="8.659550">
<ele>336.5</ele>
<speed>4.0</speed>
<course>46.2</course>
<desc>Speed 4.0 km/h Distance 1.20 km</desc>
<time>2010-03-01T17:26:10.05</time>
<name>1413</name>
</trkpt>
<trkpt lat="48.947117" lon="8.659563">
<ele>336.0</ele>
<speed>4.3</speed>
<course>52.6</course>
<desc>Speed 4.3 km/h Distance 1.20 km</desc>
<time>2010-03-01T17:26:11.04</time>
<name>1414</name>
</trkpt>
<trkpt lat="48.947123" lon="8.659577">
<ele>335.5</ele>
<speed>4.0</speed>
<course>33.2</course>
<desc>Speed 4.0 km/h Distance 1.20 km</desc>
<time>2010-03-01T17:26:12.04</time>
<name>1415</name>
</trkpt>
<trkpt lat="48.947132" lon="8.659585">
<ele>336.5</ele>
<speed>3.3</speed>
<course>63.1</course>
<desc>Speed 3.3 km/h Distance 1.20 km</desc>
<time>2010-03-01T17:26:13.04</time>
<name>1416</name>
</trkpt>
<trkpt lat="48.947137" lon="8.659600">
<ele>336.0</ele>
<speed>4.0</speed>
<course>63.1</course>
<desc>Speed 4.0 km/h Distance 1.20 km</desc>
<time>2010-03-01T17:26:14.04</time>
<name>1417</name>
</trkpt>
<trkpt lat="48.947142" lon="8.659615">
<ele>336.0</ele>
<speed>4.0</speed>
<course>60.1</course>
<desc>Speed 4.0 km/h Distance 1.20 km</desc>
<time>2010-03-01T17:26:16.30</time>
<name>1418</name>
</trkpt>
<trkpt lat="48.947147" lon="8.659628">
<ele>336.0</ele>
<speed>3.9</speed>
<course>58.7</course>
<desc>Speed 3.9 km/h Distance 1.20 km</desc>
<time>2010-03-01T17:26:17.04</time>
<name>1419</name>
</trkpt>
<trkpt lat="48.947153" lon="8.659645">
<ele>335.5</ele>
<speed>4.6</speed>
<course>52.7</course>
<desc>Speed 4.6 km/h Distance 1.21 km</desc>
<time>2010-03-01T17:26:18.04</time>
<name>1420</name>
</trkpt>
<trkpt lat="48.947160" lon="8.659658">
<ele>335.5</ele>
<speed>4.3</speed>
<course>63.1</course>
<desc>Speed 4.3 km/h Distance 1.21 km</desc>
<time>2010-03-01T17:26:19.04</time>
<name>1421</name>
</trkpt>
<trkpt lat="48.947165" lon="8.659673">
<ele>335.5</ele>
<speed>4.2</speed>
<course>60.1</course>
<desc>Speed 4.2 km/h Distance 1.21 km</desc>
<time>2010-03-01T17:26:20.04</time>
<name>1422</name>
</trkpt>
<trkpt lat="48.947170" lon="8.659687">
<ele>335.0</ele>
<speed>3.9</speed>
<course>52.7</course>
<desc>Speed 3.9 km/h Distance 1.21 km</desc>
<time>2010-03-01T17:26:21.04</time>
<name>1423</name>
</trkpt>
<trkpt lat="48.947177" lon="8.659700">
<ele>335.0</ele>
<speed>3.7</speed>
<course>73.3</course>
<desc>Speed 3.7 km/h Distance 1.21 km</desc>
<time>2010-03-01T17:26:22.04</time>
<name>1424</name>
</trkpt>
<trkpt lat="48.947178" lon="8.659708">
<ele>335.0</ele>
<speed>2.3</speed>
<course>58.6</course>
<desc>Speed 2.3 km/h Distance 1.21 km</desc>
<time>2010-03-01T17:26:23.04</time>
<name>1425</name>
</trkpt>
<trkpt lat="48.947182" lon="8.659717">
<ele>335.5</ele>
<speed>2.5</speed>
<course>52.4</course>
<desc>Speed 2.5 km/h Distance 1.21 km</desc>
<time>2010-03-01T17:26:24.04</time>
<name>1426</name>
</trkpt>
<trkpt lat="48.947187" lon="8.659727">
<ele>335.0</ele>
<speed>3.6</speed>
<course>38.1</course>
<desc>Speed 3.6 km/h Distance 1.21 km</desc>
<time>2010-03-01T17:26:25.04</time>
<name>1427</name>
</trkpt>
<trkpt lat="48.947195" lon="8.659737">
<ele>335.0</ele>
<speed>3.7</speed>
<course>25.2</course>
<desc>Speed 3.7 km/h Distance 1.21 km</desc>
<time>2010-03-01T17:26:26.04</time>
<name>1428</name>
</trkpt>
<trkpt lat="48.947207" lon="8.659745">
<ele>334.5</ele>
<speed>5.0</speed>
<course>52.8</course>
<desc>Speed 5.0 km/h Distance 1.22 km</desc>
<time>2010-03-01T17:26:27.04</time>
<name>1429</name>
</trkpt>
<trkpt lat="48.947212" lon="8.659755">
<ele>334.0</ele>
<speed>3.1</speed>
<course>62.6</course>
<desc>Speed 3.1 km/h Distance 1.22 km</desc>
<time>2010-03-01T17:26:28.04</time>
<name>1430</name>
</trkpt>
<trkpt lat="48.947213" lon="8.659760">
<ele>334.0</ele>
<speed>1.4</speed>
<course>62.6</course>
<desc>Speed 1.4 km/h Distance 1.22 km</desc>
<time>2010-03-01T17:26:29.04</time>
<name>1431</name>
</trkpt>
<trkpt lat="48.947213" lon="8.659760">
<ele>334.0</ele>
<speed>0.7</speed>
<course>270.0</course>
<desc>Speed 0.7 km/h Distance 1.22 km</desc>
<time>2010-03-01T17:26:30.04</time>
<name>1432</name>
</trkpt>
<trkpt lat="48.947213" lon="8.659758">
<ele>333.5</ele>
<speed>0.8</speed>
<course>90.0</course>
<desc>Speed 0.8 km/h Distance 1.22 km</desc>
<time>2010-03-01T17:26:31.04</time>
<name>1433</name>
</trkpt>
<trkpt lat="48.947213" lon="8.659760">
<ele>333.5</ele>
<speed>0.2</speed>
<course>23.0</course>
<desc>Speed 0.2 km/h Distance 1.22 km</desc>
<time>2010-03-01T17:26:32.04</time>
<name>1434</name>
</trkpt>
<trkpt lat="48.947217" lon="8.659762">
<ele>333.0</ele>
<speed>0.9</speed>
<course>63.2</course>
<desc>Speed 0.9 km/h Distance 1.22 km</desc>
<time>2010-03-01T17:26:33.04</time>
<name>1435</name>
</trkpt>
<trkpt lat="48.947220" lon="8.659772">
<ele>333.0</ele>
<speed>2.5</speed>
<course>79.2</course>
<desc>Speed 2.5 km/h Distance 1.22 km</desc>
<time>2010-03-01T17:26:34.04</time>
<name>1436</name>
</trkpt>
<trkpt lat="48.947222" lon="8.659785">
<ele>333.0</ele>
<speed>3.6</speed>
<course>90.0</course>
<desc>Speed 3.6 km/h Distance 1.22 km</desc>
<time>2010-03-01T17:26:35.04</time>
<name>1437</name>
</trkpt>
<trkpt lat="48.947222" lon="8.659802">
<ele>333.0</ele>
<speed>4.1</speed>
<course>99.6</course>
<desc>Speed 4.1 km/h Distance 1.22 km</desc>
<time>2010-03-01T17:26:36.04</time>
<name>1438</name>
</trkpt>
<trkpt lat="48.947220" lon="8.659817">
<ele>333.0</ele>
<speed>4.2</speed>
<course>108.6</course>
<desc>Speed 4.2 km/h Distance 1.22 km</desc>
<time>2010-03-01T17:26:37.04</time>
<name>1439</name>
</trkpt>
<trkpt lat="48.947217" lon="8.659832">
<ele>333.5</ele>
<speed>4.9</speed>
<course>106.9</course>
<desc>Speed 4.9 km/h Distance 1.22 km</desc>
<time>2010-03-01T17:26:38.04</time>
<name>1440</name>
</trkpt>
<trkpt lat="48.947213" lon="8.659848">
<ele>333.5</ele>
<speed>4.9</speed>
<course>90.0</course>
<desc>Speed 4.9 km/h Distance 1.22 km</desc>
<time>2010-03-01T17:26:39.04</time>
<name>1441</name>
</trkpt>
<trkpt lat="48.947213" lon="8.659863">
<ele>333.5</ele>
<speed>4.3</speed>
<course>127.3</course>
<desc>Speed 4.3 km/h Distance 1.22 km</desc>
<time>2010-03-01T17:26:40.04</time>
<name>1442</name>
</trkpt>
<trkpt lat="48.947207" lon="8.659877">
<ele>333.5</ele>
<speed>4.5</speed>
<course>100.7</course>
<desc>Speed 4.5 km/h Distance 1.23 km</desc>
<time>2010-03-01T17:26:41.04</time>
<name>1443</name>
</trkpt>
<trkpt lat="48.947205" lon="8.659890">
<ele>333.0</ele>
<speed>4.9</speed>
<course>58.7</course>
<desc>Speed 4.9 km/h Distance 1.23 km</desc>
<time>2010-03-01T17:26:42.04</time>
<name>1444</name>
</trkpt>
<trkpt lat="48.947212" lon="8.659907">
<ele>332.5</ele>
<speed>4.1</speed>
<course>102.3</course>
<desc>Speed 4.1 km/h Distance 1.23 km</desc>
<time>2010-03-01T17:26:43.04</time>
<name>1445</name>
</trkpt>
<trkpt lat="48.947210" lon="8.659918">
<ele>333.0</ele>
<speed>3.5</speed>
<course>106.9</course>
<desc>Speed 3.5 km/h Distance 1.23 km</desc>
<time>2010-03-01T17:26:44.04</time>
<name>1446</name>
</trkpt>
<trkpt lat="48.947208" lon="8.659927">
<ele>333.0</ele>
<speed>3.0</speed>
<course>110.2</course>
<desc>Speed 3.0 km/h Distance 1.23 km</desc>
<time>2010-03-01T17:26:45.04</time>
<name>1447</name>
</trkpt>
<trkpt lat="48.947207" lon="8.659933">
<ele>333.0</ele>
<speed>2.5</speed>
<course>90.0</course>
<desc>Speed 2.5 km/h Distance 1.23 km</desc>
<time>2010-03-01T17:26:46.04</time>
<name>1448</name>
</trkpt>
<trkpt lat="48.947207" lon="8.659947">
<ele>333.0</ele>
<speed>3.3</speed>
<course>90.0</course>
<desc>Speed 3.3 km/h Distance 1.23 km</desc>
<time>2010-03-01T17:26:47.04</time>
<name>1449</name>
</trkpt>
<trkpt lat="48.947207" lon="8.659962">
<ele>333.5</ele>
<speed>4.4</speed>
<course>116.9</course>
<desc>Speed 4.4 km/h Distance 1.23 km</desc>
<time>2010-03-01T17:26:48.04</time>
<name>1450</name>
</trkpt>
<trkpt lat="48.947202" lon="8.659977">
<ele>333.5</ele>
<speed>4.5</speed>
<course>121.3</course>
<desc>Speed 4.5 km/h Distance 1.23 km</desc>
<time>2010-03-01T17:26:49.04</time>
<name>1451</name>
</trkpt>
<trkpt lat="48.947195" lon="8.659993">
<ele>334.0</ele>
<speed>4.4</speed>
<course>119.7</course>
<desc>Speed 4.4 km/h Distance 1.24 km</desc>
<time>2010-03-01T17:26:50.04</time>
<name>1452</name>
</trkpt>
<trkpt lat="48.947190" lon="8.660007">
<ele>334.0</ele>
<speed>3.7</speed>
<course>90.0</course>
<desc>Speed 3.7 km/h Distance 1.24 km</desc>
<time>2010-03-01T17:26:51.04</time>
<name>1453</name>
</trkpt>
<trkpt lat="48.947190" lon="8.660017">
<ele>334.5</ele>
<speed>2.6</speed>
<course>142.8</course>
<desc>Speed 2.6 km/h Distance 1.24 km</desc>
<time>2010-03-01T17:26:52.04</time>
<name>1454</name>
</trkpt>
<trkpt lat="48.947188" lon="8.660018">
<ele>334.5</ele>
<speed>0.9</speed>
<course>69.5</course>
<desc>Speed 0.9 km/h Distance 1.24 km</desc>
<time>2010-03-01T17:26:53.04</time>
<name>1455</name>
</trkpt>
<trkpt lat="48.947190" lon="8.660025">
<ele>334.5</ele>
<speed>1.9</speed>
<course>100.7</course>
<desc>Speed 1.9 km/h Distance 1.24 km</desc>
<time>2010-03-01T17:26:54.04</time>
<name>1456</name>
</trkpt>
<trkpt lat="48.947188" lon="8.660038">
<ele>334.0</ele>
<speed>3.8</speed>
<course>106.9</course>
<desc>Speed 3.8 km/h Distance 1.24 km</desc>
<time>2010-03-01T17:26:55.04</time>
<name>1457</name>
</trkpt>
<trkpt lat="48.947185" lon="8.660055">
<ele>334.5</ele>
<speed>4.5</speed>
<course>106.9</course>
<desc>Speed 4.5 km/h Distance 1.24 km</desc>
<time>2010-03-01T17:26:56.04</time>
<name>1458</name>
</trkpt>
<trkpt lat="48.947182" lon="8.660072">
<ele>334.5</ele>
<speed>4.8</speed>
<course>116.9</course>
<desc>Speed 4.8 km/h Distance 1.24 km</desc>
<time>2010-03-01T17:26:57.04</time>
<name>1459</name>
</trkpt>
<trkpt lat="48.947177" lon="8.660087">
<ele>334.5</ele>
<speed>4.8</speed>
<course>133.6</course>
<desc>Speed 4.8 km/h Distance 1.24 km</desc>
<time>2010-03-01T17:26:58.04</time>
<name>1460</name>
</trkpt>
<trkpt lat="48.947168" lon="8.660100">
<ele>334.5</ele>
<speed>4.6</speed>
<course>119.7</course>
<desc>Speed 4.6 km/h Distance 1.24 km</desc>
<time>2010-03-01T17:26:59.04</time>
<name>1461</name>
</trkpt>
<trkpt lat="48.947163" lon="8.660113">
<ele>334.5</ele>
<speed>4.5</speed>
<course>74.6</course>
<desc>Speed 4.5 km/h Distance 1.25 km</desc>
<time>2010-03-01T17:27:00.04</time>
<name>1462</name>
</trkpt>
<trkpt lat="48.947167" lon="8.660132">
<ele>335.5</ele>
<speed>5.1</speed>
<course>114.5</course>
<desc>Speed 5.1 km/h Distance 1.25 km</desc>
<time>2010-03-01T17:27:01.04</time>
<name>1463</name>
</trkpt>
<trkpt lat="48.947162" lon="8.660148">
<ele>336.0</ele>
<speed>4.5</speed>
<course>119.7</course>
<desc>Speed 4.5 km/h Distance 1.25 km</desc>
<time>2010-03-01T17:27:02.04</time>
<name>1464</name>
</trkpt>
<trkpt lat="48.947157" lon="8.660162">
<ele>336.0</ele>
<speed>4.1</speed>
<course>112.5</course>
<desc>Speed 4.1 km/h Distance 1.25 km</desc>
<time>2010-03-01T17:27:03.04</time>
<name>1465</name>
</trkpt>
<trkpt lat="48.947152" lon="8.660180">
<ele>336.5</ele>
<speed>5.4</speed>
<course>119.8</course>
<desc>Speed 5.4 km/h Distance 1.25 km</desc>
<time>2010-03-01T17:27:04.04</time>
<name>1466</name>
</trkpt>
<trkpt lat="48.947147" lon="8.660193">
<ele>336.5</ele>
<speed>4.5</speed>
<course>107.1</course>
<desc>Speed 4.5 km/h Distance 1.25 km</desc>
<time>2010-03-01T17:27:05.04</time>
<name>1467</name>
</trkpt>
<trkpt lat="48.947145" lon="8.660202">
<ele>337.0</ele>
<speed>2.8</speed>
<course>0.0</course>
<desc>Speed 2.8 km/h Distance 1.25 km</desc>
<time>2010-03-01T17:27:06.04</time>
<name>1468</name>
</trkpt>
<trkpt lat="48.947150" lon="8.660202">
<ele>337.0</ele>
<speed>0.5</speed>
<course>51.9</course>
<desc>Speed 0.5 km/h Distance 1.25 km</desc>
<time>2010-03-01T17:27:07.04</time>
<name>1469</name>
</trkpt>
<trkpt lat="48.947152" lon="8.660205">
<ele>337.5</ele>
<speed>0.8</speed>
<course>117.4</course>
<desc>Speed 0.8 km/h Distance 1.25 km</desc>
<time>2010-03-01T17:27:08.04</time>
<name>1470</name>
</trkpt>
<trkpt lat="48.947150" lon="8.660210">
<ele>337.5</ele>
<speed>1.7</speed>
<course>180.0</course>
<desc>Speed 1.7 km/h Distance 1.25 km</desc>
<time>2010-03-01T17:27:09.04</time>
<name>1471</name>
</trkpt>
<trkpt lat="48.947147" lon="8.660210">
<ele>338.0</ele>
<speed>1.0</speed>
<course>270.0</course>
<desc>Speed 1.0 km/h Distance 1.25 km</desc>
<time>2010-03-01T17:27:10.04</time>
<name>1472</name>
</trkpt>
<trkpt lat="48.947147" lon="8.660205">
<ele>338.0</ele>
<speed>1.9</speed>
<course>319.1</course>
<desc>Speed 1.9 km/h Distance 1.25 km</desc>
<time>2010-03-01T17:27:11.04</time>
<name>1473</name>
</trkpt>
<trkpt lat="48.947152" lon="8.660198">
<ele>338.5</ele>
<speed>2.0</speed>
<course>23.0</course>
<desc>Speed 2.0 km/h Distance 1.25 km</desc>
<time>2010-03-01T17:27:12.04</time>
<name>1474</name>
</trkpt>
<trkpt lat="48.947155" lon="8.660200">
<ele>339.0</ele>
<speed>0.5</speed>
<course>90.0</course>
<desc>Speed 0.5 km/h Distance 1.26 km</desc>
<time>2010-03-01T17:27:13.04</time>
<name>1475</name>
</trkpt>
<trkpt lat="48.947155" lon="8.660202">
<ele>339.0</ele>
<speed>0.6</speed>
<course>12.6</course>
<desc>Speed 0.6 km/h Distance 1.26 km</desc>
<time>2010-03-01T17:27:14.04</time>
<name>1476</name>
</trkpt>
<trkpt lat="48.947157" lon="8.660202">
<ele>339.0</ele>
<speed>0.2</speed>
<course>12.6</course>
<desc>Speed 0.2 km/h Distance 1.26 km</desc>
<time>2010-03-01T17:27:15.04</time>
<name>1477</name>
</trkpt>
<trkpt lat="48.947157" lon="8.660202">
<ele>339.0</ele>
<speed>0.3</speed>
<course>25.4</course>
<desc>Speed 0.3 km/h Distance 1.26 km</desc>
<time>2010-03-01T17:27:16.04</time>
<name>1478</name>
</trkpt>
<trkpt lat="48.947162" lon="8.660205">
<ele>339.5</ele>
<speed>1.0</speed>
<course>146.3</course>
<desc>Speed 1.0 km/h Distance 1.26 km</desc>
<time>2010-03-01T17:27:17.04</time>
<name>1479</name>
</trkpt>
<trkpt lat="48.947158" lon="8.660208">
<ele>339.5</ele>
<speed>1.5</speed>
<course>117.4</course>
<desc>Speed 1.5 km/h Distance 1.26 km</desc>
<time>2010-03-01T17:27:18.04</time>
<name>1480</name>
</trkpt>
<trkpt lat="48.947157" lon="8.660213">
<ele>339.0</ele>
<speed>1.7</speed>
<course>46.4</course>
<desc>Speed 1.7 km/h Distance 1.26 km</desc>
<time>2010-03-01T17:27:19.04</time>
<name>1481</name>
</trkpt>
<trkpt lat="48.947165" lon="8.660227">
<ele>339.0</ele>
<speed>5.0</speed>
<course>110.9</course>
<desc>Speed 5.0 km/h Distance 1.26 km</desc>
<time>2010-03-01T17:27:20.04</time>
<name>1482</name>
</trkpt>
<trkpt lat="48.947162" lon="8.660240">
<ele>339.0</ele>
<speed>2.7</speed>
<course>177.5</course>
<desc>Speed 2.7 km/h Distance 1.26 km</desc>
<time>2010-03-01T17:27:21.04</time>
<name>1483</name>
</trkpt>
<trkpt lat="48.947143" lon="8.660242">
<ele>337.0</ele>
<speed>7.6</speed>
<course>66.5</course>
<desc>Speed 7.6 km/h Distance 1.26 km</desc>
<time>2010-03-01T17:27:22.04</time>
<name>1484</name>
</trkpt>
<trkpt lat="48.947147" lon="8.660253">
<ele>337.0</ele>
<speed>3.3</speed>
<course>33.4</course>
<desc>Speed 3.3 km/h Distance 1.26 km</desc>
<time>2010-03-01T17:27:23.04</time>
<name>1485</name>
</trkpt>
<trkpt lat="48.947158" lon="8.660265">
<ele>338.0</ele>
<speed>5.1</speed>
<course>44.5</course>
<desc>Speed 5.1 km/h Distance 1.26 km</desc>
<time>2010-03-01T17:27:24.04</time>
<name>1486</name>
</trkpt>
<trkpt lat="48.947162" lon="8.660270">
<ele>338.0</ele>
<speed>1.0</speed>
<course>135.5</course>
<desc>Speed 1.0 km/h Distance 1.26 km</desc>
<time>2010-03-01T17:27:25.04</time>
<name>1487</name>
</trkpt>
<trkpt lat="48.947158" lon="8.660275">
<ele>338.0</ele>
<speed>1.8</speed>
<course>90.0</course>
<desc>Speed 1.8 km/h Distance 1.27 km</desc>
<time>2010-03-01T17:27:26.04</time>
<name>1488</name>
</trkpt>
<trkpt lat="48.947158" lon="8.660282">
<ele>337.5</ele>
<speed>2.3</speed>
<course>73.3</course>
<desc>Speed 2.3 km/h Distance 1.27 km</desc>
<time>2010-03-01T17:27:27.04</time>
<name>1489</name>
</trkpt>
<trkpt lat="48.947160" lon="8.660290">
<ele>337.5</ele>
<speed>2.0</speed>
<course>104.1</course>
<desc>Speed 2.0 km/h Distance 1.27 km</desc>
<time>2010-03-01T17:27:28.04</time>
<name>1490</name>
</trkpt>
<trkpt lat="48.947158" lon="8.660300">
<ele>337.5</ele>
<speed>2.5</speed>
<course>90.0</course>
<desc>Speed 2.5 km/h Distance 1.27 km</desc>
<time>2010-03-01T17:27:29.04</time>
<name>1491</name>
</trkpt>
<trkpt lat="48.947158" lon="8.660307">
<ele>337.5</ele>
<speed>1.8</speed>
<course>117.4</course>
<desc>Speed 1.8 km/h Distance 1.27 km</desc>
<time>2010-03-01T17:27:30.04</time>
<name>1492</name>
</trkpt>
<trkpt lat="48.947157" lon="8.660312">
<ele>338.0</ele>
<speed>1.1</speed>
<course>128.1</course>
<desc>Speed 1.1 km/h Distance 1.27 km</desc>
<time>2010-03-01T17:27:31.04</time>
<name>1493</name>
</trkpt>
<trkpt lat="48.947155" lon="8.660315">
<ele>338.0</ele>
<speed>1.5</speed>
<course>166.5</course>
<desc>Speed 1.5 km/h Distance 1.27 km</desc>
<time>2010-03-01T17:27:32.04</time>
<name>1494</name>
</trkpt>
<trkpt lat="48.947142" lon="8.660320">
<ele>338.5</ele>
<speed>5.7</speed>
<course>69.1</course>
<desc>Speed 5.7 km/h Distance 1.27 km</desc>
<time>2010-03-01T17:27:33.04</time>
<name>1495</name>
</trkpt>
<trkpt lat="48.947143" lon="8.660327">
<ele>338.5</ele>
<speed>1.4</speed>
<course>110.9</course>
<desc>Speed 1.4 km/h Distance 1.27 km</desc>
<time>2010-03-01T17:27:34.04</time>
<name>1496</name>
</trkpt>
<trkpt lat="48.947142" lon="8.660333">
<ele>338.0</ele>
<speed>1.9</speed>
<course>135.7</course>
<desc>Speed 1.9 km/h Distance 1.27 km</desc>
<time>2010-03-01T17:27:35.04</time>
<name>1497</name>
</trkpt>
<trkpt lat="48.947135" lon="8.660343">
<ele>337.5</ele>
<speed>3.0</speed>
<course>161.8</course>
<desc>Speed 3.0 km/h Distance 1.27 km</desc>
<time>2010-03-01T17:27:36.04</time>
<name>1498</name>
</trkpt>
<trkpt lat="48.947115" lon="8.660353">
<ele>336.5</ele>
<speed>9.3</speed>
<course>151.4</course>
<desc>Speed 9.3 km/h Distance 1.27 km</desc>
<time>2010-03-01T17:27:37.04</time>
<name>1499</name>
</trkpt>
<trkpt lat="48.947105" lon="8.660362">
<ele>335.5</ele>
<speed>4.4</speed>
<course>113.5</course>
<desc>Speed 4.4 km/h Distance 1.28 km</desc>
<time>2010-03-01T17:27:38.04</time>
<name>1500</name>
</trkpt>
<trkpt lat="48.947098" lon="8.660385">
<ele>337.0</ele>
<speed>4.7</speed>
<course>90.0</course>
<desc>Speed 4.7 km/h Distance 1.28 km</desc>
<time>2010-03-01T17:27:39.04</time>
<name>1501</name>
</trkpt>
<trkpt lat="48.947098" lon="8.660408">
<ele>337.5</ele>
<speed>4.9</speed>
<course>114.5</course>
<desc>Speed 4.9 km/h Distance 1.28 km</desc>
<time>2010-03-01T17:27:40.04</time>
<name>1502</name>
</trkpt>
<trkpt lat="48.947093" lon="8.660425">
<ele>338.0</ele>
<speed>4.3</speed>
<course>112.5</course>
<desc>Speed 4.3 km/h Distance 1.28 km</desc>
<time>2010-03-01T17:27:41.04</time>
<name>1503</name>
</trkpt>
<trkpt lat="48.947088" lon="8.660443">
<ele>338.5</ele>
<speed>4.1</speed>
<course>121.3</course>
<desc>Speed 4.1 km/h Distance 1.28 km</desc>
<time>2010-03-01T17:27:42.04</time>
<name>1504</name>
</trkpt>
<trkpt lat="48.947082" lon="8.660460">
<ele>338.5</ele>
<speed>4.2</speed>
<course>121.3</course>
<desc>Speed 4.2 km/h Distance 1.28 km</desc>
<time>2010-03-01T17:27:43.04</time>
<name>1505</name>
</trkpt>
<trkpt lat="48.947075" lon="8.660477">
<ele>339.0</ele>
<speed>4.0</speed>
<course>127.3</course>
<desc>Speed 4.0 km/h Distance 1.28 km</desc>
<time>2010-03-01T17:27:44.04</time>
<name>1506</name>
</trkpt>
<trkpt lat="48.947067" lon="8.660493">
<ele>339.0</ele>
<speed>5.1</speed>
<course>152.3</course>
<desc>Speed 5.1 km/h Distance 1.29 km</desc>
<time>2010-03-01T17:27:45.04</time>
<name>1507</name>
</trkpt>
<trkpt lat="48.947050" lon="8.660507">
<ele>338.5</ele>
<speed>7.1</speed>
<course>124.1</course>
<desc>Speed 7.1 km/h Distance 1.29 km</desc>
<time>2010-03-01T17:27:46.04</time>
<name>1508</name>
</trkpt>
<trkpt lat="48.947043" lon="8.660522">
<ele>339.0</ele>
<speed>4.1</speed>
<course>133.6</course>
<desc>Speed 4.1 km/h Distance 1.29 km</desc>
<time>2010-03-01T17:27:47.04</time>
<name>1509</name>
</trkpt>
<trkpt lat="48.947035" lon="8.660535">
<ele>339.0</ele>
<speed>4.0</speed>
<course>130.3</course>
<desc>Speed 4.0 km/h Distance 1.29 km</desc>
<time>2010-03-01T17:27:48.04</time>
<name>1510</name>
</trkpt>
<trkpt lat="48.947027" lon="8.660550">
<ele>339.5</ele>
<speed>4.5</speed>
<course>119.7</course>
<desc>Speed 4.5 km/h Distance 1.29 km</desc>
<time>2010-03-01T17:27:49.04</time>
<name>1511</name>
</trkpt>
<trkpt lat="48.947022" lon="8.660563">
<ele>339.5</ele>
<speed>3.7</speed>
<course>146.6</course>
<desc>Speed 3.7 km/h Distance 1.29 km</desc>
<time>2010-03-01T17:27:50.04</time>
<name>1512</name>
</trkpt>
<trkpt lat="48.947010" lon="8.660575">
<ele>339.0</ele>
<speed>5.1</speed>
<course>119.8</course>
<desc>Speed 5.1 km/h Distance 1.29 km</desc>
<time>2010-03-01T17:27:51.04</time>
<name>1513</name>
</trkpt>
<trkpt lat="48.947005" lon="8.660588">
<ele>339.0</ele>
<speed>4.0</speed>
<course>123.9</course>
<desc>Speed 4.0 km/h Distance 1.30 km</desc>
<time>2010-03-01T17:27:52.04</time>
<name>1514</name>
</trkpt>
<trkpt lat="48.946998" lon="8.660603">
<ele>339.5</ele>
<speed>4.4</speed>
<course>160.3</course>
<desc>Speed 4.4 km/h Distance 1.30 km</desc>
<time>2010-03-01T17:27:53.04</time>
<name>1515</name>
</trkpt>
<trkpt lat="48.946980" lon="8.660613">
<ele>338.0</ele>
<speed>9.2</speed>
<course>90.0</course>
<desc>Speed 9.2 km/h Distance 1.30 km</desc>
<time>2010-03-01T17:27:54.04</time>
<name>1516</name>
</trkpt>
<trkpt lat="48.946980" lon="8.660628">
<ele>339.0</ele>
<speed>3.7</speed>
<course>127.4</course>
<desc>Speed 3.7 km/h Distance 1.30 km</desc>
<time>2010-03-01T17:27:55.04</time>
<name>1517</name>
</trkpt>
<trkpt lat="48.946975" lon="8.660638">
<ele>339.5</ele>
<speed>3.4</speed>
<course>167.9</course>
<desc>Speed 3.4 km/h Distance 1.30 km</desc>
<time>2010-03-01T17:27:56.04</time>
<name>1518</name>
</trkpt>
<trkpt lat="48.946955" lon="8.660645">
<ele>340.0</ele>
<speed>8.4</speed>
<course>60.1</course>
<desc>Speed 8.4 km/h Distance 1.30 km</desc>
<time>2010-03-01T17:27:57.04</time>
<name>1519</name>
</trkpt>
<trkpt lat="48.946960" lon="8.660658">
<ele>340.0</ele>
<speed>3.9</speed>
<course>137.4</course>
<desc>Speed 3.9 km/h Distance 1.30 km</desc>
<time>2010-03-01T17:27:58.04</time>
<name>1520</name>
</trkpt>
<trkpt lat="48.946952" lon="8.660670">
<ele>340.0</ele>
<speed>4.4</speed>
<course>127.3</course>
<desc>Speed 4.4 km/h Distance 1.31 km</desc>
<time>2010-03-01T17:27:59.04</time>
<name>1521</name>
</trkpt>
<trkpt lat="48.946945" lon="8.660683">
<ele>340.0</ele>
<speed>4.7</speed>
<course>71.3</course>
<desc>Speed 4.7 km/h Distance 1.31 km</desc>
<time>2010-03-01T17:28:00.04</time>
<name>1522</name>
</trkpt>
<trkpt lat="48.946948" lon="8.660698">
<ele>341.0</ele>
<speed>3.8</speed>
<course>130.1</course>
<desc>Speed 3.8 km/h Distance 1.31 km</desc>
<time>2010-03-01T17:28:01.04</time>
<name>1523</name>
</trkpt>
<trkpt lat="48.946940" lon="8.660713">
<ele>341.0</ele>
<speed>4.4</speed>
<course>127.2</course>
<desc>Speed 4.4 km/h Distance 1.31 km</desc>
<time>2010-03-01T17:28:02.04</time>
<name>1524</name>
</trkpt>
<trkpt lat="48.946935" lon="8.660723">
<ele>341.0</ele>
<speed>3.7</speed>
<course>137.4</course>
<desc>Speed 3.7 km/h Distance 1.31 km</desc>
<time>2010-03-01T17:28:03.04</time>
<name>1525</name>
</trkpt>
<trkpt lat="48.946927" lon="8.660735">
<ele>341.5</ele>
<speed>4.0</speed>
<course>127.2</course>
<desc>Speed 4.0 km/h Distance 1.31 km</desc>
<time>2010-03-01T17:28:04.04</time>
<name>1526</name>
</trkpt>
<trkpt lat="48.946920" lon="8.660748">
<ele>341.0</ele>
<speed>5.0</speed>
<course>113.5</course>
<desc>Speed 5.0 km/h Distance 1.31 km</desc>
<time>2010-03-01T17:28:05.04</time>
<name>1527</name>
</trkpt>
<trkpt lat="48.946917" lon="8.660760">
<ele>341.5</ele>
<speed>3.7</speed>
<course>90.0</course>
<desc>Speed 3.7 km/h Distance 1.31 km</desc>
<time>2010-03-01T17:28:06.04</time>
<name>1528</name>
</trkpt>
<trkpt lat="48.946917" lon="8.660773">
<ele>342.5</ele>
<speed>3.3</speed>
<course>90.0</course>
<desc>Speed 3.3 km/h Distance 1.32 km</desc>
<time>2010-03-01T17:28:07.04</time>
<name>1529</name>
</trkpt>
<trkpt lat="48.946917" lon="8.660787">
<ele>342.0</ele>
<speed>4.3</speed>
<course>90.0</course>
<desc>Speed 4.3 km/h Distance 1.32 km</desc>
<time>2010-03-01T17:28:08.04</time>
<name>1530</name>
</trkpt>
<trkpt lat="48.946917" lon="8.660800">
<ele>342.5</ele>
<speed>3.2</speed>
<course>130.9</course>
<desc>Speed 3.2 km/h Distance 1.32 km</desc>
<time>2010-03-01T17:28:09.04</time>
<name>1531</name>
</trkpt>
<trkpt lat="48.946910" lon="8.660812">
<ele>343.0</ele>
<speed>4.2</speed>
<course>77.7</course>
<desc>Speed 4.2 km/h Distance 1.32 km</desc>
<time>2010-03-01T17:28:10.04</time>
<name>1532</name>
</trkpt>
<trkpt lat="48.946912" lon="8.660823">
<ele>344.0</ele>
<speed>2.8</speed>
<course>90.0</course>
<desc>Speed 2.8 km/h Distance 1.32 km</desc>
<time>2010-03-01T17:28:11.04</time>
<name>1533</name>
</trkpt>
<trkpt lat="48.946912" lon="8.660837">
<ele>345.0</ele>
<speed>3.3</speed>
<course>127.3</course>
<desc>Speed 3.3 km/h Distance 1.32 km</desc>
<time>2010-03-01T17:28:12.04</time>
<name>1534</name>
</trkpt>
<trkpt lat="48.946905" lon="8.660850">
<ele>345.0</ele>
<speed>4.3</speed>
<course>142.5</course>
<desc>Speed 4.3 km/h Distance 1.32 km</desc>
<time>2010-03-01T17:28:13.04</time>
<name>1535</name>
</trkpt>
<trkpt lat="48.946895" lon="8.660862">
<ele>344.5</ele>
<speed>5.6</speed>
<course>123.3</course>
<desc>Speed 5.6 km/h Distance 1.32 km</desc>
<time>2010-03-01T17:28:14.04</time>
<name>1536</name>
</trkpt>
<trkpt lat="48.946890" lon="8.660873">
<ele>344.5</ele>
<speed>3.5</speed>
<course>142.1</course>
<desc>Speed 3.5 km/h Distance 1.32 km</desc>
<time>2010-03-01T17:28:15.04</time>
<name>1537</name>
</trkpt>
<trkpt lat="48.946882" lon="8.660883">
<ele>344.5</ele>
<speed>4.3</speed>
<course>132.9</course>
<desc>Speed 4.3 km/h Distance 1.33 km</desc>
<time>2010-03-01T17:28:16.04</time>
<name>1538</name>
</trkpt>
<trkpt lat="48.946877" lon="8.660892">
<ele>345.0</ele>
<speed>3.1</speed>
<course>116.8</course>
<desc>Speed 3.1 km/h Distance 1.33 km</desc>
<time>2010-03-01T17:28:17.04</time>
<name>1539</name>
</trkpt>
<trkpt lat="48.946873" lon="8.660902">
<ele>345.0</ele>
<speed>2.8</speed>
<course>121.4</course>
<desc>Speed 2.8 km/h Distance 1.33 km</desc>
<time>2010-03-01T17:28:18.04</time>
<name>1540</name>
</trkpt>
<trkpt lat="48.946870" lon="8.660910">
<ele>345.5</ele>
<speed>3.1</speed>
<course>127.2</course>
<desc>Speed 3.1 km/h Distance 1.33 km</desc>
<time>2010-03-01T17:28:19.04</time>
<name>1541</name>
</trkpt>
<trkpt lat="48.946865" lon="8.660920">
<ele>345.5</ele>
<speed>3.6</speed>
<course>104.4</course>
<desc>Speed 3.6 km/h Distance 1.33 km</desc>
<time>2010-03-01T17:28:20.04</time>
<name>1542</name>
</trkpt>
<trkpt lat="48.946863" lon="8.660930">
<ele>346.0</ele>
<speed>2.8</speed>
<course>90.0</course>
<desc>Speed 2.8 km/h Distance 1.33 km</desc>
<time>2010-03-01T17:28:21.04</time>
<name>1543</name>
</trkpt>
<trkpt lat="48.946863" lon="8.660938">
<ele>346.0</ele>
<speed>2.8</speed>
<course>41.4</course>
<desc>Speed 2.8 km/h Distance 1.33 km</desc>
<time>2010-03-01T17:28:22.04</time>
<name>1544</name>
</trkpt>
<trkpt lat="48.946868" lon="8.660945">
<ele>346.5</ele>
<speed>1.3</speed>
<course>116.9</course>
<desc>Speed 1.3 km/h Distance 1.33 km</desc>
<time>2010-03-01T17:28:23.04</time>
<name>1545</name>
</trkpt>
<trkpt lat="48.946858" lon="8.660975">
<ele>348.5</ele>
<speed>2.9</speed>
<course>117.0</course>
<desc>Speed 2.9 km/h Distance 1.33 km</desc>
<time>2010-03-01T17:28:25.04</time>
<name>1546</name>
</trkpt>
<trkpt lat="48.946855" lon="8.660985">
<ele>349.0</ele>
<speed>3.7</speed>
<course>80.4</course>
<desc>Speed 3.7 km/h Distance 1.33 km</desc>
<time>2010-03-01T17:28:26.04</time>
<name>1547</name>
</trkpt>
<trkpt lat="48.946857" lon="8.661000">
<ele>350.0</ele>
<speed>3.4</speed>
<course>77.7</course>
<desc>Speed 3.4 km/h Distance 1.33 km</desc>
<time>2010-03-01T17:28:27.04</time>
<name>1548</name>
</trkpt>
<trkpt lat="48.946858" lon="8.661012">
<ele>350.5</ele>
<speed>3.2</speed>
<course>127.4</course>
<desc>Speed 3.2 km/h Distance 1.34 km</desc>
<time>2010-03-01T17:28:28.04</time>
<name>1549</name>
</trkpt>
<trkpt lat="48.946853" lon="8.661022">
<ele>350.5</ele>
<speed>5.0</speed>
<course>102.3</course>
<desc>Speed 5.0 km/h Distance 1.34 km</desc>
<time>2010-03-01T17:28:29.04</time>
<name>1550</name>
</trkpt>
<trkpt lat="48.946852" lon="8.661033">
<ele>351.0</ele>
<speed>3.1</speed>
<course>56.7</course>
<desc>Speed 3.1 km/h Distance 1.34 km</desc>
<time>2010-03-01T17:28:30.04</time>
<name>1551</name>
</trkpt>
<trkpt lat="48.946857" lon="8.661045">
<ele>352.5</ele>
<speed>2.6</speed>
<course>90.0</course>
<desc>Speed 2.6 km/h Distance 1.34 km</desc>
<time>2010-03-01T17:28:31.04</time>
<name>1552</name>
</trkpt>
<trkpt lat="48.946857" lon="8.661052">
<ele>352.5</ele>
<speed>2.2</speed>
<course>107.1</course>
<desc>Speed 2.2 km/h Distance 1.34 km</desc>
<time>2010-03-01T17:28:32.04</time>
<name>1553</name>
</trkpt>
<trkpt lat="48.946855" lon="8.661060">
<ele>352.5</ele>
<speed>2.3</speed>
<course>127.0</course>
<desc>Speed 2.3 km/h Distance 1.34 km</desc>
<time>2010-03-01T17:28:33.04</time>
<name>1554</name>
</trkpt>
<trkpt lat="48.946852" lon="8.661067">
<ele>353.0</ele>
<speed>2.3</speed>
<course>135.5</course>
<desc>Speed 2.3 km/h Distance 1.34 km</desc>
<time>2010-03-01T17:28:34.04</time>
<name>1555</name>
</trkpt>
<trkpt lat="48.946848" lon="8.661072">
<ele>353.0</ele>
<speed>2.5</speed>
<course>139.1</course>
<desc>Speed 2.5 km/h Distance 1.34 km</desc>
<time>2010-03-01T17:28:35.04</time>
<name>1556</name>
</trkpt>
<trkpt lat="48.946843" lon="8.661078">
<ele>353.0</ele>
<speed>2.4</speed>
<course>110.9</course>
<desc>Speed 2.4 km/h Distance 1.34 km</desc>
<time>2010-03-01T17:28:36.04</time>
<name>1557</name>
</trkpt>
<trkpt lat="48.946842" lon="8.661085">
<ele>353.0</ele>
<speed>1.7</speed>
<course>90.0</course>
<desc>Speed 1.7 km/h Distance 1.34 km</desc>
<time>2010-03-01T17:28:37.04</time>
<name>1558</name>
</trkpt>
<trkpt lat="48.946842" lon="8.661090">
<ele>353.0</ele>
<speed>1.2</speed>
<course>12.6</course>
<desc>Speed 1.2 km/h Distance 1.34 km</desc>
<time>2010-03-01T17:28:38.04</time>
<name>1559</name>
</trkpt>
<trkpt lat="48.946843" lon="8.661090">
<ele>353.5</ele>
<speed>0.4</speed>
<course>128.1</course>
<desc>Speed 0.4 km/h Distance 1.34 km</desc>
<time>2010-03-01T17:28:39.04</time>
<name>1560</name>
</trkpt>
<trkpt lat="48.946842" lon="8.661093">
<ele>353.5</ele>
<speed>0.9</speed>
<course>53.0</course>
<desc>Speed 0.9 km/h Distance 1.34 km</desc>
<time>2010-03-01T17:28:40.04</time>
<name>1561</name>
</trkpt>
<trkpt lat="48.946845" lon="8.661100">
<ele>354.0</ele>
<speed>1.9</speed>
<course>113.5</course>
<desc>Speed 1.9 km/h Distance 1.34 km</desc>
<time>2010-03-01T17:28:41.04</time>
<name>1562</name>
</trkpt>
<trkpt lat="48.946842" lon="8.661112">
<ele>354.5</ele>
<speed>3.2</speed>
<course>90.0</course>
<desc>Speed 3.2 km/h Distance 1.34 km</desc>
<time>2010-03-01T17:28:42.04</time>
<name>1563</name>
</trkpt>
<trkpt lat="48.946842" lon="8.661127">
<ele>355.5</ele>
<speed>3.6</speed>
<course>100.8</course>
<desc>Speed 3.6 km/h Distance 1.35 km</desc>
<time>2010-03-01T17:28:43.04</time>
<name>1564</name>
</trkpt>
<trkpt lat="48.946840" lon="8.661140">
<ele>355.5</ele>
<speed>3.7</speed>
<course>113.5</course>
<desc>Speed 3.7 km/h Distance 1.35 km</desc>
<time>2010-03-01T17:28:44.04</time>
<name>1565</name>
</trkpt>
<trkpt lat="48.946837" lon="8.661152">
<ele>355.5</ele>
<speed>3.4</speed>
<course>121.4</course>
<desc>Speed 3.4 km/h Distance 1.35 km</desc>
<time>2010-03-01T17:28:45.04</time>
<name>1566</name>
</trkpt>
<trkpt lat="48.946833" lon="8.661160">
<ele>355.0</ele>
<speed>3.2</speed>
<course>121.4</course>
<desc>Speed 3.2 km/h Distance 1.35 km</desc>
<time>2010-03-01T17:28:46.04</time>
<name>1567</name>
</trkpt>
<trkpt lat="48.946830" lon="8.661168">
<ele>355.0</ele>
<speed>3.0</speed>
<course>132.6</course>
<desc>Speed 3.0 km/h Distance 1.35 km</desc>
<time>2010-03-01T17:28:47.04</time>
<name>1568</name>
</trkpt>
<trkpt lat="48.946825" lon="8.661177">
<ele>355.0</ele>
<speed>3.2</speed>
<course>138.6</course>
<desc>Speed 3.2 km/h Distance 1.35 km</desc>
<time>2010-03-01T17:28:48.04</time>
<name>1569</name>
</trkpt>
<trkpt lat="48.946820" lon="8.661183">
<ele>355.5</ele>
<speed>2.6</speed>
<course>132.2</course>
<desc>Speed 2.6 km/h Distance 1.35 km</desc>
<time>2010-03-01T17:28:49.04</time>
<name>1570</name>
</trkpt>
<trkpt lat="48.946815" lon="8.661192">
<ele>355.5</ele>
<speed>3.0</speed>
<course>140.6</course>
<desc>Speed 3.0 km/h Distance 1.35 km</desc>
<time>2010-03-01T17:28:50.04</time>
<name>1571</name>
</trkpt>
<trkpt lat="48.946808" lon="8.661200">
<ele>355.5</ele>
<speed>3.0</speed>
<course>132.6</course>
<desc>Speed 3.0 km/h Distance 1.35 km</desc>
<time>2010-03-01T17:28:51.04</time>
<name>1572</name>
</trkpt>
<trkpt lat="48.946803" lon="8.661208">
<ele>355.5</ele>
<speed>3.2</speed>
<course>127.4</course>
<desc>Speed 3.2 km/h Distance 1.35 km</desc>
<time>2010-03-01T17:28:52.04</time>
<name>1573</name>
</trkpt>
<trkpt lat="48.946798" lon="8.661218">
<ele>355.5</ele>
<speed>2.9</speed>
<course>135.5</course>
<desc>Speed 2.9 km/h Distance 1.35 km</desc>
<time>2010-03-01T17:28:53.04</time>
<name>1574</name>
</trkpt>
<trkpt lat="48.946792" lon="8.661228">
<ele>355.5</ele>
<speed>3.4</speed>
<course>113.5</course>
<desc>Speed 3.4 km/h Distance 1.36 km</desc>
<time>2010-03-01T17:28:54.04</time>
<name>1575</name>
</trkpt>
<trkpt lat="48.946788" lon="8.661240">
<ele>355.5</ele>
<speed>3.0</speed>
<course>121.1</course>
<desc>Speed 3.0 km/h Distance 1.36 km</desc>
<time>2010-03-01T17:28:55.04</time>
<name>1576</name>
</trkpt>
<trkpt lat="48.946785" lon="8.661248">
<ele>356.0</ele>
<speed>2.8</speed>
<course>135.5</course>
<desc>Speed 2.8 km/h Distance 1.36 km</desc>
<time>2010-03-01T17:28:56.04</time>
<name>1577</name>
</trkpt>
<trkpt lat="48.946782" lon="8.661253">
<ele>357.0</ele>
<speed>2.4</speed>
<course>167.4</course>
<desc>Speed 2.4 km/h Distance 1.36 km</desc>
<time>2010-03-01T17:28:57.04</time>
<name>1578</name>
</trkpt>
<trkpt lat="48.946778" lon="8.661253">
<ele>357.5</ele>
<speed>1.2</speed>
<course>119.0</course>
<desc>Speed 1.2 km/h Distance 1.36 km</desc>
<time>2010-03-01T17:28:58.04</time>
<name>1579</name>
</trkpt>
<trkpt lat="48.946772" lon="8.661272">
<ele>357.0</ele>
<speed>5.5</speed>
<course>128.1</course>
<desc>Speed 5.5 km/h Distance 1.36 km</desc>
<time>2010-03-01T17:28:59.04</time>
<name>1580</name>
</trkpt>
<trkpt lat="48.946770" lon="8.661275">
<ele>357.0</ele>
<speed>1.9</speed>
<course>192.6</course>
<desc>Speed 1.9 km/h Distance 1.36 km</desc>
<time>2010-03-01T17:29:00.04</time>
<name>1581</name>
</trkpt>
<trkpt lat="48.946765" lon="8.661273">
<ele>356.5</ele>
<speed>2.4</speed>
<course>170.4</course>
<desc>Speed 2.4 km/h Distance 1.36 km</desc>
<time>2010-03-01T17:29:01.04</time>
<name>1582</name>
</trkpt>
<trkpt lat="48.946757" lon="8.661275">
<ele>356.5</ele>
<speed>3.2</speed>
<course>29.2</course>
<desc>Speed 3.2 km/h Distance 1.36 km</desc>
<time>2010-03-01T17:29:02.04</time>
<name>1583</name>
</trkpt>
<trkpt lat="48.946758" lon="8.661277">
<ele>357.0</ele>
<speed>0.3</speed>
<course>19.2</course>
<desc>Speed 0.3 km/h Distance 1.36 km</desc>
<time>2010-03-01T17:29:03.04</time>
<name>1584</name>
</trkpt>
<trkpt lat="48.946787" lon="8.661292">
<ele>359.0</ele>
<speed>2.0</speed>
<course>138.8</course>
<desc>Speed 2.0 km/h Distance 1.36 km</desc>
<time>2010-03-01T17:29:05.04</time>
<name>1585</name>
</trkpt>
<trkpt lat="48.946777" lon="8.661305">
<ele>359.0</ele>
<speed>4.0</speed>
<course>121.4</course>
<desc>Speed 4.0 km/h Distance 1.37 km</desc>
<time>2010-03-01T17:29:06.04</time>
<name>1586</name>
</trkpt>
<trkpt lat="48.946773" lon="8.661313">
<ele>359.0</ele>
<speed>3.0</speed>
<course>153.6</course>
<desc>Speed 3.0 km/h Distance 1.37 km</desc>
<time>2010-03-01T17:29:07.04</time>
<name>1587</name>
</trkpt>
<trkpt lat="48.946767" lon="8.661318">
<ele>359.0</ele>
<speed>3.3</speed>
<course>69.1</course>
<desc>Speed 3.3 km/h Distance 1.37 km</desc>
<time>2010-03-01T17:29:08.04</time>
<name>1588</name>
</trkpt>
<trkpt lat="48.946768" lon="8.661325">
<ele>358.0</ele>
<speed>1.7</speed>
<course>128.1</course>
<desc>Speed 1.7 km/h Distance 1.37 km</desc>
<time>2010-03-01T17:29:09.04</time>
<name>1589</name>
</trkpt>
<trkpt lat="48.946767" lon="8.661328">
<ele>357.5</ele>
<speed>1.8</speed>
<course>146.3</course>
<desc>Speed 1.8 km/h Distance 1.37 km</desc>
<time>2010-03-01T17:29:10.04</time>
<name>1590</name>
</trkpt>
<trkpt lat="48.946763" lon="8.661332">
<ele>358.0</ele>
<speed>0.6</speed>
<course>90.0</course>
<desc>Speed 0.6 km/h Distance 1.37 km</desc>
<time>2010-03-01T17:29:11.04</time>
<name>1591</name>
</trkpt>
<trkpt lat="48.946763" lon="8.661333">
<ele>358.0</ele>
<speed>0.4</speed>
<course>90.0</course>
<desc>Speed 0.4 km/h Distance 1.37 km</desc>
<time>2010-03-01T17:29:12.04</time>
<name>1592</name>
</trkpt>
<trkpt lat="48.946763" lon="8.661335">
<ele>358.0</ele>
<speed>0.2</speed>
<course>150.8</course>
<desc>Speed 0.2 km/h Distance 1.37 km</desc>
<time>2010-03-01T17:29:13.04</time>
<name>1593</name>
</trkpt>
<trkpt lat="48.946762" lon="8.661337">
<ele>358.0</ele>
<speed>0.4</speed>
<course>167.4</course>
<desc>Speed 0.4 km/h Distance 1.37 km</desc>
<time>2010-03-01T17:29:14.04</time>
<name>1594</name>
</trkpt>
<trkpt lat="48.946760" lon="8.661337">
<ele>358.0</ele>
<speed>0.1</speed>
<course>180.0</course>
<desc>Speed 0.1 km/h Distance 1.37 km</desc>
<time>2010-03-01T17:29:15.04</time>
<name>1595</name>
</trkpt>
<trkpt lat="48.946758" lon="8.661337">
<ele>358.5</ele>
<speed>0.4</speed>
<course>180.0</course>
<desc>Speed 0.4 km/h Distance 1.37 km</desc>
<time>2010-03-01T17:29:16.04</time>
<name>1596</name>
</trkpt>
<trkpt lat="48.946755" lon="8.661337">
<ele>358.5</ele>
<speed>0.1</speed>
<course>167.4</course>
<desc>Speed 0.1 km/h Distance 1.37 km</desc>
<time>2010-03-01T17:29:17.04</time>
<name>1597</name>
</trkpt>
<trkpt lat="48.946753" lon="8.661338">
<ele>358.0</ele>
<speed>0.7</speed>
<course>192.6</course>
<desc>Speed 0.7 km/h Distance 1.37 km</desc>
<time>2010-03-01T17:29:18.04</time>
<name>1598</name>
</trkpt>
<trkpt lat="48.946748" lon="8.661337">
<ele>358.0</ele>
<speed>0.8</speed>
<course>147.7</course>
<desc>Speed 0.8 km/h Distance 1.37 km</desc>
<time>2010-03-01T17:29:19.04</time>
<name>1599</name>
</trkpt>
<trkpt lat="48.946743" lon="8.661342">
<ele>358.0</ele>
<speed>1.5</speed>
<course>135.5</course>
<desc>Speed 1.5 km/h Distance 1.37 km</desc>
<time>2010-03-01T17:29:20.04</time>
<name>1600</name>
</trkpt>
<trkpt lat="48.946737" lon="8.661352">
<ele>358.0</ele>
<speed>3.0</speed>
<course>130.9</course>
<desc>Speed 3.0 km/h Distance 1.37 km</desc>
<time>2010-03-01T17:29:21.04</time>
<name>1601</name>
</trkpt>
<trkpt lat="48.946730" lon="8.661363">
<ele>358.0</ele>
<speed>3.6</speed>
<course>146.7</course>
<desc>Speed 3.6 km/h Distance 1.37 km</desc>
<time>2010-03-01T17:29:22.04</time>
<name>1602</name>
</trkpt>
<trkpt lat="48.946718" lon="8.661375">
<ele>357.5</ele>
<speed>3.9</speed>
<course>135.5</course>
<desc>Speed 3.9 km/h Distance 1.38 km</desc>
<time>2010-03-01T17:29:23.04</time>
<name>1603</name>
</trkpt>
<trkpt lat="48.946712" lon="8.661385">
<ele>357.5</ele>
<speed>2.5</speed>
<course>159.1</course>
<desc>Speed 2.5 km/h Distance 1.38 km</desc>
<time>2010-03-01T17:29:24.04</time>
<name>1604</name>
</trkpt>
<trkpt lat="48.946700" lon="8.661392">
<ele>357.5</ele>
<speed>2.0</speed>
<course>139.1</course>
<desc>Speed 2.0 km/h Distance 1.38 km</desc>
<time>2010-03-01T17:29:25.04</time>
<name>1605</name>
</trkpt>
<trkpt lat="48.946695" lon="8.661398">
<ele>358.0</ele>
<speed>1.8</speed>
<course>147.7</course>
<desc>Speed 1.8 km/h Distance 1.38 km</desc>
<time>2010-03-01T17:29:26.04</time>
<name>1606</name>
</trkpt>
<trkpt lat="48.946690" lon="8.661403">
<ele>357.5</ele>
<speed>1.5</speed>
<course>158.7</course>
<desc>Speed 1.5 km/h Distance 1.38 km</desc>
<time>2010-03-01T17:29:27.04</time>
<name>1607</name>
</trkpt>
<trkpt lat="48.946673" lon="8.661413">
<ele>357.0</ele>
<speed>0.9</speed>
<course>301.4</course>
<desc>Speed 0.9 km/h Distance 1.38 km</desc>
<time>2010-03-01T17:29:28.04</time>
<name>1608</name>
</trkpt>
<trkpt lat="48.946677" lon="8.661405">
<ele>357.0</ele>
<speed>2.7</speed>
<course>180.0</course>
<desc>Speed 2.7 km/h Distance 1.38 km</desc>
<time>2010-03-01T17:29:29.04</time>
<name>1609</name>
</trkpt>
<trkpt lat="48.946668" lon="8.661405">
<ele>357.0</ele>
<speed>2.8</speed>
<course>315.5</course>
<desc>Speed 2.8 km/h Distance 1.38 km</desc>
<time>2010-03-01T17:29:30.04</time>
<name>1610</name>
</trkpt>
<trkpt lat="48.946672" lon="8.661400">
<ele>357.0</ele>
<speed>2.8</speed>
<course>315.5</course>
<desc>Speed 2.8 km/h Distance 1.38 km</desc>
<time>2010-03-01T17:29:31.04</time>
<name>1611</name>
</trkpt>
<trkpt lat="48.946672" lon="8.661398">
<ele>357.0</ele>
<speed>0.8</speed>
<course>315.5</course>
<desc>Speed 0.8 km/h Distance 1.38 km</desc>
<time>2010-03-01T17:29:32.04</time>
<name>1612</name>
</trkpt>
<trkpt lat="48.946672" lon="8.661398">
<ele>356.5</ele>
<speed>0.5</speed>
<course>315.5</course>
<desc>Speed 0.5 km/h Distance 1.38 km</desc>
<time>2010-03-01T17:29:33.04</time>
<name>1613</name>
</trkpt>
<trkpt lat="48.946672" lon="8.661397">
<ele>356.5</ele>
<speed>0.2</speed>
<course>315.5</course>
<desc>Speed 0.2 km/h Distance 1.38 km</desc>
<time>2010-03-01T17:29:34.04</time>
<name>1614</name>
</trkpt>
<trkpt lat="48.946672" lon="8.661397">
<ele>356.5</ele>
<speed>0.5</speed>
<course>315.5</course>
<desc>Speed 0.5 km/h Distance 1.38 km</desc>
<time>2010-03-01T17:29:35.04</time>
<name>1615</name>
</trkpt>
<trkpt lat="48.946672" lon="8.661397">
<ele>356.5</ele>
<speed>0.5</speed>
<course>217.2</course>
<desc>Speed 0.5 km/h Distance 1.38 km</desc>
<time>2010-03-01T17:29:36.04</time>
<name>1616</name>
</trkpt>
<trkpt lat="48.946670" lon="8.661395">
<ele>355.5</ele>
<speed>1.3</speed>
<course>217.2</course>
<desc>Speed 1.3 km/h Distance 1.38 km</desc>
<time>2010-03-01T17:29:37.04</time>
<name>1617</name>
</trkpt>
<trkpt lat="48.946670" lon="8.661395">
<ele>355.5</ele>
<speed>0.5</speed>
<course>270.0</course>
<desc>Speed 0.5 km/h Distance 1.38 km</desc>
<time>2010-03-01T17:29:38.04</time>
<name>1618</name>
</trkpt>
<trkpt lat="48.946670" lon="8.661390">
<ele>356.0</ele>
<speed>0.9</speed>
<course>142.8</course>
<desc>Speed 0.9 km/h Distance 1.38 km</desc>
<time>2010-03-01T17:29:39.04</time>
<name>1619</name>
</trkpt>
<trkpt lat="48.946668" lon="8.661392">
<ele>355.5</ele>
<speed>0.4</speed>
<course>167.4</course>
<desc>Speed 0.4 km/h Distance 1.38 km</desc>
<time>2010-03-01T17:29:40.04</time>
<name>1620</name>
</trkpt>
<trkpt lat="48.946665" lon="8.661393">
<ele>355.5</ele>
<speed>0.2</speed>
<course>270.0</course>
<desc>Speed 0.2 km/h Distance 1.38 km</desc>
<time>2010-03-01T17:29:41.04</time>
<name>1621</name>
</trkpt>
<trkpt lat="48.946665" lon="8.661392">
<ele>355.0</ele>
<speed>0.3</speed>
<course>270.0</course>
<desc>Speed 0.3 km/h Distance 1.38 km</desc>
<time>2010-03-01T17:29:42.04</time>
<name>1622</name>
</trkpt>
<trkpt lat="48.946665" lon="8.661390">
<ele>355.0</ele>
<speed>0.1</speed>
<course>322.8</course>
<desc>Speed 0.1 km/h Distance 1.38 km</desc>
<time>2010-03-01T17:29:43.04</time>
<name>1623</name>
</trkpt>
<trkpt lat="48.946667" lon="8.661388">
<ele>354.5</ele>
<speed>0.3</speed>
<course>270.0</course>
<desc>Speed 0.3 km/h Distance 1.39 km</desc>
<time>2010-03-01T17:29:44.04</time>
<name>1624</name>
</trkpt>
<trkpt lat="48.946667" lon="8.661387">
<ele>354.0</ele>
<speed>0.1</speed>
<course>308.1</course>
<desc>Speed 0.1 km/h Distance 1.39 km</desc>
<time>2010-03-01T17:29:45.04</time>
<name>1625</name>
</trkpt>
<trkpt lat="48.946668" lon="8.661383">
<ele>353.5</ele>
<speed>0.3</speed>
<course>326.3</course>
<desc>Speed 0.3 km/h Distance 1.39 km</desc>
<time>2010-03-01T17:29:46.04</time>
<name>1626</name>
</trkpt>
<trkpt lat="48.946672" lon="8.661380">
<ele>353.0</ele>
<speed>1.1</speed>
<course>167.4</course>
<desc>Speed 1.1 km/h Distance 1.39 km</desc>
<time>2010-03-01T17:29:47.04</time>
<name>1627</name>
</trkpt>
<trkpt lat="48.946668" lon="8.661382">
<ele>352.5</ele>
<speed>0.4</speed>
<course>128.1</course>
<desc>Speed 0.4 km/h Distance 1.39 km</desc>
<time>2010-03-01T17:29:48.04</time>
<name>1628</name>
</trkpt>
<trkpt lat="48.946667" lon="8.661385">
<ele>352.0</ele>
<speed>0.9</speed>
<course>164.3</course>
<desc>Speed 0.9 km/h Distance 1.39 km</desc>
<time>2010-03-01T17:29:49.04</time>
<name>1629</name>
</trkpt>
<trkpt lat="48.946662" lon="8.661387">
<ele>352.0</ele>
<speed>1.9</speed>
<course>168.8</course>
<desc>Speed 1.9 km/h Distance 1.39 km</desc>
<time>2010-03-01T17:29:50.04</time>
<name>1630</name>
</trkpt>
<trkpt lat="48.946650" lon="8.661390">
<ele>351.0</ele>
<speed>2.0</speed>
<course>128.1</course>
<desc>Speed 2.0 km/h Distance 1.39 km</desc>
<time>2010-03-01T17:29:51.04</time>
<name>1631</name>
</trkpt>
<trkpt lat="48.946648" lon="8.661393">
<ele>351.0</ele>
<speed>0.1</speed>
<course>128.1</course>
<desc>Speed 0.1 km/h Distance 1.39 km</desc>
<time>2010-03-01T17:29:52.04</time>
<name>1632</name>
</trkpt>
<trkpt lat="48.946648" lon="8.661393">
<ele>351.0</ele>
<speed>0.7</speed>
<course>167.4</course>
<desc>Speed 0.7 km/h Distance 1.39 km</desc>
<time>2010-03-01T17:29:53.04</time>
<name>1633</name>
</trkpt>
<trkpt lat="48.946643" lon="8.661395">
<ele>351.0</ele>
<speed>0.3</speed>
<course>167.4</course>
<desc>Speed 0.3 km/h Distance 1.39 km</desc>
<time>2010-03-01T17:29:54.04</time>
<name>1634</name>
</trkpt>
<trkpt lat="48.946643" lon="8.661395">
<ele>351.5</ele>
<speed>0.3</speed>
<course>142.8</course>
<desc>Speed 0.3 km/h Distance 1.39 km</desc>
<time>2010-03-01T17:29:55.04</time>
<name>1635</name>
</trkpt>
<trkpt lat="48.946642" lon="8.661397">
<ele>351.5</ele>
<speed>0.5</speed>
<course>154.6</course>
<desc>Speed 0.5 km/h Distance 1.39 km</desc>
<time>2010-03-01T17:29:56.04</time>
<name>1636</name>
</trkpt>
<trkpt lat="48.946637" lon="8.661400">
<ele>351.0</ele>
<speed>0.9</speed>
<course>127.3</course>
<desc>Speed 0.9 km/h Distance 1.39 km</desc>
<time>2010-03-01T17:29:57.04</time>
<name>1637</name>
</trkpt>
<trkpt lat="48.946630" lon="8.661413">
<ele>350.5</ele>
<speed>1.9</speed>
<course>146.8</course>
<desc>Speed 1.9 km/h Distance 1.39 km</desc>
<time>2010-03-01T17:29:58.04</time>
<name>1638</name>
</trkpt>
<trkpt lat="48.946622" lon="8.661422">
<ele>350.5</ele>
<speed>3.7</speed>
<course>146.8</course>
<desc>Speed 3.7 km/h Distance 1.39 km</desc>
<time>2010-03-01T17:29:59.04</time>
<name>1639</name>
</trkpt>
<trkpt lat="48.946613" lon="8.661430">
<ele>350.5</ele>
<speed>2.9</speed>
<course>132.9</course>
<desc>Speed 2.9 km/h Distance 1.39 km</desc>
<time>2010-03-01T17:30:00.04</time>
<name>1640</name>
</trkpt>
<trkpt lat="48.946608" lon="8.661438">
<ele>350.5</ele>
<speed>2.8</speed>
<course>142.7</course>
<desc>Speed 2.8 km/h Distance 1.39 km</desc>
<time>2010-03-01T17:30:01.04</time>
<name>1641</name>
</trkpt>
<trkpt lat="48.946598" lon="8.661450">
<ele>350.0</ele>
<speed>4.1</speed>
<course>141.9</course>
<desc>Speed 4.1 km/h Distance 1.40 km</desc>
<time>2010-03-01T17:30:02.04</time>
<name>1642</name>
</trkpt>
<trkpt lat="48.946590" lon="8.661460">
<ele>350.0</ele>
<speed>3.7</speed>
<course>137.4</course>
<desc>Speed 3.7 km/h Distance 1.40 km</desc>
<time>2010-03-01T17:30:03.04</time>
<name>1643</name>
</trkpt>
<trkpt lat="48.946582" lon="8.661472">
<ele>350.0</ele>
<speed>3.5</speed>
<course>142.5</course>
<desc>Speed 3.5 km/h Distance 1.40 km</desc>
<time>2010-03-01T17:30:04.04</time>
<name>1644</name>
</trkpt>
<trkpt lat="48.946572" lon="8.661483">
<ele>350.0</ele>
<speed>3.8</speed>
<course>141.6</course>
<desc>Speed 3.8 km/h Distance 1.40 km</desc>
<time>2010-03-01T17:30:05.04</time>
<name>1645</name>
</trkpt>
<trkpt lat="48.946563" lon="8.661493">
<ele>350.0</ele>
<speed>3.6</speed>
<course>142.5</course>
<desc>Speed 3.6 km/h Distance 1.40 km</desc>
<time>2010-03-01T17:30:06.04</time>
<name>1646</name>
</trkpt>
<trkpt lat="48.946553" lon="8.661505">
<ele>349.5</ele>
<speed>3.9</speed>
<course>146.8</course>
<desc>Speed 3.9 km/h Distance 1.40 km</desc>
<time>2010-03-01T17:30:07.04</time>
<name>1647</name>
</trkpt>
<trkpt lat="48.946545" lon="8.661513">
<ele>349.5</ele>
<speed>4.1</speed>
<course>146.8</course>
<desc>Speed 4.1 km/h Distance 1.40 km</desc>
<time>2010-03-01T17:30:08.04</time>
<name>1648</name>
</trkpt>
<trkpt lat="48.946538" lon="8.661520">
<ele>350.0</ele>
<speed>3.1</speed>
<course>146.8</course>
<desc>Speed 3.1 km/h Distance 1.40 km</desc>
<time>2010-03-01T17:30:09.04</time>
<name>1649</name>
</trkpt>
<trkpt lat="48.946528" lon="8.661530">
<ele>349.5</ele>
<speed>5.3</speed>
<course>146.5</course>
<desc>Speed 5.3 km/h Distance 1.41 km</desc>
<time>2010-03-01T17:30:10.04</time>
<name>1650</name>
</trkpt>
<trkpt lat="48.946520" lon="8.661538">
<ele>348.5</ele>
<speed>4.0</speed>
<course>121.4</course>
<desc>Speed 4.0 km/h Distance 1.41 km</desc>
<time>2010-03-01T17:30:11.04</time>
<name>1651</name>
</trkpt>
<trkpt lat="48.946517" lon="8.661547">
<ele>349.0</ele>
<speed>3.0</speed>
<course>127.6</course>
<desc>Speed 3.0 km/h Distance 1.41 km</desc>
<time>2010-03-01T17:30:12.04</time>
<name>1652</name>
</trkpt>
<trkpt lat="48.946510" lon="8.661560">
<ele>349.5</ele>
<speed>3.4</speed>
<course>113.5</course>
<desc>Speed 3.4 km/h Distance 1.41 km</desc>
<time>2010-03-01T17:30:13.04</time>
<name>1653</name>
</trkpt>
<trkpt lat="48.946507" lon="8.661572">
<ele>349.5</ele>
<speed>3.0</speed>
<course>127.3</course>
<desc>Speed 3.0 km/h Distance 1.41 km</desc>
<time>2010-03-01T17:30:14.04</time>
<name>1654</name>
</trkpt>
<trkpt lat="48.946500" lon="8.661585">
<ele>349.0</ele>
<speed>3.6</speed>
<course>116.9</course>
<desc>Speed 3.6 km/h Distance 1.41 km</desc>
<time>2010-03-01T17:30:15.04</time>
<name>1655</name>
</trkpt>
<trkpt lat="48.946495" lon="8.661600">
<ele>348.5</ele>
<speed>2.8</speed>
<course>121.1</course>
<desc>Speed 2.8 km/h Distance 1.41 km</desc>
<time>2010-03-01T17:30:16.04</time>
<name>1656</name>
</trkpt>
<trkpt lat="48.946492" lon="8.661608">
<ele>349.0</ele>
<speed>2.3</speed>
<course>106.7</course>
<desc>Speed 2.3 km/h Distance 1.41 km</desc>
<time>2010-03-01T17:30:17.04</time>
<name>1657</name>
</trkpt>
<trkpt lat="48.946490" lon="8.661617">
<ele>348.5</ele>
<speed>1.8</speed>
<course>117.0</course>
<desc>Speed 1.8 km/h Distance 1.41 km</desc>
<time>2010-03-01T17:30:18.04</time>
<name>1658</name>
</trkpt>
<trkpt lat="48.946487" lon="8.661627">
<ele>348.0</ele>
<speed>1.9</speed>
<course>117.0</course>
<desc>Speed 1.9 km/h Distance 1.41 km</desc>
<time>2010-03-01T17:30:19.04</time>
<name>1659</name>
</trkpt>
<trkpt lat="48.946483" lon="8.661637">
<ele>347.5</ele>
<speed>2.3</speed>
<course>132.2</course>
<desc>Speed 2.3 km/h Distance 1.42 km</desc>
<time>2010-03-01T17:30:20.04</time>
<name>1660</name>
</trkpt>
<trkpt lat="48.946478" lon="8.661645">
<ele>347.5</ele>
<speed>2.4</speed>
<course>127.4</course>
<desc>Speed 2.4 km/h Distance 1.42 km</desc>
<time>2010-03-01T17:30:21.04</time>
<name>1661</name>
</trkpt>
<trkpt lat="48.946473" lon="8.661655">
<ele>347.5</ele>
<speed>2.2</speed>
<course>140.3</course>
<desc>Speed 2.2 km/h Distance 1.42 km</desc>
<time>2010-03-01T17:30:22.04</time>
<name>1662</name>
</trkpt>
<trkpt lat="48.946467" lon="8.661663">
<ele>347.5</ele>
<speed>2.3</speed>
<course>146.3</course>
<desc>Speed 2.3 km/h Distance 1.42 km</desc>
<time>2010-03-01T17:30:23.04</time>
<name>1663</name>
</trkpt>
<trkpt lat="48.946463" lon="8.661667">
<ele>347.0</ele>
<speed>1.4</speed>
<course>33.2</course>
<desc>Speed 1.4 km/h Distance 1.42 km</desc>
<time>2010-03-01T17:30:24.04</time>
<name>1664</name>
</trkpt>
<trkpt lat="48.946473" lon="8.661677">
<ele>347.0</ele>
<speed>4.6</speed>
<course>146.8</course>
<desc>Speed 4.6 km/h Distance 1.42 km</desc>
<time>2010-03-01T17:30:25.04</time>
<name>1665</name>
</trkpt>
<trkpt lat="48.946468" lon="8.661682">
<ele>347.0</ele>
<speed>1.0</speed>
<course>154.0</course>
<desc>Speed 1.0 km/h Distance 1.42 km</desc>
<time>2010-03-01T17:30:26.04</time>
<name>1666</name>
</trkpt>
<trkpt lat="48.946455" lon="8.661692">
<ele>347.0</ele>
<speed>6.3</speed>
<course>127.2</course>
<desc>Speed 6.3 km/h Distance 1.42 km</desc>
<time>2010-03-01T17:30:27.04</time>
<name>1667</name>
</trkpt>
<trkpt lat="48.946450" lon="8.661702">
<ele>347.0</ele>
<speed>3.0</speed>
<course>127.6</course>
<desc>Speed 3.0 km/h Distance 1.42 km</desc>
<time>2010-03-01T17:30:28.04</time>
<name>1668</name>
</trkpt>
<trkpt lat="48.946445" lon="8.661712">
<ele>347.5</ele>
<speed>2.5</speed>
<course>104.4</course>
<desc>Speed 2.5 km/h Distance 1.42 km</desc>
<time>2010-03-01T17:30:29.04</time>
<name>1669</name>
</trkpt>
<trkpt lat="48.946443" lon="8.661722">
<ele>347.5</ele>
<speed>3.2</speed>
<course>127.4</course>
<desc>Speed 3.2 km/h Distance 1.42 km</desc>
<time>2010-03-01T17:30:30.04</time>
<name>1670</name>
</trkpt>
<trkpt lat="48.946438" lon="8.661732">
<ele>347.5</ele>
<speed>3.5</speed>
<course>117.0</course>
<desc>Speed 3.5 km/h Distance 1.43 km</desc>
<time>2010-03-01T17:30:31.04</time>
<name>1671</name>
</trkpt>
<trkpt lat="48.946435" lon="8.661742">
<ele>348.0</ele>
<speed>3.1</speed>
<course>90.0</course>
<desc>Speed 3.1 km/h Distance 1.43 km</desc>
<time>2010-03-01T17:30:32.04</time>
<name>1672</name>
</trkpt>
<trkpt lat="48.946435" lon="8.661752">
<ele>349.5</ele>
<speed>2.4</speed>
<course>127.3</course>
<desc>Speed 2.4 km/h Distance 1.43 km</desc>
<time>2010-03-01T17:30:33.04</time>
<name>1673</name>
</trkpt>
<trkpt lat="48.946428" lon="8.661765">
<ele>350.0</ele>
<speed>3.1</speed>
<course>131.1</course>
<desc>Speed 3.1 km/h Distance 1.43 km</desc>
<time>2010-03-01T17:30:34.04</time>
<name>1674</name>
</trkpt>
<trkpt lat="48.946422" lon="8.661777">
<ele>350.5</ele>
<speed>3.4</speed>
<course>127.3</course>
<desc>Speed 3.4 km/h Distance 1.43 km</desc>
<time>2010-03-01T17:30:35.04</time>
<name>1675</name>
</trkpt>
<trkpt lat="48.946415" lon="8.661790">
<ele>351.0</ele>
<speed>3.2</speed>
<course>141.9</course>
<desc>Speed 3.2 km/h Distance 1.43 km</desc>
<time>2010-03-01T17:30:36.04</time>
<name>1676</name>
</trkpt>
<trkpt lat="48.946407" lon="8.661800">
<ele>351.0</ele>
<speed>3.2</speed>
<course>135.5</course>
<desc>Speed 3.2 km/h Distance 1.43 km</desc>
<time>2010-03-01T17:30:37.04</time>
<name>1677</name>
</trkpt>
<trkpt lat="48.946400" lon="8.661810">
<ele>351.0</ele>
<speed>3.3</speed>
<course>127.2</course>
<desc>Speed 3.3 km/h Distance 1.43 km</desc>
<time>2010-03-01T17:30:38.04</time>
<name>1678</name>
</trkpt>
<trkpt lat="48.946395" lon="8.661820">
<ele>351.0</ele>
<speed>3.3</speed>
<course>131.1</course>
<desc>Speed 3.3 km/h Distance 1.43 km</desc>
<time>2010-03-01T17:30:39.04</time>
<name>1679</name>
</trkpt>
<trkpt lat="48.946388" lon="8.661832">
<ele>351.0</ele>
<speed>3.6</speed>
<course>164.0</course>
<desc>Speed 3.6 km/h Distance 1.43 km</desc>
<time>2010-03-01T17:30:40.04</time>
<name>1680</name>
</trkpt>
<trkpt lat="48.946373" lon="8.661838">
<ele>350.0</ele>
<speed>6.3</speed>
<course>132.2</course>
<desc>Speed 6.3 km/h Distance 1.44 km</desc>
<time>2010-03-01T17:30:41.04</time>
<name>1681</name>
</trkpt>
<trkpt lat="48.946368" lon="8.661847">
<ele>350.0</ele>
<speed>3.4</speed>
<course>156.2</course>
<desc>Speed 3.4 km/h Distance 1.44 km</desc>
<time>2010-03-01T17:30:42.04</time>
<name>1682</name>
</trkpt>
<trkpt lat="48.946358" lon="8.661853">
<ele>349.5</ele>
<speed>4.2</speed>
<course>140.6</course>
<desc>Speed 4.2 km/h Distance 1.44 km</desc>
<time>2010-03-01T17:30:43.04</time>
<name>1683</name>
</trkpt>
<trkpt lat="48.946352" lon="8.661862">
<ele>349.5</ele>
<speed>3.3</speed>
<course>121.4</course>
<desc>Speed 3.3 km/h Distance 1.44 km</desc>
<time>2010-03-01T17:30:44.04</time>
<name>1684</name>
</trkpt>
<trkpt lat="48.946348" lon="8.661870">
<ele>349.5</ele>
<speed>2.9</speed>
<course>90.0</course>
<desc>Speed 2.9 km/h Distance 1.44 km</desc>
<time>2010-03-01T17:30:45.04</time>
<name>1685</name>
</trkpt>
<trkpt lat="48.946348" lon="8.661883">
<ele>349.5</ele>
<speed>3.7</speed>
<course>146.8</course>
<desc>Speed 3.7 km/h Distance 1.44 km</desc>
<time>2010-03-01T17:30:46.04</time>
<name>1686</name>
</trkpt>
<trkpt lat="48.946340" lon="8.661892">
<ele>348.5</ele>
<speed>4.1</speed>
<course>146.8</course>
<desc>Speed 4.1 km/h Distance 1.44 km</desc>
<time>2010-03-01T17:30:47.04</time>
<name>1687</name>
</trkpt>
<trkpt lat="48.946330" lon="8.661902">
<ele>348.5</ele>
<speed>4.9</speed>
<course>123.3</course>
<desc>Speed 4.9 km/h Distance 1.44 km</desc>
<time>2010-03-01T17:30:48.04</time>
<name>1688</name>
</trkpt>
<trkpt lat="48.946325" lon="8.661913">
<ele>348.5</ele>
<speed>3.7</speed>
<course>127.2</course>
<desc>Speed 3.7 km/h Distance 1.44 km</desc>
<time>2010-03-01T17:30:49.04</time>
<name>1689</name>
</trkpt>
<trkpt lat="48.946320" lon="8.661923">
<ele>347.5</ele>
<speed>3.9</speed>
<course>90.0</course>
<desc>Speed 3.9 km/h Distance 1.45 km</desc>
<time>2010-03-01T17:30:50.04</time>
<name>1690</name>
</trkpt>
<trkpt lat="48.946320" lon="8.661933">
<ele>347.5</ele>
<speed>2.8</speed>
<course>90.0</course>
<desc>Speed 2.8 km/h Distance 1.45 km</desc>
<time>2010-03-01T17:30:51.04</time>
<name>1691</name>
</trkpt>
<trkpt lat="48.946320" lon="8.661942">
<ele>347.0</ele>
<speed>2.4</speed>
<course>77.7</course>
<desc>Speed 2.4 km/h Distance 1.45 km</desc>
<time>2010-03-01T17:30:52.04</time>
<name>1692</name>
</trkpt>
<trkpt lat="48.946322" lon="8.661953">
<ele>346.5</ele>
<speed>3.1</speed>
<course>127.0</course>
<desc>Speed 3.1 km/h Distance 1.45 km</desc>
<time>2010-03-01T17:30:53.04</time>
<name>1693</name>
</trkpt>
<trkpt lat="48.946318" lon="8.661960">
<ele>348.0</ele>
<speed>2.6</speed>
<course>138.1</course>
<desc>Speed 2.6 km/h Distance 1.45 km</desc>
<time>2010-03-01T17:30:54.04</time>
<name>1694</name>
</trkpt>
<trkpt lat="48.946313" lon="8.661967">
<ele>348.0</ele>
<speed>2.5</speed>
<course>127.0</course>
<desc>Speed 2.5 km/h Distance 1.45 km</desc>
<time>2010-03-01T17:30:55.04</time>
<name>1695</name>
</trkpt>
<trkpt lat="48.946310" lon="8.661973">
<ele>347.5</ele>
<speed>2.8</speed>
<course>106.9</course>
<desc>Speed 2.8 km/h Distance 1.45 km</desc>
<time>2010-03-01T17:30:56.04</time>
<name>1696</name>
</trkpt>
<trkpt lat="48.946308" lon="8.661982">
<ele>347.5</ele>
<speed>2.3</speed>
<course>117.0</course>
<desc>Speed 2.3 km/h Distance 1.45 km</desc>
<time>2010-03-01T17:30:57.04</time>
<name>1697</name>
</trkpt>
<trkpt lat="48.946305" lon="8.661992">
<ele>347.5</ele>
<speed>3.0</speed>
<course>110.9</course>
<desc>Speed 3.0 km/h Distance 1.45 km</desc>
<time>2010-03-01T17:30:58.04</time>
<name>1698</name>
</trkpt>
<trkpt lat="48.946302" lon="8.662005">
<ele>347.0</ele>
<speed>3.9</speed>
<course>100.8</course>
<desc>Speed 3.9 km/h Distance 1.45 km</desc>
<time>2010-03-01T17:30:59.04</time>
<name>1699</name>
</trkpt>
<trkpt lat="48.946300" lon="8.662018">
<ele>347.0</ele>
<speed>3.7</speed>
<course>90.0</course>
<desc>Speed 3.7 km/h Distance 1.45 km</desc>
<time>2010-03-01T17:31:00.04</time>
<name>1700</name>
</trkpt>
<trkpt lat="48.946300" lon="8.662030">
<ele>346.5</ele>
<speed>3.4</speed>
<course>135.5</course>
<desc>Speed 3.4 km/h Distance 1.45 km</desc>
<time>2010-03-01T17:31:01.04</time>
<name>1701</name>
</trkpt>
<trkpt lat="48.946293" lon="8.662040">
<ele>346.5</ele>
<speed>3.6</speed>
<course>117.0</course>
<desc>Speed 3.6 km/h Distance 1.46 km</desc>
<time>2010-03-01T17:31:02.04</time>
<name>1702</name>
</trkpt>
<trkpt lat="48.946290" lon="8.662050">
<ele>346.5</ele>
<speed>2.9</speed>
<course>132.9</course>
<desc>Speed 2.9 km/h Distance 1.46 km</desc>
<time>2010-03-01T17:31:03.04</time>
<name>1703</name>
</trkpt>
<trkpt lat="48.946285" lon="8.662058">
<ele>346.5</ele>
<speed>3.3</speed>
<course>121.4</course>
<desc>Speed 3.3 km/h Distance 1.46 km</desc>
<time>2010-03-01T17:31:04.04</time>
<name>1704</name>
</trkpt>
<trkpt lat="48.946282" lon="8.662067">
<ele>346.5</ele>
<speed>2.6</speed>
<course>117.0</course>
<desc>Speed 2.6 km/h Distance 1.46 km</desc>
<time>2010-03-01T17:31:05.04</time>
<name>1705</name>
</trkpt>
<trkpt lat="48.946278" lon="8.662077">
<ele>347.0</ele>
<speed>2.8</speed>
<course>135.5</course>
<desc>Speed 2.8 km/h Distance 1.46 km</desc>
<time>2010-03-01T17:31:06.04</time>
<name>1706</name>
</trkpt>
<trkpt lat="48.946272" lon="8.662087">
<ele>347.0</ele>
<speed>3.3</speed>
<course>135.5</course>
<desc>Speed 3.3 km/h Distance 1.46 km</desc>
<time>2010-03-01T17:31:07.04</time>
<name>1707</name>
</trkpt>
<trkpt lat="48.946265" lon="8.662097">
<ele>347.5</ele>
<speed>4.0</speed>
<course>153.6</course>
<desc>Speed 4.0 km/h Distance 1.46 km</desc>
<time>2010-03-01T17:31:08.04</time>
<name>1708</name>
</trkpt>
<trkpt lat="48.946258" lon="8.662102">
<ele>347.5</ele>
<speed>2.2</speed>
<course>171.9</course>
<desc>Speed 2.2 km/h Distance 1.46 km</desc>
<time>2010-03-01T17:31:09.04</time>
<name>1709</name>
</trkpt>
<trkpt lat="48.946253" lon="8.662102">
<ele>347.5</ele>
<speed>2.9</speed>
<course>167.4</course>
<desc>Speed 2.9 km/h Distance 1.46 km</desc>
<time>2010-03-01T17:31:10.04</time>
<name>1710</name>
</trkpt>
<trkpt lat="48.946250" lon="8.662103">
<ele>347.5</ele>
<speed>1.0</speed>
<course>12.6</course>
<desc>Speed 1.0 km/h Distance 1.46 km</desc>
<time>2010-03-01T17:31:11.04</time>
<name>1711</name>
</trkpt>
<trkpt lat="48.946252" lon="8.662105">
<ele>347.5</ele>
<speed>0.5</speed>
<course>146.3</course>
<desc>Speed 0.5 km/h Distance 1.46 km</desc>
<time>2010-03-01T17:31:12.04</time>
<name>1712</name>
</trkpt>
<trkpt lat="48.946248" lon="8.662108">
<ele>348.0</ele>
<speed>1.0</speed>
<course>90.0</course>
<desc>Speed 1.0 km/h Distance 1.46 km</desc>
<time>2010-03-01T17:31:13.04</time>
<name>1713</name>
</trkpt>
<trkpt lat="48.946248" lon="8.662112">
<ele>348.0</ele>
<speed>0.3</speed>
<course>297.4</course>
<desc>Speed 0.3 km/h Distance 1.46 km</desc>
<time>2010-03-01T17:31:14.04</time>
<name>1714</name>
</trkpt>
<trkpt lat="48.946250" lon="8.662107">
<ele>348.0</ele>
<speed>1.4</speed>
<course>90.0</course>
<desc>Speed 1.4 km/h Distance 1.46 km</desc>
<time>2010-03-01T17:31:15.04</time>
<name>1715</name>
</trkpt>
<trkpt lat="48.946250" lon="8.662110">
<ele>348.0</ele>
<speed>1.3</speed>
<course>167.4</course>
<desc>Speed 1.3 km/h Distance 1.46 km</desc>
<time>2010-03-01T17:31:16.04</time>
<name>1716</name>
</trkpt>
<trkpt lat="48.946247" lon="8.662112">
<ele>348.5</ele>
<speed>0.6</speed>
<course>143.4</course>
<desc>Speed 0.6 km/h Distance 1.46 km</desc>
<time>2010-03-01T17:31:17.04</time>
<name>1717</name>
</trkpt>
<trkpt lat="48.946235" lon="8.662125">
<ele>347.0</ele>
<speed>5.9</speed>
<course>167.4</course>
<desc>Speed 5.9 km/h Distance 1.47 km</desc>
<time>2010-03-01T17:31:19.04</time>
<name>1718</name>
</trkpt>
<trkpt lat="48.946232" lon="8.662127">
<ele>346.5</ele>
<speed>0.3</speed>
<course>167.4</course>
<desc>Speed 0.3 km/h Distance 1.47 km</desc>
<time>2010-03-01T17:31:20.04</time>
<name>1719</name>
</trkpt>
<trkpt lat="48.946232" lon="8.662127">
<ele>347.0</ele>
<speed>0.2</speed>
<course>29.2</course>
<desc>Speed 0.2 km/h Distance 1.47 km</desc>
<time>2010-03-01T17:31:21.04</time>
<name>1720</name>
</trkpt>
<trkpt lat="48.946233" lon="8.662128">
<ele>347.0</ele>
<speed>0.5</speed>
<course>49.4</course>
<desc>Speed 0.5 km/h Distance 1.47 km</desc>
<time>2010-03-01T17:31:22.04</time>
<name>1721</name>
</trkpt>
<trkpt lat="48.946235" lon="8.662132">
<ele>347.0</ele>
<speed>0.1</speed>
<course>180.0</course>
<desc>Speed 0.1 km/h Distance 1.47 km</desc>
<time>2010-03-01T17:31:23.04</time>
<name>1722</name>
</trkpt>
<trkpt lat="48.946233" lon="8.662132">
<ele>347.0</ele>
<speed>0.5</speed>
<course>180.0</course>
<desc>Speed 0.5 km/h Distance 1.47 km</desc>
<time>2010-03-01T17:31:24.04</time>
<name>1723</name>
</trkpt>
<trkpt lat="48.946233" lon="8.662132">
<ele>347.0</ele>
<speed>0.6</speed>
<course>180.0</course>
<desc>Speed 0.6 km/h Distance 1.47 km</desc>
<time>2010-03-01T17:31:25.04</time>
<name>1724</name>
</trkpt>
<trkpt lat="48.946233" lon="8.662132">
<ele>347.0</ele>
<speed>0.5</speed>
<course>0.0</course>
<desc>Speed 0.5 km/h Distance 1.47 km</desc>
<time>2010-03-01T17:31:26.04</time>
<name>1725</name>
</trkpt>
<trkpt lat="48.946235" lon="8.662132">
<ele>347.0</ele>
<speed>0.7</speed>
<course>0.0</course>
<desc>Speed 0.7 km/h Distance 1.47 km</desc>
<time>2010-03-01T17:31:27.04</time>
<name>1726</name>
</trkpt>
<trkpt lat="48.946235" lon="8.662132">
<ele>347.0</ele>
<speed>0.4</speed>
<course>0.0</course>
<desc>Speed 0.4 km/h Distance 1.47 km</desc>
<time>2010-03-01T17:31:28.04</time>
<name>1727</name>
</trkpt>
<trkpt lat="48.946235" lon="8.662133">
<ele>347.0</ele>
<speed>0.3</speed>
<course>0.0</course>
<desc>Speed 0.3 km/h Distance 1.47 km</desc>
<time>2010-03-01T17:31:29.04</time>
<name>1728</name>
</trkpt>
<trkpt lat="48.946235" lon="8.662133">
<ele>347.0</ele>
<speed>0.4</speed>
<course>104.4</course>
<desc>Speed 0.4 km/h Distance 1.47 km</desc>
<time>2010-03-01T17:31:30.04</time>
<name>1729</name>
</trkpt>
<trkpt lat="48.946233" lon="8.662143">
<ele>347.0</ele>
<speed>2.1</speed>
<course>107.1</course>
<desc>Speed 2.1 km/h Distance 1.47 km</desc>
<time>2010-03-01T17:31:31.04</time>
<name>1730</name>
</trkpt>
<trkpt lat="48.946232" lon="8.662152">
<ele>347.0</ele>
<speed>1.5</speed>
<course>154.8</course>
<desc>Speed 1.5 km/h Distance 1.47 km</desc>
<time>2010-03-01T17:31:32.04</time>
<name>1731</name>
</trkpt>
<trkpt lat="48.946220" lon="8.662160">
<ele>347.0</ele>
<speed>3.0</speed>
<course>130.2</course>
<desc>Speed 3.0 km/h Distance 1.47 km</desc>
<time>2010-03-01T17:31:33.04</time>
<name>1732</name>
</trkpt>
<trkpt lat="48.946212" lon="8.662175">
<ele>347.5</ele>
<speed>1.7</speed>
<course>52.8</course>
<desc>Speed 1.7 km/h Distance 1.47 km</desc>
<time>2010-03-01T17:31:34.04</time>
<name>1733</name>
</trkpt>
<trkpt lat="48.946217" lon="8.662185">
<ele>347.5</ele>
<speed>2.4</speed>
<course>90.0</course>
<desc>Speed 2.4 km/h Distance 1.47 km</desc>
<time>2010-03-01T17:31:35.04</time>
<name>1734</name>
</trkpt>
<trkpt lat="48.946217" lon="8.662200">
<ele>348.0</ele>
<speed>2.8</speed>
<course>110.8</course>
<desc>Speed 2.8 km/h Distance 1.47 km</desc>
<time>2010-03-01T17:31:36.04</time>
<name>1735</name>
</trkpt>
<trkpt lat="48.946213" lon="8.662213">
<ele>348.5</ele>
<speed>2.9</speed>
<course>127.0</course>
<desc>Speed 2.9 km/h Distance 1.47 km</desc>
<time>2010-03-01T17:31:37.04</time>
<name>1736</name>
</trkpt>
<trkpt lat="48.946210" lon="8.662220">
<ele>348.5</ele>
<speed>2.1</speed>
<course>73.1</course>
<desc>Speed 2.1 km/h Distance 1.48 km</desc>
<time>2010-03-01T17:31:38.04</time>
<name>1737</name>
</trkpt>
<trkpt lat="48.946212" lon="8.662228">
<ele>348.5</ele>
<speed>1.5</speed>
<course>12.6</course>
<desc>Speed 1.5 km/h Distance 1.48 km</desc>
<time>2010-03-01T17:31:39.04</time>
<name>1738</name>
</trkpt>
<trkpt lat="48.946215" lon="8.662230">
<ele>348.5</ele>
<speed>0.5</speed>
<course>167.4</course>
<desc>Speed 0.5 km/h Distance 1.48 km</desc>
<time>2010-03-01T17:31:40.04</time>
<name>1739</name>
</trkpt>
<trkpt lat="48.946210" lon="8.662232">
<ele>349.0</ele>
<speed>2.1</speed>
<course>140.6</course>
<desc>Speed 2.1 km/h Distance 1.48 km</desc>
<time>2010-03-01T17:31:41.04</time>
<name>1740</name>
</trkpt>
<trkpt lat="48.946203" lon="8.662240">
<ele>349.0</ele>
<speed>2.5</speed>
<course>117.0</course>
<desc>Speed 2.5 km/h Distance 1.48 km</desc>
<time>2010-03-01T17:31:42.04</time>
<name>1741</name>
</trkpt>
<trkpt lat="48.946200" lon="8.662250">
<ele>349.5</ele>
<speed>1.9</speed>
<course>130.9</course>
<desc>Speed 1.9 km/h Distance 1.48 km</desc>
<time>2010-03-01T17:31:43.04</time>
<name>1742</name>
</trkpt>
<trkpt lat="48.946193" lon="8.662262">
<ele>349.5</ele>
<speed>3.5</speed>
<course>137.4</course>
<desc>Speed 3.5 km/h Distance 1.48 km</desc>
<time>2010-03-01T17:31:44.04</time>
<name>1743</name>
</trkpt>
<trkpt lat="48.946185" lon="8.662273">
<ele>349.5</ele>
<speed>4.0</speed>
<course>135.5</course>
<desc>Speed 4.0 km/h Distance 1.48 km</desc>
<time>2010-03-01T17:31:45.04</time>
<name>1744</name>
</trkpt>
<trkpt lat="48.946178" lon="8.662283">
<ele>349.5</ele>
<speed>3.4</speed>
<course>135.5</course>
<desc>Speed 3.4 km/h Distance 1.48 km</desc>
<time>2010-03-01T17:31:46.04</time>
<name>1745</name>
</trkpt>
<trkpt lat="48.946172" lon="8.662293">
<ele>349.5</ele>
<speed>3.0</speed>
<course>146.3</course>
<desc>Speed 3.0 km/h Distance 1.48 km</desc>
<time>2010-03-01T17:31:47.04</time>
<name>1746</name>
</trkpt>
<trkpt lat="48.946165" lon="8.662300">
<ele>349.0</ele>
<speed>2.7</speed>
<course>153.6</course>
<desc>Speed 2.7 km/h Distance 1.48 km</desc>
<time>2010-03-01T17:31:48.04</time>
<name>1747</name>
</trkpt>
<trkpt lat="48.946158" lon="8.662305">
<ele>349.0</ele>
<speed>2.1</speed>
<course>145.9</course>
<desc>Speed 2.1 km/h Distance 1.48 km</desc>
<time>2010-03-01T17:31:49.04</time>
<name>1748</name>
</trkpt>
<trkpt lat="48.946153" lon="8.662310">
<ele>348.5</ele>
<speed>1.7</speed>
<course>138.6</course>
<desc>Speed 1.7 km/h Distance 1.49 km</desc>
<time>2010-03-01T17:31:50.04</time>
<name>1749</name>
</trkpt>
<trkpt lat="48.946148" lon="8.662317">
<ele>348.5</ele>
<speed>2.5</speed>
<course>90.0</course>
<desc>Speed 2.5 km/h Distance 1.49 km</desc>
<time>2010-03-01T17:31:51.04</time>
<name>1750</name>
</trkpt>
<trkpt lat="48.946148" lon="8.662327">
<ele>348.5</ele>
<speed>2.2</speed>
<course>127.0</course>
<desc>Speed 2.2 km/h Distance 1.49 km</desc>
<time>2010-03-01T17:31:52.04</time>
<name>1751</name>
</trkpt>
<trkpt lat="48.946145" lon="8.662333">
<ele>348.5</ele>
<speed>2.1</speed>
<course>140.6</course>
<desc>Speed 2.1 km/h Distance 1.49 km</desc>
<time>2010-03-01T17:31:53.04</time>
<name>1752</name>
</trkpt>
<trkpt lat="48.946138" lon="8.662342">
<ele>348.0</ele>
<speed>2.9</speed>
<course>90.0</course>
<desc>Speed 2.9 km/h Distance 1.49 km</desc>
<time>2010-03-01T17:31:54.04</time>
<name>1753</name>
</trkpt>
<trkpt lat="48.946138" lon="8.662352">
<ele>348.5</ele>
<speed>2.7</speed>
<course>127.0</course>
<desc>Speed 2.7 km/h Distance 1.49 km</desc>
<time>2010-03-01T17:31:55.04</time>
<name>1754</name>
</trkpt>
<trkpt lat="48.946135" lon="8.662358">
<ele>348.0</ele>
<speed>1.9</speed>
<course>135.5</course>
<desc>Speed 1.9 km/h Distance 1.49 km</desc>
<time>2010-03-01T17:31:56.04</time>
<name>1755</name>
</trkpt>
<trkpt lat="48.946132" lon="8.662363">
<ele>348.0</ele>
<speed>2.2</speed>
<course>127.0</course>
<desc>Speed 2.2 km/h Distance 1.49 km</desc>
<time>2010-03-01T17:31:57.04</time>
<name>1756</name>
</trkpt>
<trkpt lat="48.946128" lon="8.662370">
<ele>347.5</ele>
<speed>2.7</speed>
<course>127.0</course>
<desc>Speed 2.7 km/h Distance 1.49 km</desc>
<time>2010-03-01T17:31:58.04</time>
<name>1757</name>
</trkpt>
<trkpt lat="48.946125" lon="8.662377">
<ele>347.5</ele>
<speed>2.3</speed>
<course>147.7</course>
<desc>Speed 2.3 km/h Distance 1.49 km</desc>
<time>2010-03-01T17:31:59.04</time>
<name>1758</name>
</trkpt>
<trkpt lat="48.946120" lon="8.662382">
<ele>347.5</ele>
<speed>2.2</speed>
<course>110.5</course>
<desc>Speed 2.2 km/h Distance 1.49 km</desc>
<time>2010-03-01T17:32:00.04</time>
<name>1759</name>
</trkpt>
<trkpt lat="48.946118" lon="8.662388">
<ele>348.0</ele>
<speed>2.1</speed>
<course>135.5</course>
<desc>Speed 2.1 km/h Distance 1.49 km</desc>
<time>2010-03-01T17:32:01.04</time>
<name>1760</name>
</trkpt>
<trkpt lat="48.946115" lon="8.662393">
<ele>348.0</ele>
<speed>1.7</speed>
<course>117.0</course>
<desc>Speed 1.7 km/h Distance 1.49 km</desc>
<time>2010-03-01T17:32:02.04</time>
<name>1761</name>
</trkpt>
<trkpt lat="48.946112" lon="8.662403">
<ele>348.0</ele>
<speed>2.4</speed>
<course>127.0</course>
<desc>Speed 2.4 km/h Distance 1.49 km</desc>
<time>2010-03-01T17:32:03.04</time>
<name>1762</name>
</trkpt>
<trkpt lat="48.946108" lon="8.662410">
<ele>348.0</ele>
<speed>2.0</speed>
<course>37.2</course>
<desc>Speed 2.0 km/h Distance 1.49 km</desc>
<time>2010-03-01T17:32:04.04</time>
<name>1763</name>
</trkpt>
<trkpt lat="48.946110" lon="8.662412">
<ele>348.5</ele>
<speed>0.6</speed>
<course>37.2</course>
<desc>Speed 0.6 km/h Distance 1.49 km</desc>
<time>2010-03-01T17:32:05.04</time>
<name>1764</name>
</trkpt>
<trkpt lat="48.946112" lon="8.662413">
<ele>348.5</ele>
<speed>0.3</speed>
<course>12.6</course>
<desc>Speed 0.3 km/h Distance 1.50 km</desc>
<time>2010-03-01T17:32:06.04</time>
<name>1765</name>
</trkpt>
<trkpt lat="48.946113" lon="8.662415">
<ele>348.5</ele>
<speed>0.1</speed>
<course>12.6</course>
<desc>Speed 0.1 km/h Distance 1.50 km</desc>
<time>2010-03-01T17:32:07.04</time>
<name>1766</name>
</trkpt>
<trkpt lat="48.946115" lon="8.662415">
<ele>348.5</ele>
<speed>0.2</speed>
<course>147.7</course>
<desc>Speed 0.2 km/h Distance 1.50 km</desc>
<time>2010-03-01T17:32:08.04</time>
<name>1767</name>
</trkpt>
<trkpt lat="48.946110" lon="8.662420">
<ele>348.5</ele>
<speed>0.3</speed>
<course>12.6</course>
<desc>Speed 0.3 km/h Distance 1.50 km</desc>
<time>2010-03-01T17:32:09.04</time>
<name>1768</name>
</trkpt>
<trkpt lat="48.946112" lon="8.662420">
<ele>348.5</ele>
<speed>0.4</speed>
<course>146.3</course>
<desc>Speed 0.4 km/h Distance 1.50 km</desc>
<time>2010-03-01T17:32:10.04</time>
<name>1769</name>
</trkpt>
<trkpt lat="48.946108" lon="8.662423">
<ele>348.5</ele>
<speed>0.2</speed>
<course>146.3</course>
<desc>Speed 0.2 km/h Distance 1.50 km</desc>
<time>2010-03-01T17:32:11.04</time>
<name>1770</name>
</trkpt>
<trkpt lat="48.946108" lon="8.662423">
<ele>348.5</ele>
<speed>0.4</speed>
<course>142.8</course>
<desc>Speed 0.4 km/h Distance 1.50 km</desc>
<time>2010-03-01T17:32:12.04</time>
<name>1771</name>
</trkpt>
<trkpt lat="48.946107" lon="8.662425">
<ele>348.5</ele>
<speed>0.4</speed>
<course>146.3</course>
<desc>Speed 0.4 km/h Distance 1.50 km</desc>
<time>2010-03-01T17:32:13.04</time>
<name>1772</name>
</trkpt>
<trkpt lat="48.946097" lon="8.662435">
<ele>348.5</ele>
<speed>2.0</speed>
<course>150.8</course>
<desc>Speed 2.0 km/h Distance 1.50 km</desc>
<time>2010-03-01T17:32:14.04</time>
<name>1773</name>
</trkpt>
<trkpt lat="48.946095" lon="8.662435">
<ele>348.5</ele>
<speed>0.9</speed>
<course>145.9</course>
<desc>Speed 0.9 km/h Distance 1.50 km</desc>
<time>2010-03-01T17:32:15.04</time>
<name>1774</name>
</trkpt>
<trkpt lat="48.946090" lon="8.662440">
<ele>349.0</ele>
<speed>2.6</speed>
<course>138.6</course>
<desc>Speed 2.6 km/h Distance 1.50 km</desc>
<time>2010-03-01T17:32:16.04</time>
<name>1775</name>
</trkpt>
<trkpt lat="48.946085" lon="8.662447">
<ele>349.0</ele>
<speed>2.7</speed>
<course>157.8</course>
<desc>Speed 2.7 km/h Distance 1.50 km</desc>
<time>2010-03-01T17:32:17.04</time>
<name>1776</name>
</trkpt>
<trkpt lat="48.946080" lon="8.662450">
<ele>349.0</ele>
<speed>3.0</speed>
<course>0.0</course>
<desc>Speed 3.0 km/h Distance 1.50 km</desc>
<time>2010-03-01T17:32:18.04</time>
<name>1777</name>
</trkpt>
<trkpt lat="48.946088" lon="8.662450">
<ele>350.5</ele>
<speed>2.6</speed>
<course>18.8</course>
<desc>Speed 2.6 km/h Distance 1.50 km</desc>
<time>2010-03-01T17:32:19.04</time>
<name>1778</name>
</trkpt>
<trkpt lat="48.946095" lon="8.662453">
<ele>351.0</ele>
<speed>1.0</speed>
<course>142.8</course>
<desc>Speed 1.0 km/h Distance 1.50 km</desc>
<time>2010-03-01T17:32:20.04</time>
<name>1779</name>
</trkpt>
<trkpt lat="48.946093" lon="8.662455">
<ele>351.0</ele>
<speed>0.5</speed>
<course>192.6</course>
<desc>Speed 0.5 km/h Distance 1.50 km</desc>
<time>2010-03-01T17:32:21.04</time>
<name>1780</name>
</trkpt>
<trkpt lat="48.946088" lon="8.662453">
<ele>351.0</ele>
<speed>1.4</speed>
<course>167.4</course>
<desc>Speed 1.4 km/h Distance 1.50 km</desc>
<time>2010-03-01T17:32:22.04</time>
<name>1781</name>
</trkpt>
<trkpt lat="48.946085" lon="8.662453">
<ele>351.0</ele>
<speed>0.9</speed>
<course>41.4</course>
<desc>Speed 0.9 km/h Distance 1.50 km</desc>
<time>2010-03-01T17:32:23.04</time>
<name>1782</name>
</trkpt>
<trkpt lat="48.946090" lon="8.662460">
<ele>351.5</ele>
<speed>1.2</speed>
<course>41.4</course>
<desc>Speed 1.2 km/h Distance 1.50 km</desc>
<time>2010-03-01T17:32:24.04</time>
<name>1783</name>
</trkpt>
<trkpt lat="48.946090" lon="8.662460">
<ele>351.5</ele>
<speed>0.4</speed>
<course>128.1</course>
<desc>Speed 0.4 km/h Distance 1.50 km</desc>
<time>2010-03-01T17:32:25.04</time>
<name>1784</name>
</trkpt>
<trkpt lat="48.946088" lon="8.662463">
<ele>352.0</ele>
<speed>0.8</speed>
<course>90.0</course>
<desc>Speed 0.8 km/h Distance 1.50 km</desc>
<time>2010-03-01T17:32:26.04</time>
<name>1785</name>
</trkpt>
<trkpt lat="48.946088" lon="8.662470">
<ele>352.5</ele>
<speed>1.5</speed>
<course>123.3</course>
<desc>Speed 1.5 km/h Distance 1.50 km</desc>
<time>2010-03-01T17:32:27.04</time>
<name>1786</name>
</trkpt>
<trkpt lat="48.946083" lon="8.662482">
<ele>352.5</ele>
<speed>3.6</speed>
<course>123.3</course>
<desc>Speed 3.6 km/h Distance 1.51 km</desc>
<time>2010-03-01T17:32:28.04</time>
<name>1787</name>
</trkpt>
<trkpt lat="48.946078" lon="8.662493">
<ele>352.5</ele>
<speed>3.5</speed>
<course>78.5</course>
<desc>Speed 3.5 km/h Distance 1.51 km</desc>
<time>2010-03-01T17:32:29.04</time>
<name>1788</name>
</trkpt>
<trkpt lat="48.946082" lon="8.662518">
<ele>352.5</ele>
<speed>6.5</speed>
<course>123.1</course>
<desc>Speed 6.5 km/h Distance 1.51 km</desc>
<time>2010-03-01T17:32:30.04</time>
<name>1789</name>
</trkpt>
<trkpt lat="48.946077" lon="8.662530">
<ele>353.0</ele>
<speed>2.7</speed>
<course>104.2</course>
<desc>Speed 2.7 km/h Distance 1.51 km</desc>
<time>2010-03-01T17:32:31.04</time>
<name>1790</name>
</trkpt>
<trkpt lat="48.946075" lon="8.662540">
<ele>353.5</ele>
<speed>2.7</speed>
<course>99.6</course>
<desc>Speed 2.7 km/h Distance 1.51 km</desc>
<time>2010-03-01T17:32:32.04</time>
<name>1791</name>
</trkpt>
<trkpt lat="48.946073" lon="8.662555">
<ele>354.5</ele>
<speed>3.8</speed>
<course>108.7</course>
<desc>Speed 3.8 km/h Distance 1.51 km</desc>
<time>2010-03-01T17:32:33.04</time>
<name>1792</name>
</trkpt>
<trkpt lat="48.946070" lon="8.662570">
<ele>355.0</ele>
<speed>3.0</speed>
<course>100.8</course>
<desc>Speed 3.0 km/h Distance 1.51 km</desc>
<time>2010-03-01T17:32:34.04</time>
<name>1793</name>
</trkpt>
<trkpt lat="48.946068" lon="8.662583">
<ele>355.0</ele>
<speed>3.2</speed>
<course>106.7</course>
<desc>Speed 3.2 km/h Distance 1.51 km</desc>
<time>2010-03-01T17:32:35.04</time>
<name>1794</name>
</trkpt>
<trkpt lat="48.946067" lon="8.662592">
<ele>355.0</ele>
<speed>2.2</speed>
<course>106.9</course>
<desc>Speed 2.2 km/h Distance 1.51 km</desc>
<time>2010-03-01T17:32:36.04</time>
<name>1795</name>
</trkpt>
<trkpt lat="48.946065" lon="8.662600">
<ele>355.0</ele>
<speed>2.0</speed>
<course>123.3</course>
<desc>Speed 2.0 km/h Distance 1.52 km</desc>
<time>2010-03-01T17:32:37.04</time>
<name>1796</name>
</trkpt>
<trkpt lat="48.946060" lon="8.662612">
<ele>355.0</ele>
<speed>3.0</speed>
<course>116.8</course>
<desc>Speed 3.0 km/h Distance 1.52 km</desc>
<time>2010-03-01T17:32:38.04</time>
<name>1797</name>
</trkpt>
<trkpt lat="48.946057" lon="8.662622">
<ele>355.0</ele>
<speed>1.7</speed>
<course>156.2</course>
<desc>Speed 1.7 km/h Distance 1.52 km</desc>
<time>2010-03-01T17:32:39.04</time>
<name>1798</name>
</trkpt>
<trkpt lat="48.946052" lon="8.662625">
<ele>355.0</ele>
<speed>1.3</speed>
<course>167.4</course>
<desc>Speed 1.3 km/h Distance 1.52 km</desc>
<time>2010-03-01T17:32:40.04</time>
<name>1799</name>
</trkpt>
<trkpt lat="48.946050" lon="8.662625">
<ele>355.0</ele>
<speed>1.8</speed>
<course>128.1</course>
<desc>Speed 1.8 km/h Distance 1.52 km</desc>
<time>2010-03-01T17:32:41.04</time>
<name>1800</name>
</trkpt>
<trkpt lat="48.946048" lon="8.662628">
<ele>354.5</ele>
<speed>0.5</speed>
<course>128.1</course>
<desc>Speed 0.5 km/h Distance 1.52 km</desc>
<time>2010-03-01T17:32:42.04</time>
<name>1801</name>
</trkpt>
<trkpt lat="48.946048" lon="8.662628">
<ele>354.5</ele>
<speed>0.7</speed>
<course>127.0</course>
<desc>Speed 0.7 km/h Distance 1.52 km</desc>
<time>2010-03-01T17:32:43.04</time>
<name>1802</name>
</trkpt>
<trkpt lat="48.946045" lon="8.662635">
<ele>355.0</ele>
<speed>1.2</speed>
<course>132.2</course>
<desc>Speed 1.2 km/h Distance 1.52 km</desc>
<time>2010-03-01T17:32:44.04</time>
<name>1803</name>
</trkpt>
<trkpt lat="48.946040" lon="8.662643">
<ele>354.5</ele>
<speed>1.5</speed>
<course>127.0</course>
<desc>Speed 1.5 km/h Distance 1.52 km</desc>
<time>2010-03-01T17:32:45.04</time>
<name>1804</name>
</trkpt>
<trkpt lat="48.946037" lon="8.662650">
<ele>354.5</ele>
<speed>1.8</speed>
<course>127.2</course>
<desc>Speed 1.8 km/h Distance 1.52 km</desc>
<time>2010-03-01T17:32:46.04</time>
<name>1805</name>
</trkpt>
<trkpt lat="48.946032" lon="8.662660">
<ele>354.5</ele>
<speed>2.6</speed>
<course>138.8</course>
<desc>Speed 2.6 km/h Distance 1.52 km</desc>
<time>2010-03-01T17:32:47.04</time>
<name>1806</name>
</trkpt>
<trkpt lat="48.946022" lon="8.662673">
<ele>354.5</ele>
<speed>3.6</speed>
<course>131.3</course>
<desc>Speed 3.6 km/h Distance 1.52 km</desc>
<time>2010-03-01T17:32:48.04</time>
<name>1807</name>
</trkpt>
<trkpt lat="48.946015" lon="8.662685">
<ele>354.5</ele>
<speed>2.7</speed>
<course>127.0</course>
<desc>Speed 2.7 km/h Distance 1.52 km</desc>
<time>2010-03-01T17:32:49.04</time>
<name>1808</name>
</trkpt>
<trkpt lat="48.946012" lon="8.662692">
<ele>354.5</ele>
<speed>1.6</speed>
<course>140.6</course>
<desc>Speed 1.6 km/h Distance 1.52 km</desc>
<time>2010-03-01T17:32:50.04</time>
<name>1809</name>
</trkpt>
<trkpt lat="48.946005" lon="8.662700">
<ele>354.5</ele>
<speed>2.5</speed>
<course>135.5</course>
<desc>Speed 2.5 km/h Distance 1.53 km</desc>
<time>2010-03-01T17:32:51.04</time>
<name>1810</name>
</trkpt>
<trkpt lat="48.945998" lon="8.662710">
<ele>354.5</ele>
<speed>3.5</speed>
<course>142.5</course>
<desc>Speed 3.5 km/h Distance 1.53 km</desc>
<time>2010-03-01T17:32:52.04</time>
<name>1811</name>
</trkpt>
<trkpt lat="48.945988" lon="8.662722">
<ele>355.0</ele>
<speed>3.4</speed>
<course>159.1</course>
<desc>Speed 3.4 km/h Distance 1.53 km</desc>
<time>2010-03-01T17:32:53.04</time>
<name>1812</name>
</trkpt>
<trkpt lat="48.945977" lon="8.662728">
<ele>354.5</ele>
<speed>3.5</speed>
<course>157.9</course>
<desc>Speed 3.5 km/h Distance 1.53 km</desc>
<time>2010-03-01T17:32:54.04</time>
<name>1813</name>
</trkpt>
<trkpt lat="48.945963" lon="8.662737">
<ele>354.0</ele>
<speed>4.0</speed>
<course>47.6</course>
<desc>Speed 4.0 km/h Distance 1.53 km</desc>
<time>2010-03-01T17:32:55.04</time>
<name>1814</name>
</trkpt>
<trkpt lat="48.945973" lon="8.662753">
<ele>355.5</ele>
<speed>5.2</speed>
<course>137.4</course>
<desc>Speed 5.2 km/h Distance 1.53 km</desc>
<time>2010-03-01T17:32:56.04</time>
<name>1815</name>
</trkpt>
<trkpt lat="48.945965" lon="8.662765">
<ele>356.0</ele>
<speed>3.7</speed>
<course>140.6</course>
<desc>Speed 3.7 km/h Distance 1.53 km</desc>
<time>2010-03-01T17:32:57.04</time>
<name>1816</name>
</trkpt>
<trkpt lat="48.945958" lon="8.662773">
<ele>355.5</ele>
<speed>2.5</speed>
<course>117.0</course>
<desc>Speed 2.5 km/h Distance 1.53 km</desc>
<time>2010-03-01T17:32:58.04</time>
<name>1817</name>
</trkpt>
<trkpt lat="48.945955" lon="8.662783">
<ele>355.5</ele>
<speed>2.5</speed>
<course>132.2</course>
<desc>Speed 2.5 km/h Distance 1.54 km</desc>
<time>2010-03-01T17:32:59.04</time>
<name>1818</name>
</trkpt>
<trkpt lat="48.945950" lon="8.662792">
<ele>355.5</ele>
<speed>1.9</speed>
<course>113.5</course>
<desc>Speed 1.9 km/h Distance 1.54 km</desc>
<time>2010-03-01T17:33:00.04</time>
<name>1819</name>
</trkpt>
<trkpt lat="48.945947" lon="8.662803">
<ele>355.5</ele>
<speed>2.2</speed>
<course>106.9</course>
<desc>Speed 2.2 km/h Distance 1.54 km</desc>
<time>2010-03-01T17:33:01.04</time>
<name>1820</name>
</trkpt>
<trkpt lat="48.945945" lon="8.662812">
<ele>355.5</ele>
<speed>1.9</speed>
<course>132.2</course>
<desc>Speed 1.9 km/h Distance 1.54 km</desc>
<time>2010-03-01T17:33:02.04</time>
<name>1821</name>
</trkpt>
<trkpt lat="48.945940" lon="8.662820">
<ele>355.0</ele>
<speed>1.9</speed>
<course>107.1</course>
<desc>Speed 1.9 km/h Distance 1.54 km</desc>
<time>2010-03-01T17:33:03.04</time>
<name>1822</name>
</trkpt>
<trkpt lat="48.945938" lon="8.662828">
<ele>355.0</ele>
<speed>2.4</speed>
<course>110.9</course>
<desc>Speed 2.4 km/h Distance 1.54 km</desc>
<time>2010-03-01T17:33:04.04</time>
<name>1823</name>
</trkpt>
<trkpt lat="48.945935" lon="8.662842">
<ele>355.0</ele>
<speed>3.4</speed>
<course>108.7</course>
<desc>Speed 3.4 km/h Distance 1.54 km</desc>
<time>2010-03-01T17:33:05.04</time>
<name>1824</name>
</trkpt>
<trkpt lat="48.945932" lon="8.662857">
<ele>355.0</ele>
<speed>3.6</speed>
<course>110.9</course>
<desc>Speed 3.6 km/h Distance 1.54 km</desc>
<time>2010-03-01T17:33:06.04</time>
<name>1825</name>
</trkpt>
<trkpt lat="48.945928" lon="8.662870">
<ele>355.0</ele>
<speed>2.7</speed>
<course>132.2</course>
<desc>Speed 2.7 km/h Distance 1.54 km</desc>
<time>2010-03-01T17:33:07.04</time>
<name>1826</name>
</trkpt>
<trkpt lat="48.945923" lon="8.662878">
<ele>355.0</ele>
<speed>2.5</speed>
<course>127.3</course>
<desc>Speed 2.5 km/h Distance 1.54 km</desc>
<time>2010-03-01T17:33:08.04</time>
<name>1827</name>
</trkpt>
<trkpt lat="48.945917" lon="8.662892">
<ele>355.0</ele>
<speed>3.4</speed>
<course>100.8</course>
<desc>Speed 3.4 km/h Distance 1.54 km</desc>
<time>2010-03-01T17:33:09.04</time>
<name>1828</name>
</trkpt>
<trkpt lat="48.945915" lon="8.662905">
<ele>355.0</ele>
<speed>3.2</speed>
<course>137.4</course>
<desc>Speed 3.2 km/h Distance 1.55 km</desc>
<time>2010-03-01T17:33:10.04</time>
<name>1829</name>
</trkpt>
<trkpt lat="48.945907" lon="8.662917">
<ele>355.0</ele>
<speed>4.4</speed>
<course>137.7</course>
<desc>Speed 4.4 km/h Distance 1.55 km</desc>
<time>2010-03-01T17:33:11.04</time>
<name>1830</name>
</trkpt>
<trkpt lat="48.945898" lon="8.662928">
<ele>355.0</ele>
<speed>3.8</speed>
<course>107.1</course>
<desc>Speed 3.8 km/h Distance 1.55 km</desc>
<time>2010-03-01T17:33:12.04</time>
<name>1831</name>
</trkpt>
<trkpt lat="48.945897" lon="8.662937">
<ele>354.5</ele>
<speed>2.3</speed>
<course>107.1</course>
<desc>Speed 2.3 km/h Distance 1.55 km</desc>
<time>2010-03-01T17:33:13.04</time>
<name>1832</name>
</trkpt>
<trkpt lat="48.945895" lon="8.662945">
<ele>354.0</ele>
<speed>1.9</speed>
<course>139.1</course>
<desc>Speed 1.9 km/h Distance 1.55 km</desc>
<time>2010-03-01T17:33:14.04</time>
<name>1833</name>
</trkpt>
<trkpt lat="48.945890" lon="8.662952">
<ele>354.0</ele>
<speed>2.7</speed>
<course>132.2</course>
<desc>Speed 2.7 km/h Distance 1.55 km</desc>
<time>2010-03-01T17:33:15.04</time>
<name>1834</name>
</trkpt>
<trkpt lat="48.945885" lon="8.662960">
<ele>354.0</ele>
<speed>2.4</speed>
<course>146.8</course>
<desc>Speed 2.4 km/h Distance 1.55 km</desc>
<time>2010-03-01T17:33:16.04</time>
<name>1835</name>
</trkpt>
<trkpt lat="48.945875" lon="8.662970">
<ele>353.5</ele>
<speed>4.1</speed>
<course>130.9</course>
<desc>Speed 4.1 km/h Distance 1.55 km</desc>
<time>2010-03-01T17:33:17.04</time>
<name>1836</name>
</trkpt>
<trkpt lat="48.945868" lon="8.662982">
<ele>353.0</ele>
<speed>3.6</speed>
<course>110.9</course>
<desc>Speed 3.6 km/h Distance 1.55 km</desc>
<time>2010-03-01T17:33:18.04</time>
<name>1837</name>
</trkpt>
<trkpt lat="48.945867" lon="8.662988">
<ele>353.5</ele>
<speed>2.0</speed>
<course>121.4</course>
<desc>Speed 2.0 km/h Distance 1.55 km</desc>
<time>2010-03-01T17:33:19.04</time>
<name>1838</name>
</trkpt>
<trkpt lat="48.945863" lon="8.662997">
<ele>354.0</ele>
<speed>3.1</speed>
<course>127.2</course>
<desc>Speed 3.1 km/h Distance 1.55 km</desc>
<time>2010-03-01T17:33:20.04</time>
<name>1839</name>
</trkpt>
<trkpt lat="48.945858" lon="8.663007">
<ele>354.0</ele>
<speed>3.8</speed>
<course>127.2</course>
<desc>Speed 3.8 km/h Distance 1.56 km</desc>
<time>2010-03-01T17:33:21.04</time>
<name>1840</name>
</trkpt>
<trkpt lat="48.945853" lon="8.663017">
<ele>354.0</ele>
<speed>3.1</speed>
<course>127.0</course>
<desc>Speed 3.1 km/h Distance 1.56 km</desc>
<time>2010-03-01T17:33:22.04</time>
<name>1841</name>
</trkpt>
<trkpt lat="48.945850" lon="8.663023">
<ele>354.0</ele>
<speed>2.0</speed>
<course>127.2</course>
<desc>Speed 2.0 km/h Distance 1.56 km</desc>
<time>2010-03-01T17:33:23.04</time>
<name>1842</name>
</trkpt>
<trkpt lat="48.945845" lon="8.663033">
<ele>354.0</ele>
<speed>2.4</speed>
<course>90.0</course>
<desc>Speed 2.4 km/h Distance 1.56 km</desc>
<time>2010-03-01T17:33:24.04</time>
<name>1843</name>
</trkpt>
<trkpt lat="48.945845" lon="8.663035">
<ele>354.0</ele>
<speed>0.5</speed>
<course>157.0</course>
<desc>Speed 0.5 km/h Distance 1.56 km</desc>
<time>2010-03-01T17:33:25.04</time>
<name>1844</name>
</trkpt>
<trkpt lat="48.945842" lon="8.663037">
<ele>354.0</ele>
<speed>0.5</speed>
<course>167.4</course>
<desc>Speed 0.5 km/h Distance 1.56 km</desc>
<time>2010-03-01T17:33:26.04</time>
<name>1845</name>
</trkpt>
<trkpt lat="48.945838" lon="8.663037">
<ele>354.0</ele>
<speed>0.1</speed>
<course>142.8</course>
<desc>Speed 0.1 km/h Distance 1.56 km</desc>
<time>2010-03-01T17:33:27.04</time>
<name>1846</name>
</trkpt>
<trkpt lat="48.945837" lon="8.663038">
<ele>354.0</ele>
<speed>0.1</speed>
<course>142.8</course>
<desc>Speed 0.1 km/h Distance 1.56 km</desc>
<time>2010-03-01T17:33:28.04</time>
<name>1847</name>
</trkpt>
<trkpt lat="48.945837" lon="8.663038">
<ele>354.0</ele>
<speed>0.4</speed>
<course>142.8</course>
<desc>Speed 0.4 km/h Distance 1.56 km</desc>
<time>2010-03-01T17:33:29.04</time>
<name>1848</name>
</trkpt>
<trkpt lat="48.945837" lon="8.663038">
<ele>354.0</ele>
<speed>0.4</speed>
<course>167.4</course>
<desc>Speed 0.4 km/h Distance 1.56 km</desc>
<time>2010-03-01T17:33:30.04</time>
<name>1849</name>
</trkpt>
<trkpt lat="48.945835" lon="8.663038">
<ele>354.0</ele>
<speed>0.1</speed>
<course>167.4</course>
<desc>Speed 0.1 km/h Distance 1.56 km</desc>
<time>2010-03-01T17:33:31.04</time>
<name>1850</name>
</trkpt>
<trkpt lat="48.945833" lon="8.663038">
<ele>354.0</ele>
<speed>0.3</speed>
<course>167.4</course>
<desc>Speed 0.3 km/h Distance 1.56 km</desc>
<time>2010-03-01T17:33:32.04</time>
<name>1851</name>
</trkpt>
<trkpt lat="48.945828" lon="8.663040">
<ele>354.0</ele>
<speed>2.1</speed>
<course>26.4</course>
<desc>Speed 2.1 km/h Distance 1.56 km</desc>
<time>2010-03-01T17:33:33.04</time>
<name>1852</name>
</trkpt>
<trkpt lat="48.945842" lon="8.663050">
<ele>354.0</ele>
<speed>5.9</speed>
<course>121.4</course>
<desc>Speed 5.9 km/h Distance 1.56 km</desc>
<time>2010-03-01T17:33:34.04</time>
<name>1853</name>
</trkpt>
<trkpt lat="48.945838" lon="8.663058">
<ele>354.0</ele>
<speed>2.1</speed>
<course>135.5</course>
<desc>Speed 2.1 km/h Distance 1.56 km</desc>
<time>2010-03-01T17:33:35.04</time>
<name>1854</name>
</trkpt>
<trkpt lat="48.945832" lon="8.663068">
<ele>354.0</ele>
<speed>3.2</speed>
<course>132.6</course>
<desc>Speed 3.2 km/h Distance 1.56 km</desc>
<time>2010-03-01T17:33:36.04</time>
<name>1855</name>
</trkpt>
<trkpt lat="48.945827" lon="8.663077">
<ele>354.0</ele>
<speed>2.7</speed>
<course>127.3</course>
<desc>Speed 2.7 km/h Distance 1.56 km</desc>
<time>2010-03-01T17:33:37.04</time>
<name>1856</name>
</trkpt>
<trkpt lat="48.945820" lon="8.663090">
<ele>354.0</ele>
<speed>3.6</speed>
<course>106.9</course>
<desc>Speed 3.6 km/h Distance 1.57 km</desc>
<time>2010-03-01T17:33:38.04</time>
<name>1857</name>
</trkpt>
<trkpt lat="48.945817" lon="8.663107">
<ele>354.0</ele>
<speed>3.7</speed>
<course>130.2</course>
<desc>Speed 3.7 km/h Distance 1.57 km</desc>
<time>2010-03-01T17:33:39.04</time>
<name>1858</name>
</trkpt>
<trkpt lat="48.945808" lon="8.663122">
<ele>354.0</ele>
<speed>3.6</speed>
<course>146.6</course>
<desc>Speed 3.6 km/h Distance 1.57 km</desc>
<time>2010-03-01T17:33:40.04</time>
<name>1859</name>
</trkpt>
<trkpt lat="48.945797" lon="8.663133">
<ele>353.5</ele>
<speed>4.3</speed>
<course>137.7</course>
<desc>Speed 4.3 km/h Distance 1.57 km</desc>
<time>2010-03-01T17:33:41.04</time>
<name>1860</name>
</trkpt>
<trkpt lat="48.945788" lon="8.663145">
<ele>352.5</ele>
<speed>3.4</speed>
<course>121.4</course>
<desc>Speed 3.4 km/h Distance 1.57 km</desc>
<time>2010-03-01T17:33:42.04</time>
<name>1861</name>
</trkpt>
<trkpt lat="48.945785" lon="8.663153">
<ele>352.0</ele>
<speed>2.4</speed>
<course>117.0</course>
<desc>Speed 2.4 km/h Distance 1.57 km</desc>
<time>2010-03-01T17:33:43.04</time>
<name>1862</name>
</trkpt>
<trkpt lat="48.945782" lon="8.663163">
<ele>352.0</ele>
<speed>2.4</speed>
<course>121.4</course>
<desc>Speed 2.4 km/h Distance 1.57 km</desc>
<time>2010-03-01T17:33:44.04</time>
<name>1863</name>
</trkpt>
<trkpt lat="48.945778" lon="8.663172">
<ele>352.0</ele>
<speed>1.5</speed>
<course>117.4</course>
<desc>Speed 1.5 km/h Distance 1.57 km</desc>
<time>2010-03-01T17:33:45.04</time>
<name>1864</name>
</trkpt>
<trkpt lat="48.945777" lon="8.663177">
<ele>351.5</ele>
<speed>1.4</speed>
<course>90.0</course>
<desc>Speed 1.4 km/h Distance 1.57 km</desc>
<time>2010-03-01T17:33:46.04</time>
<name>1865</name>
</trkpt>
<trkpt lat="48.945777" lon="8.663178">
<ele>351.5</ele>
<speed>0.6</speed>
<course>33.7</course>
<desc>Speed 0.6 km/h Distance 1.57 km</desc>
<time>2010-03-01T17:33:47.04</time>
<name>1866</name>
</trkpt>
<trkpt lat="48.945780" lon="8.663182">
<ele>352.0</ele>
<speed>0.4</speed>
<course>142.8</course>
<desc>Speed 0.4 km/h Distance 1.57 km</desc>
<time>2010-03-01T17:33:48.04</time>
<name>1867</name>
</trkpt>
<trkpt lat="48.945778" lon="8.663183">
<ele>352.0</ele>
<speed>0.7</speed>
<course>90.0</course>
<desc>Speed 0.7 km/h Distance 1.57 km</desc>
<time>2010-03-01T17:33:49.04</time>
<name>1868</name>
</trkpt>
<trkpt lat="48.945778" lon="8.663185">
<ele>352.0</ele>
<speed>0.3</speed>
<course>90.0</course>
<desc>Speed 0.3 km/h Distance 1.57 km</desc>
<time>2010-03-01T17:33:50.04</time>
<name>1869</name>
</trkpt>
<trkpt lat="48.945778" lon="8.663187">
<ele>352.0</ele>
<speed>0.2</speed>
<course>90.0</course>
<desc>Speed 0.2 km/h Distance 1.57 km</desc>
<time>2010-03-01T17:33:51.04</time>
<name>1870</name>
</trkpt>
<trkpt lat="48.945778" lon="8.663187">
<ele>351.5</ele>
<speed>0.1</speed>
<course>37.2</course>
<desc>Speed 0.1 km/h Distance 1.57 km</desc>
<time>2010-03-01T17:33:52.04</time>
<name>1871</name>
</trkpt>
<trkpt lat="48.945780" lon="8.663188">
<ele>351.5</ele>
<speed>0.4</speed>
<course>90.0</course>
<desc>Speed 0.4 km/h Distance 1.57 km</desc>
<time>2010-03-01T17:33:53.04</time>
<name>1872</name>
</trkpt>
<trkpt lat="48.945780" lon="8.663190">
<ele>351.0</ele>
<speed>0.4</speed>
<course>90.0</course>
<desc>Speed 0.4 km/h Distance 1.58 km</desc>
<time>2010-03-01T17:33:54.04</time>
<name>1873</name>
</trkpt>
<trkpt lat="48.945780" lon="8.663195">
<ele>350.5</ele>
<speed>0.9</speed>
<course>139.1</course>
<desc>Speed 0.9 km/h Distance 1.58 km</desc>
<time>2010-03-01T17:33:55.04</time>
<name>1874</name>
</trkpt>
<trkpt lat="48.945775" lon="8.663202">
<ele>351.0</ele>
<speed>2.2</speed>
<course>138.6</course>
<desc>Speed 2.2 km/h Distance 1.58 km</desc>
<time>2010-03-01T17:33:56.04</time>
<name>1875</name>
</trkpt>
<trkpt lat="48.945770" lon="8.663208">
<ele>350.5</ele>
<speed>2.4</speed>
<course>121.1</course>
<desc>Speed 2.4 km/h Distance 1.58 km</desc>
<time>2010-03-01T17:33:57.04</time>
<name>1876</name>
</trkpt>
<trkpt lat="48.945767" lon="8.663217">
<ele>350.0</ele>
<speed>1.9</speed>
<course>140.3</course>
<desc>Speed 1.9 km/h Distance 1.58 km</desc>
<time>2010-03-01T17:33:58.04</time>
<name>1877</name>
</trkpt>
<trkpt lat="48.945760" lon="8.663225">
<ele>349.5</ele>
<speed>2.6</speed>
<course>132.2</course>
<desc>Speed 2.6 km/h Distance 1.58 km</desc>
<time>2010-03-01T17:33:59.04</time>
<name>1878</name>
</trkpt>
<trkpt lat="48.945755" lon="8.663233">
<ele>349.0</ele>
<speed>2.0</speed>
<course>102.3</course>
<desc>Speed 2.0 km/h Distance 1.58 km</desc>
<time>2010-03-01T17:34:00.04</time>
<name>1879</name>
</trkpt>
<trkpt lat="48.945753" lon="8.663245">
<ele>348.0</ele>
<speed>1.7</speed>
<course>90.0</course>
<desc>Speed 1.7 km/h Distance 1.58 km</desc>
<time>2010-03-01T17:34:01.04</time>
<name>1880</name>
</trkpt>
<trkpt lat="48.945753" lon="8.663250">
<ele>347.5</ele>
<speed>0.8</speed>
<course>29.2</course>
<desc>Speed 0.8 km/h Distance 1.58 km</desc>
<time>2010-03-01T17:34:02.04</time>
<name>1881</name>
</trkpt>
<trkpt lat="48.945755" lon="8.663252">
<ele>348.0</ele>
<speed>0.7</speed>
<course>0.0</course>
<desc>Speed 0.7 km/h Distance 1.58 km</desc>
<time>2010-03-01T17:34:03.04</time>
<name>1882</name>
</trkpt>
<trkpt lat="48.945758" lon="8.663252">
<ele>347.5</ele>
<speed>1.0</speed>
<course>135.5</course>
<desc>Speed 1.0 km/h Distance 1.58 km</desc>
<time>2010-03-01T17:34:04.04</time>
<name>1883</name>
</trkpt>
<trkpt lat="48.945755" lon="8.663257">
<ele>347.5</ele>
<speed>2.1</speed>
<course>135.5</course>
<desc>Speed 2.1 km/h Distance 1.58 km</desc>
<time>2010-03-01T17:34:05.04</time>
<name>1884</name>
</trkpt>
<trkpt lat="48.945748" lon="8.663267">
<ele>347.0</ele>
<speed>2.8</speed>
<course>117.0</course>
<desc>Speed 2.8 km/h Distance 1.58 km</desc>
<time>2010-03-01T17:34:06.04</time>
<name>1885</name>
</trkpt>
<trkpt lat="48.945745" lon="8.663277">
<ele>347.0</ele>
<speed>2.5</speed>
<course>123.3</course>
<desc>Speed 2.5 km/h Distance 1.58 km</desc>
<time>2010-03-01T17:34:07.04</time>
<name>1886</name>
</trkpt>
<trkpt lat="48.945740" lon="8.663288">
<ele>347.5</ele>
<speed>2.9</speed>
<course>135.2</course>
<desc>Speed 2.9 km/h Distance 1.58 km</desc>
<time>2010-03-01T17:34:08.04</time>
<name>1887</name>
</trkpt>
<trkpt lat="48.945733" lon="8.663298">
<ele>347.0</ele>
<speed>3.2</speed>
<course>79.2</course>
<desc>Speed 3.2 km/h Distance 1.59 km</desc>
<time>2010-03-01T17:34:09.04</time>
<name>1888</name>
</trkpt>
<trkpt lat="48.945735" lon="8.663312">
<ele>347.5</ele>
<speed>2.7</speed>
<course>127.3</course>
<desc>Speed 2.7 km/h Distance 1.59 km</desc>
<time>2010-03-01T17:34:10.04</time>
<name>1889</name>
</trkpt>
<trkpt lat="48.945728" lon="8.663325">
<ele>347.0</ele>
<speed>3.5</speed>
<course>131.1</course>
<desc>Speed 3.5 km/h Distance 1.59 km</desc>
<time>2010-03-01T17:34:11.04</time>
<name>1890</name>
</trkpt>
<trkpt lat="48.945722" lon="8.663337">
<ele>347.0</ele>
<speed>3.9</speed>
<course>137.5</course>
<desc>Speed 3.9 km/h Distance 1.59 km</desc>
<time>2010-03-01T17:34:12.04</time>
<name>1891</name>
</trkpt>
<trkpt lat="48.945713" lon="8.663348">
<ele>347.0</ele>
<speed>4.2</speed>
<course>90.0</course>
<desc>Speed 4.2 km/h Distance 1.59 km</desc>
<time>2010-03-01T17:34:13.04</time>
<name>1892</name>
</trkpt>
<trkpt lat="48.945713" lon="8.663360">
<ele>349.0</ele>
<speed>2.6</speed>
<course>150.2</course>
<desc>Speed 2.6 km/h Distance 1.59 km</desc>
<time>2010-03-01T17:34:14.04</time>
<name>1893</name>
</trkpt>
<trkpt lat="48.945700" lon="8.663372">
<ele>347.5</ele>
<speed>6.3</speed>
<course>135.7</course>
<desc>Speed 6.3 km/h Distance 1.59 km</desc>
<time>2010-03-01T17:34:15.04</time>
<name>1894</name>
</trkpt>
<trkpt lat="48.945693" lon="8.663382">
<ele>347.5</ele>
<speed>4.1</speed>
<course>102.3</course>
<desc>Speed 4.1 km/h Distance 1.59 km</desc>
<time>2010-03-01T17:34:16.04</time>
<name>1895</name>
</trkpt>
<trkpt lat="48.945692" lon="8.663393">
<ele>348.0</ele>
<speed>3.4</speed>
<course>131.3</course>
<desc>Speed 3.4 km/h Distance 1.59 km</desc>
<time>2010-03-01T17:34:17.04</time>
<name>1896</name>
</trkpt>
<trkpt lat="48.945685" lon="8.663405">
<ele>347.5</ele>
<speed>4.6</speed>
<course>122.9</course>
<desc>Speed 4.6 km/h Distance 1.60 km</desc>
<time>2010-03-01T17:34:18.04</time>
<name>1897</name>
</trkpt>
<trkpt lat="48.945680" lon="8.663417">
<ele>348.0</ele>
<speed>3.7</speed>
<course>104.4</course>
<desc>Speed 3.7 km/h Distance 1.60 km</desc>
<time>2010-03-01T17:34:19.04</time>
<name>1898</name>
</trkpt>
<trkpt lat="48.945678" lon="8.663427">
<ele>348.0</ele>
<speed>2.2</speed>
<course>113.6</course>
<desc>Speed 2.2 km/h Distance 1.60 km</desc>
<time>2010-03-01T17:34:20.04</time>
<name>1899</name>
</trkpt>
<trkpt lat="48.945675" lon="8.663438">
<ele>348.5</ele>
<speed>3.6</speed>
<course>102.3</course>
<desc>Speed 3.6 km/h Distance 1.60 km</desc>
<time>2010-03-01T17:34:21.04</time>
<name>1900</name>
</trkpt>
<trkpt lat="48.945673" lon="8.663450">
<ele>348.5</ele>
<speed>3.3</speed>
<course>116.8</course>
<desc>Speed 3.3 km/h Distance 1.60 km</desc>
<time>2010-03-01T17:34:22.04</time>
<name>1901</name>
</trkpt>
<trkpt lat="48.945670" lon="8.663460">
<ele>349.0</ele>
<speed>2.4</speed>
<course>132.6</course>
<desc>Speed 2.4 km/h Distance 1.60 km</desc>
<time>2010-03-01T17:34:23.04</time>
<name>1902</name>
</trkpt>
<trkpt lat="48.945665" lon="8.663468">
<ele>348.5</ele>
<speed>2.9</speed>
<course>135.5</course>
<desc>Speed 2.9 km/h Distance 1.60 km</desc>
<time>2010-03-01T17:34:24.04</time>
<name>1903</name>
</trkpt>
<trkpt lat="48.945658" lon="8.663478">
<ele>348.5</ele>
<speed>2.7</speed>
<course>135.5</course>
<desc>Speed 2.7 km/h Distance 1.60 km</desc>
<time>2010-03-01T17:34:25.04</time>
<name>1904</name>
</trkpt>
<trkpt lat="48.945652" lon="8.663488">
<ele>348.5</ele>
<speed>2.6</speed>
<course>132.2</course>
<desc>Speed 2.6 km/h Distance 1.60 km</desc>
<time>2010-03-01T17:34:26.04</time>
<name>1905</name>
</trkpt>
<trkpt lat="48.945647" lon="8.663497">
<ele>348.0</ele>
<speed>2.7</speed>
<course>146.8</course>
<desc>Speed 2.7 km/h Distance 1.60 km</desc>
<time>2010-03-01T17:34:27.04</time>
<name>1906</name>
</trkpt>
<trkpt lat="48.945642" lon="8.663502">
<ele>347.5</ele>
<speed>1.6</speed>
<course>121.8</course>
<desc>Speed 1.6 km/h Distance 1.60 km</desc>
<time>2010-03-01T17:34:28.04</time>
<name>1907</name>
</trkpt>
<trkpt lat="48.945638" lon="8.663510">
<ele>347.5</ele>
<speed>2.0</speed>
<course>146.8</course>
<desc>Speed 2.0 km/h Distance 1.61 km</desc>
<time>2010-03-01T17:34:29.04</time>
<name>1908</name>
</trkpt>
<trkpt lat="48.945630" lon="8.663518">
<ele>347.0</ele>
<speed>2.6</speed>
<course>146.8</course>
<desc>Speed 2.6 km/h Distance 1.61 km</desc>
<time>2010-03-01T17:34:30.04</time>
<name>1909</name>
</trkpt>
<trkpt lat="48.945625" lon="8.663523">
<ele>346.5</ele>
<speed>2.1</speed>
<course>117.4</course>
<desc>Speed 2.1 km/h Distance 1.61 km</desc>
<time>2010-03-01T17:34:31.04</time>
<name>1910</name>
</trkpt>
<trkpt lat="48.945623" lon="8.663528">
<ele>346.5</ele>
<speed>1.5</speed>
<course>90.0</course>
<desc>Speed 1.5 km/h Distance 1.61 km</desc>
<time>2010-03-01T17:34:32.04</time>
<name>1911</name>
</trkpt>
<trkpt lat="48.945623" lon="8.663532">
<ele>346.5</ele>
<speed>0.9</speed>
<course>12.6</course>
<desc>Speed 0.9 km/h Distance 1.61 km</desc>
<time>2010-03-01T17:34:33.04</time>
<name>1912</name>
</trkpt>
<trkpt lat="48.945625" lon="8.663532">
<ele>346.5</ele>
<speed>0.1</speed>
<course>12.6</course>
<desc>Speed 0.1 km/h Distance 1.61 km</desc>
<time>2010-03-01T17:34:34.04</time>
<name>1913</name>
</trkpt>
<trkpt lat="48.945627" lon="8.663532">
<ele>346.5</ele>
<speed>0.4</speed>
<course>37.2</course>
<desc>Speed 0.4 km/h Distance 1.61 km</desc>
<time>2010-03-01T17:34:35.04</time>
<name>1914</name>
</trkpt>
<trkpt lat="48.945628" lon="8.663533">
<ele>346.5</ele>
<speed>0.1</speed>
<course>90.0</course>
<desc>Speed 0.1 km/h Distance 1.61 km</desc>
<time>2010-03-01T17:34:36.04</time>
<name>1915</name>
</trkpt>
<trkpt lat="48.945628" lon="8.663535">
<ele>346.5</ele>
<speed>0.4</speed>
<course>12.6</course>
<desc>Speed 0.4 km/h Distance 1.61 km</desc>
<time>2010-03-01T17:34:37.04</time>
<name>1916</name>
</trkpt>
<trkpt lat="48.945630" lon="8.663535">
<ele>346.5</ele>
<speed>0.3</speed>
<course>37.2</course>
<desc>Speed 0.3 km/h Distance 1.61 km</desc>
<time>2010-03-01T17:34:38.04</time>
<name>1917</name>
</trkpt>
<trkpt lat="48.945632" lon="8.663537">
<ele>346.5</ele>
<speed>0.4</speed>
<course>37.2</course>
<desc>Speed 0.4 km/h Distance 1.61 km</desc>
<time>2010-03-01T17:34:39.04</time>
<name>1918</name>
</trkpt>
<trkpt lat="48.945632" lon="8.663537">
<ele>346.5</ele>
<speed>0.3</speed>
<course>37.2</course>
<desc>Speed 0.3 km/h Distance 1.61 km</desc>
<time>2010-03-01T17:34:40.04</time>
<name>1919</name>
</trkpt>
<trkpt lat="48.945632" lon="8.663537">
<ele>346.5</ele>
<speed>0.5</speed>
<course>90.0</course>
<desc>Speed 0.5 km/h Distance 1.61 km</desc>
<time>2010-03-01T17:34:41.04</time>
<name>1920</name>
</trkpt>
<trkpt lat="48.945632" lon="8.663538">
<ele>346.0</ele>
<speed>1.0</speed>
<course>37.2</course>
<desc>Speed 1.0 km/h Distance 1.61 km</desc>
<time>2010-03-01T17:34:42.04</time>
<name>1921</name>
</trkpt>
<trkpt lat="48.945633" lon="8.663540">
<ele>346.0</ele>
<speed>0.3</speed>
<course>37.2</course>
<desc>Speed 0.3 km/h Distance 1.61 km</desc>
<time>2010-03-01T17:34:43.04</time>
<name>1922</name>
</trkpt>
<trkpt lat="48.945635" lon="8.663542">
<ele>346.0</ele>
<speed>0.2</speed>
<course>90.0</course>
<desc>Speed 0.2 km/h Distance 1.61 km</desc>
<time>2010-03-01T17:34:44.04</time>
<name>1923</name>
</trkpt>
<trkpt lat="48.945635" lon="8.663543">
<ele>346.0</ele>
<speed>0.5</speed>
<course>90.0</course>
<desc>Speed 0.5 km/h Distance 1.61 km</desc>
<time>2010-03-01T17:34:45.04</time>
<name>1924</name>
</trkpt>
<trkpt lat="48.945635" lon="8.663543">
<ele>346.0</ele>
<speed>0.1</speed>
<course>128.1</course>
<desc>Speed 0.1 km/h Distance 1.61 km</desc>
<time>2010-03-01T17:34:46.04</time>
<name>1925</name>
</trkpt>
<trkpt lat="48.945633" lon="8.663547">
<ele>346.0</ele>
<speed>0.9</speed>
<course>110.9</course>
<desc>Speed 0.9 km/h Distance 1.61 km</desc>
<time>2010-03-01T17:34:47.04</time>
<name>1926</name>
</trkpt>
<trkpt lat="48.945632" lon="8.663553">
<ele>346.0</ele>
<speed>1.7</speed>
<course>116.6</course>
<desc>Speed 1.7 km/h Distance 1.61 km</desc>
<time>2010-03-01T17:34:48.04</time>
<name>1927</name>
</trkpt>
<trkpt lat="48.945630" lon="8.663558">
<ele>347.0</ele>
<speed>1.2</speed>
<course>116.6</course>
<desc>Speed 1.2 km/h Distance 1.61 km</desc>
<time>2010-03-01T17:34:49.04</time>
<name>1928</name>
</trkpt>
<trkpt lat="48.945630" lon="8.663558">
<ele>347.0</ele>
<speed>0.3</speed>
<course>142.8</course>
<desc>Speed 0.3 km/h Distance 1.61 km</desc>
<time>2010-03-01T17:34:50.04</time>
<name>1929</name>
</trkpt>
<trkpt lat="48.945628" lon="8.663560">
<ele>347.0</ele>
<speed>0.7</speed>
<course>167.4</course>
<desc>Speed 0.7 km/h Distance 1.61 km</desc>
<time>2010-03-01T17:34:51.04</time>
<name>1930</name>
</trkpt>
<trkpt lat="48.945627" lon="8.663560">
<ele>347.0</ele>
<speed>0.3</speed>
<course>142.8</course>
<desc>Speed 0.3 km/h Distance 1.61 km</desc>
<time>2010-03-01T17:34:52.04</time>
<name>1931</name>
</trkpt>
<trkpt lat="48.945625" lon="8.663562">
<ele>346.5</ele>
<speed>0.5</speed>
<course>90.0</course>
<desc>Speed 0.5 km/h Distance 1.61 km</desc>
<time>2010-03-01T17:34:53.04</time>
<name>1932</name>
</trkpt>
<trkpt lat="48.945625" lon="8.663563">
<ele>346.5</ele>
<speed>0.3</speed>
<course>167.4</course>
<desc>Speed 0.3 km/h Distance 1.61 km</desc>
<time>2010-03-01T17:34:54.04</time>
<name>1933</name>
</trkpt>
<trkpt lat="48.945623" lon="8.663563">
<ele>346.5</ele>
<speed>0.3</speed>
<course>167.4</course>
<desc>Speed 0.3 km/h Distance 1.61 km</desc>
<time>2010-03-01T17:34:55.04</time>
<name>1934</name>
</trkpt>
<trkpt lat="48.945623" lon="8.663563">
<ele>346.5</ele>
<speed>0.1</speed>
<course>167.4</course>
<desc>Speed 0.1 km/h Distance 1.61 km</desc>
<time>2010-03-01T17:34:56.04</time>
<name>1935</name>
</trkpt>
<trkpt lat="48.945623" lon="8.663563">
<ele>346.5</ele>
<speed>0.4</speed>
<course>147.7</course>
<desc>Speed 0.4 km/h Distance 1.61 km</desc>
<time>2010-03-01T17:34:57.04</time>
<name>1936</name>
</trkpt>
<trkpt lat="48.945618" lon="8.663568">
<ele>346.5</ele>
<speed>1.4</speed>
<course>150.6</course>
<desc>Speed 1.4 km/h Distance 1.61 km</desc>
<time>2010-03-01T17:34:58.04</time>
<name>1937</name>
</trkpt>
<trkpt lat="48.945607" lon="8.663578">
<ele>346.0</ele>
<speed>3.2</speed>
<course>131.1</course>
<desc>Speed 3.2 km/h Distance 1.61 km</desc>
<time>2010-03-01T17:34:59.04</time>
<name>1938</name>
</trkpt>
<trkpt lat="48.945600" lon="8.663590">
<ele>346.0</ele>
<speed>3.2</speed>
<course>122.9</course>
<desc>Speed 3.2 km/h Distance 1.62 km</desc>
<time>2010-03-01T17:35:00.04</time>
<name>1939</name>
</trkpt>
<trkpt lat="48.945595" lon="8.663602">
<ele>346.0</ele>
<speed>2.7</speed>
<course>137.4</course>
<desc>Speed 2.7 km/h Distance 1.62 km</desc>
<time>2010-03-01T17:35:01.04</time>
<name>1940</name>
</trkpt>
<trkpt lat="48.945587" lon="8.663613">
<ele>346.0</ele>
<speed>3.7</speed>
<course>141.9</course>
<desc>Speed 3.7 km/h Distance 1.62 km</desc>
<time>2010-03-01T17:35:02.04</time>
<name>1941</name>
</trkpt>
<trkpt lat="48.945578" lon="8.663623">
<ele>346.0</ele>
<speed>3.4</speed>
<course>119.8</course>
<desc>Speed 3.4 km/h Distance 1.62 km</desc>
<time>2010-03-01T17:35:03.04</time>
<name>1942</name>
</trkpt>
<trkpt lat="48.945573" lon="8.663637">
<ele>346.0</ele>
<speed>3.3</speed>
<course>113.5</course>
<desc>Speed 3.3 km/h Distance 1.62 km</desc>
<time>2010-03-01T17:35:04.04</time>
<name>1943</name>
</trkpt>
<trkpt lat="48.945570" lon="8.663648">
<ele>345.5</ele>
<speed>3.3</speed>
<course>130.9</course>
<desc>Speed 3.3 km/h Distance 1.62 km</desc>
<time>2010-03-01T17:35:05.04</time>
<name>1944</name>
</trkpt>
<trkpt lat="48.945563" lon="8.663660">
<ele>345.5</ele>
<speed>3.9</speed>
<course>113.5</course>
<desc>Speed 3.9 km/h Distance 1.62 km</desc>
<time>2010-03-01T17:35:06.04</time>
<name>1945</name>
</trkpt>
<trkpt lat="48.945560" lon="8.663672">
<ele>345.5</ele>
<speed>2.7</speed>
<course>90.0</course>
<desc>Speed 2.7 km/h Distance 1.62 km</desc>
<time>2010-03-01T17:35:07.04</time>
<name>1946</name>
</trkpt>
<trkpt lat="48.945560" lon="8.663675">
<ele>345.0</ele>
<speed>0.9</speed>
<course>12.6</course>
<desc>Speed 0.9 km/h Distance 1.62 km</desc>
<time>2010-03-01T17:35:08.04</time>
<name>1947</name>
</trkpt>
<trkpt lat="48.945562" lon="8.663677">
<ele>345.0</ele>
<speed>0.3</speed>
<course>180.0</course>
<desc>Speed 0.3 km/h Distance 1.62 km</desc>
<time>2010-03-01T17:35:09.04</time>
<name>1948</name>
</trkpt>
<trkpt lat="48.945558" lon="8.663677">
<ele>345.0</ele>
<speed>1.3</speed>
<course>180.0</course>
<desc>Speed 1.3 km/h Distance 1.62 km</desc>
<time>2010-03-01T17:35:10.04</time>
<name>1949</name>
</trkpt>
<trkpt lat="48.945558" lon="8.663677">
<ele>345.0</ele>
<speed>0.6</speed>
<course>37.2</course>
<desc>Speed 0.6 km/h Distance 1.62 km</desc>
<time>2010-03-01T17:35:11.04</time>
<name>1950</name>
</trkpt>
<trkpt lat="48.945560" lon="8.663678">
<ele>345.0</ele>
<speed>0.3</speed>
<course>0.0</course>
<desc>Speed 0.3 km/h Distance 1.62 km</desc>
<time>2010-03-01T17:35:12.04</time>
<name>1951</name>
</trkpt>
<trkpt lat="48.945562" lon="8.663678">
<ele>345.0</ele>
<speed>0.4</speed>
<course>12.6</course>
<desc>Speed 0.4 km/h Distance 1.62 km</desc>
<time>2010-03-01T17:35:13.04</time>
<name>1952</name>
</trkpt>
<trkpt lat="48.945563" lon="8.663680">
<ele>345.0</ele>
<speed>0.5</speed>
<course>127.0</course>
<desc>Speed 0.5 km/h Distance 1.62 km</desc>
<time>2010-03-01T17:35:14.04</time>
<name>1953</name>
</trkpt>
<trkpt lat="48.945560" lon="8.663687">
<ele>345.0</ele>
<speed>2.2</speed>
<course>0.0</course>
<desc>Speed 2.2 km/h Distance 1.62 km</desc>
<time>2010-03-01T17:35:15.04</time>
<name>1954</name>
</trkpt>
<trkpt lat="48.945562" lon="8.663687">
<ele>345.0</ele>
<speed>0.2</speed>
<course>12.6</course>
<desc>Speed 0.2 km/h Distance 1.62 km</desc>
<time>2010-03-01T17:35:16.04</time>
<name>1955</name>
</trkpt>
<trkpt lat="48.945563" lon="8.663688">
<ele>345.0</ele>
<speed>0.6</speed>
<course>29.2</course>
<desc>Speed 0.6 km/h Distance 1.63 km</desc>
<time>2010-03-01T17:35:17.04</time>
<name>1956</name>
</trkpt>
<trkpt lat="48.945565" lon="8.663690">
<ele>345.0</ele>
<speed>0.6</speed>
<course>90.0</course>
<desc>Speed 0.6 km/h Distance 1.63 km</desc>
<time>2010-03-01T17:35:18.04</time>
<name>1957</name>
</trkpt>
<trkpt lat="48.945565" lon="8.663700">
<ele>345.0</ele>
<speed>2.2</speed>
<course>116.9</course>
<desc>Speed 2.2 km/h Distance 1.63 km</desc>
<time>2010-03-01T17:35:19.04</time>
<name>1958</name>
</trkpt>
<trkpt lat="48.945560" lon="8.663715">
<ele>345.0</ele>
<speed>3.9</speed>
<course>108.7</course>
<desc>Speed 3.9 km/h Distance 1.63 km</desc>
<time>2010-03-01T17:35:20.04</time>
<name>1959</name>
</trkpt>
<trkpt lat="48.945557" lon="8.663730">
<ele>345.0</ele>
<speed>3.6</speed>
<course>130.9</course>
<desc>Speed 3.6 km/h Distance 1.63 km</desc>
<time>2010-03-01T17:35:21.04</time>
<name>1960</name>
</trkpt>
<trkpt lat="48.945550" lon="8.663742">
<ele>345.0</ele>
<speed>3.6</speed>
<course>146.8</course>
<desc>Speed 3.6 km/h Distance 1.63 km</desc>
<time>2010-03-01T17:35:22.04</time>
<name>1961</name>
</trkpt>
<trkpt lat="48.945542" lon="8.663750">
<ele>344.5</ele>
<speed>3.1</speed>
<course>117.0</course>
<desc>Speed 3.1 km/h Distance 1.63 km</desc>
<time>2010-03-01T17:35:23.04</time>
<name>1962</name>
</trkpt>
<trkpt lat="48.945538" lon="8.663760">
<ele>345.0</ele>
<speed>2.0</speed>
<course>131.3</course>
<desc>Speed 2.0 km/h Distance 1.63 km</desc>
<time>2010-03-01T17:35:24.04</time>
<name>1963</name>
</trkpt>
<trkpt lat="48.945532" lon="8.663772">
<ele>345.0</ele>
<speed>3.7</speed>
<course>120.4</course>
<desc>Speed 3.7 km/h Distance 1.63 km</desc>
<time>2010-03-01T17:35:25.04</time>
<name>1964</name>
</trkpt>
<trkpt lat="48.945523" lon="8.663793">
<ele>345.0</ele>
<speed>5.8</speed>
<course>136.7</course>
<desc>Speed 5.8 km/h Distance 1.63 km</desc>
<time>2010-03-01T17:35:26.04</time>
<name>1965</name>
</trkpt>
<trkpt lat="48.945512" lon="8.663810">
<ele>345.0</ele>
<speed>6.0</speed>
<course>137.4</course>
<desc>Speed 6.0 km/h Distance 1.64 km</desc>
<time>2010-03-01T17:35:27.04</time>
<name>1966</name>
</trkpt>
<trkpt lat="48.945503" lon="8.663822">
<ele>345.0</ele>
<speed>4.2</speed>
<course>141.4</course>
<desc>Speed 4.2 km/h Distance 1.64 km</desc>
<time>2010-03-01T17:35:28.04</time>
<name>1967</name>
</trkpt>
<trkpt lat="48.945488" lon="8.663840">
<ele>345.5</ele>
<speed>7.4</speed>
<course>141.9</course>
<desc>Speed 7.4 km/h Distance 1.64 km</desc>
<time>2010-03-01T17:35:29.04</time>
<name>1968</name>
</trkpt>
<trkpt lat="48.945480" lon="8.663850">
<ele>345.5</ele>
<speed>4.5</speed>
<course>123.3</course>
<desc>Speed 4.5 km/h Distance 1.64 km</desc>
<time>2010-03-01T17:35:30.04</time>
<name>1969</name>
</trkpt>
<trkpt lat="48.945475" lon="8.663862">
<ele>345.5</ele>
<speed>4.0</speed>
<course>127.2</course>
<desc>Speed 4.0 km/h Distance 1.64 km</desc>
<time>2010-03-01T17:35:31.04</time>
<name>1970</name>
</trkpt>
<trkpt lat="48.945470" lon="8.663872">
<ele>345.5</ele>
<speed>3.7</speed>
<course>135.5</course>
<desc>Speed 3.7 km/h Distance 1.64 km</desc>
<time>2010-03-01T17:35:32.04</time>
<name>1971</name>
</trkpt>
<trkpt lat="48.945463" lon="8.663882">
<ele>345.5</ele>
<speed>3.7</speed>
<course>150.6</course>
<desc>Speed 3.7 km/h Distance 1.64 km</desc>
<time>2010-03-01T17:35:33.04</time>
<name>1972</name>
</trkpt>
<trkpt lat="48.945452" lon="8.663892">
<ele>345.0</ele>
<speed>4.7</speed>
<course>153.6</course>
<desc>Speed 4.7 km/h Distance 1.65 km</desc>
<time>2010-03-01T17:35:34.04</time>
<name>1973</name>
</trkpt>
<trkpt lat="48.945445" lon="8.663897">
<ele>344.5</ele>
<speed>2.3</speed>
<course>140.6</course>
<desc>Speed 2.3 km/h Distance 1.65 km</desc>
<time>2010-03-01T17:35:35.04</time>
<name>1974</name>
</trkpt>
<trkpt lat="48.945438" lon="8.663905">
<ele>344.5</ele>
<speed>3.6</speed>
<course>146.6</course>
<desc>Speed 3.6 km/h Distance 1.65 km</desc>
<time>2010-03-01T17:35:36.04</time>
<name>1975</name>
</trkpt>
<trkpt lat="48.945427" lon="8.663917">
<ele>344.5</ele>
<speed>4.9</speed>
<course>121.4</course>
<desc>Speed 4.9 km/h Distance 1.65 km</desc>
<time>2010-03-01T17:35:37.04</time>
<name>1976</name>
</trkpt>
<trkpt lat="48.945423" lon="8.663925">
<ele>344.5</ele>
<speed>2.0</speed>
<course>152.1</course>
<desc>Speed 2.0 km/h Distance 1.65 km</desc>
<time>2010-03-01T17:35:38.04</time>
<name>1977</name>
</trkpt>
<trkpt lat="48.945415" lon="8.663932">
<ele>344.0</ele>
<speed>3.6</speed>
<course>167.4</course>
<desc>Speed 3.6 km/h Distance 1.65 km</desc>
<time>2010-03-01T17:35:39.04</time>
<name>1978</name>
</trkpt>
<trkpt lat="48.945412" lon="8.663933">
<ele>344.0</ele>
<speed>0.9</speed>
<course>167.4</course>
<desc>Speed 0.9 km/h Distance 1.65 km</desc>
<time>2010-03-01T17:35:40.04</time>
<name>1979</name>
</trkpt>
<trkpt lat="48.945412" lon="8.663933">
<ele>344.0</ele>
<speed>0.4</speed>
<course>139.1</course>
<desc>Speed 0.4 km/h Distance 1.65 km</desc>
<time>2010-03-01T17:35:41.04</time>
<name>1980</name>
</trkpt>
<trkpt lat="48.945407" lon="8.663940">
<ele>344.0</ele>
<speed>2.2</speed>
<course>166.2</course>
<desc>Speed 2.2 km/h Distance 1.65 km</desc>
<time>2010-03-01T17:35:42.04</time>
<name>1981</name>
</trkpt>
<trkpt lat="48.945398" lon="8.663943">
<ele>343.5</ele>
<speed>3.3</speed>
<course>167.4</course>
<desc>Speed 3.3 km/h Distance 1.65 km</desc>
<time>2010-03-01T17:35:43.04</time>
<name>1982</name>
</trkpt>
<trkpt lat="48.945393" lon="8.663945">
<ele>343.5</ele>
<speed>0.9</speed>
<course>157.9</course>
<desc>Speed 0.9 km/h Distance 1.65 km</desc>
<time>2010-03-01T17:35:44.04</time>
<name>1983</name>
</trkpt>
<trkpt lat="48.945380" lon="8.663953">
<ele>343.5</ele>
<speed>5.8</speed>
<course>164.5</course>
<desc>Speed 5.8 km/h Distance 1.65 km</desc>
<time>2010-03-01T17:35:45.04</time>
<name>1984</name>
</trkpt>
<trkpt lat="48.945368" lon="8.663958">
<ele>343.5</ele>
<speed>4.8</speed>
<course>172.6</course>
<desc>Speed 4.8 km/h Distance 1.66 km</desc>
<time>2010-03-01T17:35:46.04</time>
<name>1985</name>
</trkpt>
<trkpt lat="48.945362" lon="8.663960">
<ele>343.0</ele>
<speed>2.2</speed>
<course>161.8</course>
<desc>Speed 2.2 km/h Distance 1.66 km</desc>
<time>2010-03-01T17:35:47.04</time>
<name>1986</name>
</trkpt>
<trkpt lat="48.945352" lon="8.663965">
<ele>343.0</ele>
<speed>3.2</speed>
<course>167.4</course>
<desc>Speed 3.2 km/h Distance 1.66 km</desc>
<time>2010-03-01T17:35:48.04</time>
<name>1987</name>
</trkpt>
<trkpt lat="48.945342" lon="8.663968">
<ele>343.0</ele>
<speed>3.7</speed>
<course>157.4</course>
<desc>Speed 3.7 km/h Distance 1.66 km</desc>
<time>2010-03-01T17:35:49.04</time>
<name>1988</name>
</trkpt>
<trkpt lat="48.945328" lon="8.663977">
<ele>343.0</ele>
<speed>4.5</speed>
<course>175.0</course>
<desc>Speed 4.5 km/h Distance 1.66 km</desc>
<time>2010-03-01T17:35:50.04</time>
<name>1989</name>
</trkpt>
<trkpt lat="48.945320" lon="8.663977">
<ele>343.0</ele>
<speed>2.2</speed>
<course>164.5</course>
<desc>Speed 2.2 km/h Distance 1.66 km</desc>
<time>2010-03-01T17:35:51.04</time>
<name>1990</name>
</trkpt>
<trkpt lat="48.945308" lon="8.663982">
<ele>343.0</ele>
<speed>3.6</speed>
<course>161.9</course>
<desc>Speed 3.6 km/h Distance 1.66 km</desc>
<time>2010-03-01T17:35:52.04</time>
<name>1991</name>
</trkpt>
<trkpt lat="48.945295" lon="8.663988">
<ele>343.0</ele>
<speed>4.2</speed>
<course>165.1</course>
<desc>Speed 4.2 km/h Distance 1.66 km</desc>
<time>2010-03-01T17:35:53.04</time>
<name>1992</name>
</trkpt>
<trkpt lat="48.945287" lon="8.663992">
<ele>343.0</ele>
<speed>2.6</speed>
<course>153.6</course>
<desc>Speed 2.6 km/h Distance 1.67 km</desc>
<time>2010-03-01T17:35:54.04</time>
<name>1993</name>
</trkpt>
<trkpt lat="48.945280" lon="8.663997">
<ele>343.0</ele>
<speed>2.5</speed>
<course>146.8</course>
<desc>Speed 2.5 km/h Distance 1.67 km</desc>
<time>2010-03-01T17:35:55.04</time>
<name>1994</name>
</trkpt>
<trkpt lat="48.945270" lon="8.664007">
<ele>342.5</ele>
<speed>2.8</speed>
<course>142.5</course>
<desc>Speed 2.8 km/h Distance 1.67 km</desc>
<time>2010-03-01T17:35:56.04</time>
<name>1995</name>
</trkpt>
<trkpt lat="48.945260" lon="8.664018">
<ele>342.5</ele>
<speed>3.6</speed>
<course>135.5</course>
<desc>Speed 3.6 km/h Distance 1.67 km</desc>
<time>2010-03-01T17:35:57.04</time>
<name>1996</name>
</trkpt>
<trkpt lat="48.945253" lon="8.664028">
<ele>342.0</ele>
<speed>3.0</speed>
<course>133.5</course>
<desc>Speed 3.0 km/h Distance 1.67 km</desc>
<time>2010-03-01T17:35:58.04</time>
<name>1997</name>
</trkpt>
<trkpt lat="48.945245" lon="8.664042">
<ele>342.0</ele>
<speed>3.4</speed>
<course>135.5</course>
<desc>Speed 3.4 km/h Distance 1.67 km</desc>
<time>2010-03-01T17:35:59.04</time>
<name>1998</name>
</trkpt>
<trkpt lat="48.945238" lon="8.664052">
<ele>342.0</ele>
<speed>2.6</speed>
<course>132.5</course>
<desc>Speed 2.6 km/h Distance 1.67 km</desc>
<time>2010-03-01T17:36:00.04</time>
<name>1999</name>
</trkpt>
<trkpt lat="48.945228" lon="8.664068">
<ele>342.0</ele>
<speed>4.5</speed>
<course>127.3</course>
<desc>Speed 4.5 km/h Distance 1.67 km</desc>
<time>2010-03-01T17:36:01.04</time>
<name>2000</name>
</trkpt>
<trkpt lat="48.945220" lon="8.664085">
<ele>341.5</ele>
<speed>3.7</speed>
<course>132.4</course>
<desc>Speed 3.7 km/h Distance 1.68 km</desc>
<time>2010-03-01T17:36:02.04</time>
<name>2001</name>
</trkpt>
<trkpt lat="48.945210" lon="8.664102">
<ele>341.5</ele>
<speed>4.2</speed>
<course>141.9</course>
<desc>Speed 4.2 km/h Distance 1.68 km</desc>
<time>2010-03-01T17:36:03.04</time>
<name>2002</name>
</trkpt>
<trkpt lat="48.945202" lon="8.664112">
<ele>341.5</ele>
<speed>3.5</speed>
<course>151.4</course>
<desc>Speed 3.5 km/h Distance 1.68 km</desc>
<time>2010-03-01T17:36:04.04</time>
<name>2003</name>
</trkpt>
<trkpt lat="48.945192" lon="8.664120">
<ele>341.0</ele>
<speed>2.8</speed>
<course>154.4</course>
<desc>Speed 2.8 km/h Distance 1.68 km</desc>
<time>2010-03-01T17:36:05.04</time>
<name>2004</name>
</trkpt>
<trkpt lat="48.945185" lon="8.664125">
<ele>341.0</ele>
<speed>1.7</speed>
<course>154.4</course>
<desc>Speed 1.7 km/h Distance 1.68 km</desc>
<time>2010-03-01T17:36:06.04</time>
<name>2005</name>
</trkpt>
<trkpt lat="48.945185" lon="8.664125">
<ele>341.5</ele>
<speed>0.3</speed>
<course>90.0</course>
<desc>Speed 0.3 km/h Distance 1.68 km</desc>
<time>2010-03-01T17:36:07.04</time>
<name>2006</name>
</trkpt>
<trkpt lat="48.945185" lon="8.664127">
<ele>341.5</ele>
<speed>0.2</speed>
<course>90.0</course>
<desc>Speed 0.2 km/h Distance 1.68 km</desc>
<time>2010-03-01T17:36:08.04</time>
<name>2007</name>
</trkpt>
<trkpt lat="48.945185" lon="8.664127">
<ele>341.5</ele>
<speed>0.2</speed>
<course>12.6</course>
<desc>Speed 0.2 km/h Distance 1.68 km</desc>
<time>2010-03-01T17:36:09.04</time>
<name>2008</name>
</trkpt>
<trkpt lat="48.945187" lon="8.664127">
<ele>341.5</ele>
<speed>0.3</speed>
<course>12.6</course>
<desc>Speed 0.3 km/h Distance 1.68 km</desc>
<time>2010-03-01T17:36:10.04</time>
<name>2009</name>
</trkpt>
<trkpt lat="48.945188" lon="8.664127">
<ele>341.5</ele>
<speed>0.2</speed>
<course>12.6</course>
<desc>Speed 0.2 km/h Distance 1.68 km</desc>
<time>2010-03-01T17:36:11.04</time>
<name>2010</name>
</trkpt>
<trkpt lat="48.945192" lon="8.664127">
<ele>341.5</ele>
<speed>0.2</speed>
<course>12.6</course>
<desc>Speed 0.2 km/h Distance 1.68 km</desc>
<time>2010-03-01T17:36:12.04</time>
<name>2011</name>
</trkpt>
<trkpt lat="48.945192" lon="8.664127">
<ele>341.5</ele>
<speed>0.1</speed>
<course>90.0</course>
<desc>Speed 0.1 km/h Distance 1.68 km</desc>
<time>2010-03-01T17:36:13.04</time>
<name>2012</name>
</trkpt>
<trkpt lat="48.945192" lon="8.664128">
<ele>341.0</ele>
<speed>0.6</speed>
<course>90.0</course>
<desc>Speed 0.6 km/h Distance 1.68 km</desc>
<time>2010-03-01T17:36:14.04</time>
<name>2013</name>
</trkpt>
<trkpt lat="48.945192" lon="8.664130">
<ele>341.5</ele>
<speed>0.6</speed>
<course>124.3</course>
<desc>Speed 0.6 km/h Distance 1.68 km</desc>
<time>2010-03-01T17:36:15.04</time>
<name>2014</name>
</trkpt>
<trkpt lat="48.945190" lon="8.664133">
<ele>341.0</ele>
<speed>1.1</speed>
<course>127.0</course>
<desc>Speed 1.1 km/h Distance 1.68 km</desc>
<time>2010-03-01T17:36:16.04</time>
<name>2015</name>
</trkpt>
<trkpt lat="48.945187" lon="8.664140">
<ele>341.5</ele>
<speed>3.2</speed>
<course>117.4</course>
<desc>Speed 3.2 km/h Distance 1.68 km</desc>
<time>2010-03-01T17:36:17.04</time>
<name>2016</name>
</trkpt>
<trkpt lat="48.945185" lon="8.664145">
<ele>341.5</ele>
<speed>1.3</speed>
<course>128.1</course>
<desc>Speed 1.3 km/h Distance 1.68 km</desc>
<time>2010-03-01T17:36:18.04</time>
<name>2017</name>
</trkpt>
<trkpt lat="48.945183" lon="8.664148">
<ele>341.0</ele>
<speed>1.7</speed>
<course>167.4</course>
<desc>Speed 1.7 km/h Distance 1.68 km</desc>
<time>2010-03-01T17:36:19.04</time>
<name>2018</name>
</trkpt>
<trkpt lat="48.945180" lon="8.664148">
<ele>341.0</ele>
<speed>2.0</speed>
<course>167.4</course>
<desc>Speed 2.0 km/h Distance 1.68 km</desc>
<time>2010-03-01T17:36:20.04</time>
<name>2019</name>
</trkpt>
<trkpt lat="48.945178" lon="8.664148">
<ele>341.0</ele>
<speed>1.8</speed>
<course>167.4</course>
<desc>Speed 1.8 km/h Distance 1.68 km</desc>
<time>2010-03-01T17:36:21.04</time>
<name>2020</name>
</trkpt>
<trkpt lat="48.945173" lon="8.664150">
<ele>341.0</ele>
<speed>2.0</speed>
<course>90.0</course>
<desc>Speed 2.0 km/h Distance 1.68 km</desc>
<time>2010-03-01T17:36:22.04</time>
<name>2021</name>
</trkpt>
<trkpt lat="48.945173" lon="8.664152">
<ele>341.0</ele>
<speed>1.0</speed>
<course>154.4</course>
<desc>Speed 1.0 km/h Distance 1.68 km</desc>
<time>2010-03-01T17:36:23.04</time>
<name>2022</name>
</trkpt>
<trkpt lat="48.945167" lon="8.664157">
<ele>341.0</ele>
<speed>2.2</speed>
<course>158.5</course>
<desc>Speed 2.2 km/h Distance 1.69 km</desc>
<time>2010-03-01T17:36:24.04</time>
<name>2023</name>
</trkpt>
<trkpt lat="48.945158" lon="8.664162">
<ele>341.0</ele>
<speed>2.3</speed>
<course>175.0</course>
<desc>Speed 2.3 km/h Distance 1.69 km</desc>
<time>2010-03-01T17:36:25.04</time>
<name>2024</name>
</trkpt>
<trkpt lat="48.945150" lon="8.664163">
<ele>341.0</ele>
<speed>3.3</speed>
<course>167.4</course>
<desc>Speed 3.3 km/h Distance 1.69 km</desc>
<time>2010-03-01T17:36:26.04</time>
<name>2025</name>
</trkpt>
<trkpt lat="48.945145" lon="8.664165">
<ele>341.0</ele>
<speed>1.7</speed>
<course>167.4</course>
<desc>Speed 1.7 km/h Distance 1.69 km</desc>
<time>2010-03-01T17:36:27.04</time>
<name>2026</name>
</trkpt>
<trkpt lat="48.945140" lon="8.664167">
<ele>340.5</ele>
<speed>1.4</speed>
<course>167.4</course>
<desc>Speed 1.4 km/h Distance 1.69 km</desc>
<time>2010-03-01T17:36:28.04</time>
<name>2027</name>
</trkpt>
<trkpt lat="48.945140" lon="8.664167">
<ele>340.0</ele>
<speed>0.5</speed>
<course>180.0</course>
<desc>Speed 0.5 km/h Distance 1.69 km</desc>
<time>2010-03-01T17:36:29.04</time>
<name>2028</name>
</trkpt>
<trkpt lat="48.945138" lon="8.664167">
<ele>340.0</ele>
<speed>0.6</speed>
<course>180.0</course>
<desc>Speed 0.6 km/h Distance 1.69 km</desc>
<time>2010-03-01T17:36:30.04</time>
<name>2029</name>
</trkpt>
<trkpt lat="48.945138" lon="8.664165">
<ele>340.0</ele>
<speed>0.1</speed>
<course>180.0</course>
<desc>Speed 0.1 km/h Distance 1.69 km</desc>
<time>2010-03-01T17:36:31.04</time>
<name>2030</name>
</trkpt>
<trkpt lat="48.945135" lon="8.664165">
<ele>339.5</ele>
<speed>1.0</speed>
<course>194.9</course>
<desc>Speed 1.0 km/h Distance 1.69 km</desc>
<time>2010-03-01T17:36:32.04</time>
<name>2031</name>
</trkpt>
<trkpt lat="48.945127" lon="8.664162">
<ele>339.0</ele>
<speed>2.6</speed>
<course>175.6</course>
<desc>Speed 2.6 km/h Distance 1.69 km</desc>
<time>2010-03-01T17:36:33.04</time>
<name>2032</name>
</trkpt>
<trkpt lat="48.945117" lon="8.664162">
<ele>338.5</ele>
<speed>2.7</speed>
<course>189.0</course>
<desc>Speed 2.7 km/h Distance 1.69 km</desc>
<time>2010-03-01T17:36:34.04</time>
<name>2033</name>
</trkpt>
<trkpt lat="48.945103" lon="8.664158">
<ele>338.0</ele>
<speed>3.6</speed>
<course>175.6</course>
<desc>Speed 3.6 km/h Distance 1.69 km</desc>
<time>2010-03-01T17:36:35.04</time>
<name>2034</name>
</trkpt>
<trkpt lat="48.945093" lon="8.664158">
<ele>338.0</ele>
<speed>3.9</speed>
<course>166.2</course>
<desc>Speed 3.9 km/h Distance 1.69 km</desc>
<time>2010-03-01T17:36:36.04</time>
<name>2035</name>
</trkpt>
<trkpt lat="48.945085" lon="8.664162">
<ele>338.0</ele>
<speed>3.6</speed>
<course>165.1</course>
<desc>Speed 3.6 km/h Distance 1.69 km</desc>
<time>2010-03-01T17:36:37.04</time>
<name>2036</name>
</trkpt>
<trkpt lat="48.945077" lon="8.664165">
<ele>338.0</ele>
<speed>3.3</speed>
<course>189.6</course>
<desc>Speed 3.3 km/h Distance 1.70 km</desc>
<time>2010-03-01T17:36:38.04</time>
<name>2037</name>
</trkpt>
<trkpt lat="48.945068" lon="8.664163">
<ele>338.0</ele>
<speed>3.1</speed>
<course>201.5</course>
<desc>Speed 3.1 km/h Distance 1.70 km</desc>
<time>2010-03-01T17:36:39.04</time>
<name>2038</name>
</trkpt>
<trkpt lat="48.945060" lon="8.664158">
<ele>338.0</ele>
<speed>3.0</speed>
<course>198.8</course>
<desc>Speed 3.0 km/h Distance 1.70 km</desc>
<time>2010-03-01T17:36:40.04</time>
<name>2039</name>
</trkpt>
<trkpt lat="48.945053" lon="8.664155">
<ele>337.5</ele>
<speed>2.7</speed>
<course>167.4</course>
<desc>Speed 2.7 km/h Distance 1.70 km</desc>
<time>2010-03-01T17:36:41.04</time>
<name>2040</name>
</trkpt>
<trkpt lat="48.945048" lon="8.664157">
<ele>337.5</ele>
<speed>2.3</speed>
<course>178.8</course>
<desc>Speed 2.3 km/h Distance 1.70 km</desc>
<time>2010-03-01T17:36:42.04</time>
<name>2041</name>
</trkpt>
<trkpt lat="48.945042" lon="8.664157">
<ele>337.5</ele>
<speed>2.2</speed>
<course>167.4</course>
<desc>Speed 2.2 km/h Distance 1.70 km</desc>
<time>2010-03-01T17:36:43.04</time>
<name>2042</name>
</trkpt>
<trkpt lat="48.945032" lon="8.664160">
<ele>337.5</ele>
<speed>3.2</speed>
<course>167.4</course>
<desc>Speed 3.2 km/h Distance 1.70 km</desc>
<time>2010-03-01T17:36:44.04</time>
<name>2043</name>
</trkpt>
<trkpt lat="48.945027" lon="8.664162">
<ele>337.5</ele>
<speed>1.7</speed>
<course>165.1</course>
<desc>Speed 1.7 km/h Distance 1.70 km</desc>
<time>2010-03-01T17:36:45.04</time>
<name>2044</name>
</trkpt>
<trkpt lat="48.945018" lon="8.664165">
<ele>337.5</ele>
<speed>3.0</speed>
<course>165.1</course>
<desc>Speed 3.0 km/h Distance 1.70 km</desc>
<time>2010-03-01T17:36:46.04</time>
<name>2045</name>
</trkpt>
<trkpt lat="48.945010" lon="8.664168">
<ele>337.5</ele>
<speed>2.8</speed>
<course>166.2</course>
<desc>Speed 2.8 km/h Distance 1.70 km</desc>
<time>2010-03-01T17:36:47.04</time>
<name>2046</name>
</trkpt>
<trkpt lat="48.945002" lon="8.664172">
<ele>337.5</ele>
<speed>3.3</speed>
<course>158.5</course>
<desc>Speed 3.3 km/h Distance 1.70 km</desc>
<time>2010-03-01T17:36:48.04</time>
<name>2047</name>
</trkpt>
<trkpt lat="48.944993" lon="8.664177">
<ele>337.5</ele>
<speed>3.5</speed>
<course>175.0</course>
<desc>Speed 3.5 km/h Distance 1.71 km</desc>
<time>2010-03-01T17:36:49.04</time>
<name>2048</name>
</trkpt>
<trkpt lat="48.944985" lon="8.664178">
<ele>337.0</ele>
<speed>3.3</speed>
<course>175.0</course>
<desc>Speed 3.3 km/h Distance 1.71 km</desc>
<time>2010-03-01T17:36:50.04</time>
<name>2049</name>
</trkpt>
<trkpt lat="48.944977" lon="8.664180">
<ele>337.0</ele>
<speed>3.6</speed>
<course>175.6</course>
<desc>Speed 3.6 km/h Distance 1.71 km</desc>
<time>2010-03-01T17:36:51.04</time>
<name>2050</name>
</trkpt>
<trkpt lat="48.944967" lon="8.664180">
<ele>337.0</ele>
<speed>3.6</speed>
<course>192.6</course>
<desc>Speed 3.6 km/h Distance 1.71 km</desc>
<time>2010-03-01T17:36:52.04</time>
<name>2051</name>
</trkpt>
<trkpt lat="48.944962" lon="8.664178">
<ele>337.0</ele>
<speed>1.9</speed>
<course>172.3</course>
<desc>Speed 1.9 km/h Distance 1.71 km</desc>
<time>2010-03-01T17:36:53.04</time>
<name>2052</name>
</trkpt>
<trkpt lat="48.944953" lon="8.664180">
<ele>337.0</ele>
<speed>3.2</speed>
<course>192.6</course>
<desc>Speed 3.2 km/h Distance 1.71 km</desc>
<time>2010-03-01T17:36:54.04</time>
<name>2053</name>
</trkpt>
<trkpt lat="48.944948" lon="8.664178">
<ele>336.5</ele>
<speed>2.3</speed>
<course>172.3</course>
<desc>Speed 2.3 km/h Distance 1.71 km</desc>
<time>2010-03-01T17:36:55.04</time>
<name>2054</name>
</trkpt>
<trkpt lat="48.944940" lon="8.664180">
<ele>336.5</ele>
<speed>3.1</speed>
<course>172.6</course>
<desc>Speed 3.1 km/h Distance 1.71 km</desc>
<time>2010-03-01T17:36:56.04</time>
<name>2055</name>
</trkpt>
<trkpt lat="48.944933" lon="8.664182">
<ele>336.5</ele>
<speed>2.8</speed>
<course>173.4</course>
<desc>Speed 2.8 km/h Distance 1.71 km</desc>
<time>2010-03-01T17:36:57.04</time>
<name>2056</name>
</trkpt>
<trkpt lat="48.944923" lon="8.664183">
<ele>336.5</ele>
<speed>3.3</speed>
<course>167.4</course>
<desc>Speed 3.3 km/h Distance 1.71 km</desc>
<time>2010-03-01T17:36:58.04</time>
<name>2057</name>
</trkpt>
<trkpt lat="48.944915" lon="8.664187">
<ele>336.5</ele>
<speed>3.3</speed>
<course>166.2</course>
<desc>Speed 3.3 km/h Distance 1.71 km</desc>
<time>2010-03-01T17:36:59.04</time>
<name>2058</name>
</trkpt>
<trkpt lat="48.944907" lon="8.664190">
<ele>336.5</ele>
<speed>3.2</speed>
<course>171.9</course>
<desc>Speed 3.2 km/h Distance 1.72 km</desc>
<time>2010-03-01T17:37:00.04</time>
<name>2059</name>
</trkpt>
<trkpt lat="48.944897" lon="8.664192">
<ele>336.5</ele>
<speed>3.6</speed>
<course>173.7</course>
<desc>Speed 3.6 km/h Distance 1.72 km</desc>
<time>2010-03-01T17:37:01.04</time>
<name>2060</name>
</trkpt>
<trkpt lat="48.944885" lon="8.664193">
<ele>336.5</ele>
<speed>3.9</speed>
<course>173.4</course>
<desc>Speed 3.9 km/h Distance 1.72 km</desc>
<time>2010-03-01T17:37:02.04</time>
<name>2061</name>
</trkpt>
<trkpt lat="48.944875" lon="8.664195">
<ele>336.5</ele>
<speed>3.7</speed>
<course>175.0</course>
<desc>Speed 3.7 km/h Distance 1.72 km</desc>
<time>2010-03-01T17:37:03.04</time>
<name>2062</name>
</trkpt>
<trkpt lat="48.944867" lon="8.664195">
<ele>336.0</ele>
<speed>3.1</speed>
<course>157.8</course>
<desc>Speed 3.1 km/h Distance 1.72 km</desc>
<time>2010-03-01T17:37:04.04</time>
<name>2063</name>
</trkpt>
<trkpt lat="48.944862" lon="8.664198">
<ele>336.0</ele>
<speed>2.4</speed>
<course>184.4</course>
<desc>Speed 2.4 km/h Distance 1.72 km</desc>
<time>2010-03-01T17:37:05.04</time>
<name>2064</name>
</trkpt>
<trkpt lat="48.944852" lon="8.664197">
<ele>336.0</ele>
<speed>3.1</speed>
<course>192.6</course>
<desc>Speed 3.1 km/h Distance 1.72 km</desc>
<time>2010-03-01T17:37:06.04</time>
<name>2065</name>
</trkpt>
<trkpt lat="48.944842" lon="8.664193">
<ele>336.0</ele>
<speed>3.7</speed>
<course>189.6</course>
<desc>Speed 3.7 km/h Distance 1.72 km</desc>
<time>2010-03-01T17:37:07.04</time>
<name>2066</name>
</trkpt>
<trkpt lat="48.944833" lon="8.664192">
<ele>336.0</ele>
<speed>3.2</speed>
<course>185.0</course>
<desc>Speed 3.2 km/h Distance 1.72 km</desc>
<time>2010-03-01T17:37:08.04</time>
<name>2067</name>
</trkpt>
<trkpt lat="48.944825" lon="8.664190">
<ele>336.0</ele>
<speed>3.1</speed>
<course>180.0</course>
<desc>Speed 3.1 km/h Distance 1.72 km</desc>
<time>2010-03-01T17:37:09.04</time>
<name>2068</name>
</trkpt>
<trkpt lat="48.944817" lon="8.664190">
<ele>336.0</ele>
<speed>3.1</speed>
<course>167.4</course>
<desc>Speed 3.1 km/h Distance 1.73 km</desc>
<time>2010-03-01T17:37:10.04</time>
<name>2069</name>
</trkpt>
<trkpt lat="48.944808" lon="8.664193">
<ele>336.0</ele>
<speed>3.1</speed>
<course>165.1</course>
<desc>Speed 3.1 km/h Distance 1.73 km</desc>
<time>2010-03-01T17:37:11.04</time>
<name>2070</name>
</trkpt>
<trkpt lat="48.944800" lon="8.664197">
<ele>336.0</ele>
<speed>3.8</speed>
<course>165.1</course>
<desc>Speed 3.8 km/h Distance 1.73 km</desc>
<time>2010-03-01T17:37:12.04</time>
<name>2071</name>
</trkpt>
<trkpt lat="48.944788" lon="8.664202">
<ele>336.0</ele>
<speed>4.4</speed>
<course>150.6</course>
<desc>Speed 4.4 km/h Distance 1.73 km</desc>
<time>2010-03-01T17:37:13.04</time>
<name>2072</name>
</trkpt>
<trkpt lat="48.944777" lon="8.664212">
<ele>336.0</ele>
<speed>4.6</speed>
<course>153.6</course>
<desc>Speed 4.6 km/h Distance 1.73 km</desc>
<time>2010-03-01T17:37:14.04</time>
<name>2073</name>
</trkpt>
<trkpt lat="48.944770" lon="8.664217">
<ele>336.0</ele>
<speed>3.1</speed>
<course>135.5</course>
<desc>Speed 3.1 km/h Distance 1.73 km</desc>
<time>2010-03-01T17:37:15.04</time>
<name>2074</name>
</trkpt>
<trkpt lat="48.944763" lon="8.664227">
<ele>336.0</ele>
<speed>3.1</speed>
<course>146.3</course>
<desc>Speed 3.1 km/h Distance 1.73 km</desc>
<time>2010-03-01T17:37:16.04</time>
<name>2075</name>
</trkpt>
<trkpt lat="48.944757" lon="8.664233">
<ele>336.5</ele>
<speed>2.8</speed>
<course>127.6</course>
<desc>Speed 2.8 km/h Distance 1.73 km</desc>
<time>2010-03-01T17:37:17.04</time>
<name>2076</name>
</trkpt>
<trkpt lat="48.944752" lon="8.664243">
<ele>336.5</ele>
<speed>3.3</speed>
<course>113.7</course>
<desc>Speed 3.3 km/h Distance 1.73 km</desc>
<time>2010-03-01T17:37:18.04</time>
<name>2077</name>
</trkpt>
<trkpt lat="48.944748" lon="8.664255">
<ele>336.5</ele>
<speed>3.3</speed>
<course>102.3</course>
<desc>Speed 3.3 km/h Distance 1.73 km</desc>
<time>2010-03-01T17:37:19.04</time>
<name>2078</name>
</trkpt>
<trkpt lat="48.944747" lon="8.664267">
<ele>336.5</ele>
<speed>3.1</speed>
<course>102.3</course>
<desc>Speed 3.1 km/h Distance 1.74 km</desc>
<time>2010-03-01T17:37:20.04</time>
<name>2079</name>
</trkpt>
<trkpt lat="48.944745" lon="8.664278">
<ele>336.5</ele>
<speed>3.2</speed>
<course>121.1</course>
<desc>Speed 3.2 km/h Distance 1.74 km</desc>
<time>2010-03-01T17:37:21.04</time>
<name>2080</name>
</trkpt>
<trkpt lat="48.944742" lon="8.664287">
<ele>336.5</ele>
<speed>2.5</speed>
<course>90.0</course>
<desc>Speed 2.5 km/h Distance 1.74 km</desc>
<time>2010-03-01T17:37:22.04</time>
<name>2081</name>
</trkpt>
<trkpt lat="48.944742" lon="8.664293">
<ele>336.5</ele>
<speed>2.1</speed>
<course>113.5</course>
<desc>Speed 2.1 km/h Distance 1.74 km</desc>
<time>2010-03-01T17:37:23.04</time>
<name>2082</name>
</trkpt>
<trkpt lat="48.944738" lon="8.664305">
<ele>336.5</ele>
<speed>3.3</speed>
<course>127.2</course>
<desc>Speed 3.3 km/h Distance 1.74 km</desc>
<time>2010-03-01T17:37:24.04</time>
<name>2083</name>
</trkpt>
<trkpt lat="48.944732" lon="8.664318">
<ele>336.5</ele>
<speed>4.3</speed>
<course>137.4</course>
<desc>Speed 4.3 km/h Distance 1.74 km</desc>
<time>2010-03-01T17:37:25.04</time>
<name>2084</name>
</trkpt>
<trkpt lat="48.944723" lon="8.664330">
<ele>336.5</ele>
<speed>4.4</speed>
<course>113.5</course>
<desc>Speed 4.4 km/h Distance 1.74 km</desc>
<time>2010-03-01T17:37:26.04</time>
<name>2085</name>
</trkpt>
<trkpt lat="48.944720" lon="8.664342">
<ele>336.5</ele>
<speed>3.4</speed>
<course>117.0</course>
<desc>Speed 3.4 km/h Distance 1.74 km</desc>
<time>2010-03-01T17:37:27.04</time>
<name>2086</name>
</trkpt>
<trkpt lat="48.944717" lon="8.664352">
<ele>336.5</ele>
<speed>3.2</speed>
<course>107.1</course>
<desc>Speed 3.2 km/h Distance 1.74 km</desc>
<time>2010-03-01T17:37:28.04</time>
<name>2087</name>
</trkpt>
<trkpt lat="48.944715" lon="8.664360">
<ele>336.5</ele>
<speed>2.8</speed>
<course>100.8</course>
<desc>Speed 2.8 km/h Distance 1.74 km</desc>
<time>2010-03-01T17:37:29.04</time>
<name>2088</name>
</trkpt>
<trkpt lat="48.944713" lon="8.664373">
<ele>336.5</ele>
<speed>3.7</speed>
<course>107.1</course>
<desc>Speed 3.7 km/h Distance 1.74 km</desc>
<time>2010-03-01T17:37:30.04</time>
<name>2089</name>
</trkpt>
<trkpt lat="48.944712" lon="8.664382">
<ele>336.0</ele>
<speed>3.1</speed>
<course>121.4</course>
<desc>Speed 3.1 km/h Distance 1.75 km</desc>
<time>2010-03-01T17:37:31.04</time>
<name>2090</name>
</trkpt>
<trkpt lat="48.944708" lon="8.664390">
<ele>336.0</ele>
<speed>2.9</speed>
<course>121.4</course>
<desc>Speed 2.9 km/h Distance 1.75 km</desc>
<time>2010-03-01T17:37:32.04</time>
<name>2091</name>
</trkpt>
<trkpt lat="48.944705" lon="8.664398">
<ele>336.0</ele>
<speed>2.6</speed>
<course>104.4</course>
<desc>Speed 2.6 km/h Distance 1.75 km</desc>
<time>2010-03-01T17:37:33.04</time>
<name>2092</name>
</trkpt>
<trkpt lat="48.944703" lon="8.664408">
<ele>335.5</ele>
<speed>2.7</speed>
<course>110.9</course>
<desc>Speed 2.7 km/h Distance 1.75 km</desc>
<time>2010-03-01T17:37:34.04</time>
<name>2093</name>
</trkpt>
<trkpt lat="48.944702" lon="8.664415">
<ele>335.5</ele>
<speed>2.1</speed>
<course>113.5</course>
<desc>Speed 2.1 km/h Distance 1.75 km</desc>
<time>2010-03-01T17:37:35.04</time>
<name>2094</name>
</trkpt>
<trkpt lat="48.944698" lon="8.664427">
<ele>335.5</ele>
<speed>3.3</speed>
<course>90.0</course>
<desc>Speed 3.3 km/h Distance 1.75 km</desc>
<time>2010-03-01T17:37:36.04</time>
<name>2095</name>
</trkpt>
<trkpt lat="48.944698" lon="8.664440">
<ele>335.0</ele>
<speed>3.6</speed>
<course>99.6</course>
<desc>Speed 3.6 km/h Distance 1.75 km</desc>
<time>2010-03-01T17:37:37.04</time>
<name>2096</name>
</trkpt>
<trkpt lat="48.944697" lon="8.664455">
<ele>335.0</ele>
<speed>3.8</speed>
<course>130.9</course>
<desc>Speed 3.8 km/h Distance 1.75 km</desc>
<time>2010-03-01T17:37:38.04</time>
<name>2097</name>
</trkpt>
<trkpt lat="48.944690" lon="8.664467">
<ele>334.5</ele>
<speed>4.0</speed>
<course>122.9</course>
<desc>Speed 4.0 km/h Distance 1.75 km</desc>
<time>2010-03-01T17:37:39.04</time>
<name>2098</name>
</trkpt>
<trkpt lat="48.944685" lon="8.664478">
<ele>334.0</ele>
<speed>4.2</speed>
<course>132.2</course>
<desc>Speed 4.2 km/h Distance 1.75 km</desc>
<time>2010-03-01T17:37:40.04</time>
<name>2099</name>
</trkpt>
<trkpt lat="48.944680" lon="8.664487">
<ele>334.0</ele>
<speed>2.4</speed>
<course>90.0</course>
<desc>Speed 2.4 km/h Distance 1.75 km</desc>
<time>2010-03-01T17:37:41.04</time>
<name>2100</name>
</trkpt>
<trkpt lat="48.944680" lon="8.664495">
<ele>334.5</ele>
<speed>1.9</speed>
<course>126.1</course>
<desc>Speed 1.9 km/h Distance 1.75 km</desc>
<time>2010-03-01T17:37:42.04</time>
<name>2101</name>
</trkpt>
<trkpt lat="48.944678" lon="8.664498">
<ele>334.5</ele>
<speed>1.2</speed>
<course>126.1</course>
<desc>Speed 1.2 km/h Distance 1.75 km</desc>
<time>2010-03-01T17:37:43.04</time>
<name>2102</name>
</trkpt>
<trkpt lat="48.944678" lon="8.664498">
<ele>334.0</ele>
<speed>0.9</speed>
<course>126.1</course>
<desc>Speed 0.9 km/h Distance 1.75 km</desc>
<time>2010-03-01T17:37:44.04</time>
<name>2103</name>
</trkpt>
<trkpt lat="48.944678" lon="8.664498">
<ele>334.0</ele>
<speed>0.4</speed>
<course>126.1</course>
<desc>Speed 0.4 km/h Distance 1.75 km</desc>
<time>2010-03-01T17:37:45.04</time>
<name>2104</name>
</trkpt>
<trkpt lat="48.944678" lon="8.664498">
<ele>334.0</ele>
<speed>0.5</speed>
<course>178.1</course>
<desc>Speed 0.5 km/h Distance 1.75 km</desc>
<time>2010-03-01T17:37:46.04</time>
<name>2105</name>
</trkpt>
<trkpt lat="48.944645" lon="8.664500">
<ele>333.5</ele>
<speed>5.8</speed>
<course>79.2</course>
<desc>Speed 5.8 km/h Distance 1.76 km</desc>
<time>2010-03-01T17:37:48.04</time>
<name>2106</name>
</trkpt>
<trkpt lat="48.944647" lon="8.664513">
<ele>333.5</ele>
<speed>3.7</speed>
<course>163.2</course>
<desc>Speed 3.7 km/h Distance 1.76 km</desc>
<time>2010-03-01T17:37:49.04</time>
<name>2107</name>
</trkpt>
<trkpt lat="48.944625" lon="8.664523">
<ele>332.0</ele>
<speed>9.4</speed>
<course>138.8</course>
<desc>Speed 9.4 km/h Distance 1.76 km</desc>
<time>2010-03-01T17:37:50.04</time>
<name>2108</name>
</trkpt>
<trkpt lat="48.944615" lon="8.664537">
<ele>330.5</ele>
<speed>5.7</speed>
<course>150.2</course>
<desc>Speed 5.7 km/h Distance 1.76 km</desc>
<time>2010-03-01T17:37:51.04</time>
<name>2109</name>
</trkpt>
<trkpt lat="48.944602" lon="8.664548">
<ele>330.5</ele>
<speed>6.2</speed>
<course>100.8</course>
<desc>Speed 6.2 km/h Distance 1.77 km</desc>
<time>2010-03-01T17:37:52.04</time>
<name>2110</name>
</trkpt>
<trkpt lat="48.944600" lon="8.664562">
<ele>330.5</ele>
<speed>3.7</speed>
<course>110.7</course>
<desc>Speed 3.7 km/h Distance 1.77 km</desc>
<time>2010-03-01T17:37:53.04</time>
<name>2111</name>
</trkpt>
<trkpt lat="48.944597" lon="8.664575">
<ele>329.5</ele>
<speed>3.7</speed>
<course>119.7</course>
<desc>Speed 3.7 km/h Distance 1.77 km</desc>
<time>2010-03-01T17:37:54.04</time>
<name>2112</name>
</trkpt>
<trkpt lat="48.944592" lon="8.664588">
<ele>329.5</ele>
<speed>4.0</speed>
<course>90.0</course>
<desc>Speed 4.0 km/h Distance 1.77 km</desc>
<time>2010-03-01T17:37:55.04</time>
<name>2113</name>
</trkpt>
<trkpt lat="48.944592" lon="8.664603">
<ele>329.0</ele>
<speed>3.7</speed>
<course>100.8</course>
<desc>Speed 3.7 km/h Distance 1.77 km</desc>
<time>2010-03-01T17:37:56.04</time>
<name>2114</name>
</trkpt>
<trkpt lat="48.944590" lon="8.664617">
<ele>329.0</ele>
<speed>3.4</speed>
<course>100.7</course>
<desc>Speed 3.4 km/h Distance 1.77 km</desc>
<time>2010-03-01T17:37:57.04</time>
<name>2115</name>
</trkpt>
<trkpt lat="48.944588" lon="8.664630">
<ele>329.0</ele>
<speed>3.4</speed>
<course>90.0</course>
<desc>Speed 3.4 km/h Distance 1.77 km</desc>
<time>2010-03-01T17:37:58.04</time>
<name>2116</name>
</trkpt>
<trkpt lat="48.944588" lon="8.664642">
<ele>329.0</ele>
<speed>3.3</speed>
<course>102.3</course>
<desc>Speed 3.3 km/h Distance 1.77 km</desc>
<time>2010-03-01T17:37:59.04</time>
<name>2117</name>
</trkpt>
<trkpt lat="48.944587" lon="8.664653">
<ele>329.0</ele>
<speed>2.8</speed>
<course>51.9</course>
<desc>Speed 2.8 km/h Distance 1.77 km</desc>
<time>2010-03-01T17:38:00.04</time>
<name>2118</name>
</trkpt>
<trkpt lat="48.944588" lon="8.664657">
<ele>329.0</ele>
<speed>0.9</speed>
<course>51.9</course>
<desc>Speed 0.9 km/h Distance 1.77 km</desc>
<time>2010-03-01T17:38:01.04</time>
<name>2119</name>
</trkpt>
<trkpt lat="48.944588" lon="8.664657">
<ele>329.0</ele>
<speed>0.6</speed>
<course>90.0</course>
<desc>Speed 0.6 km/h Distance 1.77 km</desc>
<time>2010-03-01T17:38:02.04</time>
<name>2120</name>
</trkpt>
<trkpt lat="48.944588" lon="8.664658">
<ele>329.0</ele>
<speed>0.8</speed>
<course>90.0</course>
<desc>Speed 0.8 km/h Distance 1.77 km</desc>
<time>2010-03-01T17:38:03.04</time>
<name>2121</name>
</trkpt>
<trkpt lat="48.944588" lon="8.664658">
<ele>329.0</ele>
<speed>0.6</speed>
<course>73.1</course>
<desc>Speed 0.6 km/h Distance 1.77 km</desc>
<time>2010-03-01T17:38:04.04</time>
<name>2122</name>
</trkpt>
<trkpt lat="48.944590" lon="8.664667">
<ele>329.0</ele>
<speed>2.1</speed>
<course>102.3</course>
<desc>Speed 2.1 km/h Distance 1.77 km</desc>
<time>2010-03-01T17:38:05.04</time>
<name>2123</name>
</trkpt>
<trkpt lat="48.944588" lon="8.664678">
<ele>328.5</ele>
<speed>2.8</speed>
<course>79.3</course>
<desc>Speed 2.8 km/h Distance 1.78 km</desc>
<time>2010-03-01T17:38:06.04</time>
<name>2124</name>
</trkpt>
<trkpt lat="48.944590" lon="8.664692">
<ele>328.5</ele>
<speed>3.6</speed>
<course>90.0</course>
<desc>Speed 3.6 km/h Distance 1.78 km</desc>
<time>2010-03-01T17:38:07.04</time>
<name>2125</name>
</trkpt>
<trkpt lat="48.944590" lon="8.664708">
<ele>328.5</ele>
<speed>4.0</speed>
<course>80.4</course>
<desc>Speed 4.0 km/h Distance 1.78 km</desc>
<time>2010-03-01T17:38:08.04</time>
<name>2126</name>
</trkpt>
<trkpt lat="48.944592" lon="8.664723">
<ele>328.5</ele>
<speed>4.1</speed>
<course>106.9</course>
<desc>Speed 4.1 km/h Distance 1.78 km</desc>
<time>2010-03-01T17:38:09.04</time>
<name>2127</name>
</trkpt>
<trkpt lat="48.944588" lon="8.664740">
<ele>328.5</ele>
<speed>4.2</speed>
<course>90.0</course>
<desc>Speed 4.2 km/h Distance 1.78 km</desc>
<time>2010-03-01T17:38:10.04</time>
<name>2128</name>
</trkpt>
<trkpt lat="48.944588" lon="8.664753">
<ele>328.5</ele>
<speed>3.5</speed>
<course>79.3</course>
<desc>Speed 3.5 km/h Distance 1.78 km</desc>
<time>2010-03-01T17:38:11.04</time>
<name>2129</name>
</trkpt>
<trkpt lat="48.944590" lon="8.664767">
<ele>328.5</ele>
<speed>3.5</speed>
<course>99.6</course>
<desc>Speed 3.5 km/h Distance 1.78 km</desc>
<time>2010-03-01T17:38:12.04</time>
<name>2130</name>
</trkpt>
<trkpt lat="48.944588" lon="8.664782">
<ele>328.5</ele>
<speed>3.9</speed>
<course>108.6</course>
<desc>Speed 3.9 km/h Distance 1.78 km</desc>
<time>2010-03-01T17:38:13.04</time>
<name>2131</name>
</trkpt>
<trkpt lat="48.944585" lon="8.664797">
<ele>328.5</ele>
<speed>3.9</speed>
<course>99.6</course>
<desc>Speed 3.9 km/h Distance 1.78 km</desc>
<time>2010-03-01T17:38:14.04</time>
<name>2132</name>
</trkpt>
<trkpt lat="48.944583" lon="8.664812">
<ele>328.5</ele>
<speed>4.1</speed>
<course>98.7</course>
<desc>Speed 4.1 km/h Distance 1.78 km</desc>
<time>2010-03-01T17:38:15.04</time>
<name>2133</name>
</trkpt>
<trkpt lat="48.944582" lon="8.664828">
<ele>328.5</ele>
<speed>4.0</speed>
<course>90.0</course>
<desc>Speed 4.0 km/h Distance 1.79 km</desc>
<time>2010-03-01T17:38:16.04</time>
<name>2134</name>
</trkpt>
<trkpt lat="48.944582" lon="8.664842">
<ele>328.5</ele>
<speed>3.6</speed>
<course>79.3</course>
<desc>Speed 3.6 km/h Distance 1.79 km</desc>
<time>2010-03-01T17:38:17.04</time>
<name>2135</name>
</trkpt>
<trkpt lat="48.944583" lon="8.664855">
<ele>328.5</ele>
<speed>3.1</speed>
<course>57.1</course>
<desc>Speed 3.1 km/h Distance 1.79 km</desc>
<time>2010-03-01T17:38:18.04</time>
<name>2136</name>
</trkpt>
<trkpt lat="48.944588" lon="8.664867">
<ele>328.5</ele>
<speed>2.9</speed>
<course>63.0</course>
<desc>Speed 2.9 km/h Distance 1.79 km</desc>
<time>2010-03-01T17:38:19.04</time>
<name>2137</name>
</trkpt>
<trkpt lat="48.944592" lon="8.664877">
<ele>328.5</ele>
<speed>2.8</speed>
<course>66.4</course>
<desc>Speed 2.8 km/h Distance 1.79 km</desc>
<time>2010-03-01T17:38:20.04</time>
<name>2138</name>
</trkpt>
<trkpt lat="48.944595" lon="8.664888">
<ele>328.5</ele>
<speed>2.9</speed>
<course>49.1</course>
<desc>Speed 2.9 km/h Distance 1.79 km</desc>
<time>2010-03-01T17:38:21.04</time>
<name>2139</name>
</trkpt>
<trkpt lat="48.944602" lon="8.664900">
<ele>328.5</ele>
<speed>2.8</speed>
<course>41.3</course>
<desc>Speed 2.8 km/h Distance 1.79 km</desc>
<time>2010-03-01T17:38:22.04</time>
<name>2140</name>
</trkpt>
<trkpt lat="48.944612" lon="8.664913">
<ele>329.0</ele>
<speed>2.6</speed>
<course>47.8</course>
<desc>Speed 2.6 km/h Distance 1.79 km</desc>
<time>2010-03-01T17:38:23.04</time>
<name>2141</name>
</trkpt>
<trkpt lat="48.944617" lon="8.664922">
<ele>329.5</ele>
<speed>2.5</speed>
<course>52.8</course>
<desc>Speed 2.5 km/h Distance 1.79 km</desc>
<time>2010-03-01T17:38:24.04</time>
<name>2142</name>
</trkpt>
<trkpt lat="48.944623" lon="8.664935">
<ele>329.5</ele>
<speed>2.9</speed>
<course>71.3</course>
<desc>Speed 2.9 km/h Distance 1.80 km</desc>
<time>2010-03-01T17:38:25.04</time>
<name>2143</name>
</trkpt>
<trkpt lat="48.944627" lon="8.664950">
<ele>329.5</ele>
<speed>3.6</speed>
<course>80.4</course>
<desc>Speed 3.6 km/h Distance 1.80 km</desc>
<time>2010-03-01T17:38:26.04</time>
<name>2144</name>
</trkpt>
<trkpt lat="48.944628" lon="8.664965">
<ele>329.5</ele>
<speed>4.0</speed>
<course>80.4</course>
<desc>Speed 4.0 km/h Distance 1.80 km</desc>
<time>2010-03-01T17:38:27.04</time>
<name>2145</name>
</trkpt>
<trkpt lat="48.944630" lon="8.664980">
<ele>329.5</ele>
<speed>3.5</speed>
<course>77.7</course>
<desc>Speed 3.5 km/h Distance 1.80 km</desc>
<time>2010-03-01T17:38:28.04</time>
<name>2146</name>
</trkpt>
<trkpt lat="48.944632" lon="8.664992">
<ele>329.5</ele>
<speed>3.3</speed>
<course>90.0</course>
<desc>Speed 3.3 km/h Distance 1.80 km</desc>
<time>2010-03-01T17:38:29.04</time>
<name>2147</name>
</trkpt>
<trkpt lat="48.944632" lon="8.665007">
<ele>329.5</ele>
<speed>3.9</speed>
<course>80.4</course>
<desc>Speed 3.9 km/h Distance 1.80 km</desc>
<time>2010-03-01T17:38:30.04</time>
<name>2148</name>
</trkpt>
<trkpt lat="48.944633" lon="8.665022">
<ele>329.0</ele>
<speed>3.9</speed>
<course>73.1</course>
<desc>Speed 3.9 km/h Distance 1.80 km</desc>
<time>2010-03-01T17:38:31.04</time>
<name>2149</name>
</trkpt>
<trkpt lat="48.944637" lon="8.665038">
<ele>328.5</ele>
<speed>4.1</speed>
<course>110.9</course>
<desc>Speed 4.1 km/h Distance 1.80 km</desc>
<time>2010-03-01T17:38:32.04</time>
<name>2150</name>
</trkpt>
<trkpt lat="48.944633" lon="8.665052">
<ele>328.5</ele>
<speed>4.1</speed>
<course>90.0</course>
<desc>Speed 4.1 km/h Distance 1.80 km</desc>
<time>2010-03-01T17:38:33.04</time>
<name>2151</name>
</trkpt>
<trkpt lat="48.944633" lon="8.665067">
<ele>328.5</ele>
<speed>3.7</speed>
<course>79.2</course>
<desc>Speed 3.7 km/h Distance 1.81 km</desc>
<time>2010-03-01T17:38:34.04</time>
<name>2152</name>
</trkpt>
<trkpt lat="48.944635" lon="8.665080">
<ele>328.5</ele>
<speed>3.7</speed>
<course>100.8</course>
<desc>Speed 3.7 km/h Distance 1.81 km</desc>
<time>2010-03-01T17:38:35.04</time>
<name>2153</name>
</trkpt>
<trkpt lat="48.944633" lon="8.665093">
<ele>328.5</ele>
<speed>3.4</speed>
<course>99.6</course>
<desc>Speed 3.4 km/h Distance 1.81 km</desc>
<time>2010-03-01T17:38:36.04</time>
<name>2154</name>
</trkpt>
<trkpt lat="48.944632" lon="8.665108">
<ele>328.5</ele>
<speed>4.0</speed>
<course>67.4</course>
<desc>Speed 4.0 km/h Distance 1.81 km</desc>
<time>2010-03-01T17:38:37.04</time>
<name>2155</name>
</trkpt>
<trkpt lat="48.944637" lon="8.665127">
<ele>328.5</ele>
<speed>4.5</speed>
<course>90.0</course>
<desc>Speed 4.5 km/h Distance 1.81 km</desc>
<time>2010-03-01T17:38:38.04</time>
<name>2156</name>
</trkpt>
<trkpt lat="48.944637" lon="8.665145">
<ele>328.5</ele>
<speed>4.5</speed>
<course>99.6</course>
<desc>Speed 4.5 km/h Distance 1.81 km</desc>
<time>2010-03-01T17:38:39.04</time>
<name>2157</name>
</trkpt>
<trkpt lat="48.944635" lon="8.665160">
<ele>328.5</ele>
<speed>4.0</speed>
<course>99.6</course>
<desc>Speed 4.0 km/h Distance 1.81 km</desc>
<time>2010-03-01T17:38:40.04</time>
<name>2158</name>
</trkpt>
<trkpt lat="48.944633" lon="8.665175">
<ele>328.5</ele>
<speed>4.3</speed>
<course>90.0</course>
<desc>Speed 4.3 km/h Distance 1.81 km</desc>
<time>2010-03-01T17:38:41.04</time>
<name>2159</name>
</trkpt>
<trkpt lat="48.944633" lon="8.665192">
<ele>328.5</ele>
<speed>4.4</speed>
<course>74.5</course>
<desc>Speed 4.4 km/h Distance 1.81 km</desc>
<time>2010-03-01T17:38:42.04</time>
<name>2160</name>
</trkpt>
<trkpt lat="48.944637" lon="8.665210">
<ele>328.5</ele>
<speed>4.1</speed>
<course>79.2</course>
<desc>Speed 4.1 km/h Distance 1.82 km</desc>
<time>2010-03-01T17:38:43.04</time>
<name>2161</name>
</trkpt>
<trkpt lat="48.944638" lon="8.665223">
<ele>328.5</ele>
<speed>3.6</speed>
<course>90.0</course>
<desc>Speed 3.6 km/h Distance 1.82 km</desc>
<time>2010-03-01T17:38:44.04</time>
<name>2162</name>
</trkpt>
<trkpt lat="48.944638" lon="8.665238">
<ele>328.5</ele>
<speed>3.7</speed>
<course>90.0</course>
<desc>Speed 3.7 km/h Distance 1.82 km</desc>
<time>2010-03-01T17:38:45.04</time>
<name>2163</name>
</trkpt>
<trkpt lat="48.944638" lon="8.665255">
<ele>328.5</ele>
<speed>4.2</speed>
<course>99.6</course>
<desc>Speed 4.2 km/h Distance 1.82 km</desc>
<time>2010-03-01T17:38:46.04</time>
<name>2164</name>
</trkpt>
<trkpt lat="48.944637" lon="8.665270">
<ele>328.5</ele>
<speed>4.2</speed>
<course>90.0</course>
<desc>Speed 4.2 km/h Distance 1.82 km</desc>
<time>2010-03-01T17:38:47.04</time>
<name>2165</name>
</trkpt>
<trkpt lat="48.944637" lon="8.665287">
<ele>328.5</ele>
<speed>4.4</speed>
<course>64.1</course>
<desc>Speed 4.4 km/h Distance 1.82 km</desc>
<time>2010-03-01T17:38:48.04</time>
<name>2166</name>
</trkpt>
<trkpt lat="48.944648" lon="8.665323">
<ele>328.5</ele>
<speed>8.7</speed>
<course>116.9</course>
<desc>Speed 8.7 km/h Distance 1.82 km</desc>
<time>2010-03-01T17:38:50.04</time>
<name>2167</name>
</trkpt>
<trkpt lat="48.944643" lon="8.665338">
<ele>329.0</ele>
<speed>4.4</speed>
<course>135.5</course>
<desc>Speed 4.4 km/h Distance 1.83 km</desc>
<time>2010-03-01T17:38:51.04</time>
<name>2168</name>
</trkpt>
<trkpt lat="48.944640" lon="8.665343">
<ele>329.0</ele>
<speed>2.8</speed>
<course>132.2</course>
<desc>Speed 2.8 km/h Distance 1.83 km</desc>
<time>2010-03-01T17:38:52.04</time>
<name>2169</name>
</trkpt>
<trkpt lat="48.944635" lon="8.665352">
<ele>329.0</ele>
<speed>3.3</speed>
<course>138.6</course>
<desc>Speed 3.3 km/h Distance 1.83 km</desc>
<time>2010-03-01T17:38:53.04</time>
<name>2170</name>
</trkpt>
<trkpt lat="48.944630" lon="8.665358">
<ele>329.0</ele>
<speed>2.7</speed>
<course>139.1</course>
<desc>Speed 2.7 km/h Distance 1.83 km</desc>
<time>2010-03-01T17:38:54.04</time>
<name>2171</name>
</trkpt>
<trkpt lat="48.944625" lon="8.665365">
<ele>329.0</ele>
<speed>2.8</speed>
<course>167.4</course>
<desc>Speed 2.8 km/h Distance 1.83 km</desc>
<time>2010-03-01T17:38:55.04</time>
<name>2172</name>
</trkpt>
<trkpt lat="48.944622" lon="8.665367">
<ele>329.0</ele>
<speed>2.5</speed>
<course>167.4</course>
<desc>Speed 2.5 km/h Distance 1.83 km</desc>
<time>2010-03-01T17:38:56.04</time>
<name>2173</name>
</trkpt>
<trkpt lat="48.944617" lon="8.665368">
<ele>329.0</ele>
<speed>2.4</speed>
<course>217.2</course>
<desc>Speed 2.4 km/h Distance 1.83 km</desc>
<time>2010-03-01T17:38:57.04</time>
<name>2174</name>
</trkpt>
<trkpt lat="48.944615" lon="8.665367">
<ele>329.0</ele>
<speed>1.2</speed>
<course>180.0</course>
<desc>Speed 1.2 km/h Distance 1.83 km</desc>
<time>2010-03-01T17:38:58.04</time>
<name>2175</name>
</trkpt>
<trkpt lat="48.944613" lon="8.665367">
<ele>329.0</ele>
<speed>1.2</speed>
<course>180.0</course>
<desc>Speed 1.2 km/h Distance 1.83 km</desc>
<time>2010-03-01T17:38:59.04</time>
<name>2176</name>
</trkpt>
<trkpt lat="48.944610" lon="8.665367">
<ele>329.0</ele>
<speed>1.2</speed>
<course>150.8</course>
<desc>Speed 1.2 km/h Distance 1.83 km</desc>
<time>2010-03-01T17:39:00.04</time>
<name>2177</name>
</trkpt>
<trkpt lat="48.944608" lon="8.665368">
<ele>329.0</ele>
<speed>1.2</speed>
<course>146.3</course>
<desc>Speed 1.2 km/h Distance 1.83 km</desc>
<time>2010-03-01T17:39:01.04</time>
<name>2178</name>
</trkpt>
<trkpt lat="48.944605" lon="8.665372">
<ele>329.0</ele>
<speed>1.2</speed>
<course>135.5</course>
<desc>Speed 1.2 km/h Distance 1.83 km</desc>
<time>2010-03-01T17:39:02.04</time>
<name>2179</name>
</trkpt>
<trkpt lat="48.944602" lon="8.665377">
<ele>329.0</ele>
<speed>1.2</speed>
<course>233.0</course>
<desc>Speed 1.2 km/h Distance 1.83 km</desc>
<time>2010-03-01T17:39:03.04</time>
<name>2180</name>
</trkpt>
<trkpt lat="48.944598" lon="8.665370">
<ele>329.0</ele>
<speed>1.2</speed>
<course>192.6</course>
<desc>Speed 1.2 km/h Distance 1.83 km</desc>
<time>2010-03-01T17:39:04.04</time>
<name>2181</name>
</trkpt>
<trkpt lat="48.944595" lon="8.665368">
<ele>329.0</ele>
<speed>1.2</speed>
<course>110.9</course>
<desc>Speed 1.2 km/h Distance 1.83 km</desc>
<time>2010-03-01T17:39:05.04</time>
<name>2182</name>
</trkpt>
<trkpt lat="48.944593" lon="8.665375">
<ele>329.5</ele>
<speed>1.2</speed>
<course>138.6</course>
<desc>Speed 1.2 km/h Distance 1.83 km</desc>
<time>2010-03-01T17:39:06.04</time>
<name>2183</name>
</trkpt>
<trkpt lat="48.944588" lon="8.665382">
<ele>329.5</ele>
<speed>1.2</speed>
<course>247.5</course>
<desc>Speed 1.2 km/h Distance 1.83 km</desc>
<time>2010-03-01T17:39:07.04</time>
<name>2184</name>
</trkpt>
<trkpt lat="48.944583" lon="8.665363">
<ele>329.5</ele>
<speed>1.2</speed>
<course>221.4</course>
<desc>Speed 1.2 km/h Distance 1.84 km</desc>
<time>2010-03-01T17:39:08.04</time>
<name>2185</name>
</trkpt>
<trkpt lat="48.944578" lon="8.665357">
<ele>329.5</ele>
<speed>1.2</speed>
<course>110.9</course>
<desc>Speed 1.2 km/h Distance 1.84 km</desc>
<time>2010-03-01T17:39:09.04</time>
<name>2186</name>
</trkpt>
<trkpt lat="48.944577" lon="8.665363">
<ele>329.5</ele>
<speed>1.2</speed>
<course>145.9</course>
<desc>Speed 1.2 km/h Distance 1.84 km</desc>
<time>2010-03-01T17:39:10.04</time>
<name>2187</name>
</trkpt>
<trkpt lat="48.944572" lon="8.665368">
<ele>329.5</ele>
<speed>1.2</speed>
<course>167.4</course>
<desc>Speed 1.2 km/h Distance 1.84 km</desc>
<time>2010-03-01T17:39:11.04</time>
<name>2188</name>
</trkpt>
<trkpt lat="48.944567" lon="8.665370">
<ele>329.5</ele>
<speed>1.2</speed>
<course>97.7</course>
<desc>Speed 1.2 km/h Distance 1.84 km</desc>
<time>2010-03-01T17:39:12.04</time>
<name>2189</name>
</trkpt>
<trkpt lat="48.944560" lon="8.665445">
<ele>330.0</ele>
<speed>10.1</speed>
<course>79.8</course>
<desc>Speed 10.1 km/h Distance 1.84 km</desc>
<time>2010-03-01T17:39:14.04</time>
<name>2190</name>
</trkpt>
<trkpt lat="48.944563" lon="8.665473">
<ele>330.0</ele>
<speed>10.1</speed>
<course>83.3</course>
<desc>Speed 10.1 km/h Distance 1.85 km</desc>
<time>2010-03-01T17:39:15.04</time>
<name>2191</name>
</trkpt>
<trkpt lat="48.944565" lon="8.665495">
<ele>330.0</ele>
<speed>10.1</speed>
<course>130.9</course>
<desc>Speed 10.1 km/h Distance 1.85 km</desc>
<time>2010-03-01T17:39:16.04</time>
<name>2192</name>
</trkpt>
<trkpt lat="48.944558" lon="8.665507">
<ele>330.0</ele>
<speed>1.1</speed>
<course>190.4</course>
<desc>Speed 1.1 km/h Distance 1.85 km</desc>
<time>2010-03-01T17:39:18.04</time>
<name>2193</name>
</trkpt>
<trkpt lat="48.944547" lon="8.665503">
<ele>330.0</ele>
<speed>2.8</speed>
<course>206.4</course>
<desc>Speed 2.8 km/h Distance 1.85 km</desc>
<time>2010-03-01T17:39:19.04</time>
<name>2194</name>
</trkpt>
<trkpt lat="48.944540" lon="8.665498">
<ele>330.0</ele>
<speed>1.7</speed>
<course>213.7</course>
<desc>Speed 1.7 km/h Distance 1.85 km</desc>
<time>2010-03-01T17:39:20.04</time>
<name>2195</name>
</trkpt>
<trkpt lat="48.944533" lon="8.665492">
<ele>330.0</ele>
<speed>1.9</speed>
<course>167.4</course>
<desc>Speed 1.9 km/h Distance 1.85 km</desc>
<time>2010-03-01T17:39:21.04</time>
<name>2196</name>
</trkpt>
<trkpt lat="48.944528" lon="8.665493">
<ele>330.0</ele>
<speed>1.3</speed>
<course>219.4</course>
<desc>Speed 1.3 km/h Distance 1.85 km</desc>
<time>2010-03-01T17:39:22.04</time>
<name>2197</name>
</trkpt>
<trkpt lat="48.944522" lon="8.665485">
<ele>330.5</ele>
<speed>2.5</speed>
<course>191.2</course>
<desc>Speed 2.5 km/h Distance 1.85 km</desc>
<time>2010-03-01T17:39:23.04</time>
<name>2198</name>
</trkpt>
<trkpt lat="48.944510" lon="8.665482">
<ele>331.0</ele>
<speed>2.5</speed>
<course>191.2</course>
<desc>Speed 2.5 km/h Distance 1.85 km</desc>
<time>2010-03-01T17:39:24.04</time>
<name>2199</name>
</trkpt>
<trkpt lat="48.944498" lon="8.665478">
<ele>331.0</ele>
<speed>3.1</speed>
<course>206.4</course>
<desc>Speed 3.1 km/h Distance 1.86 km</desc>
<time>2010-03-01T17:39:25.04</time>
<name>2200</name>
</trkpt>
<trkpt lat="48.944492" lon="8.665473">
<ele>331.0</ele>
<speed>2.2</speed>
<course>192.6</course>
<desc>Speed 2.2 km/h Distance 1.86 km</desc>
<time>2010-03-01T17:39:26.04</time>
<name>2201</name>
</trkpt>
<trkpt lat="48.944482" lon="8.665470">
<ele>331.5</ele>
<speed>1.9</speed>
<course>175.0</course>
<desc>Speed 1.9 km/h Distance 1.86 km</desc>
<time>2010-03-01T17:39:27.04</time>
<name>2202</name>
</trkpt>
<trkpt lat="48.944473" lon="8.665470">
<ele>331.5</ele>
<speed>1.0</speed>
<course>196.6</course>
<desc>Speed 1.0 km/h Distance 1.86 km</desc>
<time>2010-03-01T17:39:28.04</time>
<name>2203</name>
</trkpt>
<trkpt lat="48.944458" lon="8.665463">
<ele>332.0</ele>
<speed>1.8</speed>
<course>216.9</course>
<desc>Speed 1.8 km/h Distance 1.86 km</desc>
<time>2010-03-01T17:39:29.04</time>
<name>2204</name>
</trkpt>
<trkpt lat="48.944447" lon="8.665450">
<ele>332.0</ele>
<speed>1.7</speed>
<course>193.5</course>
<desc>Speed 1.7 km/h Distance 1.86 km</desc>
<time>2010-03-01T17:39:30.04</time>
<name>2205</name>
</trkpt>
<trkpt lat="48.944433" lon="8.665445">
<ele>333.0</ele>
<speed>1.9</speed>
<course>193.5</course>
<desc>Speed 1.9 km/h Distance 1.86 km</desc>
<time>2010-03-01T17:39:31.04</time>
<name>2206</name>
</trkpt>
<trkpt lat="48.944420" lon="8.665440">
<ele>333.0</ele>
<speed>2.5</speed>
<course>197.6</course>
<desc>Speed 2.5 km/h Distance 1.86 km</desc>
<time>2010-03-01T17:39:32.04</time>
<name>2207</name>
</trkpt>
<trkpt lat="48.944410" lon="8.665435">
<ele>333.5</ele>
<speed>2.3</speed>
<course>180.0</course>
<desc>Speed 2.3 km/h Distance 1.87 km</desc>
<time>2010-03-01T17:39:33.04</time>
<name>2208</name>
</trkpt>
<trkpt lat="48.944403" lon="8.665435">
<ele>333.5</ele>
<speed>1.7</speed>
<course>178.8</course>
<desc>Speed 1.7 km/h Distance 1.87 km</desc>
<time>2010-03-01T17:39:34.04</time>
<name>2209</name>
</trkpt>
<trkpt lat="48.944397" lon="8.665435">
<ele>334.5</ele>
<speed>1.4</speed>
<course>192.6</course>
<desc>Speed 1.4 km/h Distance 1.87 km</desc>
<time>2010-03-01T17:39:35.04</time>
<name>2210</name>
</trkpt>
<trkpt lat="48.944392" lon="8.665433">
<ele>334.5</ele>
<speed>1.2</speed>
<course>142.8</course>
<desc>Speed 1.2 km/h Distance 1.87 km</desc>
<time>2010-03-01T17:39:36.04</time>
<name>2211</name>
</trkpt>
<trkpt lat="48.944390" lon="8.665435">
<ele>335.0</ele>
<speed>0.5</speed>
<course>90.0</course>
<desc>Speed 0.5 km/h Distance 1.87 km</desc>
<time>2010-03-01T17:39:37.04</time>
<name>2212</name>
</trkpt>
<trkpt lat="48.944390" lon="8.665437">
<ele>335.0</ele>
<speed>0.5</speed>
<course>270.0</course>
<desc>Speed 0.5 km/h Distance 1.87 km</desc>
<time>2010-03-01T17:39:38.04</time>
<name>2213</name>
</trkpt>
<trkpt lat="48.944390" lon="8.665435">
<ele>334.5</ele>
<speed>0.7</speed>
<course>212.3</course>
<desc>Speed 0.7 km/h Distance 1.87 km</desc>
<time>2010-03-01T17:39:39.04</time>
<name>2214</name>
</trkpt>
<trkpt lat="48.944385" lon="8.665430">
<ele>334.5</ele>
<speed>2.7</speed>
<course>224.5</course>
<desc>Speed 2.7 km/h Distance 1.87 km</desc>
<time>2010-03-01T17:39:40.04</time>
<name>2215</name>
</trkpt>
<trkpt lat="48.944378" lon="8.665420">
<ele>334.5</ele>
<speed>3.0</speed>
<course>238.6</course>
<desc>Speed 3.0 km/h Distance 1.87 km</desc>
<time>2010-03-01T17:39:41.04</time>
<name>2216</name>
</trkpt>
<trkpt lat="48.944375" lon="8.665412">
<ele>334.5</ele>
<speed>1.9</speed>
<course>232.8</course>
<desc>Speed 1.9 km/h Distance 1.87 km</desc>
<time>2010-03-01T17:39:42.04</time>
<name>2217</name>
</trkpt>
<trkpt lat="48.944370" lon="8.665402">
<ele>335.0</ele>
<speed>2.4</speed>
<course>238.6</course>
<desc>Speed 2.4 km/h Distance 1.87 km</desc>
<time>2010-03-01T17:39:43.04</time>
<name>2218</name>
</trkpt>
<trkpt lat="48.944367" lon="8.665393">
<ele>335.0</ele>
<speed>2.3</speed>
<course>213.2</course>
<desc>Speed 2.3 km/h Distance 1.87 km</desc>
<time>2010-03-01T17:39:44.04</time>
<name>2219</name>
</trkpt>
<trkpt lat="48.944358" lon="8.665385">
<ele>335.0</ele>
<speed>3.4</speed>
<course>227.8</course>
<desc>Speed 3.4 km/h Distance 1.87 km</desc>
<time>2010-03-01T17:39:45.04</time>
<name>2220</name>
</trkpt>
<trkpt lat="48.944353" lon="8.665377">
<ele>335.5</ele>
<speed>3.0</speed>
<course>227.4</course>
<desc>Speed 3.0 km/h Distance 1.87 km</desc>
<time>2010-03-01T17:39:46.04</time>
<name>2221</name>
</trkpt>
<trkpt lat="48.944348" lon="8.665368">
<ele>335.5</ele>
<speed>2.7</speed>
<course>246.5</course>
<desc>Speed 2.7 km/h Distance 1.88 km</desc>
<time>2010-03-01T17:39:47.04</time>
<name>2222</name>
</trkpt>
<trkpt lat="48.944345" lon="8.665357">
<ele>335.5</ele>
<speed>3.1</speed>
<course>246.5</course>
<desc>Speed 3.1 km/h Distance 1.88 km</desc>
<time>2010-03-01T17:39:48.04</time>
<name>2223</name>
</trkpt>
<trkpt lat="48.944342" lon="8.665345">
<ele>335.5</ele>
<speed>2.9</speed>
<course>219.4</course>
<desc>Speed 2.9 km/h Distance 1.88 km</desc>
<time>2010-03-01T17:39:49.04</time>
<name>2224</name>
</trkpt>
<trkpt lat="48.944335" lon="8.665337">
<ele>335.5</ele>
<speed>3.2</speed>
<course>198.8</course>
<desc>Speed 3.2 km/h Distance 1.88 km</desc>
<time>2010-03-01T17:39:50.04</time>
<name>2225</name>
</trkpt>
<trkpt lat="48.944328" lon="8.665333">
<ele>335.5</ele>
<speed>1.9</speed>
<course>198.8</course>
<desc>Speed 1.9 km/h Distance 1.88 km</desc>
<time>2010-03-01T17:39:51.04</time>
<name>2226</name>
</trkpt>
<trkpt lat="48.944322" lon="8.665330">
<ele>335.5</ele>
<speed>2.7</speed>
<course>212.9</course>
<desc>Speed 2.7 km/h Distance 1.88 km</desc>
<time>2010-03-01T17:39:52.04</time>
<name>2227</name>
</trkpt>
<trkpt lat="48.944313" lon="8.665322">
<ele>335.5</ele>
<speed>3.7</speed>
<course>206.4</course>
<desc>Speed 3.7 km/h Distance 1.88 km</desc>
<time>2010-03-01T17:39:53.04</time>
<name>2228</name>
</trkpt>
<trkpt lat="48.944307" lon="8.665317">
<ele>335.5</ele>
<speed>3.5</speed>
<course>219.4</course>
<desc>Speed 3.5 km/h Distance 1.88 km</desc>
<time>2010-03-01T17:39:54.04</time>
<name>2229</name>
</trkpt>
<trkpt lat="48.944300" lon="8.665308">
<ele>335.5</ele>
<speed>3.3</speed>
<course>238.6</course>
<desc>Speed 3.3 km/h Distance 1.88 km</desc>
<time>2010-03-01T17:39:55.04</time>
<name>2230</name>
</trkpt>
<trkpt lat="48.944297" lon="8.665300">
<ele>336.0</ele>
<speed>2.7</speed>
<course>220.9</course>
<desc>Speed 2.7 km/h Distance 1.88 km</desc>
<time>2010-03-01T17:39:56.04</time>
<name>2231</name>
</trkpt>
<trkpt lat="48.944292" lon="8.665293">
<ele>336.0</ele>
<speed>2.4</speed>
<course>220.9</course>
<desc>Speed 2.4 km/h Distance 1.88 km</desc>
<time>2010-03-01T17:39:57.04</time>
<name>2232</name>
</trkpt>
<trkpt lat="48.944292" lon="8.665293">
<ele>336.0</ele>
<speed>0.6</speed>
<course>202.2</course>
<desc>Speed 0.6 km/h Distance 1.88 km</desc>
<time>2010-03-01T17:39:58.04</time>
<name>2233</name>
</trkpt>
<trkpt lat="48.944287" lon="8.665290">
<ele>336.0</ele>
<speed>2.0</speed>
<course>192.6</course>
<desc>Speed 2.0 km/h Distance 1.88 km</desc>
<time>2010-03-01T17:39:59.04</time>
<name>2234</name>
</trkpt>
<trkpt lat="48.944283" lon="8.665288">
<ele>336.0</ele>
<speed>1.7</speed>
<course>224.5</course>
<desc>Speed 1.7 km/h Distance 1.89 km</desc>
<time>2010-03-01T17:40:00.04</time>
<name>2235</name>
</trkpt>
<trkpt lat="48.944280" lon="8.665283">
<ele>336.0</ele>
<speed>1.7</speed>
<course>206.4</course>
<desc>Speed 1.7 km/h Distance 1.89 km</desc>
<time>2010-03-01T17:40:01.04</time>
<name>2236</name>
</trkpt>
<trkpt lat="48.944273" lon="8.665278">
<ele>336.5</ele>
<speed>2.4</speed>
<course>197.5</course>
<desc>Speed 2.4 km/h Distance 1.89 km</desc>
<time>2010-03-01T17:40:02.04</time>
<name>2237</name>
</trkpt>
<trkpt lat="48.944267" lon="8.665275">
<ele>336.5</ele>
<speed>2.8</speed>
<course>206.4</course>
<desc>Speed 2.8 km/h Distance 1.89 km</desc>
<time>2010-03-01T17:40:03.04</time>
<name>2238</name>
</trkpt>
<trkpt lat="48.944260" lon="8.665270">
<ele>336.5</ele>
<speed>3.1</speed>
<course>221.4</course>
<desc>Speed 3.1 km/h Distance 1.89 km</desc>
<time>2010-03-01T17:40:04.04</time>
<name>2239</name>
</trkpt>
<trkpt lat="48.944255" lon="8.665263">
<ele>337.0</ele>
<speed>2.5</speed>
<course>224.5</course>
<desc>Speed 2.5 km/h Distance 1.89 km</desc>
<time>2010-03-01T17:40:05.04</time>
<name>2240</name>
</trkpt>
<trkpt lat="48.944252" lon="8.665258">
<ele>337.0</ele>
<speed>1.8</speed>
<course>206.4</course>
<desc>Speed 1.8 km/h Distance 1.89 km</desc>
<time>2010-03-01T17:40:06.04</time>
<name>2241</name>
</trkpt>
<trkpt lat="48.944245" lon="8.665253">
<ele>336.0</ele>
<speed>2.9</speed>
<course>224.5</course>
<desc>Speed 2.9 km/h Distance 1.89 km</desc>
<time>2010-03-01T17:40:07.04</time>
<name>2242</name>
</trkpt>
<trkpt lat="48.944242" lon="8.665248">
<ele>336.0</ele>
<speed>1.7</speed>
<course>220.9</course>
<desc>Speed 1.7 km/h Distance 1.89 km</desc>
<time>2010-03-01T17:40:08.04</time>
<name>2243</name>
</trkpt>
<trkpt lat="48.944237" lon="8.665242">
<ele>336.5</ele>
<speed>2.4</speed>
<course>233.0</course>
<desc>Speed 2.4 km/h Distance 1.89 km</desc>
<time>2010-03-01T17:40:09.04</time>
<name>2244</name>
</trkpt>
<trkpt lat="48.944233" lon="8.665235">
<ele>337.0</ele>
<speed>1.9</speed>
<course>231.9</course>
<desc>Speed 1.9 km/h Distance 1.89 km</desc>
<time>2010-03-01T17:40:10.04</time>
<name>2245</name>
</trkpt>
<trkpt lat="48.944232" lon="8.665232">
<ele>337.0</ele>
<speed>0.9</speed>
<course>242.6</course>
<desc>Speed 0.9 km/h Distance 1.89 km</desc>
<time>2010-03-01T17:40:11.04</time>
<name>2246</name>
</trkpt>
<trkpt lat="48.944230" lon="8.665227">
<ele>336.5</ele>
<speed>1.5</speed>
<course>217.2</course>
<desc>Speed 1.5 km/h Distance 1.89 km</desc>
<time>2010-03-01T17:40:12.04</time>
<name>2247</name>
</trkpt>
<trkpt lat="48.944228" lon="8.665225">
<ele>336.5</ele>
<speed>0.8</speed>
<course>297.4</course>
<desc>Speed 0.8 km/h Distance 1.89 km</desc>
<time>2010-03-01T17:40:13.04</time>
<name>2248</name>
</trkpt>
<trkpt lat="48.944230" lon="8.665220">
<ele>335.5</ele>
<speed>1.2</speed>
<course>341.2</course>
<desc>Speed 1.2 km/h Distance 1.89 km</desc>
<time>2010-03-01T17:40:14.04</time>
<name>2249</name>
</trkpt>
<trkpt lat="48.944233" lon="8.665218">
<ele>335.0</ele>
<speed>1.2</speed>
<course>341.2</course>
<desc>Speed 1.2 km/h Distance 1.89 km</desc>
<time>2010-03-01T17:40:15.04</time>
<name>2250</name>
</trkpt>
<trkpt lat="48.944233" lon="8.665218">
<ele>335.0</ele>
<speed>0.2</speed>
<course>270.0</course>
<desc>Speed 0.2 km/h Distance 1.89 km</desc>
<time>2010-03-01T17:40:16.04</time>
<name>2251</name>
</trkpt>
<trkpt lat="48.944233" lon="8.665217">
<ele>335.5</ele>
<speed>0.3</speed>
<course>217.2</course>
<desc>Speed 0.3 km/h Distance 1.89 km</desc>
<time>2010-03-01T17:40:17.04</time>
<name>2252</name>
</trkpt>
<trkpt lat="48.944232" lon="8.665215">
<ele>335.5</ele>
<speed>0.3</speed>
<course>308.1</course>
<desc>Speed 0.3 km/h Distance 1.89 km</desc>
<time>2010-03-01T17:40:18.04</time>
<name>2253</name>
</trkpt>
<trkpt lat="48.944233" lon="8.665212">
<ele>335.5</ele>
<speed>0.2</speed>
<course>167.4</course>
<desc>Speed 0.2 km/h Distance 1.89 km</desc>
<time>2010-03-01T17:40:19.04</time>
<name>2254</name>
</trkpt>
<trkpt lat="48.944230" lon="8.665212">
<ele>335.5</ele>
<speed>1.1</speed>
<course>217.2</course>
<desc>Speed 1.1 km/h Distance 1.89 km</desc>
<time>2010-03-01T17:40:20.04</time>
<name>2255</name>
</trkpt>
<trkpt lat="48.944228" lon="8.665210">
<ele>335.5</ele>
<speed>0.5</speed>
<course>167.4</course>
<desc>Speed 0.5 km/h Distance 1.90 km</desc>
<time>2010-03-01T17:40:21.04</time>
<name>2256</name>
</trkpt>
<trkpt lat="48.944225" lon="8.665212">
<ele>335.5</ele>
<speed>0.9</speed>
<course>213.2</course>
<desc>Speed 0.9 km/h Distance 1.90 km</desc>
<time>2010-03-01T17:40:22.04</time>
<name>2257</name>
</trkpt>
<trkpt lat="48.944220" lon="8.665207">
<ele>335.0</ele>
<speed>0.8</speed>
<course>213.2</course>
<desc>Speed 0.8 km/h Distance 1.90 km</desc>
<time>2010-03-01T17:40:23.04</time>
<name>2258</name>
</trkpt>
<trkpt lat="48.944220" lon="8.665207">
<ele>335.0</ele>
<speed>0.2</speed>
<course>142.8</course>
<desc>Speed 0.2 km/h Distance 1.90 km</desc>
<time>2010-03-01T17:40:24.04</time>
<name>2259</name>
</trkpt>
<trkpt lat="48.944218" lon="8.665208">
<ele>335.0</ele>
<speed>0.8</speed>
<course>192.6</course>
<desc>Speed 0.8 km/h Distance 1.90 km</desc>
<time>2010-03-01T17:40:25.04</time>
<name>2260</name>
</trkpt>
<trkpt lat="48.944213" lon="8.665207">
<ele>335.0</ele>
<speed>1.3</speed>
<course>167.4</course>
<desc>Speed 1.3 km/h Distance 1.90 km</desc>
<time>2010-03-01T17:40:26.04</time>
<name>2261</name>
</trkpt>
<trkpt lat="48.944208" lon="8.665208">
<ele>335.0</ele>
<speed>1.3</speed>
<course>192.6</course>
<desc>Speed 1.3 km/h Distance 1.90 km</desc>
<time>2010-03-01T17:40:27.04</time>
<name>2262</name>
</trkpt>
<trkpt lat="48.944205" lon="8.665207">
<ele>334.5</ele>
<speed>0.3</speed>
<course>270.0</course>
<desc>Speed 0.3 km/h Distance 1.90 km</desc>
<time>2010-03-01T17:40:28.04</time>
<name>2263</name>
</trkpt>
<trkpt lat="48.944205" lon="8.665202">
<ele>334.5</ele>
<speed>1.5</speed>
<course>270.0</course>
<desc>Speed 1.5 km/h Distance 1.90 km</desc>
<time>2010-03-01T17:40:29.04</time>
<name>2264</name>
</trkpt>
<trkpt lat="48.944205" lon="8.665202">
<ele>334.5</ele>
<speed>0.4</speed>
<course>167.4</course>
<desc>Speed 0.4 km/h Distance 1.90 km</desc>
<time>2010-03-01T17:40:30.04</time>
<name>2265</name>
</trkpt>
<trkpt lat="48.944202" lon="8.665203">
<ele>334.5</ele>
<speed>0.9</speed>
<course>192.6</course>
<desc>Speed 0.9 km/h Distance 1.90 km</desc>
<time>2010-03-01T17:40:31.04</time>
<name>2266</name>
</trkpt>
<trkpt lat="48.944200" lon="8.665202">
<ele>334.5</ele>
<speed>1.2</speed>
<course>90.0</course>
<desc>Speed 1.2 km/h Distance 1.90 km</desc>
<time>2010-03-01T17:40:32.04</time>
<name>2267</name>
</trkpt>
<trkpt lat="48.944200" lon="8.665205">
<ele>334.5</ele>
<speed>1.0</speed>
<course>52.4</course>
<desc>Speed 1.0 km/h Distance 1.90 km</desc>
<time>2010-03-01T17:40:33.04</time>
<name>2268</name>
</trkpt>
<trkpt lat="48.944203" lon="8.665212">
<ele>334.5</ele>
<speed>2.1</speed>
<course>90.0</course>
<desc>Speed 2.1 km/h Distance 1.90 km</desc>
<time>2010-03-01T17:40:34.04</time>
<name>2269</name>
</trkpt>
<trkpt lat="48.944203" lon="8.665223">
<ele>334.5</ele>
<speed>3.1</speed>
<course>132.6</course>
<desc>Speed 3.1 km/h Distance 1.90 km</desc>
<time>2010-03-01T17:40:35.04</time>
<name>2270</name>
</trkpt>
<trkpt lat="48.944198" lon="8.665232">
<ele>334.5</ele>
<speed>2.9</speed>
<course>90.0</course>
<desc>Speed 2.9 km/h Distance 1.90 km</desc>
<time>2010-03-01T17:40:36.04</time>
<name>2271</name>
</trkpt>
<trkpt lat="48.944198" lon="8.665238">
<ele>334.5</ele>
<speed>2.1</speed>
<course>69.1</course>
<desc>Speed 2.1 km/h Distance 1.90 km</desc>
<time>2010-03-01T17:40:37.04</time>
<name>2272</name>
</trkpt>
<trkpt lat="48.944200" lon="8.665245">
<ele>334.5</ele>
<speed>2.1</speed>
<course>90.0</course>
<desc>Speed 2.1 km/h Distance 1.90 km</desc>
<time>2010-03-01T17:40:38.04</time>
<name>2273</name>
</trkpt>
<trkpt lat="48.944200" lon="8.665257">
<ele>334.5</ele>
<speed>3.1</speed>
<course>77.7</course>
<desc>Speed 3.1 km/h Distance 1.90 km</desc>
<time>2010-03-01T17:40:39.04</time>
<name>2274</name>
</trkpt>
<trkpt lat="48.944202" lon="8.665268">
<ele>335.0</ele>
<speed>3.5</speed>
<course>121.4</course>
<desc>Speed 3.5 km/h Distance 1.90 km</desc>
<time>2010-03-01T17:40:40.04</time>
<name>2275</name>
</trkpt>
<trkpt lat="48.944198" lon="8.665277">
<ele>335.0</ele>
<speed>3.6</speed>
<course>90.0</course>
<desc>Speed 3.6 km/h Distance 1.90 km</desc>
<time>2010-03-01T17:40:41.04</time>
<name>2276</name>
</trkpt>
<trkpt lat="48.944198" lon="8.665288">
<ele>335.0</ele>
<speed>3.1</speed>
<course>107.1</course>
<desc>Speed 3.1 km/h Distance 1.91 km</desc>
<time>2010-03-01T17:40:42.04</time>
<name>2277</name>
</trkpt>
<trkpt lat="48.944197" lon="8.665297">
<ele>335.0</ele>
<speed>2.3</speed>
<course>117.4</course>
<desc>Speed 2.3 km/h Distance 1.91 km</desc>
<time>2010-03-01T17:40:43.04</time>
<name>2278</name>
</trkpt>
<trkpt lat="48.944195" lon="8.665302">
<ele>335.0</ele>
<speed>2.2</speed>
<course>117.4</course>
<desc>Speed 2.2 km/h Distance 1.91 km</desc>
<time>2010-03-01T17:40:44.04</time>
<name>2279</name>
</trkpt>
<trkpt lat="48.944193" lon="8.665307">
<ele>335.0</ele>
<speed>1.9</speed>
<course>128.1</course>
<desc>Speed 1.9 km/h Distance 1.91 km</desc>
<time>2010-03-01T17:40:45.04</time>
<name>2280</name>
</trkpt>
<trkpt lat="48.944192" lon="8.665310">
<ele>335.0</ele>
<speed>2.0</speed>
<course>69.1</course>
<desc>Speed 2.0 km/h Distance 1.91 km</desc>
<time>2010-03-01T17:40:46.04</time>
<name>2281</name>
</trkpt>
<trkpt lat="48.944193" lon="8.665317">
<ele>335.0</ele>
<speed>1.8</speed>
<course>25.6</course>
<desc>Speed 1.8 km/h Distance 1.91 km</desc>
<time>2010-03-01T17:40:47.04</time>
<name>2282</name>
</trkpt>
<trkpt lat="48.944200" lon="8.665322">
<ele>335.0</ele>
<speed>3.2</speed>
<course>132.9</course>
<desc>Speed 3.2 km/h Distance 1.91 km</desc>
<time>2010-03-01T17:40:48.04</time>
<name>2283</name>
</trkpt>
<trkpt lat="48.944195" lon="8.665330">
<ele>335.0</ele>
<speed>2.9</speed>
<course>104.2</course>
<desc>Speed 2.9 km/h Distance 1.91 km</desc>
<time>2010-03-01T17:40:49.04</time>
<name>2284</name>
</trkpt>
<trkpt lat="48.944193" lon="8.665340">
<ele>335.5</ele>
<speed>3.0</speed>
<course>90.0</course>
<desc>Speed 3.0 km/h Distance 1.91 km</desc>
<time>2010-03-01T17:40:50.04</time>
<name>2285</name>
</trkpt>
<trkpt lat="48.944193" lon="8.665350">
<ele>336.0</ele>
<speed>2.8</speed>
<course>116.8</course>
<desc>Speed 2.8 km/h Distance 1.91 km</desc>
<time>2010-03-01T17:40:51.04</time>
<name>2286</name>
</trkpt>
<trkpt lat="48.944190" lon="8.665360">
<ele>336.0</ele>
<speed>2.8</speed>
<course>90.0</course>
<desc>Speed 2.8 km/h Distance 1.91 km</desc>
<time>2010-03-01T17:40:52.04</time>
<name>2287</name>
</trkpt>
<trkpt lat="48.944190" lon="8.665370">
<ele>337.0</ele>
<speed>2.8</speed>
<course>132.2</course>
<desc>Speed 2.8 km/h Distance 1.91 km</desc>
<time>2010-03-01T17:40:53.04</time>
<name>2288</name>
</trkpt>
<trkpt lat="48.944185" lon="8.665378">
<ele>337.0</ele>
<speed>2.8</speed>
<course>136.5</course>
<desc>Speed 2.8 km/h Distance 1.91 km</desc>
<time>2010-03-01T17:40:54.04</time>
<name>2289</name>
</trkpt>
<trkpt lat="48.944182" lon="8.665383">
<ele>336.5</ele>
<speed>1.8</speed>
<course>12.6</course>
<desc>Speed 1.8 km/h Distance 1.91 km</desc>
<time>2010-03-01T17:40:55.04</time>
<name>2290</name>
</trkpt>
<trkpt lat="48.944183" lon="8.665383">
<ele>336.5</ele>
<speed>0.6</speed>
<course>270.0</course>
<desc>Speed 0.6 km/h Distance 1.91 km</desc>
<time>2010-03-01T17:40:56.04</time>
<name>2291</name>
</trkpt>
<trkpt lat="48.944183" lon="8.665382">
<ele>337.0</ele>
<speed>0.4</speed>
<course>12.6</course>
<desc>Speed 0.4 km/h Distance 1.91 km</desc>
<time>2010-03-01T17:40:57.04</time>
<name>2292</name>
</trkpt>
<trkpt lat="48.944185" lon="8.665382">
<ele>337.5</ele>
<speed>0.6</speed>
<course>90.0</course>
<desc>Speed 0.6 km/h Distance 1.91 km</desc>
<time>2010-03-01T17:40:58.04</time>
<name>2293</name>
</trkpt>
<trkpt lat="48.944185" lon="8.665383">
<ele>338.0</ele>
<speed>0.8</speed>
<course>90.0</course>
<desc>Speed 0.8 km/h Distance 1.91 km</desc>
<time>2010-03-01T17:40:59.04</time>
<name>2294</name>
</trkpt>
<trkpt lat="48.944185" lon="8.665385">
<ele>338.0</ele>
<speed>0.4</speed>
<course>90.0</course>
<desc>Speed 0.4 km/h Distance 1.91 km</desc>
<time>2010-03-01T17:41:00.04</time>
<name>2295</name>
</trkpt>
<trkpt lat="48.944185" lon="8.665387">
<ele>338.0</ele>
<speed>0.5</speed>
<course>90.0</course>
<desc>Speed 0.5 km/h Distance 1.91 km</desc>
<time>2010-03-01T17:41:01.04</time>
<name>2296</name>
</trkpt>
<trkpt lat="48.944185" lon="8.665393">
<ele>338.5</ele>
<speed>1.7</speed>
<course>167.4</course>
<desc>Speed 1.7 km/h Distance 1.92 km</desc>
<time>2010-03-01T17:41:02.04</time>
<name>2297</name>
</trkpt>
<trkpt lat="48.944182" lon="8.665395">
<ele>338.0</ele>
<speed>0.8</speed>
<course>167.4</course>
<desc>Speed 0.8 km/h Distance 1.92 km</desc>
<time>2010-03-01T17:41:03.04</time>
<name>2298</name>
</trkpt>
<trkpt lat="48.944180" lon="8.665395">
<ele>338.5</ele>
<speed>0.3</speed>
<course>180.0</course>
<desc>Speed 0.3 km/h Distance 1.92 km</desc>
<time>2010-03-01T17:41:04.04</time>
<name>2299</name>
</trkpt>
<trkpt lat="48.944178" lon="8.665395">
<ele>338.5</ele>
<speed>0.4</speed>
<course>180.0</course>
<desc>Speed 0.4 km/h Distance 1.92 km</desc>
<time>2010-03-01T17:41:05.04</time>
<name>2300</name>
</trkpt>
<trkpt lat="48.944178" lon="8.665397">
<ele>338.5</ele>
<speed>0.3</speed>
<course>180.0</course>
<desc>Speed 0.3 km/h Distance 1.92 km</desc>
<time>2010-03-01T17:41:06.04</time>
<name>2301</name>
</trkpt>
<trkpt lat="48.944178" lon="8.665398">
<ele>338.5</ele>
<speed>0.3</speed>
<course>180.0</course>
<desc>Speed 0.3 km/h Distance 1.92 km</desc>
<time>2010-03-01T17:41:07.04</time>
<name>2302</name>
</trkpt>
<trkpt lat="48.944178" lon="8.665398">
<ele>338.5</ele>
<speed>0.4</speed>
<course>180.0</course>
<desc>Speed 0.4 km/h Distance 1.92 km</desc>
<time>2010-03-01T17:41:08.04</time>
<name>2303</name>
</trkpt>
<trkpt lat="48.944178" lon="8.665398">
<ele>338.5</ele>
<speed>0.2</speed>
<course>180.0</course>
<desc>Speed 0.2 km/h Distance 1.92 km</desc>
<time>2010-03-01T17:41:09.04</time>
<name>2304</name>
</trkpt>
<trkpt lat="48.944177" lon="8.665398">
<ele>338.5</ele>
<speed>0.4</speed>
<course>142.8</course>
<desc>Speed 0.4 km/h Distance 1.92 km</desc>
<time>2010-03-01T17:41:10.04</time>
<name>2305</name>
</trkpt>
<trkpt lat="48.944175" lon="8.665400">
<ele>338.5</ele>
<speed>1.2</speed>
<course>146.3</course>
<desc>Speed 1.2 km/h Distance 1.92 km</desc>
<time>2010-03-01T17:41:11.04</time>
<name>2306</name>
</trkpt>
<trkpt lat="48.944172" lon="8.665403">
<ele>338.5</ele>
<speed>1.4</speed>
<course>68.7</course>
<desc>Speed 1.4 km/h Distance 1.92 km</desc>
<time>2010-03-01T17:41:12.04</time>
<name>2307</name>
</trkpt>
<trkpt lat="48.944173" lon="8.665410">
<ele>339.0</ele>
<speed>1.9</speed>
<course>140.6</course>
<desc>Speed 1.9 km/h Distance 1.92 km</desc>
<time>2010-03-01T17:41:13.04</time>
<name>2308</name>
</trkpt>
<trkpt lat="48.944167" lon="8.665418">
<ele>339.0</ele>
<speed>3.0</speed>
<course>61.7</course>
<desc>Speed 3.0 km/h Distance 1.92 km</desc>
<time>2010-03-01T17:41:14.04</time>
<name>2309</name>
</trkpt>
<trkpt lat="48.944168" lon="8.665423">
<ele>339.0</ele>
<speed>1.9</speed>
<course>180.0</course>
<desc>Speed 1.9 km/h Distance 1.92 km</desc>
<time>2010-03-01T17:41:15.04</time>
<name>2310</name>
</trkpt>
<trkpt lat="48.944165" lon="8.665423">
<ele>339.0</ele>
<speed>1.0</speed>
<course>180.0</course>
<desc>Speed 1.0 km/h Distance 1.92 km</desc>
<time>2010-03-01T17:41:16.04</time>
<name>2311</name>
</trkpt>
<trkpt lat="48.944165" lon="8.665423">
<ele>339.0</ele>
<speed>0.2</speed>
<course>12.6</course>
<desc>Speed 0.2 km/h Distance 1.92 km</desc>
<time>2010-03-01T17:41:17.04</time>
<name>2312</name>
</trkpt>
<trkpt lat="48.944167" lon="8.665423">
<ele>339.0</ele>
<speed>0.3</speed>
<course>128.1</course>
<desc>Speed 0.3 km/h Distance 1.92 km</desc>
<time>2010-03-01T17:41:18.04</time>
<name>2313</name>
</trkpt>
<trkpt lat="48.944165" lon="8.665427">
<ele>339.0</ele>
<speed>1.8</speed>
<course>117.4</course>
<desc>Speed 1.8 km/h Distance 1.92 km</desc>
<time>2010-03-01T17:41:19.04</time>
<name>2314</name>
</trkpt>
<trkpt lat="48.944163" lon="8.665432">
<ele>338.5</ele>
<speed>3.3</speed>
<course>58.6</course>
<desc>Speed 3.3 km/h Distance 1.92 km</desc>
<time>2010-03-01T17:41:20.04</time>
<name>2315</name>
</trkpt>
<trkpt lat="48.944167" lon="8.665440">
<ele>338.5</ele>
<speed>2.2</speed>
<course>186.1</course>
<desc>Speed 2.2 km/h Distance 1.92 km</desc>
<time>2010-03-01T17:41:21.04</time>
<name>2316</name>
</trkpt>
<trkpt lat="48.944147" lon="8.665437">
<ele>336.5</ele>
<speed>7.5</speed>
<course>104.4</course>
<desc>Speed 7.5 km/h Distance 1.92 km</desc>
<time>2010-03-01T17:41:22.04</time>
<name>2317</name>
</trkpt>
<trkpt lat="48.944145" lon="8.665447">
<ele>336.5</ele>
<speed>2.6</speed>
<course>135.5</course>
<desc>Speed 2.6 km/h Distance 1.92 km</desc>
<time>2010-03-01T17:41:23.04</time>
<name>2318</name>
</trkpt>
<trkpt lat="48.944138" lon="8.665457">
<ele>336.5</ele>
<speed>3.1</speed>
<course>157.8</course>
<desc>Speed 3.1 km/h Distance 1.93 km</desc>
<time>2010-03-01T17:41:24.04</time>
<name>2319</name>
</trkpt>
<trkpt lat="48.944133" lon="8.665460">
<ele>336.0</ele>
<speed>2.7</speed>
<course>17.5</course>
<desc>Speed 2.7 km/h Distance 1.93 km</desc>
<time>2010-03-01T17:41:25.04</time>
<name>2320</name>
</trkpt>
<trkpt lat="48.944140" lon="8.665463">
<ele>337.0</ele>
<speed>2.4</speed>
<course>73.1</course>
<desc>Speed 2.4 km/h Distance 1.93 km</desc>
<time>2010-03-01T17:41:26.04</time>
<name>2321</name>
</trkpt>
<trkpt lat="48.944142" lon="8.665472">
<ele>337.0</ele>
<speed>2.0</speed>
<course>62.6</course>
<desc>Speed 2.0 km/h Distance 1.93 km</desc>
<time>2010-03-01T17:41:27.04</time>
<name>2322</name>
</trkpt>
<trkpt lat="48.944143" lon="8.665477">
<ele>337.0</ele>
<speed>1.6</speed>
<course>90.0</course>
<desc>Speed 1.6 km/h Distance 1.93 km</desc>
<time>2010-03-01T17:41:28.04</time>
<name>2323</name>
</trkpt>
<trkpt lat="48.944143" lon="8.665485">
<ele>337.0</ele>
<speed>2.4</speed>
<course>90.0</course>
<desc>Speed 2.4 km/h Distance 1.93 km</desc>
<time>2010-03-01T17:41:29.04</time>
<name>2324</name>
</trkpt>
<trkpt lat="48.944143" lon="8.665495">
<ele>337.0</ele>
<speed>2.8</speed>
<course>58.6</course>
<desc>Speed 2.8 km/h Distance 1.93 km</desc>
<time>2010-03-01T17:41:30.04</time>
<name>2325</name>
</trkpt>
<trkpt lat="48.944147" lon="8.665503">
<ele>337.0</ele>
<speed>2.3</speed>
<course>104.4</course>
<desc>Speed 2.3 km/h Distance 1.93 km</desc>
<time>2010-03-01T17:41:31.04</time>
<name>2326</name>
</trkpt>
<trkpt lat="48.944145" lon="8.665513">
<ele>337.5</ele>
<speed>2.5</speed>
<course>75.6</course>
<desc>Speed 2.5 km/h Distance 1.93 km</desc>
<time>2010-03-01T17:41:32.04</time>
<name>2327</name>
</trkpt>
<trkpt lat="48.944147" lon="8.665523">
<ele>337.0</ele>
<speed>2.4</speed>
<course>123.1</course>
<desc>Speed 2.4 km/h Distance 1.93 km</desc>
<time>2010-03-01T17:41:33.04</time>
<name>2328</name>
</trkpt>
<trkpt lat="48.944142" lon="8.665535">
<ele>337.0</ele>
<speed>3.1</speed>
<course>100.7</course>
<desc>Speed 3.1 km/h Distance 1.93 km</desc>
<time>2010-03-01T17:41:34.04</time>
<name>2329</name>
</trkpt>
<trkpt lat="48.944140" lon="8.665548">
<ele>337.0</ele>
<speed>2.7</speed>
<course>107.1</course>
<desc>Speed 2.7 km/h Distance 1.93 km</desc>
<time>2010-03-01T17:41:35.04</time>
<name>2330</name>
</trkpt>
<trkpt lat="48.944138" lon="8.665557">
<ele>337.0</ele>
<speed>2.0</speed>
<course>102.3</course>
<desc>Speed 2.0 km/h Distance 1.93 km</desc>
<time>2010-03-01T17:41:36.04</time>
<name>2331</name>
</trkpt>
<trkpt lat="48.944137" lon="8.665568">
<ele>337.0</ele>
<speed>2.8</speed>
<course>119.7</course>
<desc>Speed 2.8 km/h Distance 1.93 km</desc>
<time>2010-03-01T17:41:37.04</time>
<name>2332</name>
</trkpt>
<trkpt lat="48.944132" lon="8.665582">
<ele>337.0</ele>
<speed>4.4</speed>
<course>119.7</course>
<desc>Speed 4.4 km/h Distance 1.94 km</desc>
<time>2010-03-01T17:41:38.04</time>
<name>2333</name>
</trkpt>
<trkpt lat="48.944127" lon="8.665595">
<ele>337.0</ele>
<speed>4.5</speed>
<course>110.8</course>
<desc>Speed 4.5 km/h Distance 1.94 km</desc>
<time>2010-03-01T17:41:39.04</time>
<name>2334</name>
</trkpt>
<trkpt lat="48.944123" lon="8.665608">
<ele>336.5</ele>
<speed>4.0</speed>
<course>113.5</course>
<desc>Speed 4.0 km/h Distance 1.94 km</desc>
<time>2010-03-01T17:41:40.04</time>
<name>2335</name>
</trkpt>
<trkpt lat="48.944120" lon="8.665620">
<ele>336.0</ele>
<speed>3.7</speed>
<course>75.8</course>
<desc>Speed 3.7 km/h Distance 1.94 km</desc>
<time>2010-03-01T17:41:41.04</time>
<name>2336</name>
</trkpt>
<trkpt lat="48.944122" lon="8.665630">
<ele>335.5</ele>
<speed>2.1</speed>
<course>90.0</course>
<desc>Speed 2.1 km/h Distance 1.94 km</desc>
<time>2010-03-01T17:41:42.04</time>
<name>2337</name>
</trkpt>
<trkpt lat="48.944122" lon="8.665642">
<ele>335.0</ele>
<speed>3.0</speed>
<course>140.6</course>
<desc>Speed 3.0 km/h Distance 1.94 km</desc>
<time>2010-03-01T17:41:43.04</time>
<name>2338</name>
</trkpt>
<trkpt lat="48.944115" lon="8.665650">
<ele>335.0</ele>
<speed>3.9</speed>
<course>138.6</course>
<desc>Speed 3.9 km/h Distance 1.94 km</desc>
<time>2010-03-01T17:41:44.04</time>
<name>2339</name>
</trkpt>
<trkpt lat="48.944110" lon="8.665657">
<ele>335.0</ele>
<speed>2.8</speed>
<course>59.6</course>
<desc>Speed 2.8 km/h Distance 1.94 km</desc>
<time>2010-03-01T17:41:45.04</time>
<name>2340</name>
</trkpt>
<trkpt lat="48.944118" lon="8.665678">
<ele>335.0</ele>
<speed>6.0</speed>
<course>127.2</course>
<desc>Speed 6.0 km/h Distance 1.94 km</desc>
<time>2010-03-01T17:41:46.04</time>
<name>2341</name>
</trkpt>
<trkpt lat="48.944113" lon="8.665688">
<ele>335.5</ele>
<speed>3.1</speed>
<course>156.2</course>
<desc>Speed 3.1 km/h Distance 1.94 km</desc>
<time>2010-03-01T17:41:47.04</time>
<name>2342</name>
</trkpt>
<trkpt lat="48.944108" lon="8.665692">
<ele>335.5</ele>
<speed>2.1</speed>
<course>105.5</course>
<desc>Speed 2.1 km/h Distance 1.95 km</desc>
<time>2010-03-01T17:41:48.04</time>
<name>2343</name>
</trkpt>
<trkpt lat="48.944105" lon="8.665710">
<ele>335.5</ele>
<speed>4.9</speed>
<course>128.1</course>
<desc>Speed 4.9 km/h Distance 1.95 km</desc>
<time>2010-03-01T17:41:49.04</time>
<name>2344</name>
</trkpt>
<trkpt lat="48.944103" lon="8.665713">
<ele>335.0</ele>
<speed>1.1</speed>
<course>117.4</course>
<desc>Speed 1.1 km/h Distance 1.95 km</desc>
<time>2010-03-01T17:41:50.04</time>
<name>2345</name>
</trkpt>
<trkpt lat="48.944102" lon="8.665718">
<ele>335.0</ele>
<speed>1.8</speed>
<course>135.5</course>
<desc>Speed 1.8 km/h Distance 1.95 km</desc>
<time>2010-03-01T17:41:51.04</time>
<name>2346</name>
</trkpt>
<trkpt lat="48.944098" lon="8.665723">
<ele>335.0</ele>
<speed>1.5</speed>
<course>127.0</course>
<desc>Speed 1.5 km/h Distance 1.95 km</desc>
<time>2010-03-01T17:41:52.04</time>
<name>2347</name>
</trkpt>
<trkpt lat="48.944095" lon="8.665730">
<ele>335.0</ele>
<speed>2.3</speed>
<course>165.1</course>
<desc>Speed 2.3 km/h Distance 1.95 km</desc>
<time>2010-03-01T17:41:53.04</time>
<name>2348</name>
</trkpt>
<trkpt lat="48.944087" lon="8.665733">
<ele>335.0</ele>
<speed>2.8</speed>
<course>156.2</course>
<desc>Speed 2.8 km/h Distance 1.95 km</desc>
<time>2010-03-01T17:41:54.04</time>
<name>2349</name>
</trkpt>
<trkpt lat="48.944082" lon="8.665737">
<ele>335.0</ele>
<speed>2.6</speed>
<course>146.3</course>
<desc>Speed 2.6 km/h Distance 1.95 km</desc>
<time>2010-03-01T17:41:55.04</time>
<name>2350</name>
</trkpt>
<trkpt lat="48.944075" lon="8.665743">
<ele>335.5</ele>
<speed>2.8</speed>
<course>152.5</course>
<desc>Speed 2.8 km/h Distance 1.95 km</desc>
<time>2010-03-01T17:41:56.04</time>
<name>2351</name>
</trkpt>
<trkpt lat="48.944067" lon="8.665750">
<ele>335.5</ele>
<speed>3.6</speed>
<course>169.6</course>
<desc>Speed 3.6 km/h Distance 1.95 km</desc>
<time>2010-03-01T17:41:57.04</time>
<name>2352</name>
</trkpt>
<trkpt lat="48.944055" lon="8.665753">
<ele>336.0</ele>
<speed>3.9</speed>
<course>175.0</course>
<desc>Speed 3.9 km/h Distance 1.95 km</desc>
<time>2010-03-01T17:41:58.04</time>
<name>2353</name>
</trkpt>
<trkpt lat="48.944047" lon="8.665753">
<ele>336.0</ele>
<speed>3.5</speed>
<course>175.3</course>
<desc>Speed 3.5 km/h Distance 1.95 km</desc>
<time>2010-03-01T17:41:59.04</time>
<name>2354</name>
</trkpt>
<trkpt lat="48.944035" lon="8.665755">
<ele>336.0</ele>
<speed>4.2</speed>
<course>180.0</course>
<desc>Speed 4.2 km/h Distance 1.96 km</desc>
<time>2010-03-01T17:42:00.04</time>
<name>2355</name>
</trkpt>
<trkpt lat="48.944027" lon="8.665755">
<ele>336.0</ele>
<speed>3.4</speed>
<course>146.3</course>
<desc>Speed 3.4 km/h Distance 1.96 km</desc>
<time>2010-03-01T17:42:01.04</time>
<name>2356</name>
</trkpt>
<trkpt lat="48.944023" lon="8.665758">
<ele>336.0</ele>
<speed>1.6</speed>
<course>90.0</course>
<desc>Speed 1.6 km/h Distance 1.96 km</desc>
<time>2010-03-01T17:42:02.04</time>
<name>2357</name>
</trkpt>
<trkpt lat="48.944023" lon="8.665760">
<ele>336.0</ele>
<speed>0.4</speed>
<course>150.8</course>
<desc>Speed 0.4 km/h Distance 1.96 km</desc>
<time>2010-03-01T17:42:03.04</time>
<name>2358</name>
</trkpt>
<trkpt lat="48.944022" lon="8.665762">
<ele>336.0</ele>
<speed>0.4</speed>
<course>167.4</course>
<desc>Speed 0.4 km/h Distance 1.96 km</desc>
<time>2010-03-01T17:42:04.04</time>
<name>2359</name>
</trkpt>
<trkpt lat="48.944020" lon="8.665763">
<ele>336.0</ele>
<speed>0.9</speed>
<course>147.7</course>
<desc>Speed 0.9 km/h Distance 1.96 km</desc>
<time>2010-03-01T17:42:05.04</time>
<name>2360</name>
</trkpt>
<trkpt lat="48.944015" lon="8.665768">
<ele>336.0</ele>
<speed>2.1</speed>
<course>121.8</course>
<desc>Speed 2.1 km/h Distance 1.96 km</desc>
<time>2010-03-01T17:42:06.04</time>
<name>2361</name>
</trkpt>
<trkpt lat="48.944012" lon="8.665777">
<ele>336.0</ele>
<speed>1.6</speed>
<course>90.0</course>
<desc>Speed 1.6 km/h Distance 1.96 km</desc>
<time>2010-03-01T17:42:07.04</time>
<name>2362</name>
</trkpt>
<trkpt lat="48.944012" lon="8.665780">
<ele>336.0</ele>
<speed>0.1</speed>
<course>110.9</course>
<desc>Speed 0.1 km/h Distance 1.96 km</desc>
<time>2010-03-01T17:42:08.04</time>
<name>2363</name>
</trkpt>
<trkpt lat="48.944010" lon="8.665787">
<ele>336.0</ele>
<speed>0.9</speed>
<course>146.8</course>
<desc>Speed 0.9 km/h Distance 1.96 km</desc>
<time>2010-03-01T17:42:09.04</time>
<name>2364</name>
</trkpt>
<trkpt lat="48.944005" lon="8.665792">
<ele>336.5</ele>
<speed>1.7</speed>
<course>90.0</course>
<desc>Speed 1.7 km/h Distance 1.96 km</desc>
<time>2010-03-01T17:42:10.04</time>
<name>2365</name>
</trkpt>
<trkpt lat="48.944005" lon="8.665795">
<ele>336.5</ele>
<speed>0.7</speed>
<course>29.2</course>
<desc>Speed 0.7 km/h Distance 1.96 km</desc>
<time>2010-03-01T17:42:11.04</time>
<name>2366</name>
</trkpt>
<trkpt lat="48.944007" lon="8.665797">
<ele>336.5</ele>
<speed>0.1</speed>
<course>29.2</course>
<desc>Speed 0.1 km/h Distance 1.96 km</desc>
<time>2010-03-01T17:42:12.04</time>
<name>2367</name>
</trkpt>
<trkpt lat="48.944007" lon="8.665798">
<ele>336.5</ele>
<speed>0.4</speed>
<course>167.4</course>
<desc>Speed 0.4 km/h Distance 1.96 km</desc>
<time>2010-03-01T17:42:13.04</time>
<name>2368</name>
</trkpt>
<trkpt lat="48.944005" lon="8.665798">
<ele>336.5</ele>
<speed>1.5</speed>
<course>167.4</course>
<desc>Speed 1.5 km/h Distance 1.96 km</desc>
<time>2010-03-01T17:42:14.04</time>
<name>2369</name>
</trkpt>
<trkpt lat="48.944000" lon="8.665800">
<ele>337.0</ele>
<speed>2.3</speed>
<course>203.0</course>
<desc>Speed 2.3 km/h Distance 1.96 km</desc>
<time>2010-03-01T17:42:15.04</time>
<name>2370</name>
</trkpt>
<trkpt lat="48.943997" lon="8.665798">
<ele>336.5</ele>
<speed>1.7</speed>
<course>146.3</course>
<desc>Speed 1.7 km/h Distance 1.96 km</desc>
<time>2010-03-01T17:42:16.04</time>
<name>2371</name>
</trkpt>
<trkpt lat="48.943993" lon="8.665802">
<ele>336.5</ele>
<speed>1.8</speed>
<course>90.0</course>
<desc>Speed 1.8 km/h Distance 1.96 km</desc>
<time>2010-03-01T17:42:17.04</time>
<name>2372</name>
</trkpt>
<trkpt lat="48.943993" lon="8.665805">
<ele>336.5</ele>
<speed>0.3</speed>
<course>146.3</course>
<desc>Speed 0.3 km/h Distance 1.96 km</desc>
<time>2010-03-01T17:42:18.04</time>
<name>2373</name>
</trkpt>
<trkpt lat="48.943990" lon="8.665808">
<ele>336.5</ele>
<speed>0.9</speed>
<course>150.8</course>
<desc>Speed 0.9 km/h Distance 1.96 km</desc>
<time>2010-03-01T17:42:19.04</time>
<name>2374</name>
</trkpt>
<trkpt lat="48.943988" lon="8.665810">
<ele>336.5</ele>
<speed>0.9</speed>
<course>90.0</course>
<desc>Speed 0.9 km/h Distance 1.96 km</desc>
<time>2010-03-01T17:42:20.04</time>
<name>2375</name>
</trkpt>
<trkpt lat="48.943988" lon="8.665812">
<ele>336.5</ele>
<speed>0.5</speed>
<course>29.2</course>
<desc>Speed 0.5 km/h Distance 1.96 km</desc>
<time>2010-03-01T17:42:21.04</time>
<name>2376</name>
</trkpt>
<trkpt lat="48.943990" lon="8.665813">
<ele>337.0</ele>
<speed>0.6</speed>
<course>157.0</course>
<desc>Speed 0.6 km/h Distance 1.96 km</desc>
<time>2010-03-01T17:42:22.04</time>
<name>2377</name>
</trkpt>
<trkpt lat="48.943987" lon="8.665815">
<ele>337.0</ele>
<speed>1.1</speed>
<course>171.9</course>
<desc>Speed 1.1 km/h Distance 1.96 km</desc>
<time>2010-03-01T17:42:23.04</time>
<name>2378</name>
</trkpt>
<trkpt lat="48.943982" lon="8.665815">
<ele>337.0</ele>
<speed>1.7</speed>
<course>217.2</course>
<desc>Speed 1.7 km/h Distance 1.96 km</desc>
<time>2010-03-01T17:42:24.04</time>
<name>2379</name>
</trkpt>
<trkpt lat="48.943980" lon="8.665813">
<ele>337.0</ele>
<speed>1.1</speed>
<course>180.0</course>
<desc>Speed 1.1 km/h Distance 1.97 km</desc>
<time>2010-03-01T17:42:25.04</time>
<name>2380</name>
</trkpt>
<trkpt lat="48.943977" lon="8.665813">
<ele>337.0</ele>
<speed>1.3</speed>
<course>90.0</course>
<desc>Speed 1.3 km/h Distance 1.97 km</desc>
<time>2010-03-01T17:42:26.04</time>
<name>2381</name>
</trkpt>
<trkpt lat="48.943977" lon="8.665815">
<ele>337.0</ele>
<speed>0.3</speed>
<course>90.0</course>
<desc>Speed 0.3 km/h Distance 1.97 km</desc>
<time>2010-03-01T17:42:27.04</time>
<name>2382</name>
</trkpt>
<trkpt lat="48.943977" lon="8.665817">
<ele>337.5</ele>
<speed>0.2</speed>
<course>29.2</course>
<desc>Speed 0.2 km/h Distance 1.97 km</desc>
<time>2010-03-01T17:42:28.04</time>
<name>2383</name>
</trkpt>
<trkpt lat="48.943978" lon="8.665818">
<ele>337.5</ele>
<speed>0.2</speed>
<course>29.2</course>
<desc>Speed 0.2 km/h Distance 1.97 km</desc>
<time>2010-03-01T17:42:29.04</time>
<name>2384</name>
</trkpt>
<trkpt lat="48.943978" lon="8.665818">
<ele>337.5</ele>
<speed>0.4</speed>
<course>90.0</course>
<desc>Speed 0.4 km/h Distance 1.97 km</desc>
<time>2010-03-01T17:42:30.04</time>
<name>2385</name>
</trkpt>
<trkpt lat="48.943978" lon="8.665820">
<ele>337.5</ele>
<speed>0.4</speed>
<course>146.3</course>
<desc>Speed 0.4 km/h Distance 1.97 km</desc>
<time>2010-03-01T17:42:31.04</time>
<name>2386</name>
</trkpt>
<trkpt lat="48.943975" lon="8.665823">
<ele>337.5</ele>
<speed>1.3</speed>
<course>152.1</course>
<desc>Speed 1.3 km/h Distance 1.97 km</desc>
<time>2010-03-01T17:42:32.04</time>
<name>2387</name>
</trkpt>
<trkpt lat="48.943967" lon="8.665830">
<ele>337.5</ele>
<speed>3.4</speed>
<course>146.8</course>
<desc>Speed 3.4 km/h Distance 1.97 km</desc>
<time>2010-03-01T17:42:33.04</time>
<name>2388</name>
</trkpt>
<trkpt lat="48.943957" lon="8.665840">
<ele>337.5</ele>
<speed>3.7</speed>
<course>141.6</course>
<desc>Speed 3.7 km/h Distance 1.97 km</desc>
<time>2010-03-01T17:42:34.04</time>
<name>2389</name>
</trkpt>
<trkpt lat="48.943948" lon="8.665850">
<ele>337.5</ele>
<speed>3.9</speed>
<course>123.9</course>
<desc>Speed 3.9 km/h Distance 1.97 km</desc>
<time>2010-03-01T17:42:35.04</time>
<name>2390</name>
</trkpt>
<trkpt lat="48.943942" lon="8.665865">
<ele>337.5</ele>
<speed>4.4</speed>
<course>108.7</course>
<desc>Speed 4.4 km/h Distance 1.97 km</desc>
<time>2010-03-01T17:42:36.04</time>
<name>2391</name>
</trkpt>
<trkpt lat="48.943938" lon="8.665880">
<ele>337.5</ele>
<speed>3.8</speed>
<course>90.0</course>
<desc>Speed 3.8 km/h Distance 1.97 km</desc>
<time>2010-03-01T17:42:37.04</time>
<name>2392</name>
</trkpt>
<trkpt lat="48.943938" lon="8.665892">
<ele>337.5</ele>
<speed>2.2</speed>
<course>72.9</course>
<desc>Speed 2.2 km/h Distance 1.97 km</desc>
<time>2010-03-01T17:42:38.04</time>
<name>2393</name>
</trkpt>
<trkpt lat="48.943940" lon="8.665900">
<ele>337.0</ele>
<speed>1.9</speed>
<course>69.1</course>
<desc>Speed 1.9 km/h Distance 1.97 km</desc>
<time>2010-03-01T17:42:39.04</time>
<name>2394</name>
</trkpt>
<trkpt lat="48.943942" lon="8.665907">
<ele>337.0</ele>
<speed>1.8</speed>
<course>52.8</course>
<desc>Speed 1.8 km/h Distance 1.97 km</desc>
<time>2010-03-01T17:42:40.04</time>
<name>2395</name>
</trkpt>
<trkpt lat="48.943947" lon="8.665917">
<ele>337.0</ele>
<speed>2.7</speed>
<course>39.4</course>
<desc>Speed 2.7 km/h Distance 1.98 km</desc>
<time>2010-03-01T17:42:41.04</time>
<name>2396</name>
</trkpt>
<trkpt lat="48.943953" lon="8.665925">
<ele>337.0</ele>
<speed>3.7</speed>
<course>52.4</course>
<desc>Speed 3.7 km/h Distance 1.98 km</desc>
<time>2010-03-01T17:42:42.04</time>
<name>2397</name>
</trkpt>
<trkpt lat="48.943958" lon="8.665935">
<ele>336.5</ele>
<speed>3.5</speed>
<course>90.0</course>
<desc>Speed 3.5 km/h Distance 1.98 km</desc>
<time>2010-03-01T17:42:43.04</time>
<name>2398</name>
</trkpt>
<trkpt lat="48.943958" lon="8.665940">
<ele>336.5</ele>
<speed>1.1</speed>
<course>142.8</course>
<desc>Speed 1.1 km/h Distance 1.98 km</desc>
<time>2010-03-01T17:42:44.04</time>
<name>2399</name>
</trkpt>
<trkpt lat="48.943957" lon="8.665942">
<ele>336.0</ele>
<speed>0.8</speed>
<course>180.0</course>
<desc>Speed 0.8 km/h Distance 1.98 km</desc>
<time>2010-03-01T17:42:45.04</time>
<name>2400</name>
</trkpt>
<trkpt lat="48.943953" lon="8.665942">
<ele>336.0</ele>
<speed>1.0</speed>
<course>153.6</course>
<desc>Speed 1.0 km/h Distance 1.98 km</desc>
<time>2010-03-01T17:42:46.04</time>
<name>2401</name>
</trkpt>
<trkpt lat="48.943947" lon="8.665947">
<ele>336.0</ele>
<speed>2.5</speed>
<course>270.0</course>
<desc>Speed 2.5 km/h Distance 1.98 km</desc>
<time>2010-03-01T17:42:47.04</time>
<name>2402</name>
</trkpt>
<trkpt lat="48.943947" lon="8.665935">
<ele>336.0</ele>
<speed>2.9</speed>
<course>270.0</course>
<desc>Speed 2.9 km/h Distance 1.98 km</desc>
<time>2010-03-01T17:42:48.04</time>
<name>2403</name>
</trkpt>
<trkpt lat="48.943947" lon="8.665925">
<ele>336.0</ele>
<speed>2.9</speed>
<course>290.2</course>
<desc>Speed 2.9 km/h Distance 1.98 km</desc>
<time>2010-03-01T17:42:49.04</time>
<name>2404</name>
</trkpt>
<trkpt lat="48.943948" lon="8.665918">
<ele>336.0</ele>
<speed>2.9</speed>
<course>270.0</course>
<desc>Speed 2.9 km/h Distance 1.98 km</desc>
<time>2010-03-01T17:42:50.04</time>
<name>2405</name>
</trkpt>
<trkpt lat="48.943948" lon="8.665913">
<ele>336.0</ele>
<speed>2.9</speed>
<course>270.0</course>
<desc>Speed 2.9 km/h Distance 1.98 km</desc>
<time>2010-03-01T17:42:51.04</time>
<name>2406</name>
</trkpt>
<trkpt lat="48.943948" lon="8.665908">
<ele>336.0</ele>
<speed>2.9</speed>
<course>270.0</course>
<desc>Speed 2.9 km/h Distance 1.98 km</desc>
<time>2010-03-01T17:42:52.04</time>
<name>2407</name>
</trkpt>
<trkpt lat="48.943948" lon="8.665905">
<ele>336.0</ele>
<speed>2.9</speed>
<course>270.0</course>
<desc>Speed 2.9 km/h Distance 1.98 km</desc>
<time>2010-03-01T17:42:53.04</time>
<name>2408</name>
</trkpt>
<trkpt lat="48.943948" lon="8.665903">
<ele>336.0</ele>
<speed>2.9</speed>
<course>150.8</course>
<desc>Speed 2.9 km/h Distance 1.98 km</desc>
<time>2010-03-01T17:42:54.04</time>
<name>2409</name>
</trkpt>
<trkpt lat="48.943947" lon="8.665903">
<ele>336.0</ele>
<speed>2.9</speed>
<course>11.6</course>
<desc>Speed 2.9 km/h Distance 1.98 km</desc>
<time>2010-03-01T17:42:55.04</time>
<name>2410</name>
</trkpt>
<trkpt lat="48.944000" lon="8.665920">
<ele>336.0</ele>
<speed>2.9</speed>
<course>11.6</course>
<desc>Speed 2.9 km/h Distance 1.99 km</desc>
<time>2010-03-01T17:42:58.60</time>
<name>2411</name>
</trkpt>
<trkpt lat="48.944000" lon="8.665920">
<ele>336.0</ele>
<speed>2.9</speed>
<course>52.7</course>
<desc>Speed 2.9 km/h Distance 1.99 km</desc>
<time>2010-03-01T17:42:59.04</time>
<name>2412</name>
</trkpt>
<trkpt lat="48.944010" lon="8.665940">
<ele>336.0</ele>
<speed>2.9</speed>
<course>58.9</course>
<desc>Speed 2.9 km/h Distance 1.99 km</desc>
<time>2010-03-01T17:43:00.04</time>
<name>2413</name>
</trkpt>
<trkpt lat="48.944042" lon="8.666020">
<ele>336.0</ele>
<speed>0.8</speed>
<course>248.8</course>
<desc>Speed 0.8 km/h Distance 2.00 km</desc>
<time>2010-03-01T17:43:02.04</time>
<name>2414</name>
</trkpt>
<trkpt lat="48.944022" lon="8.665942">
<ele>336.5</ele>
<speed>1.0</speed>
<course>245.5</course>
<desc>Speed 1.0 km/h Distance 2.00 km</desc>
<time>2010-03-01T17:43:04.04</time>
<name>2415</name>
</trkpt>
<trkpt lat="48.944017" lon="8.665925">
<ele>336.5</ele>
<speed>1.9</speed>
<course>236.9</course>
<desc>Speed 1.9 km/h Distance 2.00 km</desc>
<time>2010-03-01T17:43:05.04</time>
<name>2416</name>
</trkpt>
<trkpt lat="48.944012" lon="8.665913">
<ele>336.5</ele>
<speed>2.1</speed>
<course>242.6</course>
<desc>Speed 2.1 km/h Distance 2.01 km</desc>
<time>2010-03-01T17:43:06.04</time>
<name>2417</name>
</trkpt>
<trkpt lat="48.944010" lon="8.665908">
<ele>336.5</ele>
<speed>1.6</speed>
<course>213.7</course>
<desc>Speed 1.6 km/h Distance 2.01 km</desc>
<time>2010-03-01T17:43:07.04</time>
<name>2418</name>
</trkpt>
<trkpt lat="48.944007" lon="8.665905">
<ele>336.5</ele>
<speed>1.5</speed>
<course>95.0</course>
<desc>Speed 1.5 km/h Distance 2.01 km</desc>
<time>2010-03-01T17:43:08.04</time>
<name>2419</name>
</trkpt>
<trkpt lat="48.944003" lon="8.665963">
<ele>336.0</ele>
<speed>0.3</speed>
<course>128.1</course>
<desc>Speed 0.3 km/h Distance 2.01 km</desc>
<time>2010-03-01T17:43:10.04</time>
<name>2420</name>
</trkpt>
<trkpt lat="48.944002" lon="8.665967">
<ele>336.0</ele>
<speed>0.4</speed>
<course>128.1</course>
<desc>Speed 0.4 km/h Distance 2.01 km</desc>
<time>2010-03-01T17:43:11.04</time>
<name>2421</name>
</trkpt>
<trkpt lat="48.944002" lon="8.665967">
<ele>336.0</ele>
<speed>0.5</speed>
<course>217.2</course>
<desc>Speed 0.5 km/h Distance 2.01 km</desc>
<time>2010-03-01T17:43:12.04</time>
<name>2422</name>
</trkpt>
<trkpt lat="48.944000" lon="8.665965">
<ele>336.0</ele>
<speed>0.7</speed>
<course>270.0</course>
<desc>Speed 0.7 km/h Distance 2.01 km</desc>
<time>2010-03-01T17:43:13.04</time>
<name>2423</name>
</trkpt>
<trkpt lat="48.944000" lon="8.665963">
<ele>336.0</ele>
<speed>0.6</speed>
<course>167.4</course>
<desc>Speed 0.6 km/h Distance 2.01 km</desc>
<time>2010-03-01T17:43:14.04</time>
<name>2424</name>
</trkpt>
<trkpt lat="48.943995" lon="8.665965">
<ele>336.0</ele>
<speed>1.3</speed>
<course>187.4</course>
<desc>Speed 1.3 km/h Distance 2.01 km</desc>
<time>2010-03-01T17:43:15.04</time>
<name>2425</name>
</trkpt>
<trkpt lat="48.943988" lon="8.665963">
<ele>336.0</ele>
<speed>1.7</speed>
<course>270.0</course>
<desc>Speed 1.7 km/h Distance 2.01 km</desc>
<time>2010-03-01T17:43:16.04</time>
<name>2426</name>
</trkpt>
<trkpt lat="48.943988" lon="8.665957">
<ele>336.0</ele>
<speed>1.0</speed>
<course>224.5</course>
<desc>Speed 1.0 km/h Distance 2.01 km</desc>
<time>2010-03-01T17:43:17.04</time>
<name>2427</name>
</trkpt>
<trkpt lat="48.943985" lon="8.665952">
<ele>336.0</ele>
<speed>1.4</speed>
<course>270.0</course>
<desc>Speed 1.4 km/h Distance 2.01 km</desc>
<time>2010-03-01T17:43:18.04</time>
<name>2428</name>
</trkpt>
<trkpt lat="48.943985" lon="8.665943">
<ele>336.0</ele>
<speed>1.4</speed>
<course>220.9</course>
<desc>Speed 1.4 km/h Distance 2.01 km</desc>
<time>2010-03-01T17:43:19.04</time>
<name>2429</name>
</trkpt>
<trkpt lat="48.943980" lon="8.665937">
<ele>336.0</ele>
<speed>2.1</speed>
<course>238.6</course>
<desc>Speed 2.1 km/h Distance 2.02 km</desc>
<time>2010-03-01T17:43:20.04</time>
<name>2430</name>
</trkpt>
<trkpt lat="48.943977" lon="8.665928">
<ele>336.0</ele>
<speed>1.2</speed>
<course>232.4</course>
<desc>Speed 1.2 km/h Distance 2.02 km</desc>
<time>2010-03-01T17:43:21.04</time>
<name>2431</name>
</trkpt>
<trkpt lat="48.943973" lon="8.665922">
<ele>336.0</ele>
<speed>1.3</speed>
<course>185.0</course>
<desc>Speed 1.3 km/h Distance 2.02 km</desc>
<time>2010-03-01T17:43:22.04</time>
<name>2432</name>
</trkpt>
<trkpt lat="48.943965" lon="8.665920">
<ele>336.0</ele>
<speed>2.4</speed>
<course>207.9</course>
<desc>Speed 2.4 km/h Distance 2.02 km</desc>
<time>2010-03-01T17:43:23.04</time>
<name>2433</name>
</trkpt>
<trkpt lat="48.943957" lon="8.665913">
<ele>336.0</ele>
<speed>2.6</speed>
<course>213.7</course>
<desc>Speed 2.6 km/h Distance 2.02 km</desc>
<time>2010-03-01T17:43:24.04</time>
<name>2434</name>
</trkpt>
<trkpt lat="48.943950" lon="8.665907">
<ele>336.0</ele>
<speed>1.9</speed>
<course>233.0</course>
<desc>Speed 1.9 km/h Distance 2.02 km</desc>
<time>2010-03-01T17:43:25.04</time>
<name>2435</name>
</trkpt>
<trkpt lat="48.943947" lon="8.665900">
<ele>336.0</ele>
<speed>1.0</speed>
<course>221.4</course>
<desc>Speed 1.0 km/h Distance 2.02 km</desc>
<time>2010-03-01T17:43:26.04</time>
<name>2436</name>
</trkpt>
<trkpt lat="48.943942" lon="8.665893">
<ele>336.0</ele>
<speed>1.5</speed>
<course>238.6</course>
<desc>Speed 1.5 km/h Distance 2.02 km</desc>
<time>2010-03-01T17:43:27.04</time>
<name>2437</name>
</trkpt>
<trkpt lat="48.943938" lon="8.665885">
<ele>336.0</ele>
<speed>1.6</speed>
<course>246.5</course>
<desc>Speed 1.6 km/h Distance 2.02 km</desc>
<time>2010-03-01T17:43:28.04</time>
<name>2438</name>
</trkpt>
<trkpt lat="48.943935" lon="8.665873">
<ele>336.0</ele>
<speed>1.4</speed>
<course>246.5</course>
<desc>Speed 1.4 km/h Distance 2.02 km</desc>
<time>2010-03-01T17:43:29.04</time>
<name>2439</name>
</trkpt>
<trkpt lat="48.943932" lon="8.665862">
<ele>336.0</ele>
<speed>2.8</speed>
<course>257.8</course>
<desc>Speed 2.8 km/h Distance 2.02 km</desc>
<time>2010-03-01T17:43:30.04</time>
<name>2440</name>
</trkpt>
<trkpt lat="48.943930" lon="8.665850">
<ele>336.0</ele>
<speed>3.0</speed>
<course>286.7</course>
<desc>Speed 3.0 km/h Distance 2.02 km</desc>
<time>2010-03-01T17:43:31.04</time>
<name>2441</name>
</trkpt>
<trkpt lat="48.943932" lon="8.665842">
<ele>336.0</ele>
<speed>2.1</speed>
<course>249.5</course>
<desc>Speed 2.1 km/h Distance 2.02 km</desc>
<time>2010-03-01T17:43:32.04</time>
<name>2442</name>
</trkpt>
<trkpt lat="48.943930" lon="8.665835">
<ele>336.0</ele>
<speed>1.6</speed>
<course>270.0</course>
<desc>Speed 1.6 km/h Distance 2.03 km</desc>
<time>2010-03-01T17:43:33.04</time>
<name>2443</name>
</trkpt>
<trkpt lat="48.943930" lon="8.665822">
<ele>336.0</ele>
<speed>3.0</speed>
<course>282.2</course>
<desc>Speed 3.0 km/h Distance 2.03 km</desc>
<time>2010-03-01T17:43:34.04</time>
<name>2444</name>
</trkpt>
<trkpt lat="48.943932" lon="8.665810">
<ele>336.0</ele>
<speed>2.8</speed>
<course>270.0</course>
<desc>Speed 2.8 km/h Distance 2.03 km</desc>
<time>2010-03-01T17:43:35.04</time>
<name>2445</name>
</trkpt>
<trkpt lat="48.943932" lon="8.665797">
<ele>336.0</ele>
<speed>2.8</speed>
<course>270.0</course>
<desc>Speed 2.8 km/h Distance 2.03 km</desc>
<time>2010-03-01T17:43:36.04</time>
<name>2446</name>
</trkpt>
<trkpt lat="48.943932" lon="8.665785">
<ele>336.0</ele>
<speed>2.5</speed>
<course>270.0</course>
<desc>Speed 2.5 km/h Distance 2.03 km</desc>
<time>2010-03-01T17:43:37.04</time>
<name>2447</name>
</trkpt>
<trkpt lat="48.943932" lon="8.665773">
<ele>336.0</ele>
<speed>2.5</speed>
<course>236.9</course>
<desc>Speed 2.5 km/h Distance 2.03 km</desc>
<time>2010-03-01T17:43:38.04</time>
<name>2448</name>
</trkpt>
<trkpt lat="48.943927" lon="8.665762">
<ele>336.0</ele>
<speed>2.8</speed>
<course>238.9</course>
<desc>Speed 2.8 km/h Distance 2.03 km</desc>
<time>2010-03-01T17:43:39.04</time>
<name>2449</name>
</trkpt>
<trkpt lat="48.943923" lon="8.665753">
<ele>336.0</ele>
<speed>2.5</speed>
<course>270.0</course>
<desc>Speed 2.5 km/h Distance 2.03 km</desc>
<time>2010-03-01T17:43:40.04</time>
<name>2450</name>
</trkpt>
<trkpt lat="48.943923" lon="8.665742">
<ele>336.0</ele>
<speed>2.5</speed>
<course>290.7</course>
<desc>Speed 2.5 km/h Distance 2.03 km</desc>
<time>2010-03-01T17:43:41.04</time>
<name>2451</name>
</trkpt>
<trkpt lat="48.943927" lon="8.665728">
<ele>336.0</ele>
<speed>3.9</speed>
<course>286.9</course>
<desc>Speed 3.9 km/h Distance 2.03 km</desc>
<time>2010-03-01T17:43:42.04</time>
<name>2452</name>
</trkpt>
<trkpt lat="48.943930" lon="8.665712">
<ele>336.0</ele>
<speed>4.1</speed>
<course>282.2</course>
<desc>Speed 4.1 km/h Distance 2.03 km</desc>
<time>2010-03-01T17:43:43.04</time>
<name>2453</name>
</trkpt>
<trkpt lat="48.943932" lon="8.665700">
<ele>336.0</ele>
<speed>3.6</speed>
<course>270.0</course>
<desc>Speed 3.6 km/h Distance 2.04 km</desc>
<time>2010-03-01T17:43:44.04</time>
<name>2454</name>
</trkpt>
<trkpt lat="48.943932" lon="8.665688">
<ele>336.0</ele>
<speed>3.2</speed>
<course>246.5</course>
<desc>Speed 3.2 km/h Distance 2.04 km</desc>
<time>2010-03-01T17:43:45.04</time>
<name>2455</name>
</trkpt>
<trkpt lat="48.943928" lon="8.665677">
<ele>336.0</ele>
<speed>3.2</speed>
<course>270.0</course>
<desc>Speed 3.2 km/h Distance 2.04 km</desc>
<time>2010-03-01T17:43:46.04</time>
<name>2456</name>
</trkpt>
<trkpt lat="48.943928" lon="8.665667">
<ele>336.0</ele>
<speed>3.3</speed>
<course>232.4</course>
<desc>Speed 3.3 km/h Distance 2.04 km</desc>
<time>2010-03-01T17:43:47.04</time>
<name>2457</name>
</trkpt>
<trkpt lat="48.943925" lon="8.665660">
<ele>336.0</ele>
<speed>2.8</speed>
<course>243.0</course>
<desc>Speed 2.8 km/h Distance 2.04 km</desc>
<time>2010-03-01T17:43:48.04</time>
<name>2458</name>
</trkpt>
<trkpt lat="48.943922" lon="8.665650">
<ele>336.0</ele>
<speed>3.3</speed>
<course>246.4</course>
<desc>Speed 3.3 km/h Distance 2.04 km</desc>
<time>2010-03-01T17:43:49.04</time>
<name>2459</name>
</trkpt>
<trkpt lat="48.943918" lon="8.665638">
<ele>336.0</ele>
<speed>3.2</speed>
<course>270.0</course>
<desc>Speed 3.2 km/h Distance 2.04 km</desc>
<time>2010-03-01T17:43:50.04</time>
<name>2460</name>
</trkpt>
<trkpt lat="48.943918" lon="8.665627">
<ele>336.0</ele>
<speed>3.1</speed>
<course>270.0</course>
<desc>Speed 3.1 km/h Distance 2.04 km</desc>
<time>2010-03-01T17:43:51.04</time>
<name>2461</name>
</trkpt>
<trkpt lat="48.943918" lon="8.665617">
<ele>336.0</ele>
<speed>2.7</speed>
<course>284.2</course>
<desc>Speed 2.7 km/h Distance 2.04 km</desc>
<time>2010-03-01T17:43:52.04</time>
<name>2462</name>
</trkpt>
<trkpt lat="48.943920" lon="8.665607">
<ele>336.0</ele>
<speed>2.2</speed>
<course>293.4</course>
<desc>Speed 2.2 km/h Distance 2.04 km</desc>
<time>2010-03-01T17:43:53.04</time>
<name>2463</name>
</trkpt>
<trkpt lat="48.943923" lon="8.665595">
<ele>336.0</ele>
<speed>3.1</speed>
<course>279.6</course>
<desc>Speed 3.1 km/h Distance 2.04 km</desc>
<time>2010-03-01T17:43:54.04</time>
<name>2464</name>
</trkpt>
<trkpt lat="48.943925" lon="8.665580">
<ele>336.0</ele>
<speed>3.5</speed>
<course>270.0</course>
<desc>Speed 3.5 km/h Distance 2.04 km</desc>
<time>2010-03-01T17:43:55.04</time>
<name>2465</name>
</trkpt>
<trkpt lat="48.943925" lon="8.665567">
<ele>336.0</ele>
<speed>3.3</speed>
<course>280.7</course>
<desc>Speed 3.3 km/h Distance 2.05 km</desc>
<time>2010-03-01T17:43:56.04</time>
<name>2466</name>
</trkpt>
<trkpt lat="48.943927" lon="8.665553">
<ele>336.0</ele>
<speed>3.6</speed>
<course>288.7</course>
<desc>Speed 3.6 km/h Distance 2.05 km</desc>
<time>2010-03-01T17:43:57.04</time>
<name>2467</name>
</trkpt>
<trkpt lat="48.943930" lon="8.665538">
<ele>336.0</ele>
<speed>3.6</speed>
<course>279.6</course>
<desc>Speed 3.6 km/h Distance 2.05 km</desc>
<time>2010-03-01T17:43:58.04</time>
<name>2468</name>
</trkpt>
<trkpt lat="48.943932" lon="8.665523">
<ele>336.5</ele>
<speed>3.7</speed>
<course>278.6</course>
<desc>Speed 3.7 km/h Distance 2.05 km</desc>
<time>2010-03-01T17:43:59.04</time>
<name>2469</name>
</trkpt>
<trkpt lat="48.943933" lon="8.665507">
<ele>336.5</ele>
<speed>3.7</speed>
<course>279.6</course>
<desc>Speed 3.7 km/h Distance 2.05 km</desc>
<time>2010-03-01T17:44:00.04</time>
<name>2470</name>
</trkpt>
<trkpt lat="48.943935" lon="8.665492">
<ele>336.5</ele>
<speed>3.5</speed>
<course>270.0</course>
<desc>Speed 3.5 km/h Distance 2.05 km</desc>
<time>2010-03-01T17:44:01.04</time>
<name>2471</name>
</trkpt>
<trkpt lat="48.943935" lon="8.665477">
<ele>336.5</ele>
<speed>3.8</speed>
<course>270.0</course>
<desc>Speed 3.8 km/h Distance 2.05 km</desc>
<time>2010-03-01T17:44:02.04</time>
<name>2472</name>
</trkpt>
<trkpt lat="48.943935" lon="8.665462">
<ele>336.5</ele>
<speed>3.6</speed>
<course>249.2</course>
<desc>Speed 3.6 km/h Distance 2.05 km</desc>
<time>2010-03-01T17:44:03.04</time>
<name>2473</name>
</trkpt>
<trkpt lat="48.943932" lon="8.665448">
<ele>337.0</ele>
<speed>3.5</speed>
<course>236.9</course>
<desc>Speed 3.5 km/h Distance 2.05 km</desc>
<time>2010-03-01T17:44:04.04</time>
<name>2474</name>
</trkpt>
<trkpt lat="48.943927" lon="8.665437">
<ele>337.0</ele>
<speed>3.7</speed>
<course>236.9</course>
<desc>Speed 3.7 km/h Distance 2.06 km</desc>
<time>2010-03-01T17:44:05.04</time>
<name>2475</name>
</trkpt>
<trkpt lat="48.943922" lon="8.665425">
<ele>337.0</ele>
<speed>3.4</speed>
<course>201.5</course>
<desc>Speed 3.4 km/h Distance 2.06 km</desc>
<time>2010-03-01T17:44:06.04</time>
<name>2476</name>
</trkpt>
<trkpt lat="48.943913" lon="8.665420">
<ele>337.0</ele>
<speed>3.7</speed>
<course>177.8</course>
<desc>Speed 3.7 km/h Distance 2.06 km</desc>
<time>2010-03-01T17:44:07.04</time>
<name>2477</name>
</trkpt>
<trkpt lat="48.943902" lon="8.665420">
<ele>337.0</ele>
<speed>4.5</speed>
<course>175.6</course>
<desc>Speed 4.5 km/h Distance 2.06 km</desc>
<time>2010-03-01T17:44:08.04</time>
<name>2478</name>
</trkpt>
<trkpt lat="48.943892" lon="8.665420">
<ele>337.0</ele>
<speed>4.5</speed>
<course>168.8</course>
<desc>Speed 4.5 km/h Distance 2.06 km</desc>
<time>2010-03-01T17:44:09.04</time>
<name>2479</name>
</trkpt>
<trkpt lat="48.943880" lon="8.665423">
<ele>336.5</ele>
<speed>4.4</speed>
<course>161.8</course>
<desc>Speed 4.4 km/h Distance 2.06 km</desc>
<time>2010-03-01T17:44:10.04</time>
<name>2480</name>
</trkpt>
<trkpt lat="48.943870" lon="8.665428">
<ele>336.5</ele>
<speed>4.6</speed>
<course>167.4</course>
<desc>Speed 4.6 km/h Distance 2.06 km</desc>
<time>2010-03-01T17:44:11.04</time>
<name>2481</name>
</trkpt>
<trkpt lat="48.943860" lon="8.665432">
<ele>336.5</ele>
<speed>4.5</speed>
<course>162.4</course>
<desc>Speed 4.5 km/h Distance 2.06 km</desc>
<time>2010-03-01T17:44:12.04</time>
<name>2482</name>
</trkpt>
<trkpt lat="48.943850" lon="8.665437">
<ele>336.5</ele>
<speed>4.6</speed>
<course>159.2</course>
<desc>Speed 4.6 km/h Distance 2.07 km</desc>
<time>2010-03-01T17:44:13.04</time>
<name>2483</name>
</trkpt>
<trkpt lat="48.943842" lon="8.665442">
<ele>336.5</ele>
<speed>4.3</speed>
<course>146.8</course>
<desc>Speed 4.3 km/h Distance 2.07 km</desc>
<time>2010-03-01T17:44:14.04</time>
<name>2484</name>
</trkpt>
<trkpt lat="48.943833" lon="8.665450">
<ele>337.0</ele>
<speed>4.3</speed>
<course>146.3</course>
<desc>Speed 4.3 km/h Distance 2.07 km</desc>
<time>2010-03-01T17:44:15.04</time>
<name>2485</name>
</trkpt>
<trkpt lat="48.943827" lon="8.665457">
<ele>337.0</ele>
<speed>3.7</speed>
<course>154.8</course>
<desc>Speed 3.7 km/h Distance 2.07 km</desc>
<time>2010-03-01T17:44:16.04</time>
<name>2486</name>
</trkpt>
<trkpt lat="48.943815" lon="8.665465">
<ele>337.0</ele>
<speed>5.2</speed>
<course>146.8</course>
<desc>Speed 5.2 km/h Distance 2.07 km</desc>
<time>2010-03-01T17:44:17.04</time>
<name>2487</name>
</trkpt>
<trkpt lat="48.943808" lon="8.665472">
<ele>337.0</ele>
<speed>3.9</speed>
<course>127.0</course>
<desc>Speed 3.9 km/h Distance 2.07 km</desc>
<time>2010-03-01T17:44:18.04</time>
<name>2488</name>
</trkpt>
<trkpt lat="48.943805" lon="8.665478">
<ele>337.0</ele>
<speed>2.9</speed>
<course>131.1</course>
<desc>Speed 2.9 km/h Distance 2.07 km</desc>
<time>2010-03-01T17:44:19.04</time>
<name>2489</name>
</trkpt>
<trkpt lat="48.943798" lon="8.665490">
<ele>337.0</ele>
<speed>4.5</speed>
<course>121.4</course>
<desc>Speed 4.5 km/h Distance 2.07 km</desc>
<time>2010-03-01T17:44:20.04</time>
<name>2490</name>
</trkpt>
<trkpt lat="48.943795" lon="8.665498">
<ele>337.0</ele>
<speed>3.0</speed>
<course>136.5</course>
<desc>Speed 3.0 km/h Distance 2.07 km</desc>
<time>2010-03-01T17:44:21.04</time>
<name>2491</name>
</trkpt>
<trkpt lat="48.943792" lon="8.665503">
<ele>337.5</ele>
<speed>2.1</speed>
<course>128.1</course>
<desc>Speed 2.1 km/h Distance 2.07 km</desc>
<time>2010-03-01T17:44:22.04</time>
<name>2492</name>
</trkpt>
<trkpt lat="48.943788" lon="8.665510">
<ele>337.0</ele>
<speed>2.9</speed>
<course>136.0</course>
<desc>Speed 2.9 km/h Distance 2.07 km</desc>
<time>2010-03-01T17:44:23.04</time>
<name>2493</name>
</trkpt>
<trkpt lat="48.943782" lon="8.665520">
<ele>336.5</ele>
<speed>4.1</speed>
<course>135.5</course>
<desc>Speed 4.1 km/h Distance 2.07 km</desc>
<time>2010-03-01T17:44:24.04</time>
<name>2494</name>
</trkpt>
<trkpt lat="48.943775" lon="8.665530">
<ele>336.5</ele>
<speed>3.5</speed>
<course>137.4</course>
<desc>Speed 3.5 km/h Distance 2.08 km</desc>
<time>2010-03-01T17:44:25.04</time>
<name>2495</name>
</trkpt>
<trkpt lat="48.943767" lon="8.665542">
<ele>336.0</ele>
<speed>4.5</speed>
<course>144.4</course>
<desc>Speed 4.5 km/h Distance 2.08 km</desc>
<time>2010-03-01T17:44:26.04</time>
<name>2496</name>
</trkpt>
<trkpt lat="48.943748" lon="8.665562">
<ele>335.5</ele>
<speed>9.4</speed>
<course>133.4</course>
<desc>Speed 9.4 km/h Distance 2.08 km</desc>
<time>2010-03-01T17:44:27.04</time>
<name>2497</name>
</trkpt>
<trkpt lat="48.943740" lon="8.665575">
<ele>335.0</ele>
<speed>4.6</speed>
<course>135.0</course>
<desc>Speed 4.6 km/h Distance 2.08 km</desc>
<time>2010-03-01T17:44:28.04</time>
<name>2498</name>
</trkpt>
<trkpt lat="48.943733" lon="8.665585">
<ele>335.0</ele>
<speed>3.5</speed>
<course>141.4</course>
<desc>Speed 3.5 km/h Distance 2.08 km</desc>
<time>2010-03-01T17:44:29.04</time>
<name>2499</name>
</trkpt>
<trkpt lat="48.943725" lon="8.665595">
<ele>335.0</ele>
<speed>3.4</speed>
<course>140.6</course>
<desc>Speed 3.4 km/h Distance 2.08 km</desc>
<time>2010-03-01T17:44:30.04</time>
<name>2500</name>
</trkpt>
<trkpt lat="48.943718" lon="8.665603">
<ele>334.5</ele>
<speed>3.2</speed>
<course>119.7</course>
<desc>Speed 3.2 km/h Distance 2.08 km</desc>
<time>2010-03-01T17:44:31.04</time>
<name>2501</name>
</trkpt>
<trkpt lat="48.943713" lon="8.665617">
<ele>334.5</ele>
<speed>3.5</speed>
<course>135.5</course>
<desc>Speed 3.5 km/h Distance 2.09 km</desc>
<time>2010-03-01T17:44:32.04</time>
<name>2502</name>
</trkpt>
<trkpt lat="48.943707" lon="8.665627">
<ele>334.5</ele>
<speed>3.6</speed>
<course>135.5</course>
<desc>Speed 3.6 km/h Distance 2.09 km</desc>
<time>2010-03-01T17:44:33.04</time>
<name>2503</name>
</trkpt>
<trkpt lat="48.943700" lon="8.665637">
<ele>334.5</ele>
<speed>3.8</speed>
<course>106.9</course>
<desc>Speed 3.8 km/h Distance 2.09 km</desc>
<time>2010-03-01T17:44:34.04</time>
<name>2504</name>
</trkpt>
<trkpt lat="48.943698" lon="8.665645">
<ele>334.0</ele>
<speed>2.4</speed>
<course>121.1</course>
<desc>Speed 2.4 km/h Distance 2.09 km</desc>
<time>2010-03-01T17:44:35.04</time>
<name>2505</name>
</trkpt>
<trkpt lat="48.943695" lon="8.665653">
<ele>334.0</ele>
<speed>2.9</speed>
<course>146.5</course>
<desc>Speed 2.9 km/h Distance 2.09 km</desc>
<time>2010-03-01T17:44:36.04</time>
<name>2506</name>
</trkpt>
<trkpt lat="48.943687" lon="8.665662">
<ele>334.0</ele>
<speed>4.1</speed>
<course>135.5</course>
<desc>Speed 4.1 km/h Distance 2.09 km</desc>
<time>2010-03-01T17:44:37.04</time>
<name>2507</name>
</trkpt>
<trkpt lat="48.943680" lon="8.665672">
<ele>334.0</ele>
<speed>3.9</speed>
<course>119.8</course>
<desc>Speed 3.9 km/h Distance 2.09 km</desc>
<time>2010-03-01T17:44:38.04</time>
<name>2508</name>
</trkpt>
<trkpt lat="48.943675" lon="8.665685">
<ele>334.5</ele>
<speed>4.4</speed>
<course>108.7</course>
<desc>Speed 4.4 km/h Distance 2.09 km</desc>
<time>2010-03-01T17:44:39.04</time>
<name>2509</name>
</trkpt>
<trkpt lat="48.943672" lon="8.665700">
<ele>334.5</ele>
<speed>4.2</speed>
<course>122.9</course>
<desc>Speed 4.2 km/h Distance 2.09 km</desc>
<time>2010-03-01T17:44:40.04</time>
<name>2510</name>
</trkpt>
<trkpt lat="48.943667" lon="8.665712">
<ele>335.0</ele>
<speed>3.7</speed>
<course>137.4</course>
<desc>Speed 3.7 km/h Distance 2.09 km</desc>
<time>2010-03-01T17:44:41.04</time>
<name>2511</name>
</trkpt>
<trkpt lat="48.943658" lon="8.665723">
<ele>335.0</ele>
<speed>4.9</speed>
<course>141.9</course>
<desc>Speed 4.9 km/h Distance 2.10 km</desc>
<time>2010-03-01T17:44:42.04</time>
<name>2512</name>
</trkpt>
<trkpt lat="48.943650" lon="8.665733">
<ele>335.0</ele>
<speed>4.5</speed>
<course>127.3</course>
<desc>Speed 4.5 km/h Distance 2.10 km</desc>
<time>2010-03-01T17:44:43.04</time>
<name>2513</name>
</trkpt>
<trkpt lat="48.943643" lon="8.665747">
<ele>335.0</ele>
<speed>4.8</speed>
<course>133.6</course>
<desc>Speed 4.8 km/h Distance 2.10 km</desc>
<time>2010-03-01T17:44:44.04</time>
<name>2514</name>
</trkpt>
<trkpt lat="48.943635" lon="8.665760">
<ele>335.5</ele>
<speed>4.5</speed>
<course>133.5</course>
<desc>Speed 4.5 km/h Distance 2.10 km</desc>
<time>2010-03-01T17:44:45.04</time>
<name>2515</name>
</trkpt>
<trkpt lat="48.943627" lon="8.665773">
<ele>335.0</ele>
<speed>5.0</speed>
<course>142.5</course>
<desc>Speed 5.0 km/h Distance 2.10 km</desc>
<time>2010-03-01T17:44:46.04</time>
<name>2516</name>
</trkpt>
<trkpt lat="48.943617" lon="8.665785">
<ele>335.0</ele>
<speed>4.4</speed>
<course>127.0</course>
<desc>Speed 4.4 km/h Distance 2.10 km</desc>
<time>2010-03-01T17:44:47.04</time>
<name>2517</name>
</trkpt>
<trkpt lat="48.943613" lon="8.665792">
<ele>335.0</ele>
<speed>1.4</speed>
<course>121.4</course>
<desc>Speed 1.4 km/h Distance 2.10 km</desc>
<time>2010-03-01T17:44:48.04</time>
<name>2518</name>
</trkpt>
<trkpt lat="48.943610" lon="8.665800">
<ele>335.0</ele>
<speed>1.5</speed>
<course>121.4</course>
<desc>Speed 1.5 km/h Distance 2.10 km</desc>
<time>2010-03-01T17:44:49.04</time>
<name>2519</name>
</trkpt>
<trkpt lat="48.943607" lon="8.665808">
<ele>335.5</ele>
<speed>2.2</speed>
<course>127.3</course>
<desc>Speed 2.2 km/h Distance 2.10 km</desc>
<time>2010-03-01T17:44:50.04</time>
<name>2520</name>
</trkpt>
<trkpt lat="48.943600" lon="8.665822">
<ele>335.5</ele>
<speed>3.0</speed>
<course>127.2</course>
<desc>Speed 3.0 km/h Distance 2.11 km</desc>
<time>2010-03-01T17:44:51.04</time>
<name>2521</name>
</trkpt>
<trkpt lat="48.943595" lon="8.665832">
<ele>335.5</ele>
<speed>2.8</speed>
<course>102.2</course>
<desc>Speed 2.8 km/h Distance 2.11 km</desc>
<time>2010-03-01T17:44:52.04</time>
<name>2522</name>
</trkpt>
<trkpt lat="48.943593" lon="8.665843">
<ele>335.5</ele>
<speed>2.9</speed>
<course>105.5</course>
<desc>Speed 2.9 km/h Distance 2.11 km</desc>
<time>2010-03-01T17:44:53.04</time>
<name>2523</name>
</trkpt>
<trkpt lat="48.943590" lon="8.665862">
<ele>335.5</ele>
<speed>4.2</speed>
<course>105.5</course>
<desc>Speed 4.2 km/h Distance 2.11 km</desc>
<time>2010-03-01T17:44:54.04</time>
<name>2524</name>
</trkpt>
<trkpt lat="48.943587" lon="8.665880">
<ele>335.5</ele>
<speed>4.6</speed>
<course>105.5</course>
<desc>Speed 4.6 km/h Distance 2.11 km</desc>
<time>2010-03-01T17:44:55.04</time>
<name>2525</name>
</trkpt>
<trkpt lat="48.943583" lon="8.665898">
<ele>335.5</ele>
<speed>4.5</speed>
<course>119.0</course>
<desc>Speed 4.5 km/h Distance 2.11 km</desc>
<time>2010-03-01T17:44:56.04</time>
<name>2526</name>
</trkpt>
<trkpt lat="48.943577" lon="8.665917">
<ele>335.5</ele>
<speed>4.8</speed>
<course>75.7</course>
<desc>Speed 4.8 km/h Distance 2.11 km</desc>
<time>2010-03-01T17:44:57.04</time>
<name>2527</name>
</trkpt>
<trkpt lat="48.943580" lon="8.665937">
<ele>336.5</ele>
<speed>5.5</speed>
<course>140.6</course>
<desc>Speed 5.5 km/h Distance 2.11 km</desc>
<time>2010-03-01T17:44:58.04</time>
<name>2528</name>
</trkpt>
<trkpt lat="48.943567" lon="8.665953">
<ele>337.0</ele>
<speed>7.0</speed>
<course>98.7</course>
<desc>Speed 7.0 km/h Distance 2.12 km</desc>
<time>2010-03-01T17:44:59.04</time>
<name>2529</name>
</trkpt>
<trkpt lat="48.943565" lon="8.665970">
<ele>337.0</ele>
<speed>4.5</speed>
<course>98.7</course>
<desc>Speed 4.5 km/h Distance 2.12 km</desc>
<time>2010-03-01T17:45:00.04</time>
<name>2530</name>
</trkpt>
<trkpt lat="48.943563" lon="8.665987">
<ele>337.0</ele>
<speed>4.0</speed>
<course>57.6</course>
<desc>Speed 4.0 km/h Distance 2.12 km</desc>
<time>2010-03-01T17:45:01.04</time>
<name>2531</name>
</trkpt>
<trkpt lat="48.943572" lon="8.666007">
<ele>338.5</ele>
<speed>6.3</speed>
<course>98.7</course>
<desc>Speed 6.3 km/h Distance 2.12 km</desc>
<time>2010-03-01T17:45:02.04</time>
<name>2532</name>
</trkpt>
<trkpt lat="48.943570" lon="8.666023">
<ele>338.5</ele>
<speed>3.9</speed>
<course>99.6</course>
<desc>Speed 3.9 km/h Distance 2.12 km</desc>
<time>2010-03-01T17:45:03.04</time>
<name>2533</name>
</trkpt>
<trkpt lat="48.943568" lon="8.666038">
<ele>338.5</ele>
<speed>3.7</speed>
<course>90.0</course>
<desc>Speed 3.7 km/h Distance 2.12 km</desc>
<time>2010-03-01T17:45:04.04</time>
<name>2534</name>
</trkpt>
<trkpt lat="48.943568" lon="8.666048">
<ele>338.5</ele>
<speed>2.4</speed>
<course>90.0</course>
<desc>Speed 2.4 km/h Distance 2.12 km</desc>
<time>2010-03-01T17:45:05.04</time>
<name>2535</name>
</trkpt>
<trkpt lat="48.943568" lon="8.666055">
<ele>339.0</ele>
<speed>1.6</speed>
<course>126.1</course>
<desc>Speed 1.6 km/h Distance 2.12 km</desc>
<time>2010-03-01T17:45:06.04</time>
<name>2536</name>
</trkpt>
<trkpt lat="48.943567" lon="8.666058">
<ele>339.0</ele>
<speed>1.2</speed>
<course>90.0</course>
<desc>Speed 1.2 km/h Distance 2.12 km</desc>
<time>2010-03-01T17:45:07.04</time>
<name>2537</name>
</trkpt>
<trkpt lat="48.943567" lon="8.666060">
<ele>339.0</ele>
<speed>0.6</speed>
<course>90.0</course>
<desc>Speed 0.6 km/h Distance 2.12 km</desc>
<time>2010-03-01T17:45:08.04</time>
<name>2538</name>
</trkpt>
<trkpt lat="48.943567" lon="8.666060">
<ele>339.0</ele>
<speed>0.3</speed>
<course>90.0</course>
<desc>Speed 0.3 km/h Distance 2.12 km</desc>
<time>2010-03-01T17:45:09.04</time>
<name>2539</name>
</trkpt>
<trkpt lat="48.943567" lon="8.666068">
<ele>339.0</ele>
<speed>1.4</speed>
<course>135.5</course>
<desc>Speed 1.4 km/h Distance 2.13 km</desc>
<time>2010-03-01T17:45:10.04</time>
<name>2540</name>
</trkpt>
<trkpt lat="48.943563" lon="8.666073">
<ele>339.0</ele>
<speed>1.3</speed>
<course>135.5</course>
<desc>Speed 1.3 km/h Distance 2.13 km</desc>
<time>2010-03-01T17:45:11.04</time>
<name>2541</name>
</trkpt>
<trkpt lat="48.943563" lon="8.666075">
<ele>339.5</ele>
<speed>0.4</speed>
<course>135.5</course>
<desc>Speed 0.4 km/h Distance 2.13 km</desc>
<time>2010-03-01T17:45:12.04</time>
<name>2542</name>
</trkpt>
<trkpt lat="48.943563" lon="8.666075">
<ele>339.5</ele>
<speed>0.3</speed>
<course>135.5</course>
<desc>Speed 0.3 km/h Distance 2.13 km</desc>
<time>2010-03-01T17:45:13.04</time>
<name>2543</name>
</trkpt>
<trkpt lat="48.943563" lon="8.666075">
<ele>339.5</ele>
<speed>0.1</speed>
<course>135.5</course>
<desc>Speed 0.1 km/h Distance 2.13 km</desc>
<time>2010-03-01T17:45:14.04</time>
<name>2544</name>
</trkpt>
<trkpt lat="48.943563" lon="8.666075">
<ele>339.5</ele>
<speed>0.4</speed>
<course>135.5</course>
<desc>Speed 0.4 km/h Distance 2.13 km</desc>
<time>2010-03-01T17:45:15.04</time>
<name>2545</name>
</trkpt>
<trkpt lat="48.943563" lon="8.666075">
<ele>339.5</ele>
<speed>0.1</speed>
<course>90.0</course>
<desc>Speed 0.1 km/h Distance 2.13 km</desc>
<time>2010-03-01T17:45:16.04</time>
<name>2546</name>
</trkpt>
<trkpt lat="48.943563" lon="8.666078">
<ele>339.5</ele>
<speed>0.8</speed>
<course>32.3</course>
<desc>Speed 0.8 km/h Distance 2.13 km</desc>
<time>2010-03-01T17:45:17.04</time>
<name>2547</name>
</trkpt>
<trkpt lat="48.943568" lon="8.666083">
<ele>340.0</ele>
<speed>2.8</speed>
<course>47.8</course>
<desc>Speed 2.8 km/h Distance 2.13 km</desc>
<time>2010-03-01T17:45:18.04</time>
<name>2548</name>
</trkpt>
<trkpt lat="48.943573" lon="8.666092">
<ele>340.0</ele>
<speed>3.4</speed>
<course>44.5</course>
<desc>Speed 3.4 km/h Distance 2.13 km</desc>
<time>2010-03-01T17:45:19.04</time>
<name>2549</name>
</trkpt>
<trkpt lat="48.943580" lon="8.666102">
<ele>340.0</ele>
<speed>3.4</speed>
<course>39.4</course>
<desc>Speed 3.4 km/h Distance 2.13 km</desc>
<time>2010-03-01T17:45:20.04</time>
<name>2550</name>
</trkpt>
<trkpt lat="48.943587" lon="8.666110">
<ele>340.0</ele>
<speed>3.9</speed>
<course>50.9</course>
<desc>Speed 3.9 km/h Distance 2.13 km</desc>
<time>2010-03-01T17:45:21.04</time>
<name>2551</name>
</trkpt>
<trkpt lat="48.943600" lon="8.666135">
<ele>340.5</ele>
<speed>4.6</speed>
<course>58.7</course>
<desc>Speed 4.6 km/h Distance 2.13 km</desc>
<time>2010-03-01T17:45:22.55</time>
<name>2552</name>
</trkpt>
<trkpt lat="48.943607" lon="8.666152">
<ele>340.5</ele>
<speed>5.0</speed>
<course>74.5</course>
<desc>Speed 5.0 km/h Distance 2.13 km</desc>
<time>2010-03-01T17:45:24.04</time>
<name>2553</name>
</trkpt>
<trkpt lat="48.943610" lon="8.666170">
<ele>340.5</ele>
<speed>4.6</speed>
<course>77.7</course>
<desc>Speed 4.6 km/h Distance 2.13 km</desc>
<time>2010-03-01T17:45:25.04</time>
<name>2554</name>
</trkpt>
<trkpt lat="48.943615" lon="8.666205">
<ele>341.0</ele>
<speed>4.7</speed>
<course>82.1</course>
<desc>Speed 4.7 km/h Distance 2.14 km</desc>
<time>2010-03-01T17:45:26.54</time>
<name>2555</name>
</trkpt>
<trkpt lat="48.943617" lon="8.666223">
<ele>341.0</ele>
<speed>5.1</speed>
<course>82.8</course>
<desc>Speed 5.1 km/h Distance 2.14 km</desc>
<time>2010-03-01T17:45:27.54</time>
<name>2556</name>
</trkpt>
<trkpt lat="48.943618" lon="8.666243">
<ele>341.0</ele>
<speed>5.4</speed>
<course>75.8</course>
<desc>Speed 5.4 km/h Distance 2.14 km</desc>
<time>2010-03-01T17:45:28.54</time>
<name>2557</name>
</trkpt>
<trkpt lat="48.943622" lon="8.666263">
<ele>341.0</ele>
<speed>4.9</speed>
<course>74.5</course>
<desc>Speed 4.9 km/h Distance 2.14 km</desc>
<time>2010-03-01T17:45:29.53</time>
<name>2558</name>
</trkpt>
<trkpt lat="48.943625" lon="8.666282">
<ele>341.0</ele>
<speed>5.0</speed>
<course>82.8</course>
<desc>Speed 5.0 km/h Distance 2.14 km</desc>
<time>2010-03-01T17:45:30.53</time>
<name>2559</name>
</trkpt>
<trkpt lat="48.943627" lon="8.666302">
<ele>341.0</ele>
<speed>4.9</speed>
<course>98.7</course>
<desc>Speed 4.9 km/h Distance 2.14 km</desc>
<time>2010-03-01T17:45:31.53</time>
<name>2560</name>
</trkpt>
<trkpt lat="48.943625" lon="8.666318">
<ele>341.0</ele>
<speed>4.6</speed>
<course>105.5</course>
<desc>Speed 4.6 km/h Distance 2.15 km</desc>
<time>2010-03-01T17:45:32.53</time>
<name>2561</name>
</trkpt>
<trkpt lat="48.943622" lon="8.666337">
<ele>341.0</ele>
<speed>5.0</speed>
<course>97.2</course>
<desc>Speed 5.0 km/h Distance 2.15 km</desc>
<time>2010-03-01T17:45:33.53</time>
<name>2562</name>
</trkpt>
<trkpt lat="48.943620" lon="8.666357">
<ele>341.5</ele>
<speed>5.1</speed>
<course>114.5</course>
<desc>Speed 5.1 km/h Distance 2.15 km</desc>
<time>2010-03-01T17:45:34.53</time>
<name>2563</name>
</trkpt>
<trkpt lat="48.943615" lon="8.666373">
<ele>341.5</ele>
<speed>5.0</speed>
<course>116.9</course>
<desc>Speed 5.0 km/h Distance 2.15 km</desc>
<time>2010-03-01T17:45:35.53</time>
<name>2564</name>
</trkpt>
<trkpt lat="48.943610" lon="8.666388">
<ele>341.5</ele>
<speed>4.6</speed>
<course>114.5</course>
<desc>Speed 4.6 km/h Distance 2.15 km</desc>
<time>2010-03-01T17:45:36.54</time>
<name>2565</name>
</trkpt>
<trkpt lat="48.943605" lon="8.666405">
<ele>341.5</ele>
<speed>4.7</speed>
<course>106.9</course>
<desc>Speed 4.7 km/h Distance 2.15 km</desc>
<time>2010-03-01T17:45:37.54</time>
<name>2566</name>
</trkpt>
<trkpt lat="48.943602" lon="8.666422">
<ele>341.5</ele>
<speed>4.5</speed>
<course>141.9</course>
<desc>Speed 4.5 km/h Distance 2.15 km</desc>
<time>2010-03-01T17:45:38.54</time>
<name>2567</name>
</trkpt>
<trkpt lat="48.943593" lon="8.666432">
<ele>343.0</ele>
<speed>4.2</speed>
<course>121.3</course>
<desc>Speed 4.2 km/h Distance 2.15 km</desc>
<time>2010-03-01T17:45:39.53</time>
<name>2568</name>
</trkpt>
<trkpt lat="48.943587" lon="8.666448">
<ele>342.5</ele>
<speed>5.6</speed>
<course>130.2</course>
<desc>Speed 5.6 km/h Distance 2.16 km</desc>
<time>2010-03-01T17:45:40.54</time>
<name>2569</name>
</trkpt>
<trkpt lat="48.943578" lon="8.666463">
<ele>342.5</ele>
<speed>5.0</speed>
<course>137.4</course>
<desc>Speed 5.0 km/h Distance 2.16 km</desc>
<time>2010-03-01T17:45:41.54</time>
<name>2570</name>
</trkpt>
<trkpt lat="48.943570" lon="8.666475">
<ele>342.0</ele>
<speed>4.5</speed>
<course>127.3</course>
<desc>Speed 4.5 km/h Distance 2.16 km</desc>
<time>2010-03-01T17:45:42.54</time>
<name>2571</name>
</trkpt>
<trkpt lat="48.943563" lon="8.666488">
<ele>341.5</ele>
<speed>4.6</speed>
<course>133.6</course>
<desc>Speed 4.6 km/h Distance 2.16 km</desc>
<time>2010-03-01T17:45:43.54</time>
<name>2572</name>
</trkpt>
<trkpt lat="48.943555" lon="8.666502">
<ele>341.5</ele>
<speed>4.4</speed>
<course>127.3</course>
<desc>Speed 4.4 km/h Distance 2.16 km</desc>
<time>2010-03-01T17:45:44.53</time>
<name>2573</name>
</trkpt>
<trkpt lat="48.943548" lon="8.666515">
<ele>341.5</ele>
<speed>4.5</speed>
<course>121.3</course>
<desc>Speed 4.5 km/h Distance 2.16 km</desc>
<time>2010-03-01T17:45:45.53</time>
<name>2574</name>
</trkpt>
<trkpt lat="48.943542" lon="8.666532">
<ele>341.0</ele>
<speed>4.9</speed>
<course>119.0</course>
<desc>Speed 4.9 km/h Distance 2.16 km</desc>
<time>2010-03-01T17:45:46.53</time>
<name>2575</name>
</trkpt>
<trkpt lat="48.943535" lon="8.666550">
<ele>341.0</ele>
<speed>5.5</speed>
<course>121.4</course>
<desc>Speed 5.5 km/h Distance 2.17 km</desc>
<time>2010-03-01T17:45:47.53</time>
<name>2576</name>
</trkpt>
<trkpt lat="48.943528" lon="8.666567">
<ele>341.0</ele>
<speed>5.3</speed>
<course>133.6</course>
<desc>Speed 5.3 km/h Distance 2.17 km</desc>
<time>2010-03-01T17:45:48.53</time>
<name>2577</name>
</trkpt>
<trkpt lat="48.943520" lon="8.666580">
<ele>341.0</ele>
<speed>5.2</speed>
<course>127.3</course>
<desc>Speed 5.2 km/h Distance 2.17 km</desc>
<time>2010-03-01T17:45:49.53</time>
<name>2578</name>
</trkpt>
<trkpt lat="48.943513" lon="8.666593">
<ele>341.0</ele>
<speed>4.0</speed>
<course>121.4</course>
<desc>Speed 4.0 km/h Distance 2.17 km</desc>
<time>2010-03-01T17:45:50.53</time>
<name>2579</name>
</trkpt>
<trkpt lat="48.943510" lon="8.666602">
<ele>340.5</ele>
<speed>2.5</speed>
<course>127.6</course>
<desc>Speed 2.5 km/h Distance 2.17 km</desc>
<time>2010-03-01T17:45:51.53</time>
<name>2580</name>
</trkpt>
<trkpt lat="48.943507" lon="8.666608">
<ele>340.5</ele>
<speed>2.6</speed>
<course>132.6</course>
<desc>Speed 2.6 km/h Distance 2.17 km</desc>
<time>2010-03-01T17:45:52.53</time>
<name>2581</name>
</trkpt>
<trkpt lat="48.943502" lon="8.666617">
<ele>340.5</ele>
<speed>3.3</speed>
<course>123.3</course>
<desc>Speed 3.3 km/h Distance 2.17 km</desc>
<time>2010-03-01T17:45:53.53</time>
<name>2582</name>
</trkpt>
<trkpt lat="48.943497" lon="8.666628">
<ele>340.5</ele>
<speed>3.5</speed>
<course>127.6</course>
<desc>Speed 3.5 km/h Distance 2.17 km</desc>
<time>2010-03-01T17:45:54.53</time>
<name>2583</name>
</trkpt>
<trkpt lat="48.943492" lon="8.666638">
<ele>340.5</ele>
<speed>2.9</speed>
<course>99.6</course>
<desc>Speed 2.9 km/h Distance 2.17 km</desc>
<time>2010-03-01T17:45:55.53</time>
<name>2584</name>
</trkpt>
<trkpt lat="48.943490" lon="8.666653">
<ele>340.5</ele>
<speed>4.1</speed>
<course>137.8</course>
<desc>Speed 4.1 km/h Distance 2.17 km</desc>
<time>2010-03-01T17:45:56.55</time>
<name>2585</name>
</trkpt>
<trkpt lat="48.943477" lon="8.666672">
<ele>340.5</ele>
<speed>4.1</speed>
<course>140.6</course>
<desc>Speed 4.1 km/h Distance 2.18 km</desc>
<time>2010-03-01T17:45:58.53</time>
<name>2586</name>
</trkpt>
<trkpt lat="48.943470" lon="8.666680">
<ele>340.5</ele>
<speed>4.1</speed>
<course>138.6</course>
<desc>Speed 4.1 km/h Distance 2.18 km</desc>
<time>2010-03-01T17:45:59.52</time>
<name>2587</name>
</trkpt>
<trkpt lat="48.943460" lon="8.666693">
<ele>340.5</ele>
<speed>4.4</speed>
<course>122.9</course>
<desc>Speed 4.4 km/h Distance 2.18 km</desc>
<time>2010-03-01T17:46:00.52</time>
<name>2588</name>
</trkpt>
<trkpt lat="48.943455" lon="8.666705">
<ele>340.5</ele>
<speed>4.4</speed>
<course>132.2</course>
<desc>Speed 4.4 km/h Distance 2.18 km</desc>
<time>2010-03-01T17:46:01.52</time>
<name>2589</name>
</trkpt>
<trkpt lat="48.943450" lon="8.666713">
<ele>340.5</ele>
<speed>4.4</speed>
<course>127.0</course>
<desc>Speed 4.4 km/h Distance 2.18 km</desc>
<time>2010-03-01T17:46:02.52</time>
<name>2590</name>
</trkpt>
<trkpt lat="48.943447" lon="8.666720">
<ele>340.5</ele>
<speed>4.4</speed>
<course>127.0</course>
<desc>Speed 4.4 km/h Distance 2.18 km</desc>
<time>2010-03-01T17:46:03.52</time>
<name>2591</name>
</trkpt>
<trkpt lat="48.943443" lon="8.666727">
<ele>340.5</ele>
<speed>4.4</speed>
<course>127.0</course>
<desc>Speed 4.4 km/h Distance 2.18 km</desc>
<time>2010-03-01T17:46:04.51</time>
<name>2592</name>
</trkpt>
</trkseg>
</trk>
</gpx>
